Wetterdaten: Donnerstag, 22.06.2017
Datum Zeit Temp. A. Temp. A. max Feuchte A. Luftdruck Regen Wind Richtung Richtung Sonnenschein ET UV Solar Taupunkt Windchill Windböen
22.06.2017 00:00 18,0 °C 18,1 °C 80 % 1013,3 hPa 0,0 mm 0,0 km/h (0 Bft) S-SO 156 ° 0 min 0,000 mm 0,0 UV-I 0 W/m² 14,5 °C 18,0 °C 0,0 km/h (0 Bft)
22.06.2017 00:01 18,0 °C 18,0 °C 80 % 1013,3 hPa 0,0 mm 0,0 km/h (0 Bft) S-SO 156 ° 0 min 0,000 mm 0,0 UV-I 0 W/m² 14,5 °C 18,0 °C 0,0 km/h (0 Bft)
22.06.2017 00:02 17,9 °C 18,0 °C 80 % 1013,3 hPa 0,0 mm 0,0 km/h (0 Bft) S-SO 156 ° 0 min 0,000 mm 0,0 UV-I 0 W/m² 14,4 °C 17,9 °C 0,0 km/h (0 Bft)
22.06.2017 00:03 17,9 °C 17,9 °C 80 % 1013,3 hPa 0,0 mm 1,3 km/h (1 Bft) NW 305 ° 0 min 0,000 mm 0,0 UV-I 0 W/m² 14,4 °C 17,9 °C 4,8 km/h (1 Bft)
22.06.2017 00:04 17,8 °C 17,9 °C 81 % 1013,4 hPa 0,0 mm 0,9 km/h (0 Bft) NW 305 ° 0 min 0,000 mm 0,0 UV-I 0 W/m² 14,5 °C 17,8 °C 1,6 km/h (1 Bft)
22.06.2017 00:05 17,7 °C 17,8 °C 81 % 1013,3 hPa 0,0 mm 0,0 km/h (0 Bft) NW 305 ° 0 min 0,000 mm 0,0 UV-I 0 W/m² 14,4 °C 17,7 °C 0,0 km/h (0 Bft)
22.06.2017 00:06 17,6 °C 17,7 °C 81 % 1013,3 hPa 0,0 mm 0,0 km/h (0 Bft) NW 305 ° 0 min 0,000 mm 0,0 UV-I 0 W/m² 14,3 °C 17,6 °C 0,0 km/h (0 Bft)
22.06.2017 00:07 17,6 °C 17,6 °C 82 % 1013,4 hPa 0,0 mm 0,0 km/h (0 Bft) NW 305 ° 0 min 0,000 mm 0,0 UV-I 0 W/m² 14,5 °C 17,6 °C 0,0 km/h (0 Bft)
22.06.2017 00:08 17,5 °C 17,6 °C 82 % 1013,4 hPa 0,0 mm 0,0 km/h (0 Bft) NW 305 ° 0 min 0,000 mm 0,0 UV-I 0 W/m² 14,4 °C 17,5 °C 0,0 km/h (0 Bft)
22.06.2017 00:09 17,5 °C 17,5 °C 82 % 1013,4 hPa 0,0 mm 0,0 km/h (0 Bft) NW 305 ° 0 min 0,000 mm 0,0 UV-I 0 W/m² 14,4 °C 17,5 °C 0,0 km/h (0 Bft)
22.06.2017 00:10 17,4 °C 17,5 °C 82 % 1013,4 hPa 0,0 mm 0,0 km/h (0 Bft) NW 305 ° 0 min 0,000 mm 0,0 UV-I 0 W/m² 14,3 °C 17,4 °C 0,0 km/h (0 Bft)
22.06.2017 00:11 17,4 °C 17,4 °C 82 % 1013,4 hPa 0,0 mm 0,0 km/h (0 Bft) NW 305 ° 0 min 0,000 mm 0,0 UV-I 0 W/m² 14,3 °C 17,4 °C 0,0 km/h (0 Bft)
22.06.2017 00:12 17,3 °C 17,4 °C 83 % 1013,3 hPa 0,0 mm 0,0 km/h (0 Bft) NW 305 ° 0 min 0,000 mm 0,0 UV-I 0 W/m² 14,4 °C 17,3 °C 0,0 km/h (0 Bft)
22.06.2017 00:13 17,3 °C 17,3 °C 83 % 1013,3 hPa 0,0 mm 0,0 km/h (0 Bft) NW 305 ° 0 min 0,000 mm 0,0 UV-I 0 W/m² 14,4 °C 17,3 °C 0,0 km/h (0 Bft)
22.06.2017 00:14 17,3 °C 17,3 °C 83 % 1013,3 hPa 0,0 mm 0,0 km/h (0 Bft) NW 305 ° 0 min 0,000 mm 0,0 UV-I 0 W/m² 14,4 °C 17,3 °C 0,0 km/h (0 Bft)
22.06.2017 00:15 17,3 °C 17,3 °C 83 % 1013,4 hPa 0,0 mm 0,0 km/h (0 Bft) NW 305 ° 0 min 0,000 mm 0,0 UV-I 0 W/m² 14,4 °C 17,3 °C 0,0 km/h (0 Bft)
22.06.2017 00:16 17,2 °C 17,3 °C 83 % 1013,4 hPa 0,0 mm 0,0 km/h (0 Bft) NW 305 ° 0 min 0,000 mm 0,0 UV-I 0 W/m² 14,3 °C 17,2 °C 0,0 km/h (0 Bft)
22.06.2017 00:17 17,1 °C 17,2 °C 83 % 1013,4 hPa 0,0 mm 0,0 km/h (0 Bft) NW 305 ° 0 min 0,000 mm 0,0 UV-I 0 W/m² 14,2 °C 17,1 °C 0,0 km/h (0 Bft)
22.06.2017 00:18 17,1 °C 17,2 °C 84 % 1013,4 hPa 0,0 mm 0,0 km/h (0 Bft) NW 305 ° 0 min 0,000 mm 0,0 UV-I 0 W/m² 14,4 °C 17,1 °C 0,0 km/h (0 Bft)
22.06.2017 00:19 17,1 °C 17,1 °C 84 % 1013,4 hPa 0,0 mm 0,0 km/h (0 Bft) NW 305 ° 0 min 0,000 mm 0,0 UV-I 0 W/m² 14,4 °C 17,1 °C 0,0 km/h (0 Bft)
22.06.2017 00:20 17,1 °C 17,1 °C 84 % 1013,5 hPa 0,0 mm 0,0 km/h (0 Bft) NW 305 ° 0 min 0,000 mm 0,0 UV-I 0 W/m² 14,4 °C 17,1 °C 0,0 km/h (0 Bft)
22.06.2017 00:21 17,0 °C 17,1 °C 84 % 1013,4 hPa 0,0 mm 0,0 km/h (0 Bft) NW 305 ° 0 min 0,000 mm 0,0 UV-I 0 W/m² 14,3 °C 17,0 °C 0,0 km/h (0 Bft)
22.06.2017 00:22 17,0 °C 17,1 °C 84 % 1013,5 hPa 0,0 mm 0,0 km/h (0 Bft) NW 305 ° 0 min 0,000 mm 0,0 UV-I 0 W/m² 14,3 °C 17,0 °C 0,0 km/h (0 Bft)
22.06.2017 00:23 17,0 °C 17,1 °C 84 % 1013,5 hPa 0,0 mm 0,0 km/h (0 Bft) NW 305 ° 0 min 0,000 mm 0,0 UV-I 0 W/m² 14,3 °C 17,0 °C 0,0 km/h (0 Bft)
22.06.2017 00:24 16,9 °C 17,1 °C 84 % 1013,5 hPa 0,0 mm 0,0 km/h (0 Bft) NW 305 ° 0 min 0,000 mm 0,0 UV-I 0 W/m² 14,2 °C 16,9 °C 0,0 km/h (0 Bft)
22.06.2017 00:25 16,9 °C 16,9 °C 84 % 1013,5 hPa 0,0 mm 0,0 km/h (0 Bft) NW 305 ° 0 min 0,000 mm 0,0 UV-I 0 W/m² 14,2 °C 16,9 °C 0,0 km/h (0 Bft)
22.06.2017 00:26 16,9 °C 16,9 °C 84 % 1013,6 hPa 0,0 mm 0,0 km/h (0 Bft) NW 305 ° 0 min 0,000 mm 0,0 UV-I 0 W/m² 14,2 °C 16,9 °C 0,0 km/h (0 Bft)
22.06.2017 00:27 16,9 °C 16,9 °C 85 % 1013,6 hPa 0,0 mm 0,0 km/h (0 Bft) NW 305 ° 0 min 0,000 mm 0,0 UV-I 0 W/m² 14,4 °C 16,9 °C 0,0 km/h (0 Bft)
22.06.2017 00:28 16,9 °C 16,9 °C 85 % 1013,5 hPa 0,0 mm 0,0 km/h (0 Bft) NW 305 ° 0 min 0,000 mm 0,0 UV-I 0 W/m² 14,4 °C 16,9 °C 0,0 km/h (0 Bft)
22.06.2017 00:29 16,9 °C 16,9 °C 85 % 1013,5 hPa 0,0 mm 1,5 km/h (1 Bft) NW 305 ° 0 min 0,000 mm 0,0 UV-I 0 W/m² 14,4 °C 16,9 °C 3,2 km/h (1 Bft)
22.06.2017 00:30 17,0 °C 17,0 °C 85 % 1013,5 hPa 0,0 mm 1,1 km/h (1 Bft) NW 305 ° 0 min 0,000 mm 0,0 UV-I 0 W/m² 14,5 °C 17,0 °C 1,6 km/h (1 Bft)
22.06.2017 00:31 17,1 °C 17,1 °C 84 % 1013,6 hPa 0,0 mm 1,1 km/h (1 Bft) NW 305 ° 0 min 0,000 mm 0,0 UV-I 0 W/m² 14,4 °C 17,1 °C 1,6 km/h (1 Bft)
22.06.2017 00:32 17,2 °C 17,2 °C 84 % 1013,6 hPa 0,0 mm 0,2 km/h (0 Bft) NW 305 ° 0 min 0,000 mm 0,0 UV-I 0 W/m² 14,5 °C 17,2 °C 1,6 km/h (1 Bft)
22.06.2017 00:33 17,2 °C 17,2 °C 83 % 1013,6 hPa 0,0 mm 0,0 km/h (0 Bft) NW 305 ° 0 min 0,000 mm 0,0 UV-I 0 W/m² 14,3 °C 17,2 °C 0,0 km/h (0 Bft)
22.06.2017 00:34 17,2 °C 17,2 °C 83 % 1013,6 hPa 0,0 mm 0,0 km/h (0 Bft) NW 305 ° 0 min 0,000 mm 0,0 UV-I 0 W/m² 14,3 °C 17,2 °C 0,0 km/h (0 Bft)
22.06.2017 00:35 17,3 °C 17,3 °C 82 % 1013,6 hPa 0,0 mm 0,0 km/h (0 Bft) NW 305 ° 0 min 0,000 mm 0,0 UV-I 0 W/m² 14,2 °C 17,3 °C 0,0 km/h (0 Bft)
22.06.2017 00:36 17,3 °C 17,3 °C 82 % 1013,6 hPa 0,0 mm 0,1 km/h (0 Bft) NW 305 ° 0 min 0,000 mm 0,0 UV-I 0 W/m² 14,2 °C 17,3 °C 1,6 km/h (1 Bft)
22.06.2017 00:37 17,2 °C 17,3 °C 82 % 1013,6 hPa 0,0 mm 2,5 km/h (1 Bft) NW 305 ° 0 min 0,000 mm 0,0 UV-I 0 W/m² 14,1 °C 17,2 °C 3,2 km/h (1 Bft)
22.06.2017 00:38 17,1 °C 17,2 °C 84 % 1013,7 hPa 0,0 mm 1,1 km/h (1 Bft) NW 305 ° 0 min 0,000 mm 0,0 UV-I 0 W/m² 14,4 °C 17,1 °C 3,2 km/h (1 Bft)
22.06.2017 00:39 16,9 °C 17,1 °C 84 % 1013,7 hPa 0,0 mm 0,0 km/h (0 Bft) NW 305 ° 0 min 0,000 mm 0,0 UV-I 0 W/m² 14,2 °C 16,9 °C 0,0 km/h (0 Bft)
22.06.2017 00:40 16,8 °C 16,9 °C 85 % 1013,7 hPa 0,0 mm 0,0 km/h (0 Bft) NW 305 ° 0 min 0,000 mm 0,0 UV-I 0 W/m² 14,3 °C 16,8 °C 0,0 km/h (0 Bft)
22.06.2017 00:41 16,8 °C 16,8 °C 85 % 1013,7 hPa 0,0 mm 0,0 km/h (0 Bft) NW 305 ° 0 min 0,000 mm 0,0 UV-I 0 W/m² 14,3 °C 16,8 °C 0,0 km/h (0 Bft)
22.06.2017 00:42 16,8 °C 16,8 °C 85 % 1013,7 hPa 0,0 mm 0,0 km/h (0 Bft) NW 305 ° 0 min 0,000 mm 0,0 UV-I 0 W/m² 14,3 °C 16,8 °C 0,0 km/h (0 Bft)
22.06.2017 00:43 16,8 °C 16,8 °C 85 % 1013,7 hPa 0,0 mm 0,0 km/h (0 Bft) NW 305 ° 0 min 0,000 mm 0,0 UV-I 0 W/m² 14,3 °C 16,8 °C 0,0 km/h (0 Bft)
22.06.2017 00:44 16,9 °C 16,9 °C 84 % 1013,7 hPa 0,0 mm 0,0 km/h (0 Bft) NW 305 ° 0 min 0,000 mm 0,0 UV-I 0 W/m² 14,2 °C 16,9 °C 0,0 km/h (0 Bft)
22.06.2017 00:45 17,0 °C 17,0 °C 84 % 1013,7 hPa 0,0 mm 0,0 km/h (0 Bft) NW 305 ° 0 min 0,000 mm 0,0 UV-I 0 W/m² 14,3 °C 17,0 °C 0,0 km/h (0 Bft)
22.06.2017 00:46 17,1 °C 17,1 °C 83 % 1013,7 hPa 0,0 mm 0,0 km/h (0 Bft) NW 305 ° 0 min 0,000 mm 0,0 UV-I 0 W/m² 14,2 °C 17,1 °C 0,0 km/h (0 Bft)
22.06.2017 00:47 17,1 °C 17,1 °C 83 % 1013,7 hPa 0,0 mm 0,0 km/h (0 Bft) NW 305 ° 0 min 0,000 mm 0,0 UV-I 0 W/m² 14,2 °C 17,1 °C 0,0 km/h (0 Bft)
22.06.2017 00:48 17,2 °C 17,2 °C 83 % 1013,7 hPa 0,0 mm 0,0 km/h (0 Bft) NW 305 ° 0 min 0,000 mm 0,0 UV-I 0 W/m² 14,3 °C 17,2 °C 0,0 km/h (0 Bft)
22.06.2017 00:49 17,1 °C 17,2 °C 83 % 1013,7 hPa 0,0 mm 0,0 km/h (0 Bft) NW 305 ° 0 min 0,000 mm 0,0 UV-I 0 W/m² 14,2 °C 17,1 °C 0,0 km/h (0 Bft)
22.06.2017 00:50 17,2 °C 17,2 °C 83 % 1013,7 hPa 0,0 mm 0,0 km/h (0 Bft) NW 305 ° 0 min 0,000 mm 0,0 UV-I 0 W/m² 14,3 °C 17,2 °C 0,0 km/h (0 Bft)
22.06.2017 00:51 17,2 °C 17,2 °C 82 % 1013,7 hPa 0,0 mm 0,0 km/h (0 Bft) NW 305 ° 0 min 0,000 mm 0,0 UV-I 0 W/m² 14,1 °C 17,2 °C 0,0 km/h (0 Bft)
22.06.2017 00:52 17,2 °C 17,2 °C 83 % 1013,7 hPa 0,0 mm 0,0 km/h (0 Bft) NW 305 ° 0 min 0,000 mm 0,0 UV-I 0 W/m² 14,3 °C 17,2 °C 0,0 km/h (0 Bft)
22.06.2017 00:53 17,3 °C 17,3 °C 82 % 1013,6 hPa 0,0 mm 0,0 km/h (0 Bft) NW 305 ° 0 min 0,000 mm 0,0 UV-I 0 W/m² 14,2 °C 17,3 °C 0,0 km/h (0 Bft)
22.06.2017 00:54 17,3 °C 17,3 °C 82 % 1013,6 hPa 0,0 mm 0,0 km/h (0 Bft) NW 305 ° 0 min 0,000 mm 0,0 UV-I 0 W/m² 14,2 °C 17,3 °C 0,0 km/h (0 Bft)
22.06.2017 00:55 17,3 °C 17,3 °C 82 % 1013,6 hPa 0,0 mm 2,1 km/h (1 Bft) W 277 ° 0 min 0,000 mm 0,0 UV-I 0 W/m² 14,2 °C 17,3 °C 3,2 km/h (1 Bft)
22.06.2017 00:56 17,3 °C 17,3 °C 82 % 1013,6 hPa 0,0 mm 2,7 km/h (1 Bft) W 277 ° 0 min 0,000 mm 0,0 UV-I 0 W/m² 14,2 °C 17,3 °C 4,8 km/h (1 Bft)
22.06.2017 00:57 17,2 °C 17,3 °C 82 % 1013,6 hPa 0,0 mm 2,4 km/h (1 Bft) W 277 ° 0 min 0,000 mm 0,0 UV-I 0 W/m² 14,1 °C 17,2 °C 4,8 km/h (1 Bft)
22.06.2017 00:58 17,2 °C 17,2 °C 82 % 1013,6 hPa 0,0 mm 2,6 km/h (1 Bft) W 277 ° 0 min 0,000 mm 0,0 UV-I 0 W/m² 14,1 °C 17,2 °C 3,2 km/h (1 Bft)
22.06.2017 00:59 17,1 °C 17,2 °C 83 % 1013,6 hPa 0,0 mm 0,6 km/h (0 Bft) W 277 ° 0 min 0,000 mm 0,0 UV-I 0 W/m² 14,2 °C 17,1 °C 1,6 km/h (1 Bft)
22.06.2017 01:00 17,1 °C 17,1 °C 83 % 1013,6 hPa 0,0 mm 2,2 km/h (1 Bft) W 277 ° 0 min 0,025 mm 0,0 UV-I 0 W/m² 14,2 °C 17,1 °C 4,8 km/h (1 Bft)
22.06.2017 01:01 17,1 °C 17,1 °C 83 % 1013,6 hPa 0,0 mm 0,6 km/h (0 Bft) W 277 ° 0 min 0,000 mm 0,0 UV-I 0 W/m² 14,2 °C 17,1 °C 3,2 km/h (1 Bft)
22.06.2017 01:02 17,1 °C 17,1 °C 83 % 1013,6 hPa 0,0 mm 0,0 km/h (0 Bft) W 277 ° 0 min 0,000 mm 0,0 UV-I 0 W/m² 14,2 °C 17,1 °C 0,0 km/h (0 Bft)
22.06.2017 01:03 17,2 °C 17,2 °C 83 % 1013,7 hPa 0,0 mm 0,1 km/h (0 Bft) W 277 ° 0 min 0,000 mm 0,0 UV-I 0 W/m² 14,3 °C 17,2 °C 1,6 km/h (1 Bft)
22.06.2017 01:04 17,1 °C 17,2 °C 83 % 1013,6 hPa 0,0 mm 0,0 km/h (0 Bft) W 277 ° 0 min 0,000 mm 0,0 UV-I 0 W/m² 14,2 °C 17,1 °C 0,0 km/h (0 Bft)
22.06.2017 01:05 17,1 °C 17,1 °C 83 % 1013,7 hPa 0,0 mm 0,0 km/h (0 Bft) W 277 ° 0 min 0,000 mm 0,0 UV-I 0 W/m² 14,2 °C 17,1 °C 0,0 km/h (0 Bft)
22.06.2017 01:06 16,9 °C 17,1 °C 83 % 1013,7 hPa 0,0 mm 0,0 km/h (0 Bft) W 277 ° 0 min 0,000 mm 0,0 UV-I 0 W/m² 14,0 °C 16,9 °C 0,0 km/h (0 Bft)
22.06.2017 01:07 16,9 °C 16,9 °C 84 % 1013,7 hPa 0,0 mm 0,0 km/h (0 Bft) W 277 ° 0 min 0,000 mm 0,0 UV-I 0 W/m² 14,2 °C 16,9 °C 0,0 km/h (0 Bft)
22.06.2017 01:08 16,8 °C 16,9 °C 84 % 1013,7 hPa 0,0 mm 0,0 km/h (0 Bft) W 277 ° 0 min 0,000 mm 0,0 UV-I 0 W/m² 14,1 °C 16,8 °C 0,0 km/h (0 Bft)
22.06.2017 01:09 16,7 °C 16,8 °C 84 % 1013,6 hPa 0,0 mm 0,0 km/h (0 Bft) W 277 ° 0 min 0,000 mm 0,0 UV-I 0 W/m² 14,0 °C 16,7 °C 0,0 km/h (0 Bft)
22.06.2017 01:10 16,7 °C 16,7 °C 84 % 1013,7 hPa 0,0 mm 0,0 km/h (0 Bft) W 277 ° 0 min 0,000 mm 0,0 UV-I 0 W/m² 14,0 °C 16,7 °C 0,0 km/h (0 Bft)
22.06.2017 01:11 16,8 °C 16,8 °C 84 % 1013,7 hPa 0,0 mm 0,0 km/h (0 Bft) W 277 ° 0 min 0,000 mm 0,0 UV-I 0 W/m² 14,1 °C 16,8 °C 0,0 km/h (0 Bft)
22.06.2017 01:12 16,8 °C 16,8 °C 84 % 1013,6 hPa 0,0 mm 0,0 km/h (0 Bft) W 277 ° 0 min 0,000 mm 0,0 UV-I 0 W/m² 14,1 °C 16,8 °C 0,0 km/h (0 Bft)
22.06.2017 01:13 16,8 °C 16,8 °C 84 % 1013,6 hPa 0,0 mm 0,0 km/h (0 Bft) W 277 ° 0 min 0,000 mm 0,0 UV-I 0 W/m² 14,1 °C 16,8 °C 0,0 km/h (0 Bft)
22.06.2017 01:14 16,8 °C 16,8 °C 84 % 1013,6 hPa 0,0 mm 0,0 km/h (0 Bft) W 277 ° 0 min 0,000 mm 0,0 UV-I 0 W/m² 14,1 °C 16,8 °C 0,0 km/h (0 Bft)
22.06.2017 01:15 16,8 °C 16,8 °C 84 % 1013,7 hPa 0,0 mm 0,0 km/h (0 Bft) W 277 ° 0 min 0,000 mm 0,0 UV-I 0 W/m² 14,1 °C 16,8 °C 0,0 km/h (0 Bft)
22.06.2017 01:16 16,8 °C 16,8 °C 84 % 1013,7 hPa 0,0 mm 0,0 km/h (0 Bft) W 277 ° 0 min 0,000 mm 0,0 UV-I 0 W/m² 14,1 °C 16,8 °C 0,0 km/h (0 Bft)
22.06.2017 01:17 16,8 °C 16,8 °C 84 % 1013,7 hPa 0,0 mm 0,0 km/h (0 Bft) W 277 ° 0 min 0,000 mm 0,0 UV-I 0 W/m² 14,1 °C 16,8 °C 0,0 km/h (0 Bft)
22.06.2017 01:18 16,8 °C 16,9 °C 84 % 1013,7 hPa 0,0 mm 0,0 km/h (0 Bft) W 277 ° 0 min 0,000 mm 0,0 UV-I 0 W/m² 14,1 °C 16,8 °C 0,0 km/h (0 Bft)
22.06.2017 01:19 16,8 °C 16,9 °C 84 % 1013,7 hPa 0,0 mm 0,0 km/h (0 Bft) W 277 ° 0 min 0,000 mm 0,0 UV-I 0 W/m² 14,1 °C 16,8 °C 0,0 km/h (0 Bft)
22.06.2017 01:20 16,9 °C 16,9 °C 84 % 1013,6 hPa 0,0 mm 0,0 km/h (0 Bft) W 277 ° 0 min 0,000 mm 0,0 UV-I 0 W/m² 14,2 °C 16,9 °C 0,0 km/h (0 Bft)
22.06.2017 01:21 16,8 °C 16,9 °C 84 % 1013,6 hPa 0,0 mm 0,0 km/h (0 Bft) W 277 ° 0 min 0,000 mm 0,0 UV-I 0 W/m² 14,1 °C 16,8 °C 0,0 km/h (0 Bft)
22.06.2017 01:22 16,8 °C 16,9 °C 84 % 1013,6 hPa 0,0 mm 0,0 km/h (0 Bft) W 277 ° 0 min 0,000 mm 0,0 UV-I 0 W/m² 14,1 °C 16,8 °C 0,0 km/h (0 Bft)
22.06.2017 01:23 16,8 °C 16,9 °C 84 % 1013,6 hPa 0,0 mm 0,0 km/h (0 Bft) W 277 ° 0 min 0,000 mm 0,0 UV-I 0 W/m² 14,1 °C 16,8 °C 0,0 km/h (0 Bft)
22.06.2017 01:24 16,8 °C 16,8 °C 84 % 1013,7 hPa 0,0 mm 0,0 km/h (0 Bft) W 277 ° 0 min 0,000 mm 0,0 UV-I 0 W/m² 14,1 °C 16,8 °C 0,0 km/h (0 Bft)
22.06.2017 01:25 16,8 °C 16,8 °C 84 % 1013,7 hPa 0,0 mm 0,0 km/h (0 Bft) W 277 ° 0 min 0,000 mm 0,0 UV-I 0 W/m² 14,1 °C 16,8 °C 0,0 km/h (0 Bft)
22.06.2017 01:26 16,7 °C 16,8 °C 84 % 1013,6 hPa 0,0 mm 0,0 km/h (0 Bft) W 277 ° 0 min 0,000 mm 0,0 UV-I 0 W/m² 14,0 °C 16,7 °C 0,0 km/h (0 Bft)
22.06.2017 01:27 16,7 °C 16,7 °C 84 % 1013,6 hPa 0,0 mm 0,0 km/h (0 Bft) W 277 ° 0 min 0,000 mm 0,0 UV-I 0 W/m² 14,0 °C 16,7 °C 0,0 km/h (0 Bft)
22.06.2017 01:28 16,7 °C 16,7 °C 84 % 1013,7 hPa 0,0 mm 0,0 km/h (0 Bft) W 277 ° 0 min 0,000 mm 0,0 UV-I 0 W/m² 14,0 °C 16,7 °C 0,0 km/h (0 Bft)
22.06.2017 01:29 16,6 °C 16,7 °C 84 % 1013,7 hPa 0,0 mm 0,0 km/h (0 Bft) W 277 ° 0 min 0,000 mm 0,0 UV-I 0 W/m² 13,9 °C 16,6 °C 0,0 km/h (0 Bft)
22.06.2017 01:30 16,6 °C 16,7 °C 84 % 1013,6 hPa 0,0 mm 0,0 km/h (0 Bft) W 277 ° 0 min 0,000 mm 0,0 UV-I 0 W/m² 13,9 °C 16,6 °C 0,0 km/h (0 Bft)
22.06.2017 01:31 16,7 °C 16,7 °C 84 % 1013,6 hPa 0,0 mm 0,0 km/h (0 Bft) W 277 ° 0 min 0,000 mm 0,0 UV-I 0 W/m² 14,0 °C 16,7 °C 0,0 km/h (0 Bft)
22.06.2017 01:32 16,7 °C 16,7 °C 84 % 1013,6 hPa 0,0 mm 0,0 km/h (0 Bft) W 277 ° 0 min 0,000 mm 0,0 UV-I 0 W/m² 14,0 °C 16,7 °C 0,0 km/h (0 Bft)
22.06.2017 01:33 16,7 °C 16,7 °C 84 % 1013,7 hPa 0,0 mm 0,0 km/h (0 Bft) W 277 ° 0 min 0,000 mm 0,0 UV-I 0 W/m² 14,0 °C 16,7 °C 0,0 km/h (0 Bft)
22.06.2017 01:34 16,6 °C 16,7 °C 84 % 1013,7 hPa 0,0 mm 0,0 km/h (0 Bft) W 277 ° 0 min 0,000 mm 0,0 UV-I 0 W/m² 13,9 °C 16,6 °C 0,0 km/h (0 Bft)
22.06.2017 01:35 16,6 °C 16,7 °C 84 % 1013,7 hPa 0,0 mm 0,0 km/h (0 Bft) W 277 ° 0 min 0,000 mm 0,0 UV-I 0 W/m² 13,9 °C 16,6 °C 0,0 km/h (0 Bft)
22.06.2017 01:36 16,6 °C 16,6 °C 84 % 1013,6 hPa 0,0 mm 0,0 km/h (0 Bft) W 277 ° 0 min 0,000 mm 0,0 UV-I 0 W/m² 13,9 °C 16,6 °C 0,0 km/h (0 Bft)
22.06.2017 01:37 16,5 °C 16,6 °C 85 % 1013,6 hPa 0,0 mm 0,0 km/h (0 Bft) W 277 ° 0 min 0,000 mm 0,0 UV-I 0 W/m² 14,0 °C 16,5 °C 0,0 km/h (0 Bft)
22.06.2017 01:38 16,4 °C 16,5 °C 85 % 1013,6 hPa 0,0 mm 0,0 km/h (0 Bft) W 277 ° 0 min 0,000 mm 0,0 UV-I 0 W/m² 13,9 °C 16,4 °C 0,0 km/h (0 Bft)
22.06.2017 01:39 16,4 °C 16,4 °C 85 % 1013,6 hPa 0,0 mm 0,0 km/h (0 Bft) W 277 ° 0 min 0,000 mm 0,0 UV-I 0 W/m² 13,9 °C 16,4 °C 0,0 km/h (0 Bft)
22.06.2017 01:40 16,4 °C 16,4 °C 85 % 1013,6 hPa 0,0 mm 0,0 km/h (0 Bft) W 277 ° 0 min 0,000 mm 0,0 UV-I 0 W/m² 13,9 °C 16,4 °C 0,0 km/h (0 Bft)
22.06.2017 01:41 16,4 °C 16,4 °C 85 % 1013,6 hPa 0,0 mm 0,0 km/h (0 Bft) W 277 ° 0 min 0,000 mm 0,0 UV-I 0 W/m² 13,9 °C 16,4 °C 0,0 km/h (0 Bft)
22.06.2017 01:42 16,4 °C 16,4 °C 85 % 1013,6 hPa 0,0 mm 0,0 km/h (0 Bft) W 277 ° 0 min 0,000 mm 0,0 UV-I 0 W/m² 13,9 °C 16,4 °C 0,0 km/h (0 Bft)
22.06.2017 01:43 16,3 °C 16,4 °C 85 % 1013,6 hPa 0,0 mm 0,0 km/h (0 Bft) W 277 ° 0 min 0,000 mm 0,0 UV-I 0 W/m² 13,8 °C 16,3 °C 0,0 km/h (0 Bft)
22.06.2017 01:44 16,3 °C 16,3 °C 85 % 1013,6 hPa 0,0 mm 0,0 km/h (0 Bft) W 277 ° 0 min 0,000 mm 0,0 UV-I 0 W/m² 13,8 °C 16,3 °C 0,0 km/h (0 Bft)
22.06.2017 01:45 16,2 °C 16,3 °C 85 % 1013,6 hPa 0,0 mm 0,0 km/h (0 Bft) W 277 ° 0 min 0,000 mm 0,0 UV-I 0 W/m² 13,7 °C 16,2 °C 0,0 km/h (0 Bft)
22.06.2017 01:46 16,2 °C 16,3 °C 86 % 1013,6 hPa 0,0 mm 0,0 km/h (0 Bft) W 277 ° 0 min 0,000 mm 0,0 UV-I 0 W/m² 13,9 °C 16,2 °C 0,0 km/h (0 Bft)
22.06.2017 01:47 16,1 °C 16,2 °C 86 % 1013,6 hPa 0,0 mm 0,0 km/h (0 Bft) W 277 ° 0 min 0,000 mm 0,0 UV-I 0 W/m² 13,8 °C 16,1 °C 0,0 km/h (0 Bft)
22.06.2017 01:48 16,1 °C 16,2 °C 86 % 1013,6 hPa 0,0 mm 0,0 km/h (0 Bft) W 277 ° 0 min 0,000 mm 0,0 UV-I 0 W/m² 13,8 °C 16,1 °C 0,0 km/h (0 Bft)
22.06.2017 01:49 16,1 °C 16,1 °C 86 % 1013,6 hPa 0,0 mm 0,0 km/h (0 Bft) W 277 ° 0 min 0,000 mm 0,0 UV-I 0 W/m² 13,8 °C 16,1 °C 0,0 km/h (0 Bft)
22.06.2017 01:50 16,1 °C 16,1 °C 86 % 1013,6 hPa 0,0 mm 0,0 km/h (0 Bft) W 277 ° 0 min 0,000 mm 0,0 UV-I 0 W/m² 13,8 °C 16,1 °C 0,0 km/h (0 Bft)
22.06.2017 01:51 16,1 °C 16,1 °C 86 % 1013,6 hPa 0,0 mm 0,0 km/h (0 Bft) W 277 ° 0 min 0,000 mm 0,0 UV-I 0 W/m² 13,8 °C 16,1 °C 0,0 km/h (0 Bft)
22.06.2017 01:52 16,1 °C 16,1 °C 86 % 1013,6 hPa 0,0 mm 0,0 km/h (0 Bft) W 277 ° 0 min 0,000 mm 0,0 UV-I 0 W/m² 13,8 °C 16,1 °C 0,0 km/h (0 Bft)
22.06.2017 01:53 16,1 °C 16,1 °C 86 % 1013,7 hPa 0,0 mm 0,0 km/h (0 Bft) W 277 ° 0 min 0,000 mm 0,0 UV-I 0 W/m² 13,8 °C 16,1 °C 0,0 km/h (0 Bft)
22.06.2017 01:54 16,1 °C 16,1 °C 86 % 1013,7 hPa 0,0 mm 0,0 km/h (0 Bft) W 277 ° 0 min 0,000 mm 0,0 UV-I 0 W/m² 13,8 °C 16,1 °C 0,0 km/h (0 Bft)
22.06.2017 01:55 16,2 °C 16,2 °C 86 % 1013,7 hPa 0,0 mm 0,0 km/h (0 Bft) W 277 ° 0 min 0,000 mm 0,0 UV-I 0 W/m² 13,9 °C 16,2 °C 0,0 km/h (0 Bft)
22.06.2017 01:56 16,2 °C 16,2 °C 86 % 1013,8 hPa 0,0 mm 0,0 km/h (0 Bft) W 277 ° 0 min 0,000 mm 0,0 UV-I 0 W/m² 13,9 °C 16,2 °C 0,0 km/h (0 Bft)
22.06.2017 01:57 16,1 °C 16,2 °C 86 % 1013,8 hPa 0,0 mm 0,0 km/h (0 Bft) W 277 ° 0 min 0,000 mm 0,0 UV-I 0 W/m² 13,8 °C 16,1 °C 0,0 km/h (0 Bft)
22.06.2017 01:58 16,1 °C 16,1 °C 86 % 1013,7 hPa 0,0 mm 0,0 km/h (0 Bft) W 277 ° 0 min 0,000 mm 0,0 UV-I 0 W/m² 13,8 °C 16,1 °C 0,0 km/h (0 Bft)
22.06.2017 01:59 16,1 °C 16,1 °C 86 % 1013,7 hPa 0,0 mm 0,0 km/h (0 Bft) W 277 ° 0 min 0,000 mm 0,0 UV-I 0 W/m² 13,8 °C 16,1 °C 0,0 km/h (0 Bft)
22.06.2017 02:00 16,1 °C 16,1 °C 86 % 1013,7 hPa 0,0 mm 0,0 km/h (0 Bft) W 277 ° 0 min 0,026 mm 0,0 UV-I 0 W/m² 13,8 °C 16,1 °C 0,0 km/h (0 Bft)
22.06.2017 02:01 16,1 °C 16,1 °C 86 % 1013,7 hPa 0,0 mm 0,0 km/h (0 Bft) W 277 ° 0 min 0,000 mm 0,0 UV-I 0 W/m² 13,8 °C 16,1 °C 0,0 km/h (0 Bft)
22.06.2017 02:02 16,1 °C 16,1 °C 86 % 1013,7 hPa 0,0 mm 0,0 km/h (0 Bft) W 277 ° 0 min 0,000 mm 0,0 UV-I 0 W/m² 13,8 °C 16,1 °C 0,0 km/h (0 Bft)
22.06.2017 02:03 16,1 °C 16,1 °C 86 % 1013,7 hPa 0,0 mm 0,0 km/h (0 Bft) W 277 ° 0 min 0,000 mm 0,0 UV-I 0 W/m² 13,8 °C 16,1 °C 0,0 km/h (0 Bft)
22.06.2017 02:04 16,1 °C 16,1 °C 86 % 1013,6 hPa 0,0 mm 0,0 km/h (0 Bft) W 277 ° 0 min 0,000 mm 0,0 UV-I 0 W/m² 13,8 °C 16,1 °C 0,0 km/h (0 Bft)
22.06.2017 02:05 16,0 °C 16,1 °C 86 % 1013,6 hPa 0,0 mm 0,0 km/h (0 Bft) W 277 ° 0 min 0,000 mm 0,0 UV-I 0 W/m² 13,7 °C 16,0 °C 0,0 km/h (0 Bft)
22.06.2017 02:06 16,0 °C 16,0 °C 86 % 1013,7 hPa 0,0 mm 0,0 km/h (0 Bft) W 277 ° 0 min 0,000 mm 0,0 UV-I 0 W/m² 13,7 °C 16,0 °C 0,0 km/h (0 Bft)
22.06.2017 02:07 15,9 °C 16,0 °C 86 % 1013,6 hPa 0,0 mm 0,0 km/h (0 Bft) W 277 ° 0 min 0,000 mm 0,0 UV-I 0 W/m² 13,6 °C 15,9 °C 0,0 km/h (0 Bft)
22.06.2017 02:08 15,9 °C 16,0 °C 87 % 1013,6 hPa 0,0 mm 0,0 km/h (0 Bft) W 277 ° 0 min 0,000 mm 0,0 UV-I 0 W/m² 13,7 °C 15,9 °C 0,0 km/h (0 Bft)
22.06.2017 02:09 15,9 °C 15,9 °C 87 % 1013,6 hPa 0,0 mm 0,0 km/h (0 Bft) W 277 ° 0 min 0,000 mm 0,0 UV-I 0 W/m² 13,7 °C 15,9 °C 0,0 km/h (0 Bft)
22.06.2017 02:10 15,9 °C 15,9 °C 87 % 1013,6 hPa 0,0 mm 0,0 km/h (0 Bft) W 277 ° 0 min 0,000 mm 0,0 UV-I 0 W/m² 13,7 °C 15,9 °C 0,0 km/h (0 Bft)
22.06.2017 02:11 15,9 °C 15,9 °C 87 % 1013,7 hPa 0,0 mm 0,0 km/h (0 Bft) W 277 ° 0 min 0,000 mm 0,0 UV-I 0 W/m² 13,7 °C 15,9 °C 0,0 km/h (0 Bft)
22.06.2017 02:12 15,9 °C 15,9 °C 87 % 1013,6 hPa 0,0 mm 0,0 km/h (0 Bft) W 277 ° 0 min 0,000 mm 0,0 UV-I 0 W/m² 13,7 °C 15,9 °C 0,0 km/h (0 Bft)
22.06.2017 02:13 15,9 °C 15,9 °C 87 % 1013,6 hPa 0,0 mm 0,0 km/h (0 Bft) W 277 ° 0 min 0,000 mm 0,0 UV-I 0 W/m² 13,7 °C 15,9 °C 0,0 km/h (0 Bft)
22.06.2017 02:14 15,9 °C 15,9 °C 87 % 1013,6 hPa 0,0 mm 0,0 km/h (0 Bft) W 277 ° 0 min 0,000 mm 0,0 UV-I 0 W/m² 13,7 °C 15,9 °C 0,0 km/h (0 Bft)
22.06.2017 02:15 15,9 °C 15,9 °C 87 % 1013,6 hPa 0,0 mm 0,0 km/h (0 Bft) W 277 ° 0 min 0,000 mm 0,0 UV-I 0 W/m² 13,7 °C 15,9 °C 0,0 km/h (0 Bft)
22.06.2017 02:16 15,9 °C 15,9 °C 87 % 1013,6 hPa 0,0 mm 0,0 km/h (0 Bft) W 277 ° 0 min 0,000 mm 0,0 UV-I 0 W/m² 13,7 °C 15,9 °C 0,0 km/h (0 Bft)
22.06.2017 02:17 15,9 °C 15,9 °C 87 % 1013,6 hPa 0,0 mm 0,0 km/h (0 Bft) W 277 ° 0 min 0,000 mm 0,0 UV-I 0 W/m² 13,7 °C 15,9 °C 0,0 km/h (0 Bft)
22.06.2017 02:18 15,9 °C 15,9 °C 87 % 1013,6 hPa 0,0 mm 0,0 km/h (0 Bft) W 277 ° 0 min 0,000 mm 0,0 UV-I 0 W/m² 13,7 °C 15,9 °C 0,0 km/h (0 Bft)
22.06.2017 02:19 15,9 °C 15,9 °C 87 % 1013,6 hPa 0,0 mm 0,0 km/h (0 Bft) W 277 ° 0 min 0,000 mm 0,0 UV-I 0 W/m² 13,7 °C 15,9 °C 0,0 km/h (0 Bft)
22.06.2017 02:20 15,9 °C 15,9 °C 87 % 1013,5 hPa 0,0 mm 0,0 km/h (0 Bft) W 277 ° 0 min 0,000 mm 0,0 UV-I 0 W/m² 13,7 °C 15,9 °C 0,0 km/h (0 Bft)
22.06.2017 02:21 15,9 °C 15,9 °C 87 % 1013,5 hPa 0,0 mm 0,0 km/h (0 Bft) W 277 ° 0 min 0,000 mm 0,0 UV-I 0 W/m² 13,7 °C 15,9 °C 0,0 km/h (0 Bft)
22.06.2017 02:22 15,9 °C 16,0 °C 87 % 1013,5 hPa 0,0 mm 0,0 km/h (0 Bft) W 277 ° 0 min 0,000 mm 0,0 UV-I 0 W/m² 13,7 °C 15,9 °C 0,0 km/h (0 Bft)
22.06.2017 02:23 16,0 °C 16,0 °C 87 % 1013,5 hPa 0,0 mm 0,0 km/h (0 Bft) W 277 ° 0 min 0,000 mm 0,0 UV-I 0 W/m² 13,8 °C 16,0 °C 0,0 km/h (0 Bft)
22.06.2017 02:24 16,1 °C 16,1 °C 87 % 1013,5 hPa 0,0 mm 0,0 km/h (0 Bft) W 277 ° 0 min 0,000 mm 0,0 UV-I 0 W/m² 13,9 °C 16,1 °C 0,0 km/h (0 Bft)
22.06.2017 02:25 16,1 °C 16,1 °C 87 % 1013,5 hPa 0,0 mm 0,0 km/h (0 Bft) W 277 ° 0 min 0,000 mm 0,0 UV-I 0 W/m² 13,9 °C 16,1 °C 0,0 km/h (0 Bft)
22.06.2017 02:26 16,1 °C 16,1 °C 86 % 1013,5 hPa 0,0 mm 0,0 km/h (0 Bft) W 277 ° 0 min 0,000 mm 0,0 UV-I 0 W/m² 13,8 °C 16,1 °C 0,0 km/h (0 Bft)
22.06.2017 02:27 16,1 °C 16,1 °C 86 % 1013,6 hPa 0,0 mm 0,0 km/h (0 Bft) W 277 ° 0 min 0,000 mm 0,0 UV-I 0 W/m² 13,8 °C 16,1 °C 0,0 km/h (0 Bft)
22.06.2017 02:28 16,1 °C 16,1 °C 87 % 1013,5 hPa 0,0 mm 0,0 km/h (0 Bft) W 277 ° 0 min 0,000 mm 0,0 UV-I 0 W/m² 13,9 °C 16,1 °C 0,0 km/h (0 Bft)
22.06.2017 02:29 16,0 °C 16,1 °C 87 % 1013,5 hPa 0,0 mm 0,0 km/h (0 Bft) W 277 ° 0 min 0,000 mm 0,0 UV-I 0 W/m² 13,8 °C 16,0 °C 0,0 km/h (0 Bft)
22.06.2017 02:30 15,9 °C 16,0 °C 87 % 1013,5 hPa 0,0 mm 0,0 km/h (0 Bft) W 277 ° 0 min 0,000 mm 0,0 UV-I 0 W/m² 13,7 °C 15,9 °C 0,0 km/h (0 Bft)
22.06.2017 02:31 15,9 °C 15,9 °C 87 % 1013,5 hPa 0,0 mm 0,0 km/h (0 Bft) W 277 ° 0 min 0,000 mm 0,0 UV-I 0 W/m² 13,7 °C 15,9 °C 0,0 km/h (0 Bft)
22.06.2017 02:32 15,9 °C 15,9 °C 87 % 1013,6 hPa 0,0 mm 0,0 km/h (0 Bft) W 277 ° 0 min 0,000 mm 0,0 UV-I 0 W/m² 13,7 °C 15,9 °C 0,0 km/h (0 Bft)
22.06.2017 02:33 15,9 °C 15,9 °C 87 % 1013,6 hPa 0,0 mm 0,0 km/h (0 Bft) W 277 ° 0 min 0,000 mm 0,0 UV-I 0 W/m² 13,7 °C 15,9 °C 0,0 km/h (0 Bft)
22.06.2017 02:34 15,9 °C 15,9 °C 87 % 1013,5 hPa 0,0 mm 0,0 km/h (0 Bft) W 277 ° 0 min 0,000 mm 0,0 UV-I 0 W/m² 13,7 °C 15,9 °C 0,0 km/h (0 Bft)
22.06.2017 02:35 15,9 °C 15,9 °C 87 % 1013,5 hPa 0,0 mm 0,0 km/h (0 Bft) W 277 ° 0 min 0,000 mm 0,0 UV-I 0 W/m² 13,7 °C 15,9 °C 0,0 km/h (0 Bft)
22.06.2017 02:36 15,9 °C 15,9 °C 87 % 1013,6 hPa 0,0 mm 0,0 km/h (0 Bft) W 277 ° 0 min 0,000 mm 0,0 UV-I 0 W/m² 13,7 °C 15,9 °C 0,0 km/h (0 Bft)
22.06.2017 02:37 15,9 °C 15,9 °C 87 % 1013,6 hPa 0,0 mm 0,0 km/h (0 Bft) W 277 ° 0 min 0,000 mm 0,0 UV-I 0 W/m² 13,7 °C 15,9 °C 0,0 km/h (0 Bft)
22.06.2017 02:38 15,9 °C 15,9 °C 87 % 1013,6 hPa 0,0 mm 0,0 km/h (0 Bft) W 277 ° 0 min 0,000 mm 0,0 UV-I 0 W/m² 13,7 °C 15,9 °C 0,0 km/h (0 Bft)
22.06.2017 02:39 16,0 °C 16,0 °C 87 % 1013,6 hPa 0,0 mm 0,0 km/h (0 Bft) W 277 ° 0 min 0,000 mm 0,0 UV-I 0 W/m² 13,8 °C 16,0 °C 0,0 km/h (0 Bft)
22.06.2017 02:40 16,0 °C 16,0 °C 86 % 1013,5 hPa 0,0 mm 0,0 km/h (0 Bft) W 277 ° 0 min 0,000 mm 0,0 UV-I 0 W/m² 13,7 °C 16,0 °C 0,0 km/h (0 Bft)
22.06.2017 02:41 16,1 °C 16,1 °C 86 % 1013,5 hPa 0,0 mm 0,0 km/h (0 Bft) W 277 ° 0 min 0,000 mm 0,0 UV-I 0 W/m² 13,8 °C 16,1 °C 0,0 km/h (0 Bft)
22.06.2017 02:42 16,1 °C 16,1 °C 86 % 1013,6 hPa 0,0 mm 0,0 km/h (0 Bft) W 277 ° 0 min 0,000 mm 0,0 UV-I 0 W/m² 13,8 °C 16,1 °C 0,0 km/h (0 Bft)
22.06.2017 02:43 16,1 °C 16,1 °C 86 % 1013,6 hPa 0,0 mm 0,0 km/h (0 Bft) W 277 ° 0 min 0,000 mm 0,0 UV-I 0 W/m² 13,8 °C 16,1 °C 0,0 km/h (0 Bft)
22.06.2017 02:44 16,2 °C 16,2 °C 86 % 1013,7 hPa 0,0 mm 0,0 km/h (0 Bft) W 277 ° 0 min 0,000 mm 0,0 UV-I 0 W/m² 13,9 °C 16,2 °C 0,0 km/h (0 Bft)
22.06.2017 02:45 16,2 °C 16,2 °C 86 % 1013,6 hPa 0,0 mm 0,0 km/h (0 Bft) W 277 ° 0 min 0,000 mm 0,0 UV-I 0 W/m² 13,9 °C 16,2 °C 0,0 km/h (0 Bft)
22.06.2017 02:46 16,2 °C 16,2 °C 85 % 1013,6 hPa 0,0 mm 0,0 km/h (0 Bft) W 277 ° 0 min 0,000 mm 0,0 UV-I 0 W/m² 13,7 °C 16,2 °C 0,0 km/h (0 Bft)
22.06.2017 02:47 16,2 °C 16,2 °C 86 % 1013,6 hPa 0,0 mm 0,0 km/h (0 Bft) W 277 ° 0 min 0,000 mm 0,0 UV-I 0 W/m² 13,9 °C 16,2 °C 0,0 km/h (0 Bft)
22.06.2017 02:48 16,2 °C 16,3 °C 85 % 1013,6 hPa 0,0 mm 0,0 km/h (0 Bft) W 277 ° 0 min 0,000 mm 0,0 UV-I 0 W/m² 13,7 °C 16,2 °C 0,0 km/h (0 Bft)
22.06.2017 02:49 16,2 °C 16,2 °C 85 % 1013,6 hPa 0,0 mm 0,0 km/h (0 Bft) W 277 ° 0 min 0,000 mm 0,0 UV-I 0 W/m² 13,7 °C 16,2 °C 0,0 km/h (0 Bft)
22.06.2017 02:50 16,3 °C 16,3 °C 85 % 1013,7 hPa 0,0 mm 0,0 km/h (0 Bft) W 277 ° 0 min 0,000 mm 0,0 UV-I 0 W/m² 13,8 °C 16,3 °C 0,0 km/h (0 Bft)
22.06.2017 02:51 16,3 °C 16,3 °C 85 % 1013,6 hPa 0,0 mm 0,0 km/h (0 Bft) W 277 ° 0 min 0,000 mm 0,0 UV-I 0 W/m² 13,8 °C 16,3 °C 0,0 km/h (0 Bft)
22.06.2017 02:52 16,2 °C 16,3 °C 85 % 1013,7 hPa 0,0 mm 0,0 km/h (0 Bft) W 277 ° 0 min 0,000 mm 0,0 UV-I 0 W/m² 13,7 °C 16,2 °C 0,0 km/h (0 Bft)
22.06.2017 02:53 16,2 °C 16,3 °C 85 % 1013,7 hPa 0,0 mm 0,0 km/h (0 Bft) W 277 ° 0 min 0,000 mm 0,0 UV-I 0 W/m² 13,7 °C 16,2 °C 0,0 km/h (0 Bft)
22.06.2017 02:54 16,2 °C 16,2 °C 85 % 1013,6 hPa 0,0 mm 0,0 km/h (0 Bft) W 277 ° 0 min 0,000 mm 0,0 UV-I 0 W/m² 13,7 °C 16,2 °C 0,0 km/h (0 Bft)
22.06.2017 02:55 16,2 °C 16,2 °C 85 % 1013,6 hPa 0,0 mm 0,0 km/h (0 Bft) W 277 ° 0 min 0,000 mm 0,0 UV-I 0 W/m² 13,7 °C 16,2 °C 0,0 km/h (0 Bft)
22.06.2017 02:56 16,2 °C 16,2 °C 85 % 1013,6 hPa 0,0 mm 0,0 km/h (0 Bft) W 277 ° 0 min 0,000 mm 0,0 UV-I 0 W/m² 13,7 °C 16,2 °C 0,0 km/h (0 Bft)
22.06.2017 02:57 16,2 °C 16,2 °C 85 % 1013,6 hPa 0,0 mm 0,0 km/h (0 Bft) W 277 ° 0 min 0,000 mm 0,0 UV-I 0 W/m² 13,7 °C 16,2 °C 0,0 km/h (0 Bft)
22.06.2017 02:58 16,2 °C 16,2 °C 85 % 1013,6 hPa 0,0 mm 0,0 km/h (0 Bft) W 277 ° 0 min 0,000 mm 0,0 UV-I 0 W/m² 13,7 °C 16,2 °C 0,0 km/h (0 Bft)
22.06.2017 02:59 16,2 °C 16,2 °C 85 % 1013,6 hPa 0,0 mm 0,0 km/h (0 Bft) W 277 ° 0 min 0,000 mm 0,0 UV-I 0 W/m² 13,7 °C 16,2 °C 0,0 km/h (0 Bft)
22.06.2017 03:00 16,2 °C 16,2 °C 85 % 1013,5 hPa 0,0 mm 0,0 km/h (0 Bft) W 277 ° 0 min 0,000 mm 0,0 UV-I 0 W/m² 13,7 °C 16,2 °C 0,0 km/h (0 Bft)
22.06.2017 03:01 16,3 °C 16,3 °C 85 % 1013,5 hPa 0,0 mm 0,0 km/h (0 Bft) W 277 ° 0 min 0,000 mm 0,0 UV-I 0 W/m² 13,8 °C 16,3 °C 0,0 km/h (0 Bft)
22.06.2017 03:02 16,2 °C 16,3 °C 85 % 1013,5 hPa 0,0 mm 0,0 km/h (0 Bft) W 277 ° 0 min 0,000 mm 0,0 UV-I 0 W/m² 13,7 °C 16,2 °C 0,0 km/h (0 Bft)
22.06.2017 03:03 16,2 °C 16,3 °C 85 % 1013,5 hPa 0,0 mm 0,0 km/h (0 Bft) W 277 ° 0 min 0,000 mm 0,0 UV-I 0 W/m² 13,7 °C 16,2 °C 0,0 km/h (0 Bft)
22.06.2017 03:04 16,3 °C 16,3 °C 85 % 1013,5 hPa 0,0 mm 0,0 km/h (0 Bft) W 277 ° 0 min 0,000 mm 0,0 UV-I 0 W/m² 13,8 °C 16,3 °C 0,0 km/h (0 Bft)
22.06.2017 03:05 16,3 °C 16,3 °C 85 % 1013,5 hPa 0,0 mm 0,0 km/h (0 Bft) W 277 ° 0 min 0,000 mm 0,0 UV-I 0 W/m² 13,8 °C 16,3 °C 0,0 km/h (0 Bft)
22.06.2017 03:06 16,2 °C 16,3 °C 85 % 1013,5 hPa 0,0 mm 0,0 km/h (0 Bft) W 277 ° 0 min 0,000 mm 0,0 UV-I 0 W/m² 13,7 °C 16,2 °C 0,0 km/h (0 Bft)
22.06.2017 03:07 16,2 °C 16,2 °C 85 % 1013,5 hPa 0,0 mm 0,0 km/h (0 Bft) W 277 ° 0 min 0,000 mm 0,0 UV-I 0 W/m² 13,7 °C 16,2 °C 0,0 km/h (0 Bft)
22.06.2017 03:08 16,2 °C 16,2 °C 85 % 1013,5 hPa 0,0 mm 0,0 km/h (0 Bft) W 277 ° 0 min 0,000 mm 0,0 UV-I 0 W/m² 13,7 °C 16,2 °C 0,0 km/h (0 Bft)
22.06.2017 03:09 16,2 °C 16,2 °C 85 % 1013,5 hPa 0,0 mm 0,0 km/h (0 Bft) W 277 ° 0 min 0,000 mm 0,0 UV-I 0 W/m² 13,7 °C 16,2 °C 0,0 km/h (0 Bft)
22.06.2017 03:10 16,2 °C 16,2 °C 85 % 1013,5 hPa 0,0 mm 0,0 km/h (0 Bft) W 277 ° 0 min 0,000 mm 0,0 UV-I 0 W/m² 13,7 °C 16,2 °C 0,0 km/h (0 Bft)
22.06.2017 03:11 16,3 °C 16,3 °C 85 % 1013,4 hPa 0,0 mm 0,0 km/h (0 Bft) W 277 ° 0 min 0,000 mm 0,0 UV-I 0 W/m² 13,8 °C 16,3 °C 0,0 km/h (0 Bft)
22.06.2017 03:12 16,2 °C 16,3 °C 85 % 1013,4 hPa 0,0 mm 0,0 km/h (0 Bft) W 277 ° 0 min 0,000 mm 0,0 UV-I 0 W/m² 13,7 °C 16,2 °C 0,0 km/h (0 Bft)
22.06.2017 03:13 16,2 °C 16,2 °C 85 % 1013,4 hPa 0,0 mm 0,0 km/h (0 Bft) W 277 ° 0 min 0,000 mm 0,0 UV-I 0 W/m² 13,7 °C 16,2 °C 0,0 km/h (0 Bft)
22.06.2017 03:14 16,2 °C 16,2 °C 85 % 1013,4 hPa 0,0 mm 0,0 km/h (0 Bft) W 277 ° 0 min 0,000 mm 0,0 UV-I 0 W/m² 13,7 °C 16,2 °C 0,0 km/h (0 Bft)
22.06.2017 03:15 16,2 °C 16,2 °C 85 % 1013,4 hPa 0,0 mm 0,0 km/h (0 Bft) W 277 ° 0 min 0,000 mm 0,0 UV-I 0 W/m² 13,7 °C 16,2 °C 0,0 km/h (0 Bft)
22.06.2017 03:16 16,2 °C 16,2 °C 86 % 1013,4 hPa 0,0 mm 0,0 km/h (0 Bft) W 277 ° 0 min 0,000 mm 0,0 UV-I 0 W/m² 13,9 °C 16,2 °C 0,0 km/h (0 Bft)
22.06.2017 03:17 16,2 °C 16,2 °C 86 % 1013,4 hPa 0,0 mm 0,0 km/h (0 Bft) W 277 ° 0 min 0,000 mm 0,0 UV-I 0 W/m² 13,9 °C 16,2 °C 0,0 km/h (0 Bft)
22.06.2017 03:18 16,2 °C 16,2 °C 86 % 1013,4 hPa 0,0 mm 0,0 km/h (0 Bft) W 277 ° 0 min 0,000 mm 0,0 UV-I 0 W/m² 13,9 °C 16,2 °C 0,0 km/h (0 Bft)
22.06.2017 03:19 16,2 °C 16,2 °C 86 % 1013,4 hPa 0,0 mm 0,0 km/h (0 Bft) W 277 ° 0 min 0,000 mm 0,0 UV-I 0 W/m² 13,9 °C 16,2 °C 0,0 km/h (0 Bft)
22.06.2017 03:20 16,2 °C 16,3 °C 86 % 1013,4 hPa 0,0 mm 0,0 km/h (0 Bft) W 277 ° 0 min 0,000 mm 0,0 UV-I 0 W/m² 13,9 °C 16,2 °C 0,0 km/h (0 Bft)
22.06.2017 03:21 16,2 °C 16,2 °C 85 % 1013,4 hPa 0,0 mm 0,0 km/h (0 Bft) W 277 ° 0 min 0,000 mm 0,0 UV-I 0 W/m² 13,7 °C 16,2 °C 0,0 km/h (0 Bft)
22.06.2017 03:22 16,1 °C 16,2 °C 86 % 1013,4 hPa 0,0 mm 0,0 km/h (0 Bft) W 277 ° 0 min 0,000 mm 0,0 UV-I 0 W/m² 13,8 °C 16,1 °C 0,0 km/h (0 Bft)
22.06.2017 03:23 16,1 °C 16,1 °C 86 % 1013,4 hPa 0,0 mm 0,0 km/h (0 Bft) W 277 ° 0 min 0,000 mm 0,0 UV-I 0 W/m² 13,8 °C 16,1 °C 0,0 km/h (0 Bft)
22.06.2017 03:24 16,1 °C 16,1 °C 86 % 1013,4 hPa 0,0 mm 0,0 km/h (0 Bft) W 277 ° 0 min 0,000 mm 0,0 UV-I 0 W/m² 13,8 °C 16,1 °C 0,0 km/h (0 Bft)
22.06.2017 03:25 16,2 °C 16,2 °C 86 % 1013,4 hPa 0,0 mm 0,0 km/h (0 Bft) W 277 ° 0 min 0,000 mm 0,0 UV-I 0 W/m² 13,9 °C 16,2 °C 0,0 km/h (0 Bft)
22.06.2017 03:26 16,2 °C 16,2 °C 86 % 1013,4 hPa 0,0 mm 0,0 km/h (0 Bft) W 277 ° 0 min 0,000 mm 0,0 UV-I 0 W/m² 13,9 °C 16,2 °C 0,0 km/h (0 Bft)
22.06.2017 03:27 16,2 °C 16,2 °C 86 % 1013,4 hPa 0,0 mm 0,0 km/h (0 Bft) W 277 ° 0 min 0,000 mm 0,0 UV-I 0 W/m² 13,9 °C 16,2 °C 0,0 km/h (0 Bft)
22.06.2017 03:28 16,2 °C 16,2 °C 85 % 1013,4 hPa 0,0 mm 0,0 km/h (0 Bft) W 277 ° 0 min 0,000 mm 0,0 UV-I 0 W/m² 13,7 °C 16,2 °C 0,0 km/h (0 Bft)
22.06.2017 03:29 16,3 °C 16,3 °C 85 % 1013,4 hPa 0,0 mm 0,0 km/h (0 Bft) W 277 ° 0 min 0,000 mm 0,0 UV-I 0 W/m² 13,8 °C 16,3 °C 0,0 km/h (0 Bft)
22.06.2017 03:30 16,3 °C 16,3 °C 85 % 1013,4 hPa 0,0 mm 0,0 km/h (0 Bft) W 277 ° 0 min 0,000 mm 0,0 UV-I 0 W/m² 13,8 °C 16,3 °C 0,0 km/h (0 Bft)
22.06.2017 03:31 16,3 °C 16,3 °C 85 % 1013,4 hPa 0,0 mm 0,0 km/h (0 Bft) W 277 ° 0 min 0,000 mm 0,0 UV-I 0 W/m² 13,8 °C 16,3 °C 0,0 km/h (0 Bft)
22.06.2017 03:32 16,3 °C 16,4 °C 84 % 1013,4 hPa 0,0 mm 0,0 km/h (0 Bft) W 277 ° 0 min 0,000 mm 0,0 UV-I 0 W/m² 13,6 °C 16,3 °C 0,0 km/h (0 Bft)
22.06.2017 03:33 16,4 °C 16,4 °C 84 % 1013,4 hPa 0,0 mm 0,0 km/h (0 Bft) W 277 ° 0 min 0,000 mm 0,0 UV-I 0 W/m² 13,7 °C 16,4 °C 0,0 km/h (0 Bft)
22.06.2017 03:34 16,4 °C 16,4 °C 84 % 1013,4 hPa 0,0 mm 0,0 km/h (0 Bft) W 277 ° 0 min 0,000 mm 0,0 UV-I 0 W/m² 13,7 °C 16,4 °C 0,0 km/h (0 Bft)
22.06.2017 03:35 16,4 °C 16,4 °C 84 % 1013,4 hPa 0,0 mm 0,0 km/h (0 Bft) W 277 ° 0 min 0,000 mm 0,0 UV-I 0 W/m² 13,7 °C 16,4 °C 0,0 km/h (0 Bft)
22.06.2017 03:36 16,4 °C 16,4 °C 84 % 1013,4 hPa 0,0 mm 0,0 km/h (0 Bft) W 277 ° 0 min 0,000 mm 0,0 UV-I 0 W/m² 13,7 °C 16,4 °C 0,0 km/h (0 Bft)
22.06.2017 03:37 16,4 °C 16,4 °C 84 % 1013,4 hPa 0,0 mm 0,0 km/h (0 Bft) W 277 ° 0 min 0,000 mm 0,0 UV-I 0 W/m² 13,7 °C 16,4 °C 0,0 km/h (0 Bft)
22.06.2017 03:38 16,4 °C 16,4 °C 84 % 1013,4 hPa 0,0 mm 0,0 km/h (0 Bft) W 277 ° 0 min 0,000 mm 0,0 UV-I 0 W/m² 13,7 °C 16,4 °C 0,0 km/h (0 Bft)
22.06.2017 03:39 16,4 °C 16,4 °C 84 % 1013,4 hPa 0,0 mm 0,0 km/h (0 Bft) W 277 ° 0 min 0,000 mm 0,0 UV-I 0 W/m² 13,7 °C 16,4 °C 0,0 km/h (0 Bft)
22.06.2017 03:40 16,5 °C 16,5 °C 84 % 1013,4 hPa 0,0 mm 0,0 km/h (0 Bft) W 277 ° 0 min 0,000 mm 0,0 UV-I 0 W/m² 13,8 °C 16,5 °C 0,0 km/h (0 Bft)
22.06.2017 03:41 16,6 °C 16,6 °C 83 % 1013,4 hPa 0,0 mm 0,0 km/h (0 Bft) W 277 ° 0 min 0,000 mm 0,0 UV-I 0 W/m² 13,7 °C 16,6 °C 0,0 km/h (0 Bft)
22.06.2017 03:42 16,6 °C 16,6 °C 83 % 1013,4 hPa 0,0 mm 0,0 km/h (0 Bft) W 277 ° 0 min 0,000 mm 0,0 UV-I 0 W/m² 13,7 °C 16,6 °C 0,0 km/h (0 Bft)
22.06.2017 03:43 16,6 °C 16,6 °C 83 % 1013,4 hPa 0,0 mm 0,0 km/h (0 Bft) W 277 ° 0 min 0,000 mm 0,0 UV-I 0 W/m² 13,7 °C 16,6 °C 0,0 km/h (0 Bft)
22.06.2017 03:44 16,7 °C 16,7 °C 83 % 1013,3 hPa 0,0 mm 0,0 km/h (0 Bft) W 277 ° 0 min 0,000 mm 0,0 UV-I 0 W/m² 13,8 °C 16,7 °C 0,0 km/h (0 Bft)
22.06.2017 03:45 16,7 °C 16,7 °C 83 % 1013,3 hPa 0,0 mm 0,0 km/h (0 Bft) W 277 ° 0 min 0,000 mm 0,0 UV-I 0 W/m² 13,8 °C 16,7 °C 0,0 km/h (0 Bft)
22.06.2017 03:46 16,7 °C 16,7 °C 83 % 1013,3 hPa 0,0 mm 0,0 km/h (0 Bft) W 277 ° 0 min 0,000 mm 0,0 UV-I 0 W/m² 13,8 °C 16,7 °C 0,0 km/h (0 Bft)
22.06.2017 03:47 16,7 °C 16,7 °C 83 % 1013,3 hPa 0,0 mm 0,0 km/h (0 Bft) W 277 ° 0 min 0,000 mm 0,0 UV-I 0 W/m² 13,8 °C 16,7 °C 0,0 km/h (0 Bft)
22.06.2017 03:48 16,6 °C 16,7 °C 83 % 1013,3 hPa 0,0 mm 0,0 km/h (0 Bft) W 277 ° 0 min 0,000 mm 0,0 UV-I 0 W/m² 13,7 °C 16,6 °C 0,0 km/h (0 Bft)
22.06.2017 03:49 16,6 °C 16,6 °C 83 % 1013,3 hPa 0,0 mm 0,0 km/h (0 Bft) W 277 ° 0 min 0,000 mm 0,0 UV-I 0 W/m² 13,7 °C 16,6 °C 0,0 km/h (0 Bft)
22.06.2017 03:50 16,4 °C 16,6 °C 83 % 1013,3 hPa 0,0 mm 0,0 km/h (0 Bft) W 277 ° 0 min 0,000 mm 0,0 UV-I 0 W/m² 13,5 °C 16,4 °C 0,0 km/h (0 Bft)
22.06.2017 03:51 16,3 °C 16,4 °C 84 % 1013,3 hPa 0,0 mm 0,0 km/h (0 Bft) W 277 ° 0 min 0,000 mm 0,0 UV-I 0 W/m² 13,6 °C 16,3 °C 0,0 km/h (0 Bft)
22.06.2017 03:52 16,3 °C 16,3 °C 84 % 1013,3 hPa 0,0 mm 0,0 km/h (0 Bft) W 277 ° 0 min 0,000 mm 0,0 UV-I 0 W/m² 13,6 °C 16,3 °C 0,0 km/h (0 Bft)
22.06.2017 03:53 16,3 °C 16,3 °C 84 % 1013,3 hPa 0,0 mm 0,0 km/h (0 Bft) W 277 ° 0 min 0,000 mm 0,0 UV-I 0 W/m² 13,6 °C 16,3 °C 0,0 km/h (0 Bft)
22.06.2017 03:54 16,2 °C 16,3 °C 84 % 1013,3 hPa 0,0 mm 0,0 km/h (0 Bft) W 277 ° 0 min 0,000 mm 0,0 UV-I 0 W/m² 13,5 °C 16,2 °C 0,0 km/h (0 Bft)
22.06.2017 03:55 16,2 °C 16,3 °C 85 % 1013,3 hPa 0,0 mm 0,0 km/h (0 Bft) W 277 ° 0 min 0,000 mm 0,0 UV-I 0 W/m² 13,7 °C 16,2 °C 0,0 km/h (0 Bft)
22.06.2017 03:56 16,1 °C 16,2 °C 85 % 1013,3 hPa 0,0 mm 0,0 km/h (0 Bft) W 277 ° 0 min 0,000 mm 0,0 UV-I 0 W/m² 13,6 °C 16,1 °C 0,0 km/h (0 Bft)
22.06.2017 03:57 16,1 °C 16,1 °C 85 % 1013,3 hPa 0,0 mm 0,0 km/h (0 Bft) W 277 ° 0 min 0,000 mm 0,0 UV-I 0 W/m² 13,6 °C 16,1 °C 0,0 km/h (0 Bft)
22.06.2017 03:58 16,0 °C 16,1 °C 85 % 1013,3 hPa 0,0 mm 0,0 km/h (0 Bft) W 277 ° 0 min 0,000 mm 0,0 UV-I 0 W/m² 13,5 °C 16,0 °C 0,0 km/h (0 Bft)
22.06.2017 03:59 15,9 °C 16,0 °C 85 % 1013,3 hPa 0,0 mm 0,0 km/h (0 Bft) W 277 ° 0 min 0,000 mm 0,0 UV-I 0 W/m² 13,4 °C 15,9 °C 0,0 km/h (0 Bft)
22.06.2017 04:00 15,9 °C 15,9 °C 85 % 1013,2 hPa 0,0 mm 0,0 km/h (0 Bft) W 277 ° 0 min 0,025 mm 0,0 UV-I 0 W/m² 13,4 °C 15,9 °C 0,0 km/h (0 Bft)
22.06.2017 04:01 15,9 °C 15,9 °C 86 % 1013,2 hPa 0,0 mm 0,0 km/h (0 Bft) W 277 ° 0 min 0,000 mm 0,0 UV-I 0 W/m² 13,6 °C 15,9 °C 0,0 km/h (0 Bft)
22.06.2017 04:02 15,9 °C 15,9 °C 86 % 1013,3 hPa 0,0 mm 0,0 km/h (0 Bft) W 277 ° 0 min 0,000 mm 0,0 UV-I 0 W/m² 13,6 °C 15,9 °C 0,0 km/h (0 Bft)
22.06.2017 04:03 15,9 °C 15,9 °C 85 % 1013,3 hPa 0,0 mm 0,0 km/h (0 Bft) W 277 ° 0 min 0,000 mm 0,0 UV-I 0 W/m² 13,4 °C 15,9 °C 0,0 km/h (0 Bft)
22.06.2017 04:04 16,0 °C 16,0 °C 85 % 1013,2 hPa 0,0 mm 0,0 km/h (0 Bft) W 277 ° 0 min 0,000 mm 0,0 UV-I 0 W/m² 13,5 °C 16,0 °C 0,0 km/h (0 Bft)
22.06.2017 04:05 15,9 °C 16,0 °C 85 % 1013,2 hPa 0,0 mm 0,0 km/h (0 Bft) W 277 ° 0 min 0,000 mm 0,0 UV-I 0 W/m² 13,4 °C 15,9 °C 0,0 km/h (0 Bft)
22.06.2017 04:06 16,0 °C 16,0 °C 86 % 1013,2 hPa 0,0 mm 0,0 km/h (0 Bft) W 277 ° 0 min 0,000 mm 0,0 UV-I 0 W/m² 13,7 °C 16,0 °C 0,0 km/h (0 Bft)
22.06.2017 04:07 16,0 °C 16,0 °C 85 % 1013,2 hPa 0,0 mm 0,0 km/h (0 Bft) W 277 ° 0 min 0,000 mm 0,0 UV-I 0 W/m² 13,5 °C 16,0 °C 0,0 km/h (0 Bft)
22.06.2017 04:08 16,1 °C 16,1 °C 86 % 1013,2 hPa 0,0 mm 0,0 km/h (0 Bft) W 277 ° 0 min 0,000 mm 0,0 UV-I 0 W/m² 13,8 °C 16,1 °C 0,0 km/h (0 Bft)
22.06.2017 04:09 16,0 °C 16,1 °C 85 % 1013,2 hPa 0,0 mm 0,0 km/h (0 Bft) W 277 ° 0 min 0,000 mm 0,0 UV-I 0 W/m² 13,5 °C 16,0 °C 0,0 km/h (0 Bft)
22.06.2017 04:10 15,9 °C 16,0 °C 85 % 1013,2 hPa 0,0 mm 0,0 km/h (0 Bft) W 277 ° 0 min 0,000 mm 0,0 UV-I 0 W/m² 13,4 °C 15,9 °C 0,0 km/h (0 Bft)
22.06.2017 04:11 15,9 °C 15,9 °C 85 % 1013,2 hPa 0,0 mm 0,0 km/h (0 Bft) W 277 ° 0 min 0,000 mm 0,0 UV-I 0 W/m² 13,4 °C 15,9 °C 0,0 km/h (0 Bft)
22.06.2017 04:12 15,8 °C 15,9 °C 85 % 1013,2 hPa 0,0 mm 0,0 km/h (0 Bft) W 277 ° 0 min 0,000 mm 0,0 UV-I 0 W/m² 13,3 °C 15,8 °C 0,0 km/h (0 Bft)
22.06.2017 04:13 15,8 °C 15,9 °C 86 % 1013,2 hPa 0,0 mm 0,0 km/h (0 Bft) W 277 ° 0 min 0,000 mm 0,0 UV-I 0 W/m² 13,5 °C 15,8 °C 0,0 km/h (0 Bft)
22.06.2017 04:14 15,8 °C 15,8 °C 86 % 1013,3 hPa 0,0 mm 0,0 km/h (0 Bft) W 277 ° 0 min 0,000 mm 0,0 UV-I 0 W/m² 13,5 °C 15,8 °C 0,0 km/h (0 Bft)
22.06.2017 04:15 15,8 °C 15,8 °C 86 % 1013,2 hPa 0,0 mm 0,0 km/h (0 Bft) W 277 ° 0 min 0,000 mm 0,0 UV-I 0 W/m² 13,5 °C 15,8 °C 0,0 km/h (0 Bft)
22.06.2017 04:16 15,8 °C 15,8 °C 86 % 1013,3 hPa 0,0 mm 0,0 km/h (0 Bft) W 277 ° 0 min 0,000 mm 0,0 UV-I 0 W/m² 13,5 °C 15,8 °C 0,0 km/h (0 Bft)
22.06.2017 04:17 15,7 °C 15,8 °C 86 % 1013,2 hPa 0,0 mm 0,0 km/h (0 Bft) W 277 ° 0 min 0,000 mm 0,0 UV-I 0 W/m² 13,4 °C 15,7 °C 0,0 km/h (0 Bft)
22.06.2017 04:18 15,7 °C 15,7 °C 86 % 1013,3 hPa 0,0 mm 0,0 km/h (0 Bft) W 277 ° 0 min 0,000 mm 0,0 UV-I 0 W/m² 13,4 °C 15,7 °C 0,0 km/h (0 Bft)
22.06.2017 04:19 15,7 °C 15,7 °C 87 % 1013,3 hPa 0,0 mm 0,0 km/h (0 Bft) W 277 ° 0 min 0,000 mm 0,0 UV-I 0 W/m² 13,5 °C 15,7 °C 0,0 km/h (0 Bft)
22.06.2017 04:20 15,6 °C 15,7 °C 87 % 1013,2 hPa 0,0 mm 0,0 km/h (0 Bft) W 277 ° 0 min 0,000 mm 0,0 UV-I 0 W/m² 13,4 °C 15,6 °C 0,0 km/h (0 Bft)
22.06.2017 04:21 15,6 °C 15,6 °C 87 % 1013,3 hPa 0,0 mm 0,0 km/h (0 Bft) W 277 ° 0 min 0,000 mm 0,0 UV-I 0 W/m² 13,4 °C 15,6 °C 0,0 km/h (0 Bft)
22.06.2017 04:22 15,6 °C 15,6 °C 87 % 1013,3 hPa 0,0 mm 0,0 km/h (0 Bft) W 277 ° 0 min 0,000 mm 0,0 UV-I 0 W/m² 13,4 °C 15,6 °C 0,0 km/h (0 Bft)
22.06.2017 04:23 15,6 °C 15,6 °C 87 % 1013,3 hPa 0,0 mm 0,0 km/h (0 Bft) W 277 ° 0 min 0,000 mm 0,0 UV-I 0 W/m² 13,4 °C 15,6 °C 0,0 km/h (0 Bft)
22.06.2017 04:24 15,6 °C 15,6 °C 87 % 1013,3 hPa 0,0 mm 0,0 km/h (0 Bft) W 277 ° 0 min 0,000 mm 0,0 UV-I 0 W/m² 13,4 °C 15,6 °C 0,0 km/h (0 Bft)
22.06.2017 04:25 15,5 °C 15,6 °C 87 % 1013,3 hPa 0,0 mm 0,0 km/h (0 Bft) W 277 ° 0 min 0,000 mm 0,0 UV-I 0 W/m² 13,3 °C 15,5 °C 0,0 km/h (0 Bft)
22.06.2017 04:26 15,6 °C 15,6 °C 87 % 1013,3 hPa 0,0 mm 0,0 km/h (0 Bft) W 277 ° 0 min 0,000 mm 0,0 UV-I 0 W/m² 13,4 °C 15,6 °C 0,0 km/h (0 Bft)
22.06.2017 04:27 15,6 °C 15,6 °C 87 % 1013,3 hPa 0,0 mm 0,0 km/h (0 Bft) W 277 ° 0 min 0,000 mm 0,0 UV-I 0 W/m² 13,4 °C 15,6 °C 0,0 km/h (0 Bft)
22.06.2017 04:28 15,6 °C 15,6 °C 87 % 1013,3 hPa 0,0 mm 0,0 km/h (0 Bft) W 277 ° 0 min 0,000 mm 0,0 UV-I 0 W/m² 13,4 °C 15,6 °C 0,0 km/h (0 Bft)
22.06.2017 04:29 15,6 °C 15,6 °C 87 % 1013,3 hPa 0,0 mm 0,0 km/h (0 Bft) W 277 ° 0 min 0,000 mm 0,0 UV-I 0 W/m² 13,4 °C 15,6 °C 0,0 km/h (0 Bft)
22.06.2017 04:30 15,5 °C 15,6 °C 87 % 1013,4 hPa 0,0 mm 0,0 km/h (0 Bft) W 277 ° 0 min 0,000 mm 0,0 UV-I 0 W/m² 13,3 °C 15,5 °C 0,0 km/h (0 Bft)
22.06.2017 04:31 15,5 °C 15,6 °C 87 % 1013,3 hPa 0,0 mm 0,0 km/h (0 Bft) W 277 ° 0 min 0,000 mm 0,0 UV-I 0 W/m² 13,3 °C 15,5 °C 0,0 km/h (0 Bft)
22.06.2017 04:32 15,6 °C 15,6 °C 87 % 1013,3 hPa 0,0 mm 0,0 km/h (0 Bft) W 277 ° 0 min 0,000 mm 0,0 UV-I 0 W/m² 13,4 °C 15,6 °C 0,0 km/h (0 Bft)
22.06.2017 04:33 15,6 °C 15,6 °C 87 % 1013,3 hPa 0,0 mm 0,0 km/h (0 Bft) W 277 ° 0 min 0,000 mm 0,0 UV-I 0 W/m² 13,4 °C 15,6 °C 0,0 km/h (0 Bft)
22.06.2017 04:34 15,6 °C 15,6 °C 87 % 1013,3 hPa 0,0 mm 0,0 km/h (0 Bft) W 277 ° 0 min 0,000 mm 0,0 UV-I 0 W/m² 13,4 °C 15,6 °C 0,0 km/h (0 Bft)
22.06.2017 04:35 15,6 °C 15,6 °C 86 % 1013,3 hPa 0,0 mm 0,0 km/h (0 Bft) W 277 ° 0 min 0,000 mm 0,0 UV-I 0 W/m² 13,3 °C 15,6 °C 0,0 km/h (0 Bft)
22.06.2017 04:36 15,6 °C 15,6 °C 86 % 1013,4 hPa 0,0 mm 0,0 km/h (0 Bft) W 277 ° 0 min 0,000 mm 0,0 UV-I 0 W/m² 13,3 °C 15,6 °C 0,0 km/h (0 Bft)
22.06.2017 04:37 15,6 °C 15,6 °C 86 % 1013,4 hPa 0,0 mm 0,0 km/h (0 Bft) W 277 ° 0 min 0,000 mm 0,0 UV-I 0 W/m² 13,3 °C 15,6 °C 0,0 km/h (0 Bft)
22.06.2017 04:38 15,5 °C 15,6 °C 87 % 1013,4 hPa 0,0 mm 0,0 km/h (0 Bft) W 277 ° 0 min 0,000 mm 0,0 UV-I 0 W/m² 13,3 °C 15,5 °C 0,0 km/h (0 Bft)
22.06.2017 04:39 15,4 °C 15,5 °C 87 % 1013,4 hPa 0,0 mm 0,0 km/h (0 Bft) W 277 ° 0 min 0,000 mm 0,0 UV-I 0 W/m² 13,2 °C 15,4 °C 0,0 km/h (0 Bft)
22.06.2017 04:40 15,5 °C 15,5 °C 87 % 1013,4 hPa 0,0 mm 0,0 km/h (0 Bft) W 277 ° 0 min 0,000 mm 0,0 UV-I 0 W/m² 13,3 °C 15,5 °C 0,0 km/h (0 Bft)
22.06.2017 04:41 15,4 °C 15,5 °C 87 % 1013,4 hPa 0,0 mm 0,0 km/h (0 Bft) W 277 ° 0 min 0,000 mm 0,0 UV-I 0 W/m² 13,2 °C 15,4 °C 0,0 km/h (0 Bft)
22.06.2017 04:42 15,5 °C 15,5 °C 87 % 1013,4 hPa 0,0 mm 0,0 km/h (0 Bft) W 277 ° 0 min 0,000 mm 0,0 UV-I 0 W/m² 13,3 °C 15,5 °C 0,0 km/h (0 Bft)
22.06.2017 04:43 15,4 °C 15,5 °C 87 % 1013,4 hPa 0,0 mm 0,0 km/h (0 Bft) W 277 ° 0 min 0,000 mm 0,0 UV-I 0 W/m² 13,2 °C 15,4 °C 0,0 km/h (0 Bft)
22.06.2017 04:44 15,4 °C 15,5 °C 87 % 1013,4 hPa 0,0 mm 0,0 km/h (0 Bft) W 277 ° 0 min 0,000 mm 0,0 UV-I 0 W/m² 13,2 °C 15,4 °C 0,0 km/h (0 Bft)
22.06.2017 04:45 15,4 °C 15,4 °C 87 % 1013,5 hPa 0,0 mm 0,0 km/h (0 Bft) W 277 ° 0 min 0,000 mm 0,0 UV-I 0 W/m² 13,2 °C 15,4 °C 0,0 km/h (0 Bft)
22.06.2017 04:46 15,4 °C 15,4 °C 87 % 1013,5 hPa 0,0 mm 0,0 km/h (0 Bft) W 277 ° 0 min 0,000 mm 0,0 UV-I 0 W/m² 13,2 °C 15,4 °C 0,0 km/h (0 Bft)
22.06.2017 04:47 15,4 °C 15,4 °C 87 % 1013,5 hPa 0,0 mm 0,0 km/h (0 Bft) W 277 ° 0 min 0,000 mm 0,0 UV-I 0 W/m² 13,2 °C 15,4 °C 0,0 km/h (0 Bft)
22.06.2017 04:48 15,4 °C 15,4 °C 87 % 1013,5 hPa 0,0 mm 0,0 km/h (0 Bft) W 277 ° 0 min 0,000 mm 0,0 UV-I 0 W/m² 13,2 °C 15,4 °C 0,0 km/h (0 Bft)
22.06.2017 04:49 15,5 °C 15,5 °C 87 % 1013,5 hPa 0,0 mm 0,0 km/h (0 Bft) W 277 ° 0 min 0,000 mm 0,0 UV-I 0 W/m² 13,3 °C 15,5 °C 0,0 km/h (0 Bft)
22.06.2017 04:50 15,4 °C 15,5 °C 87 % 1013,4 hPa 0,0 mm 0,0 km/h (0 Bft) W 277 ° 0 min 0,000 mm 0,0 UV-I 0 W/m² 13,2 °C 15,4 °C 0,0 km/h (0 Bft)
22.06.2017 04:51 15,4 °C 15,4 °C 87 % 1013,4 hPa 0,0 mm 0,0 km/h (0 Bft) W 277 ° 0 min 0,000 mm 0,0 UV-I 0 W/m² 13,2 °C 15,4 °C 0,0 km/h (0 Bft)
22.06.2017 04:52 15,4 °C 15,4 °C 87 % 1013,4 hPa 0,0 mm 0,0 km/h (0 Bft) W 277 ° 0 min 0,000 mm 0,0 UV-I 0 W/m² 13,2 °C 15,4 °C 0,0 km/h (0 Bft)
22.06.2017 04:53 15,4 °C 15,4 °C 87 % 1013,4 hPa 0,0 mm 0,0 km/h (0 Bft) W 277 ° 0 min 0,000 mm 0,0 UV-I 0 W/m² 13,2 °C 15,4 °C 0,0 km/h (0 Bft)
22.06.2017 04:54 15,4 °C 15,4 °C 87 % 1013,5 hPa 0,0 mm 0,0 km/h (0 Bft) W 277 ° 0 min 0,000 mm 0,0 UV-I 0 W/m² 13,2 °C 15,4 °C 0,0 km/h (0 Bft)
22.06.2017 04:55 15,4 °C 15,4 °C 87 % 1013,5 hPa 0,0 mm 0,0 km/h (0 Bft) W 277 ° 0 min 0,000 mm 0,0 UV-I 0 W/m² 13,2 °C 15,4 °C 0,0 km/h (0 Bft)
22.06.2017 04:56 15,4 °C 15,5 °C 87 % 1013,5 hPa 0,0 mm 0,0 km/h (0 Bft) W 277 ° 0 min 0,000 mm 0,0 UV-I 0 W/m² 13,2 °C 15,4 °C 0,0 km/h (0 Bft)
22.06.2017 04:57 15,4 °C 15,4 °C 87 % 1013,4 hPa 0,0 mm 0,0 km/h (0 Bft) W 277 ° 0 min 0,000 mm 0,0 UV-I 0 W/m² 13,2 °C 15,4 °C 0,0 km/h (0 Bft)
22.06.2017 04:58 15,3 °C 15,4 °C 87 % 1013,4 hPa 0,0 mm 0,0 km/h (0 Bft) W 277 ° 0 min 0,000 mm 0,0 UV-I 0 W/m² 13,1 °C 15,3 °C 0,0 km/h (0 Bft)
22.06.2017 04:59 15,2 °C 15,3 °C 87 % 1013,5 hPa 0,0 mm 0,0 km/h (0 Bft) W 277 ° 0 min 0,000 mm 0,0 UV-I 0 W/m² 13,0 °C 15,2 °C 0,0 km/h (0 Bft)
22.06.2017 05:00 15,2 °C 15,2 °C 88 % 1013,5 hPa 0,0 mm 0,0 km/h (0 Bft) W 277 ° 0 min 0,000 mm 0,0 UV-I 0 W/m² 13,2 °C 15,2 °C 0,0 km/h (0 Bft)
22.06.2017 05:01 15,2 °C 15,2 °C 88 % 1013,5 hPa 0,0 mm 0,0 km/h (0 Bft) W 277 ° 0 min 0,000 mm 0,0 UV-I 0 W/m² 13,2 °C 15,2 °C 0,0 km/h (0 Bft)
22.06.2017 05:02 15,1 °C 15,2 °C 88 % 1013,5 hPa 0,0 mm 0,0 km/h (0 Bft) W 277 ° 0 min 0,000 mm 0,0 UV-I 0 W/m² 13,1 °C 15,1 °C 0,0 km/h (0 Bft)
22.06.2017 05:03 15,1 °C 15,2 °C 88 % 1013,5 hPa 0,0 mm 0,0 km/h (0 Bft) W 277 ° 0 min 0,000 mm 0,0 UV-I 0 W/m² 13,1 °C 15,1 °C 0,0 km/h (0 Bft)
22.06.2017 05:04 15,1 °C 15,1 °C 88 % 1013,5 hPa 0,0 mm 0,0 km/h (0 Bft) W 277 ° 0 min 0,000 mm 0,0 UV-I 0 W/m² 13,1 °C 15,1 °C 0,0 km/h (0 Bft)
22.06.2017 05:05 15,0 °C 15,1 °C 88 % 1013,6 hPa 0,0 mm 0,0 km/h (0 Bft) W 277 ° 0 min 0,000 mm 0,0 UV-I 0 W/m² 13,0 °C 15,0 °C 0,0 km/h (0 Bft)
22.06.2017 05:06 15,0 °C 15,0 °C 89 % 1013,6 hPa 0,0 mm 0,0 km/h (0 Bft) W 277 ° 0 min 0,000 mm 0,0 UV-I 0 W/m² 13,2 °C 15,0 °C 0,0 km/h (0 Bft)
22.06.2017 05:07 15,0 °C 15,0 °C 89 % 1013,6 hPa 0,0 mm 0,0 km/h (0 Bft) W 277 ° 0 min 0,000 mm 0,0 UV-I 0 W/m² 13,2 °C 15,0 °C 0,0 km/h (0 Bft)
22.06.2017 05:08 15,0 °C 15,0 °C 89 % 1013,6 hPa 0,0 mm 0,0 km/h (0 Bft) W 277 ° 0 min 0,000 mm 0,0 UV-I 0 W/m² 13,2 °C 15,0 °C 0,0 km/h (0 Bft)
22.06.2017 05:09 15,1 °C 15,1 °C 89 % 1013,6 hPa 0,0 mm 0,0 km/h (0 Bft) W 277 ° 0 min 0,000 mm 0,0 UV-I 0 W/m² 13,3 °C 15,1 °C 0,0 km/h (0 Bft)
22.06.2017 05:10 15,1 °C 15,1 °C 89 % 1013,6 hPa 0,0 mm 0,0 km/h (0 Bft) W 277 ° 0 min 0,000 mm 0,0 UV-I 0 W/m² 13,3 °C 15,1 °C 0,0 km/h (0 Bft)
22.06.2017 05:11 15,1 °C 15,1 °C 89 % 1013,7 hPa 0,0 mm 0,0 km/h (0 Bft) W 277 ° 0 min 0,000 mm 0,0 UV-I 0 W/m² 13,3 °C 15,1 °C 0,0 km/h (0 Bft)
22.06.2017 05:12 15,1 °C 15,1 °C 89 % 1013,7 hPa 0,0 mm 0,0 km/h (0 Bft) W 277 ° 0 min 0,000 mm 0,0 UV-I 0 W/m² 13,3 °C 15,1 °C 0,0 km/h (0 Bft)
22.06.2017 05:13 15,1 °C 15,1 °C 89 % 1013,7 hPa 0,0 mm 0,0 km/h (0 Bft) W 277 ° 0 min 0,000 mm 0,0 UV-I 0 W/m² 13,3 °C 15,1 °C 0,0 km/h (0 Bft)
22.06.2017 05:14 15,1 °C 15,1 °C 89 % 1013,7 hPa 0,0 mm 0,0 km/h (0 Bft) W 277 ° 0 min 0,000 mm 0,0 UV-I 0 W/m² 13,3 °C 15,1 °C 0,0 km/h (0 Bft)
22.06.2017 05:15 15,1 °C 15,1 °C 89 % 1013,7 hPa 0,0 mm 0,0 km/h (0 Bft) W 277 ° 0 min 0,000 mm 0,0 UV-I 0 W/m² 13,3 °C 15,1 °C 0,0 km/h (0 Bft)
22.06.2017 05:16 15,1 °C 15,1 °C 89 % 1013,7 hPa 0,0 mm 0,0 km/h (0 Bft) W 277 ° 0 min 0,000 mm 0,0 UV-I 0 W/m² 13,3 °C 15,1 °C 0,0 km/h (0 Bft)
22.06.2017 05:17 15,2 °C 15,2 °C 89 % 1013,7 hPa 0,0 mm 0,0 km/h (0 Bft) W 277 ° 0 min 0,000 mm 0,0 UV-I 0 W/m² 13,4 °C 15,2 °C 0,0 km/h (0 Bft)
22.06.2017 05:18 15,2 °C 15,2 °C 88 % 1013,7 hPa 0,0 mm 0,0 km/h (0 Bft) W 277 ° 0 min 0,000 mm 0,0 UV-I 0 W/m² 13,2 °C 15,2 °C 0,0 km/h (0 Bft)
22.06.2017 05:19 15,2 °C 15,2 °C 88 % 1013,7 hPa 0,0 mm 0,0 km/h (0 Bft) W 277 ° 0 min 0,000 mm 0,0 UV-I 0 W/m² 13,2 °C 15,2 °C 0,0 km/h (0 Bft)
22.06.2017 05:20 15,3 °C 15,3 °C 88 % 1013,7 hPa 0,0 mm 0,0 km/h (0 Bft) W 277 ° 0 min 0,000 mm 0,0 UV-I 0 W/m² 13,3 °C 15,3 °C 0,0 km/h (0 Bft)
22.06.2017 05:21 15,3 °C 15,3 °C 88 % 1013,7 hPa 0,0 mm 0,0 km/h (0 Bft) W 277 ° 0 min 0,000 mm 0,0 UV-I 0 W/m² 13,3 °C 15,3 °C 0,0 km/h (0 Bft)
22.06.2017 05:22 15,4 °C 15,4 °C 88 % 1013,7 hPa 0,0 mm 0,0 km/h (0 Bft) W 277 ° 0 min 0,000 mm 0,0 UV-I 0 W/m² 13,4 °C 15,4 °C 0,0 km/h (0 Bft)
22.06.2017 05:23 15,4 °C 15,4 °C 88 % 1013,7 hPa 0,0 mm 0,0 km/h (0 Bft) W 277 ° 0 min 0,000 mm 0,0 UV-I 0 W/m² 13,4 °C 15,4 °C 0,0 km/h (0 Bft)
22.06.2017 05:24 15,5 °C 15,5 °C 87 % 1013,7 hPa 0,0 mm 0,0 km/h (0 Bft) W 277 ° 0 min 0,000 mm 0,0 UV-I 5 W/m² 13,3 °C 15,5 °C 0,0 km/h (0 Bft)
22.06.2017 05:25 15,5 °C 15,5 °C 87 % 1013,7 hPa 0,0 mm 0,0 km/h (0 Bft) W 277 ° 0 min 0,000 mm 0,0 UV-I 5 W/m² 13,3 °C 15,5 °C 0,0 km/h (0 Bft)
22.06.2017 05:26 15,6 °C 15,6 °C 88 % 1013,8 hPa 0,0 mm 0,0 km/h (0 Bft) W 277 ° 0 min 0,000 mm 0,0 UV-I 5 W/m² 13,6 °C 15,6 °C 0,0 km/h (0 Bft)
22.06.2017 05:27 15,5 °C 15,6 °C 88 % 1013,8 hPa 0,0 mm 0,0 km/h (0 Bft) W 277 ° 0 min 0,000 mm 0,0 UV-I 5 W/m² 13,5 °C 15,5 °C 0,0 km/h (0 Bft)
22.06.2017 05:28 15,5 °C 15,6 °C 87 % 1013,8 hPa 0,0 mm 0,0 km/h (0 Bft) W 277 ° 0 min 0,000 mm 0,0 UV-I 5 W/m² 13,3 °C 15,5 °C 0,0 km/h (0 Bft)
22.06.2017 05:29 15,6 °C 15,6 °C 88 % 1013,9 hPa 0,0 mm 0,0 km/h (0 Bft) W 277 ° 0 min 0,000 mm 0,0 UV-I 5 W/m² 13,6 °C 15,6 °C 0,0 km/h (0 Bft)
22.06.2017 05:30 15,4 °C 15,6 °C 87 % 1013,8 hPa 0,0 mm 0,0 km/h (0 Bft) W 277 ° 0 min 0,000 mm 0,0 UV-I 7 W/m² 13,2 °C 15,4 °C 0,0 km/h (0 Bft)
22.06.2017 05:31 15,5 °C 15,5 °C 87 % 1013,8 hPa 0,0 mm 0,0 km/h (0 Bft) W 277 ° 0 min 0,000 mm 0,0 UV-I 7 W/m² 13,3 °C 15,5 °C 0,0 km/h (0 Bft)
22.06.2017 05:32 15,6 °C 15,6 °C 88 % 1013,8 hPa 0,0 mm 0,0 km/h (0 Bft) W 277 ° 0 min 0,000 mm 0,0 UV-I 7 W/m² 13,6 °C 15,6 °C 0,0 km/h (0 Bft)
22.06.2017 05:33 15,7 °C 15,7 °C 87 % 1013,8 hPa 0,0 mm 0,0 km/h (0 Bft) W 277 ° 0 min 0,000 mm 0,0 UV-I 7 W/m² 13,5 °C 15,7 °C 0,0 km/h (0 Bft)
22.06.2017 05:34 15,7 °C 15,7 °C 87 % 1013,9 hPa 0,0 mm 0,0 km/h (0 Bft) W 277 ° 0 min 0,000 mm 0,0 UV-I 9 W/m² 13,5 °C 15,7 °C 0,0 km/h (0 Bft)
22.06.2017 05:35 15,7 °C 15,7 °C 87 % 1013,9 hPa 0,0 mm 0,0 km/h (0 Bft) W 277 ° 0 min 0,000 mm 0,0 UV-I 9 W/m² 13,5 °C 15,7 °C 0,0 km/h (0 Bft)
22.06.2017 05:36 15,7 °C 15,7 °C 87 % 1013,8 hPa 0,0 mm 0,0 km/h (0 Bft) W 277 ° 0 min 0,000 mm 0,0 UV-I 9 W/m² 13,5 °C 15,7 °C 0,0 km/h (0 Bft)
22.06.2017 05:37 15,6 °C 15,7 °C 87 % 1013,8 hPa 0,0 mm 0,0 km/h (0 Bft) W 277 ° 0 min 0,000 mm 0,0 UV-I 9 W/m² 13,4 °C 15,6 °C 0,0 km/h (0 Bft)
22.06.2017 05:38 15,6 °C 15,6 °C 87 % 1013,9 hPa 0,0 mm 0,0 km/h (0 Bft) W 277 ° 0 min 0,000 mm 0,0 UV-I 9 W/m² 13,4 °C 15,6 °C 0,0 km/h (0 Bft)
22.06.2017 05:39 15,7 °C 15,7 °C 87 % 1013,9 hPa 0,0 mm 0,0 km/h (0 Bft) W 277 ° 0 min 0,000 mm 0,0 UV-I 11 W/m² 13,5 °C 15,7 °C 0,0 km/h (0 Bft)
22.06.2017 05:40 15,7 °C 15,7 °C 87 % 1013,9 hPa 0,0 mm 0,0 km/h (0 Bft) W 277 ° 0 min 0,000 mm 0,0 UV-I 11 W/m² 13,5 °C 15,7 °C 0,0 km/h (0 Bft)
22.06.2017 05:41 15,8 °C 15,8 °C 86 % 1013,9 hPa 0,0 mm 0,0 km/h (0 Bft) W 277 ° 0 min 0,000 mm 0,0 UV-I 11 W/m² 13,5 °C 15,8 °C 0,0 km/h (0 Bft)
22.06.2017 05:42 15,8 °C 15,8 °C 86 % 1013,9 hPa 0,0 mm 0,0 km/h (0 Bft) W 277 ° 0 min 0,000 mm 0,0 UV-I 11 W/m² 13,5 °C 15,8 °C 0,0 km/h (0 Bft)
22.06.2017 05:43 15,9 °C 15,9 °C 86 % 1013,9 hPa 0,0 mm 0,0 km/h (0 Bft) W 277 ° 0 min 0,000 mm 0,0 UV-I 11 W/m² 13,6 °C 15,9 °C 0,0 km/h (0 Bft)
22.06.2017 05:44 16,0 °C 16,0 °C 85 % 1013,9 hPa 0,0 mm 0,0 km/h (0 Bft) W 277 ° 0 min 0,000 mm 0,0 UV-I 11 W/m² 13,5 °C 16,0 °C 0,0 km/h (0 Bft)
22.06.2017 05:45 16,1 °C 16,1 °C 85 % 1013,9 hPa 0,0 mm 0,0 km/h (0 Bft) W 277 ° 0 min 0,000 mm 0,0 UV-I 11 W/m² 13,6 °C 16,1 °C 0,0 km/h (0 Bft)
22.06.2017 05:46 16,2 °C 16,2 °C 85 % 1013,9 hPa 0,0 mm 0,0 km/h (0 Bft) W 277 ° 0 min 0,000 mm 0,0 UV-I 12 W/m² 13,7 °C 16,2 °C 0,0 km/h (0 Bft)
22.06.2017 05:47 16,2 °C 16,2 °C 85 % 1013,9 hPa 0,0 mm 0,0 km/h (0 Bft) W 277 ° 0 min 0,000 mm 0,0 UV-I 12 W/m² 13,7 °C 16,2 °C 0,0 km/h (0 Bft)
22.06.2017 05:48 16,2 °C 16,2 °C 84 % 1013,9 hPa 0,0 mm 0,0 km/h (0 Bft) W 277 ° 0 min 0,000 mm 0,0 UV-I 14 W/m² 13,5 °C 16,2 °C 0,0 km/h (0 Bft)
22.06.2017 05:49 16,3 °C 16,3 °C 84 % 1013,9 hPa 0,0 mm 0,0 km/h (0 Bft) W 277 ° 0 min 0,000 mm 0,0 UV-I 14 W/m² 13,6 °C 16,3 °C 0,0 km/h (0 Bft)
22.06.2017 05:50 16,3 °C 16,3 °C 84 % 1013,9 hPa 0,0 mm 0,0 km/h (0 Bft) W 277 ° 0 min 0,000 mm 0,0 UV-I 14 W/m² 13,6 °C 16,3 °C 0,0 km/h (0 Bft)
22.06.2017 05:51 16,3 °C 16,3 °C 84 % 1013,9 hPa 0,0 mm 0,0 km/h (0 Bft) W 277 ° 0 min 0,000 mm 0,0 UV-I 14 W/m² 13,6 °C 16,3 °C 0,0 km/h (0 Bft)
22.06.2017 05:52 16,3 °C 16,3 °C 84 % 1014,0 hPa 0,0 mm 0,0 km/h (0 Bft) W 277 ° 0 min 0,000 mm 0,0 UV-I 16 W/m² 13,6 °C 16,3 °C 0,0 km/h (0 Bft)
22.06.2017 05:53 16,3 °C 16,3 °C 84 % 1014,0 hPa 0,0 mm 0,0 km/h (0 Bft) W 277 ° 0 min 0,000 mm 0,0 UV-I 16 W/m² 13,6 °C 16,3 °C 0,0 km/h (0 Bft)
22.06.2017 05:54 16,2 °C 16,3 °C 84 % 1014,0 hPa 0,0 mm 0,0 km/h (0 Bft) W 277 ° 0 min 0,000 mm 0,0 UV-I 18 W/m² 13,5 °C 16,2 °C 0,0 km/h (0 Bft)
22.06.2017 05:55 16,2 °C 16,3 °C 84 % 1014,0 hPa 0,0 mm 0,0 km/h (0 Bft) W 277 ° 0 min 0,000 mm 0,0 UV-I 18 W/m² 13,5 °C 16,2 °C 0,0 km/h (0 Bft)
22.06.2017 05:56 16,3 °C 16,3 °C 84 % 1014,0 hPa 0,0 mm 0,0 km/h (0 Bft) W 277 ° 0 min 0,000 mm 0,0 UV-I 18 W/m² 13,6 °C 16,3 °C 0,0 km/h (0 Bft)
22.06.2017 05:57 16,3 °C 16,3 °C 84 % 1013,9 hPa 0,0 mm 0,0 km/h (0 Bft) W 277 ° 0 min 0,000 mm 0,0 UV-I 21 W/m² 13,6 °C 16,3 °C 0,0 km/h (0 Bft)
22.06.2017 05:58 16,3 °C 16,3 °C 84 % 1014,0 hPa 0,0 mm 0,0 km/h (0 Bft) W 277 ° 0 min 0,000 mm 0,0 UV-I 23 W/m² 13,6 °C 16,3 °C 0,0 km/h (0 Bft)
22.06.2017 05:59 16,4 °C 16,4 °C 84 % 1013,9 hPa 0,0 mm 0,0 km/h (0 Bft) W 277 ° 0 min 0,000 mm 0,0 UV-I 23 W/m² 13,7 °C 16,4 °C 0,0 km/h (0 Bft)
22.06.2017 06:00 16,4 °C 16,4 °C 84 % 1014,0 hPa 0,0 mm 0,0 km/h (0 Bft) W 277 ° 0 min 0,000 mm 0,0 UV-I 23 W/m² 13,7 °C 16,4 °C 0,0 km/h (0 Bft)
22.06.2017 06:01 16,4 °C 16,4 °C 84 % 1014,0 hPa 0,0 mm 0,0 km/h (0 Bft) W 277 ° 0 min 0,000 mm 0,0 UV-I 26 W/m² 13,7 °C 16,4 °C 0,0 km/h (0 Bft)
22.06.2017 06:02 16,3 °C 16,4 °C 84 % 1014,0 hPa 0,0 mm 0,0 km/h (0 Bft) W 277 ° 0 min 0,000 mm 0,0 UV-I 30 W/m² 13,6 °C 16,3 °C 0,0 km/h (0 Bft)
22.06.2017 06:03 16,3 °C 16,3 °C 84 % 1014,0 hPa 0,0 mm 0,0 km/h (0 Bft) W 277 ° 0 min 0,000 mm 0,0 UV-I 35 W/m² 13,6 °C 16,3 °C 0,0 km/h (0 Bft)
22.06.2017 06:04 16,2 °C 16,3 °C 85 % 1014,0 hPa 0,0 mm 0,0 km/h (0 Bft) W 277 ° 0 min 0,000 mm 0,0 UV-I 35 W/m² 13,7 °C 16,2 °C 0,0 km/h (0 Bft)
22.06.2017 06:05 16,1 °C 16,2 °C 85 % 1014,0 hPa 0,0 mm 0,0 km/h (0 Bft) W 277 ° 0 min 0,000 mm 0,0 UV-I 35 W/m² 13,6 °C 16,1 °C 0,0 km/h (0 Bft)
22.06.2017 06:06 16,1 °C 16,2 °C 85 % 1014,0 hPa 0,0 mm 0,0 km/h (0 Bft) W 277 ° 0 min 0,000 mm 0,0 UV-I 30 W/m² 13,6 °C 16,1 °C 0,0 km/h (0 Bft)
22.06.2017 06:07 16,2 °C 16,2 °C 85 % 1014,0 hPa 0,0 mm 0,0 km/h (0 Bft) W 277 ° 0 min 0,000 mm 0,0 UV-I 28 W/m² 13,7 °C 16,2 °C 0,0 km/h (0 Bft)
22.06.2017 06:08 16,2 °C 16,2 °C 85 % 1014,1 hPa 0,0 mm 0,0 km/h (0 Bft) W 277 ° 0 min 0,000 mm 0,0 UV-I 25 W/m² 13,7 °C 16,2 °C 0,0 km/h (0 Bft)
22.06.2017 06:09 16,2 °C 16,2 °C 85 % 1014,0 hPa 0,0 mm 0,0 km/h (0 Bft) W 277 ° 0 min 0,000 mm 0,0 UV-I 23 W/m² 13,7 °C 16,2 °C 0,0 km/h (0 Bft)
22.06.2017 06:10 16,2 °C 16,2 °C 85 % 1014,1 hPa 0,0 mm 0,0 km/h (0 Bft) W 277 ° 0 min 0,000 mm 0,0 UV-I 23 W/m² 13,7 °C 16,2 °C 0,0 km/h (0 Bft)
22.06.2017 06:11 16,2 °C 16,2 °C 85 % 1014,1 hPa 0,0 mm 0,0 km/h (0 Bft) W 277 ° 0 min 0,000 mm 0,0 UV-I 23 W/m² 13,7 °C 16,2 °C 0,0 km/h (0 Bft)
22.06.2017 06:12 16,2 °C 16,2 °C 85 % 1014,1 hPa 0,0 mm 0,0 km/h (0 Bft) W 277 ° 0 min 0,000 mm 0,0 UV-I 23 W/m² 13,7 °C 16,2 °C 0,0 km/h (0 Bft)
22.06.2017 06:13 16,2 °C 16,3 °C 85 % 1014,1 hPa 0,0 mm 0,0 km/h (0 Bft) W 277 ° 0 min 0,000 mm 0,0 UV-I 23 W/m² 13,7 °C 16,2 °C 0,0 km/h (0 Bft)
22.06.2017 06:14 16,3 °C 16,3 °C 85 % 1014,1 hPa 0,0 mm 0,0 km/h (0 Bft) W 277 ° 0 min 0,000 mm 0,0 UV-I 26 W/m² 13,8 °C 16,3 °C 0,0 km/h (0 Bft)
22.06.2017 06:15 16,3 °C 16,3 °C 85 % 1014,1 hPa 0,0 mm 0,0 km/h (0 Bft) W 277 ° 0 min 0,000 mm 0,0 UV-I 28 W/m² 13,8 °C 16,3 °C 0,0 km/h (0 Bft)
22.06.2017 06:16 16,3 °C 16,3 °C 85 % 1014,1 hPa 0,0 mm 0,0 km/h (0 Bft) W 277 ° 0 min 0,000 mm 0,0 UV-I 32 W/m² 13,8 °C 16,3 °C 0,0 km/h (0 Bft)
22.06.2017 06:17 16,3 °C 16,3 °C 85 % 1014,1 hPa 0,0 mm 0,0 km/h (0 Bft) W 277 ° 0 min 0,000 mm 0,0 UV-I 35 W/m² 13,8 °C 16,3 °C 0,0 km/h (0 Bft)
22.06.2017 06:18 16,3 °C 16,3 °C 86 % 1014,1 hPa 0,0 mm 0,0 km/h (0 Bft) W 277 ° 0 min 0,000 mm 0,0 UV-I 39 W/m² 14,0 °C 16,3 °C 0,0 km/h (0 Bft)
22.06.2017 06:19 16,3 °C 16,3 °C 85 % 1014,1 hPa 0,0 mm 0,0 km/h (0 Bft) W 277 ° 0 min 0,000 mm 0,0 UV-I 40 W/m² 13,8 °C 16,3 °C 0,0 km/h (0 Bft)
22.06.2017 06:20 16,3 °C 16,3 °C 85 % 1014,1 hPa 0,0 mm 0,0 km/h (0 Bft) W 277 ° 0 min 0,000 mm 0,0 UV-I 42 W/m² 13,8 °C 16,3 °C 0,0 km/h (0 Bft)
22.06.2017 06:21 16,4 °C 16,4 °C 85 % 1014,1 hPa 0,0 mm 0,0 km/h (0 Bft) W 277 ° 0 min 0,000 mm 0,0 UV-I 42 W/m² 13,9 °C 16,4 °C 0,0 km/h (0 Bft)
22.06.2017 06:22 16,4 °C 16,4 °C 84 % 1014,1 hPa 0,0 mm 0,0 km/h (0 Bft) W 277 ° 0 min 0,000 mm 0,0 UV-I 42 W/m² 13,7 °C 16,4 °C 0,0 km/h (0 Bft)
22.06.2017 06:23 16,4 °C 16,5 °C 85 % 1014,1 hPa 0,0 mm 0,0 km/h (0 Bft) W 277 ° 0 min 0,000 mm 0,0 UV-I 40 W/m² 13,9 °C 16,4 °C 0,0 km/h (0 Bft)
22.06.2017 06:24 16,4 °C 16,5 °C 85 % 1014,1 hPa 0,0 mm 0,0 km/h (0 Bft) W 277 ° 0 min 0,000 mm 0,0 UV-I 42 W/m² 13,9 °C 16,4 °C 0,0 km/h (0 Bft)
22.06.2017 06:25 16,5 °C 16,5 °C 84 % 1014,2 hPa 0,0 mm 0,0 km/h (0 Bft) W 277 ° 0 min 0,000 mm 0,0 UV-I 42 W/m² 13,8 °C 16,5 °C 0,0 km/h (0 Bft)
22.06.2017 06:26 16,6 °C 16,6 °C 84 % 1014,2 hPa 0,0 mm 0,0 km/h (0 Bft) W 277 ° 0 min 0,000 mm 0,0 UV-I 47 W/m² 13,9 °C 16,6 °C 0,0 km/h (0 Bft)
22.06.2017 06:27 16,6 °C 16,6 °C 84 % 1014,2 hPa 0,0 mm 0,0 km/h (0 Bft) W 277 ° 0 min 0,000 mm 0,0 UV-I 65 W/m² 13,9 °C 16,6 °C 0,0 km/h (0 Bft)
22.06.2017 06:28 16,7 °C 16,7 °C 84 % 1014,2 hPa 0,0 mm 0,0 km/h (0 Bft) W 277 ° 0 min 0,000 mm 0,0 UV-I 65 W/m² 14,0 °C 16,7 °C 0,0 km/h (0 Bft)
22.06.2017 06:29 16,7 °C 16,7 °C 84 % 1014,2 hPa 0,0 mm 0,0 km/h (0 Bft) W 277 ° 0 min 0,000 mm 0,0 UV-I 44 W/m² 14,0 °C 16,7 °C 0,0 km/h (0 Bft)
22.06.2017 06:30 16,7 °C 16,7 °C 85 % 1014,2 hPa 0,0 mm 0,0 km/h (0 Bft) W 277 ° 0 min 0,000 mm 0,0 UV-I 60 W/m² 14,2 °C 16,7 °C 0,0 km/h (0 Bft)
22.06.2017 06:31 16,7 °C 16,7 °C 84 % 1014,3 hPa 0,0 mm 0,0 km/h (0 Bft) W 277 ° 0 min 0,000 mm 0,0 UV-I 63 W/m² 14,0 °C 16,7 °C 0,0 km/h (0 Bft)
22.06.2017 06:32 16,7 °C 16,8 °C 85 % 1014,2 hPa 0,0 mm 0,0 km/h (0 Bft) W 277 ° 0 min 0,000 mm 0,0 UV-I 42 W/m² 14,2 °C 16,7 °C 0,0 km/h (0 Bft)
22.06.2017 06:33 16,7 °C 16,7 °C 85 % 1014,3 hPa 0,0 mm 0,0 km/h (0 Bft) W 277 ° 0 min 0,000 mm 0,0 UV-I 46 W/m² 14,2 °C 16,7 °C 0,0 km/h (0 Bft)
22.06.2017 06:34 16,7 °C 16,7 °C 85 % 1014,3 hPa 0,0 mm 0,0 km/h (0 Bft) W 277 ° 0 min 0,000 mm 0,0 UV-I 72 W/m² 14,2 °C 16,7 °C 0,0 km/h (0 Bft)
22.06.2017 06:35 16,7 °C 16,7 °C 85 % 1014,2 hPa 0,0 mm 0,0 km/h (0 Bft) W 277 ° 0 min 0,000 mm 0,0 UV-I 77 W/m² 14,2 °C 16,7 °C 0,0 km/h (0 Bft)
22.06.2017 06:36 16,7 °C 16,7 °C 85 % 1014,3 hPa 0,0 mm 0,0 km/h (0 Bft) W 277 ° 0 min 0,000 mm 0,0 UV-I 56 W/m² 14,2 °C 16,7 °C 0,0 km/h (0 Bft)
22.06.2017 06:37 16,7 °C 16,7 °C 84 % 1014,3 hPa 0,0 mm 0,0 km/h (0 Bft) W 277 ° 0 min 0,000 mm 0,0 UV-I 53 W/m² 14,0 °C 16,7 °C 0,0 km/h (0 Bft)
22.06.2017 06:38 16,7 °C 16,7 °C 84 % 1014,3 hPa 0,0 mm 0,0 km/h (0 Bft) W 277 ° 0 min 0,000 mm 0,0 UV-I 70 W/m² 14,0 °C 16,7 °C 0,0 km/h (0 Bft)
22.06.2017 06:39 16,8 °C 16,8 °C 84 % 1014,3 hPa 0,0 mm 0,0 km/h (0 Bft) W 277 ° 0 min 0,000 mm 0,0 UV-I 49 W/m² 14,1 °C 16,8 °C 0,0 km/h (0 Bft)
22.06.2017 06:40 16,8 °C 16,8 °C 84 % 1014,3 hPa 0,0 mm 0,0 km/h (0 Bft) W 277 ° 0 min 0,000 mm 0,0 UV-I 49 W/m² 14,1 °C 16,8 °C 0,0 km/h (0 Bft)
22.06.2017 06:41 16,8 °C 16,8 °C 85 % 1014,3 hPa 0,0 mm 0,0 km/h (0 Bft) W 277 ° 0 min 0,000 mm 0,0 UV-I 67 W/m² 14,3 °C 16,8 °C 0,0 km/h (0 Bft)
22.06.2017 06:42 16,8 °C 16,8 °C 85 % 1014,2 hPa 0,0 mm 0,0 km/h (0 Bft) W 277 ° 0 min 0,000 mm 0,0 UV-I 56 W/m² 14,3 °C 16,8 °C 0,0 km/h (0 Bft)
22.06.2017 06:43 16,8 °C 16,8 °C 85 % 1014,3 hPa 0,0 mm 0,0 km/h (0 Bft) W 277 ° 0 min 0,000 mm 0,0 UV-I 72 W/m² 14,3 °C 16,8 °C 0,0 km/h (0 Bft)
22.06.2017 06:44 16,8 °C 16,8 °C 84 % 1014,2 hPa 0,0 mm 0,0 km/h (0 Bft) W 277 ° 0 min 0,000 mm 0,5 UV-I 116 W/m² 14,1 °C 16,8 °C 0,0 km/h (0 Bft)
22.06.2017 06:45 16,8 °C 16,8 °C 84 % 1014,2 hPa 0,0 mm 0,0 km/h (0 Bft) W 277 ° 0 min 0,000 mm 0,5 UV-I 120 W/m² 14,1 °C 16,8 °C 0,0 km/h (0 Bft)
22.06.2017 06:46 16,9 °C 16,9 °C 86 % 1014,2 hPa 0,0 mm 0,0 km/h (0 Bft) W 277 ° 0 min 0,000 mm 0,5 UV-I 123 W/m² 14,5 °C 16,9 °C 0,0 km/h (0 Bft)
22.06.2017 06:47 17,0 °C 17,0 °C 85 % 1014,2 hPa 0,0 mm 0,0 km/h (0 Bft) W 277 ° 0 min 0,000 mm 0,5 UV-I 127 W/m² 14,5 °C 17,0 °C 0,0 km/h (0 Bft)
22.06.2017 06:48 17,1 °C 17,1 °C 85 % 1014,3 hPa 0,0 mm 0,0 km/h (0 Bft) W 277 ° 0 min 0,000 mm 0,5 UV-I 128 W/m² 14,6 °C 17,1 °C 0,0 km/h (0 Bft)
22.06.2017 06:49 17,1 °C 17,1 °C 84 % 1014,2 hPa 0,0 mm 0,0 km/h (0 Bft) W 277 ° 0 min 0,000 mm 0,5 UV-I 128 W/m² 14,4 °C 17,1 °C 0,0 km/h (0 Bft)
22.06.2017 06:50 17,1 °C 17,1 °C 85 % 1014,2 hPa 0,0 mm 0,0 km/h (0 Bft) W 277 ° 0 min 0,000 mm 0,5 UV-I 123 W/m² 14,6 °C 17,1 °C 0,0 km/h (0 Bft)
22.06.2017 06:51 17,1 °C 17,1 °C 84 % 1014,2 hPa 0,0 mm 0,0 km/h (0 Bft) W 277 ° 0 min 0,000 mm 0,5 UV-I 109 W/m² 14,4 °C 17,1 °C 0,0 km/h (0 Bft)
22.06.2017 06:52 17,2 °C 17,2 °C 85 % 1014,2 hPa 0,0 mm 0,0 km/h (0 Bft) W 277 ° 0 min 0,000 mm 0,5 UV-I 125 W/m² 14,7 °C 17,2 °C 0,0 km/h (0 Bft)
22.06.2017 06:53 17,2 °C 17,2 °C 85 % 1014,2 hPa 0,0 mm 0,0 km/h (0 Bft) W 277 ° 0 min 0,000 mm 0,5 UV-I 120 W/m² 14,7 °C 17,2 °C 0,0 km/h (0 Bft)
22.06.2017 06:54 17,3 °C 17,3 °C 85 % 1014,3 hPa 0,0 mm 0,0 km/h (0 Bft) W 277 ° 0 min 0,000 mm 0,6 UV-I 114 W/m² 14,8 °C 17,3 °C 0,0 km/h (0 Bft)
22.06.2017 06:55 17,3 °C 17,3 °C 86 % 1014,3 hPa 0,0 mm 0,0 km/h (0 Bft) W 277 ° 0 min 0,000 mm 0,6 UV-I 65 W/m² 14,9 °C 17,3 °C 0,0 km/h (0 Bft)
22.06.2017 06:56 17,3 °C 17,3 °C 84 % 1014,3 hPa 0,0 mm 0,0 km/h (0 Bft) W 277 ° 0 min 0,000 mm 0,0 UV-I 54 W/m² 14,6 °C 17,3 °C 0,0 km/h (0 Bft)
22.06.2017 06:57 17,3 °C 17,3 °C 83 % 1014,3 hPa 0,0 mm 0,0 km/h (0 Bft) W 277 ° 0 min 0,000 mm 0,6 UV-I 69 W/m² 14,4 °C 17,3 °C 0,0 km/h (0 Bft)
22.06.2017 06:58 17,3 °C 17,3 °C 83 % 1014,3 hPa 0,0 mm 0,0 km/h (0 Bft) W 277 ° 0 min 0,000 mm 0,6 UV-I 118 W/m² 14,4 °C 17,3 °C 0,0 km/h (0 Bft)
22.06.2017 06:59 17,3 °C 17,3 °C 83 % 1014,3 hPa 0,0 mm 0,0 km/h (0 Bft) W 277 ° 0 min 0,000 mm 0,6 UV-I 118 W/m² 14,4 °C 17,3 °C 0,0 km/h (0 Bft)
22.06.2017 07:00 17,3 °C 17,3 °C 84 % 1014,3 hPa 0,0 mm 0,0 km/h (0 Bft) W 277 ° 0 min 0,000 mm 0,6 UV-I 127 W/m² 14,6 °C 17,3 °C 0,0 km/h (0 Bft)
22.06.2017 07:01 17,3 °C 17,4 °C 85 % 1014,3 hPa 0,0 mm 0,0 km/h (0 Bft) W 277 ° 0 min 0,026 mm 0,6 UV-I 97 W/m² 14,8 °C 17,3 °C 0,0 km/h (0 Bft)
22.06.2017 07:02 17,4 °C 17,4 °C 85 % 1014,3 hPa 0,0 mm 0,0 km/h (0 Bft) W 277 ° 0 min 0,000 mm 0,7 UV-I 77 W/m² 14,8 °C 17,4 °C 0,0 km/h (0 Bft)
22.06.2017 07:03 17,4 °C 17,4 °C 85 % 1014,3 hPa 0,0 mm 0,0 km/h (0 Bft) W 277 ° 0 min 0,000 mm 0,7 UV-I 97 W/m² 14,8 °C 17,4 °C 0,0 km/h (0 Bft)
22.06.2017 07:04 17,4 °C 17,4 °C 84 % 1014,4 hPa 0,0 mm 0,0 km/h (0 Bft) W 277 ° 0 min 0,000 mm 0,7 UV-I 111 W/m² 14,7 °C 17,4 °C 0,0 km/h (0 Bft)
22.06.2017 07:05 17,5 °C 17,5 °C 85 % 1014,4 hPa 0,0 mm 0,0 km/h (0 Bft) W 277 ° 0 min 0,000 mm 0,7 UV-I 156 W/m² 14,9 °C 17,5 °C 0,0 km/h (0 Bft)
22.06.2017 07:06 17,6 °C 17,6 °C 85 % 1014,4 hPa 0,0 mm 0,0 km/h (0 Bft) W 277 ° 0 min 0,000 mm 0,7 UV-I 155 W/m² 15,0 °C 17,6 °C 0,0 km/h (0 Bft)
22.06.2017 07:07 17,6 °C 17,6 °C 84 % 1014,3 hPa 0,0 mm 0,0 km/h (0 Bft) W 277 ° 0 min 0,000 mm 0,7 UV-I 167 W/m² 14,9 °C 17,6 °C 0,0 km/h (0 Bft)
22.06.2017 07:08 17,7 °C 17,7 °C 84 % 1014,4 hPa 0,0 mm 0,0 km/h (0 Bft) W 277 ° 0 min 0,000 mm 0,8 UV-I 163 W/m² 15,0 °C 17,7 °C 0,0 km/h (0 Bft)
22.06.2017 07:09 17,8 °C 17,8 °C 83 % 1014,4 hPa 0,0 mm 0,0 km/h (0 Bft) W 277 ° 0 min 0,000 mm 0,8 UV-I 165 W/m² 14,9 °C 17,8 °C 0,0 km/h (0 Bft)
22.06.2017 07:10 17,9 °C 17,9 °C 83 % 1014,4 hPa 0,0 mm 0,0 km/h (0 Bft) W 277 ° 0 min 0,000 mm 0,7 UV-I 141 W/m² 15,0 °C 17,9 °C 0,0 km/h (0 Bft)
22.06.2017 07:11 17,9 °C 17,9 °C 84 % 1014,4 hPa 0,0 mm 0,0 km/h (0 Bft) W 277 ° 0 min 0,000 mm 0,8 UV-I 156 W/m² 15,2 °C 17,9 °C 0,0 km/h (0 Bft)
22.06.2017 07:12 17,9 °C 17,9 °C 83 % 1014,4 hPa 0,0 mm 0,0 km/h (0 Bft) W 277 ° 0 min 0,000 mm 0,8 UV-I 127 W/m² 15,0 °C 17,9 °C 0,0 km/h (0 Bft)
22.06.2017 07:13 17,9 °C 17,9 °C 82 % 1014,5 hPa 0,0 mm 0,0 km/h (0 Bft) W 277 ° 0 min 0,000 mm 0,8 UV-I 155 W/m² 14,8 °C 17,9 °C 0,0 km/h (0 Bft)
22.06.2017 07:14 17,9 °C 17,9 °C 82 % 1014,4 hPa 0,0 mm 0,0 km/h (0 Bft) W 277 ° 0 min 0,000 mm 0,8 UV-I 81 W/m² 14,8 °C 17,9 °C 0,0 km/h (0 Bft)
22.06.2017 07:15 17,9 °C 17,9 °C 82 % 1014,4 hPa 0,0 mm 0,0 km/h (0 Bft) W 277 ° 0 min 0,000 mm 0,8 UV-I 81 W/m² 14,8 °C 17,9 °C 0,0 km/h (0 Bft)
22.06.2017 07:16 18,0 °C 18,0 °C 83 % 1014,5 hPa 0,0 mm 0,0 km/h (0 Bft) W 277 ° 0 min 0,000 mm 0,8 UV-I 84 W/m² 15,1 °C 18,0 °C 0,0 km/h (0 Bft)
22.06.2017 07:17 18,1 °C 18,1 °C 84 % 1014,5 hPa 0,0 mm 0,0 km/h (0 Bft) W 277 ° 0 min 0,000 mm 0,8 UV-I 163 W/m² 15,4 °C 18,1 °C 0,0 km/h (0 Bft)
22.06.2017 07:18 18,1 °C 18,1 °C 83 % 1014,4 hPa 0,0 mm 0,0 km/h (0 Bft) W 277 ° 0 min 0,000 mm 0,9 UV-I 169 W/m² 15,2 °C 18,1 °C 0,0 km/h (0 Bft)
22.06.2017 07:19 18,1 °C 18,1 °C 83 % 1014,4 hPa 0,0 mm 0,0 km/h (0 Bft) W 277 ° 0 min 0,000 mm 0,9 UV-I 169 W/m² 15,2 °C 18,1 °C 0,0 km/h (0 Bft)
22.06.2017 07:20 18,2 °C 18,2 °C 84 % 1014,3 hPa 0,0 mm 0,0 km/h (0 Bft) W 277 ° 0 min 0,000 mm 0,9 UV-I 162 W/m² 15,4 °C 18,2 °C 0,0 km/h (0 Bft)
22.06.2017 07:21 18,3 °C 18,3 °C 83 % 1014,4 hPa 0,0 mm 0,0 km/h (0 Bft) W 277 ° 0 min 0,000 mm 0,9 UV-I 83 W/m² 15,4 °C 18,3 °C 0,0 km/h (0 Bft)
22.06.2017 07:22 18,3 °C 18,3 °C 84 % 1014,4 hPa 0,0 mm 0,0 km/h (0 Bft) W 277 ° 0 min 0,000 mm 0,9 UV-I 76 W/m² 15,5 °C 18,3 °C 0,0 km/h (0 Bft)
22.06.2017 07:23 18,3 °C 18,3 °C 84 % 1014,4 hPa 0,0 mm 0,0 km/h (0 Bft) W 277 ° 0 min 0,000 mm 0,9 UV-I 137 W/m² 15,5 °C 18,3 °C 0,0 km/h (0 Bft)
22.06.2017 07:24 18,3 °C 18,3 °C 86 % 1014,3 hPa 0,0 mm 0,0 km/h (0 Bft) W 277 ° 0 min 0,000 mm 1,0 UV-I 167 W/m² 15,9 °C 18,3 °C 0,0 km/h (0 Bft)
22.06.2017 07:25 18,3 °C 18,3 °C 86 % 1014,3 hPa 0,0 mm 0,0 km/h (0 Bft) W 277 ° 0 min 0,000 mm 1,0 UV-I 185 W/m² 15,9 °C 18,3 °C 0,0 km/h (0 Bft)
22.06.2017 07:26 18,3 °C 18,3 °C 86 % 1014,3 hPa 0,0 mm 0,0 km/h (0 Bft) W 277 ° 0 min 0,000 mm 1,0 UV-I 199 W/m² 15,9 °C 18,3 °C 0,0 km/h (0 Bft)
22.06.2017 07:27 18,3 °C 18,3 °C 85 % 1014,4 hPa 0,0 mm 0,0 km/h (0 Bft) W 277 ° 0 min 0,000 mm 1,0 UV-I 202 W/m² 15,7 °C 18,3 °C 0,0 km/h (0 Bft)
22.06.2017 07:28 18,4 °C 18,4 °C 85 % 1014,3 hPa 0,0 mm 0,0 km/h (0 Bft) W 277 ° 0 min 0,000 mm 1,0 UV-I 206 W/m² 15,8 °C 18,4 °C 0,0 km/h (0 Bft)
22.06.2017 07:29 18,5 °C 18,5 °C 85 % 1014,4 hPa 0,0 mm 0,0 km/h (0 Bft) W 277 ° 0 min 0,000 mm 1,1 UV-I 211 W/m² 15,9 °C 18,5 °C 0,0 km/h (0 Bft)
22.06.2017 07:30 18,6 °C 18,6 °C 84 % 1014,4 hPa 0,0 mm 0,0 km/h (0 Bft) W 277 ° 0 min 0,000 mm 1,1 UV-I 214 W/m² 15,8 °C 18,6 °C 0,0 km/h (0 Bft)
22.06.2017 07:31 18,6 °C 18,6 °C 85 % 1014,4 hPa 0,0 mm 0,0 km/h (0 Bft) W 277 ° 0 min 0,000 mm 1,1 UV-I 214 W/m² 16,0 °C 18,6 °C 0,0 km/h (0 Bft)
22.06.2017 07:32 18,7 °C 18,7 °C 84 % 1014,4 hPa 0,0 mm 0,0 km/h (0 Bft) W 277 ° 0 min 0,000 mm 1,1 UV-I 214 W/m² 15,9 °C 18,7 °C 0,0 km/h (0 Bft)
22.06.2017 07:33 18,8 °C 18,8 °C 83 % 1014,4 hPa 0,0 mm 0,0 km/h (0 Bft) W 277 ° 0 min 0,000 mm 1,1 UV-I 214 W/m² 15,8 °C 18,8 °C 0,0 km/h (0 Bft)
22.06.2017 07:34 18,8 °C 18,8 °C 84 % 1014,4 hPa 0,0 mm 0,0 km/h (0 Bft) W 277 ° 0 min 0,000 mm 1,1 UV-I 220 W/m² 16,0 °C 18,8 °C 0,0 km/h (0 Bft)
22.06.2017 07:35 18,9 °C 18,9 °C 83 % 1014,4 hPa 0,0 mm 0,0 km/h (0 Bft) W 277 ° 0 min 0,000 mm 1,1 UV-I 225 W/m² 15,9 °C 18,9 °C 0,0 km/h (0 Bft)
22.06.2017 07:36 19,1 °C 19,1 °C 83 % 1014,4 hPa 0,0 mm 0,0 km/h (0 Bft) W 277 ° 0 min 0,000 mm 1,2 UV-I 229 W/m² 16,1 °C 19,1 °C 0,0 km/h (0 Bft)
22.06.2017 07:37 19,1 °C 19,1 °C 83 % 1014,4 hPa 0,0 mm 0,0 km/h (0 Bft) W 277 ° 0 min 0,000 mm 1,2 UV-I 236 W/m² 16,1 °C 19,1 °C 0,0 km/h (0 Bft)
22.06.2017 07:38 19,2 °C 19,2 °C 82 % 1014,4 hPa 0,0 mm 0,0 km/h (0 Bft) W 277 ° 0 min 0,000 mm 1,2 UV-I 237 W/m² 16,0 °C 19,2 °C 0,0 km/h (0 Bft)
22.06.2017 07:39 19,2 °C 19,2 °C 82 % 1014,4 hPa 0,0 mm 0,0 km/h (0 Bft) W 277 ° 0 min 0,000 mm 1,2 UV-I 236 W/m² 16,0 °C 19,2 °C 0,0 km/h (0 Bft)
22.06.2017 07:40 19,2 °C 19,2 °C 82 % 1014,4 hPa 0,0 mm 0,0 km/h (0 Bft) W 277 ° 0 min 0,000 mm 1,2 UV-I 230 W/m² 16,0 °C 19,2 °C 0,0 km/h (0 Bft)
22.06.2017 07:41 19,2 °C 19,2 °C 82 % 1014,4 hPa 0,0 mm 0,0 km/h (0 Bft) W 277 ° 0 min 0,000 mm 1,3 UV-I 223 W/m² 16,0 °C 19,2 °C 0,0 km/h (0 Bft)
22.06.2017 07:42 19,2 °C 19,2 °C 83 % 1014,4 hPa 0,0 mm 0,0 km/h (0 Bft) W 277 ° 0 min 0,000 mm 1,3 UV-I 232 W/m² 16,2 °C 19,2 °C 0,0 km/h (0 Bft)
22.06.2017 07:43 19,3 °C 19,3 °C 83 % 1014,4 hPa 0,0 mm 0,0 km/h (0 Bft) W 277 ° 0 min 0,000 mm 1,3 UV-I 234 W/m² 16,3 °C 19,3 °C 0,0 km/h (0 Bft)
22.06.2017 07:44 19,3 °C 19,3 °C 84 % 1014,4 hPa 0,0 mm 0,0 km/h (0 Bft) W 277 ° 0 min 0,000 mm 1,3 UV-I 236 W/m² 16,5 °C 19,3 °C 0,0 km/h (0 Bft)
22.06.2017 07:45 19,4 °C 19,4 °C 83 % 1014,4 hPa 0,0 mm 0,0 km/h (0 Bft) W 277 ° 0 min 0,000 mm 1,3 UV-I 232 W/m² 16,4 °C 19,4 °C 0,0 km/h (0 Bft)
22.06.2017 07:46 19,4 °C 19,4 °C 82 % 1014,4 hPa 0,0 mm 0,0 km/h (0 Bft) W 277 ° 0 min 0,000 mm 1,3 UV-I 225 W/m² 16,2 °C 19,4 °C 0,0 km/h (0 Bft)
22.06.2017 07:47 19,6 °C 19,6 °C 84 % 1014,4 hPa 0,0 mm 0,0 km/h (0 Bft) W 277 ° 0 min 0,000 mm 1,3 UV-I 232 W/m² 16,8 °C 19,6 °C 0,0 km/h (0 Bft)
22.06.2017 07:48 19,6 °C 19,6 °C 83 % 1014,4 hPa 0,0 mm 0,0 km/h (0 Bft) W 277 ° 0 min 0,000 mm 1,3 UV-I 139 W/m² 16,6 °C 19,6 °C 0,0 km/h (0 Bft)
22.06.2017 07:49 19,7 °C 19,7 °C 83 % 1014,4 hPa 0,0 mm 0,0 km/h (0 Bft) W 277 ° 0 min 0,000 mm 1,2 UV-I 97 W/m² 16,7 °C 19,7 °C 0,0 km/h (0 Bft)
22.06.2017 07:50 19,7 °C 19,7 °C 83 % 1014,4 hPa 0,0 mm 0,0 km/h (0 Bft) W 277 ° 0 min 0,000 mm 1,4 UV-I 97 W/m² 16,7 °C 19,7 °C 0,0 km/h (0 Bft)
22.06.2017 07:51 19,8 °C 19,8 °C 84 % 1014,3 hPa 0,0 mm 0,0 km/h (0 Bft) W 277 ° 0 min 0,000 mm 1,4 UV-I 265 W/m² 17,0 °C 19,8 °C 0,0 km/h (0 Bft)
22.06.2017 07:52 19,9 °C 19,9 °C 84 % 1014,4 hPa 0,0 mm 0,0 km/h (0 Bft) W 277 ° 0 min 0,000 mm 1,4 UV-I 260 W/m² 17,1 °C 19,9 °C 0,0 km/h (0 Bft)
22.06.2017 07:53 20,0 °C 20,0 °C 83 % 1014,4 hPa 0,0 mm 0,0 km/h (0 Bft) W 277 ° 0 min 0,000 mm 1,4 UV-I 255 W/m² 17,0 °C 20,0 °C 0,0 km/h (0 Bft)
22.06.2017 07:54 20,1 °C 20,1 °C 81 % 1014,4 hPa 0,0 mm 0,0 km/h (0 Bft) W 277 ° 0 min 0,000 mm 1,4 UV-I 239 W/m² 16,7 °C 20,1 °C 0,0 km/h (0 Bft)
22.06.2017 07:55 20,1 °C 20,1 °C 81 % 1014,4 hPa 0,0 mm 0,0 km/h (0 Bft) W 277 ° 0 min 0,000 mm 1,5 UV-I 237 W/m² 16,7 °C 20,1 °C 0,0 km/h (0 Bft)
22.06.2017 07:56 20,2 °C 20,2 °C 81 % 1014,4 hPa 0,0 mm 0,0 km/h (0 Bft) W 277 ° 0 min 0,000 mm 1,5 UV-I 237 W/m² 16,8 °C 20,2 °C 0,0 km/h (0 Bft)
22.06.2017 07:57 20,3 °C 20,3 °C 81 % 1014,4 hPa 0,0 mm 0,0 km/h (0 Bft) W 277 ° 0 min 0,000 mm 1,5 UV-I 237 W/m² 16,9 °C 20,3 °C 0,0 km/h (0 Bft)
22.06.2017 07:58 20,3 °C 20,3 °C 81 % 1014,4 hPa 0,0 mm 0,0 km/h (0 Bft) W 277 ° 0 min 0,000 mm 1,5 UV-I 234 W/m² 16,9 °C 20,3 °C 0,0 km/h (0 Bft)
22.06.2017 07:59 20,3 °C 20,3 °C 81 % 1014,4 hPa 0,0 mm 0,0 km/h (0 Bft) W 277 ° 0 min 0,000 mm 1,5 UV-I 230 W/m² 16,9 °C 20,3 °C 0,0 km/h (0 Bft)
22.06.2017 08:00 20,4 °C 20,4 °C 82 % 1014,4 hPa 0,0 mm 0,0 km/h (0 Bft) W 277 ° 0 min 0,101 mm 1,5 UV-I 229 W/m² 17,2 °C 20,4 °C 0,0 km/h (0 Bft)
22.06.2017 08:01 20,5 °C 20,5 °C 84 % 1014,3 hPa 0,0 mm 0,0 km/h (0 Bft) W 277 ° 0 min 0,000 mm 1,6 UV-I 227 W/m² 17,7 °C 20,5 °C 0,0 km/h (0 Bft)
22.06.2017 08:02 20,6 °C 20,6 °C 83 % 1014,3 hPa 0,0 mm 0,0 km/h (0 Bft) W 277 ° 0 min 0,000 mm 1,6 UV-I 221 W/m² 17,6 °C 20,6 °C 0,0 km/h (0 Bft)
22.06.2017 08:03 20,7 °C 20,7 °C 82 % 1014,3 hPa 0,0 mm 0,0 km/h (0 Bft) W 277 ° 0 min 0,000 mm 1,6 UV-I 218 W/m² 17,5 °C 20,7 °C 0,0 km/h (0 Bft)
22.06.2017 08:04 20,8 °C 20,8 °C 83 % 1014,3 hPa 0,0 mm 0,0 km/h (0 Bft) W 277 ° 0 min 0,000 mm 1,6 UV-I 218 W/m² 17,8 °C 20,8 °C 0,0 km/h (0 Bft)
22.06.2017 08:05 21,0 °C 21,0 °C 82 % 1014,3 hPa 0,0 mm 0,0 km/h (0 Bft) W 277 ° 0 min 0,000 mm 1,7 UV-I 223 W/m² 17,8 °C 21,0 °C 0,0 km/h (0 Bft)
22.06.2017 08:06 21,1 °C 21,1 °C 81 % 1014,3 hPa 0,0 mm 0,0 km/h (0 Bft) W 277 ° 0 min 0,000 mm 1,7 UV-I 227 W/m² 17,7 °C 21,1 °C 0,0 km/h (0 Bft)
22.06.2017 08:07 21,2 °C 21,2 °C 79 % 1014,3 hPa 0,0 mm 0,0 km/h (0 Bft) W 277 ° 0 min 0,000 mm 1,7 UV-I 229 W/m² 17,4 °C 21,2 °C 0,0 km/h (0 Bft)
22.06.2017 08:08 21,2 °C 21,2 °C 81 % 1014,3 hPa 0,0 mm 0,0 km/h (0 Bft) W 277 ° 0 min 0,000 mm 1,8 UV-I 230 W/m² 17,8 °C 21,2 °C 0,0 km/h (0 Bft)
22.06.2017 08:09 21,4 °C 21,4 °C 77 % 1014,4 hPa 0,0 mm 0,0 km/h (0 Bft) W 277 ° 0 min 0,000 mm 1,8 UV-I 236 W/m² 17,2 °C 21,4 °C 0,0 km/h (0 Bft)
22.06.2017 08:10 21,4 °C 21,4 °C 78 % 1014,3 hPa 0,0 mm 0,0 km/h (0 Bft) W 277 ° 0 min 0,000 mm 1,8 UV-I 241 W/m² 17,4 °C 21,4 °C 0,0 km/h (0 Bft)
22.06.2017 08:11 21,7 °C 21,7 °C 78 % 1014,3 hPa 0,0 mm 0,0 km/h (0 Bft) W 277 ° 0 min 0,000 mm 1,8 UV-I 251 W/m² 17,7 °C 21,7 °C 0,0 km/h (0 Bft)
22.06.2017 08:12 21,8 °C 21,8 °C 81 % 1014,3 hPa 0,0 mm 0,0 km/h (0 Bft) W 277 ° 0 min 0,000 mm 1,9 UV-I 258 W/m² 18,4 °C 21,8 °C 0,0 km/h (0 Bft)
22.06.2017 08:13 22,1 °C 22,1 °C 78 % 1014,3 hPa 0,0 mm 1,3 km/h (1 Bft) W 277 ° 0 min 0,000 mm 1,9 UV-I 262 W/m² 18,1 °C 22,1 °C 4,8 km/h (1 Bft)
22.06.2017 08:14 22,3 °C 22,3 °C 76 % 1014,3 hPa 0,0 mm 3,3 km/h (1 Bft) W-SW 237 ° 0 min 0,000 mm 1,9 UV-I 271 W/m² 17,9 °C 22,3 °C 6,4 km/h (2 Bft)
22.06.2017 08:15 22,5 °C 22,5 °C 77 % 1014,3 hPa 0,0 mm 3,3 km/h (1 Bft) W-SW 248 ° 0 min 0,000 mm 1,9 UV-I 278 W/m² 18,3 °C 22,5 °C 4,8 km/h (1 Bft)
22.06.2017 08:16 22,7 °C 22,7 °C 74 % 1014,2 hPa 0,0 mm 3,6 km/h (1 Bft) W 266 ° 0 min 0,000 mm 2,0 UV-I 285 W/m² 17,8 °C 22,7 °C 6,4 km/h (2 Bft)
22.06.2017 08:17 22,8 °C 22,8 °C 74 % 1014,3 hPa 0,0 mm 2,6 km/h (1 Bft) W-SW 245 ° 1 min 0,000 mm 2,0 UV-I 295 W/m² 17,9 °C 22,8 °C 6,4 km/h (2 Bft)
22.06.2017 08:18 22,9 °C 22,9 °C 74 % 1014,3 hPa 0,0 mm 2,7 km/h (1 Bft) W-SW 257 ° 1 min 0,000 mm 2,0 UV-I 299 W/m² 18,0 °C 22,9 °C 4,8 km/h (1 Bft)
22.06.2017 08:19 22,9 °C 22,9 °C 74 % 1014,3 hPa 0,0 mm 5,8 km/h (2 Bft) W 265 ° 1 min 0,000 mm 2,0 UV-I 302 W/m² 18,0 °C 22,9 °C 9,7 km/h (2 Bft)
22.06.2017 08:20 23,1 °C 23,1 °C 73 % 1014,3 hPa 0,0 mm 4,1 km/h (1 Bft) W-SW 257 ° 1 min 0,000 mm 2,0 UV-I 309 W/m² 18,0 °C 23,1 °C 6,4 km/h (2 Bft)
22.06.2017 08:21 23,2 °C 23,2 °C 69 % 1014,2 hPa 0,0 mm 5,3 km/h (1 Bft) W 262 ° 1 min 0,000 mm 2,0 UV-I 315 W/m² 17,2 °C 23,2 °C 11,3 km/h (2 Bft)
22.06.2017 08:22 23,3 °C 23,3 °C 70 % 1014,3 hPa 0,0 mm 4,8 km/h (1 Bft) W 266 ° 1 min 0,000 mm 2,1 UV-I 322 W/m² 17,5 °C 23,3 °C 9,7 km/h (2 Bft)
22.06.2017 08:23 23,3 °C 23,3 °C 68 % 1014,3 hPa 0,0 mm 3,6 km/h (1 Bft) W 274 ° 1 min 0,000 mm 2,1 UV-I 330 W/m² 17,1 °C 23,3 °C 6,4 km/h (2 Bft)
22.06.2017 08:24 23,2 °C 23,3 °C 72 % 1014,3 hPa 0,0 mm 4,7 km/h (1 Bft) W 259 ° 1 min 0,000 mm 2,1 UV-I 332 W/m² 17,9 °C 23,2 °C 6,4 km/h (2 Bft)
22.06.2017 08:25 23,2 °C 23,2 °C 69 % 1014,3 hPa 0,0 mm 6,4 km/h (2 Bft) W-SW 256 ° 1 min 0,000 mm 2,1 UV-I 332 W/m² 17,2 °C 23,2 °C 11,3 km/h (2 Bft)
22.06.2017 08:26 23,2 °C 23,2 °C 69 % 1014,3 hPa 0,0 mm 3,2 km/h (1 Bft) W-SW 256 ° 1 min 0,000 mm 2,1 UV-I 332 W/m² 17,2 °C 23,2 °C 4,8 km/h (1 Bft)
22.06.2017 08:27 23,3 °C 23,3 °C 68 % 1014,2 hPa 0,0 mm 4,1 km/h (1 Bft) W 266 ° 1 min 0,000 mm 2,1 UV-I 322 W/m² 17,1 °C 23,3 °C 9,7 km/h (2 Bft)
22.06.2017 08:28 23,3 °C 23,3 °C 70 % 1014,2 hPa 0,0 mm 10,3 km/h (2 Bft) W 269 ° 1 min 0,000 mm 2,1 UV-I 341 W/m² 17,5 °C 23,3 °C 12,9 km/h (3 Bft)
22.06.2017 08:29 23,4 °C 23,4 °C 69 % 1014,3 hPa 0,0 mm 4,9 km/h (1 Bft) W-NW 288 ° 1 min 0,000 mm 2,1 UV-I 350 W/m² 17,4 °C 23,4 °C 6,4 km/h (2 Bft)
22.06.2017 08:30 23,4 °C 23,4 °C 71 % 1014,3 hPa 0,0 mm 4,5 km/h (1 Bft) W 267 ° 1 min 0,000 mm 2,2 UV-I 362 W/m² 17,8 °C 23,4 °C 6,4 km/h (2 Bft)
22.06.2017 08:31 23,6 °C 23,6 °C 69 % 1014,3 hPa 0,0 mm 6,9 km/h (2 Bft) W 262 ° 1 min 0,000 mm 2,2 UV-I 371 W/m² 17,6 °C 23,6 °C 11,3 km/h (2 Bft)
22.06.2017 08:32 23,6 °C 23,6 °C 66 % 1014,3 hPa 0,0 mm 4,7 km/h (1 Bft) W 277 ° 1 min 0,000 mm 2,3 UV-I 374 W/m² 16,9 °C 23,6 °C 6,4 km/h (2 Bft)
22.06.2017 08:33 23,6 °C 23,6 °C 69 % 1014,3 hPa 0,0 mm 3,4 km/h (1 Bft) W 265 ° 1 min 0,000 mm 2,3 UV-I 376 W/m² 17,6 °C 23,6 °C 4,8 km/h (1 Bft)
22.06.2017 08:34 23,7 °C 23,7 °C 68 % 1014,3 hPa 0,0 mm 3,7 km/h (1 Bft) W-NW 289 ° 1 min 0,000 mm 2,3 UV-I 385 W/m² 17,4 °C 23,7 °C 6,4 km/h (2 Bft)
22.06.2017 08:35 23,8 °C 23,8 °C 71 % 1014,3 hPa 0,0 mm 8,6 km/h (2 Bft) W 273 ° 1 min 0,000 mm 2,3 UV-I 387 W/m² 18,2 °C 23,8 °C 12,9 km/h (3 Bft)
22.06.2017 08:36 23,8 °C 23,8 °C 65 % 1014,3 hPa 0,0 mm 8,8 km/h (2 Bft) W 280 ° 1 min 0,000 mm 2,4 UV-I 396 W/m² 16,8 °C 23,8 °C 11,3 km/h (2 Bft)
22.06.2017 08:37 23,9 °C 23,9 °C 68 % 1014,3 hPa 0,0 mm 4,2 km/h (1 Bft) W-NW 290 ° 1 min 0,000 mm 2,4 UV-I 399 W/m² 17,6 °C 23,9 °C 4,8 km/h (1 Bft)
22.06.2017 08:38 23,9 °C 23,9 °C 66 % 1014,3 hPa 0,0 mm 4,5 km/h (1 Bft) W-NW 290 ° 1 min 0,000 mm 2,4 UV-I 401 W/m² 17,1 °C 23,9 °C 6,4 km/h (2 Bft)
22.06.2017 08:39 23,9 °C 23,9 °C 68 % 1014,3 hPa 0,0 mm 5,1 km/h (1 Bft) W-SW 257 ° 1 min 0,000 mm 2,4 UV-I 401 W/m² 17,6 °C 23,9 °C 11,3 km/h (2 Bft)
22.06.2017 08:40 23,9 °C 23,9 °C 64 % 1014,3 hPa 0,0 mm 6,3 km/h (2 Bft) W-NW 300 ° 1 min 0,000 mm 2,4 UV-I 404 W/m² 16,7 °C 23,9 °C 11,3 km/h (2 Bft)
22.06.2017 08:41 24,0 °C 24,0 °C 66 % 1014,3 hPa 0,0 mm 4,9 km/h (1 Bft) W 266 ° 1 min 0,000 mm 2,4 UV-I 415 W/m² 17,2 °C 24,0 °C 9,7 km/h (2 Bft)
22.06.2017 08:42 24,1 °C 24,1 °C 67 % 1014,3 hPa 0,0 mm 5,6 km/h (1 Bft) W 268 ° 1 min 0,000 mm 2,5 UV-I 418 W/m² 17,6 °C 24,1 °C 9,7 km/h (2 Bft)
22.06.2017 08:43 24,1 °C 24,1 °C 64 % 1014,3 hPa 0,0 mm 4,6 km/h (1 Bft) W 263 ° 1 min 0,000 mm 2,5 UV-I 422 W/m² 16,9 °C 24,1 °C 6,4 km/h (2 Bft)
22.06.2017 08:44 24,1 °C 24,1 °C 65 % 1014,3 hPa 0,0 mm 3,5 km/h (1 Bft) W-SW 254 ° 1 min 0,000 mm 2,5 UV-I 422 W/m² 17,1 °C 24,1 °C 6,4 km/h (2 Bft)
22.06.2017 08:45 24,1 °C 24,1 °C 66 % 1014,3 hPa 0,0 mm 4,4 km/h (1 Bft) W-NW 286 ° 1 min 0,000 mm 2,6 UV-I 427 W/m² 17,3 °C 24,1 °C 11,3 km/h (2 Bft)
22.06.2017 08:46 24,1 °C 24,1 °C 64 % 1014,3 hPa 0,0 mm 5,6 km/h (1 Bft) W-NW 302 ° 1 min 0,000 mm 2,6 UV-I 432 W/m² 16,9 °C 24,1 °C 9,7 km/h (2 Bft)
22.06.2017 08:47 24,1 °C 24,1 °C 66 % 1014,3 hPa 0,0 mm 1,7 km/h (1 Bft) W-NW 299 ° 1 min 0,000 mm 2,6 UV-I 434 W/m² 17,3 °C 24,1 °C 4,8 km/h (1 Bft)
22.06.2017 08:48 24,2 °C 24,2 °C 68 % 1014,3 hPa 0,0 mm 1,7 km/h (1 Bft) W 271 ° 1 min 0,000 mm 2,6 UV-I 434 W/m² 17,9 °C 24,2 °C 4,8 km/h (1 Bft)
22.06.2017 08:49 24,2 °C 24,2 °C 65 % 1014,3 hPa 0,0 mm 3,6 km/h (1 Bft) SW 229 ° 1 min 0,000 mm 2,7 UV-I 436 W/m² 17,2 °C 24,2 °C 8,0 km/h (2 Bft)
22.06.2017 08:50 24,3 °C 24,3 °C 63 % 1014,3 hPa 0,0 mm 1,7 km/h (1 Bft) W 266 ° 1 min 0,000 mm 2,7 UV-I 441 W/m² 16,8 °C 24,3 °C 3,2 km/h (1 Bft)
22.06.2017 08:51 24,3 °C 24,3 °C 63 % 1014,3 hPa 0,0 mm 3,8 km/h (1 Bft) W 271 ° 1 min 0,000 mm 2,7 UV-I 439 W/m² 16,8 °C 24,3 °C 4,8 km/h (1 Bft)
22.06.2017 08:52 24,3 °C 24,3 °C 64 % 1014,4 hPa 0,0 mm 3,2 km/h (1 Bft) W-NW 294 ° 1 min 0,000 mm 2,7 UV-I 434 W/m² 17,0 °C 24,3 °C 4,8 km/h (1 Bft)
22.06.2017 08:53 24,3 °C 24,3 °C 64 % 1014,3 hPa 0,0 mm 2,2 km/h (1 Bft) W-NW 296 ° 1 min 0,000 mm 2,7 UV-I 427 W/m² 17,0 °C 24,3 °C 3,2 km/h (1 Bft)
22.06.2017 08:54 24,3 °C 24,3 °C 64 % 1014,3 hPa 0,0 mm 2,6 km/h (1 Bft) W 280 ° 1 min 0,000 mm 2,7 UV-I 432 W/m² 17,0 °C 24,3 °C 4,8 km/h (1 Bft)
22.06.2017 08:55 24,3 °C 24,3 °C 66 % 1014,3 hPa 0,0 mm 2,7 km/h (1 Bft) W 273 ° 1 min 0,000 mm 2,8 UV-I 446 W/m² 17,5 °C 24,3 °C 4,8 km/h (1 Bft)
22.06.2017 08:56 24,3 °C 24,3 °C 66 % 1014,3 hPa 0,0 mm 4,1 km/h (1 Bft) W 269 ° 1 min 0,000 mm 2,8 UV-I 457 W/m² 17,5 °C 24,3 °C 11,3 km/h (2 Bft)
22.06.2017 08:57 24,3 °C 24,3 °C 63 % 1014,3 hPa 0,0 mm 7,2 km/h (2 Bft) W-SW 255 ° 1 min 0,000 mm 2,9 UV-I 462 W/m² 16,8 °C 24,3 °C 11,3 km/h (2 Bft)
22.06.2017 08:58 24,3 °C 24,3 °C 63 % 1014,3 hPa 0,0 mm 4,3 km/h (1 Bft) W-NW 291 ° 1 min 0,000 mm 2,9 UV-I 468 W/m² 16,8 °C 24,3 °C 8,0 km/h (2 Bft)
22.06.2017 08:59 24,3 °C 24,3 °C 63 % 1014,4 hPa 0,0 mm 2,6 km/h (1 Bft) NW 325 ° 1 min 0,000 mm 2,9 UV-I 468 W/m² 16,8 °C 24,3 °C 4,8 km/h (1 Bft)
22.06.2017 09:00 24,3 °C 24,3 °C 63 % 1014,3 hPa 0,0 mm 4,9 km/h (1 Bft) NW 321 ° 1 min 0,229 mm 3,0 UV-I 466 W/m² 16,8 °C 24,3 °C 8,0 km/h (2 Bft)
22.06.2017 09:01 24,4 °C 24,4 °C 65 % 1014,3 hPa 0,0 mm 4,2 km/h (1 Bft) NW 320 ° 1 min 0,000 mm 3,0 UV-I 475 W/m² 17,4 °C 24,4 °C 6,4 km/h (2 Bft)
22.06.2017 09:02 24,4 °C 24,4 °C 66 % 1014,3 hPa 0,0 mm 2,7 km/h (1 Bft) NW 315 ° 1 min 0,000 mm 3,0 UV-I 471 W/m² 17,6 °C 24,4 °C 4,8 km/h (1 Bft)
22.06.2017 09:03 24,4 °C 24,4 °C 64 % 1014,3 hPa 0,0 mm 5,6 km/h (1 Bft) NW 318 ° 1 min 0,000 mm 3,0 UV-I 471 W/m² 17,1 °C 24,4 °C 6,4 km/h (2 Bft)
22.06.2017 09:04 24,4 °C 24,4 °C 66 % 1014,3 hPa 0,0 mm 4,5 km/h (1 Bft) N-NW 334 ° 1 min 0,000 mm 3,0 UV-I 489 W/m² 17,6 °C 24,4 °C 6,4 km/h (2 Bft)
22.06.2017 09:05 24,5 °C 24,5 °C 65 % 1014,3 hPa 0,0 mm 4,7 km/h (1 Bft) W-NW 298 ° 1 min 0,000 mm 3,1 UV-I 490 W/m² 17,5 °C 24,5 °C 6,4 km/h (2 Bft)
22.06.2017 09:06 24,5 °C 24,5 °C 61 % 1014,3 hPa 0,0 mm 3,7 km/h (1 Bft) W-NW 283 ° 1 min 0,000 mm 3,1 UV-I 485 W/m² 16,5 °C 24,5 °C 4,8 km/h (1 Bft)
22.06.2017 09:07 24,6 °C 24,6 °C 65 % 1014,3 hPa 0,0 mm 3,8 km/h (1 Bft) W-NW 290 ° 1 min 0,000 mm 3,1 UV-I 494 W/m² 17,6 °C 24,6 °C 6,4 km/h (2 Bft)
22.06.2017 09:08 24,6 °C 24,6 °C 66 % 1014,3 hPa 0,0 mm 4,3 km/h (1 Bft) W-NW 283 ° 1 min 0,000 mm 3,1 UV-I 496 W/m² 17,8 °C 24,6 °C 6,4 km/h (2 Bft)
22.06.2017 09:09 24,6 °C 24,6 °C 62 % 1014,3 hPa 0,0 mm 3,2 km/h (1 Bft) W 266 ° 1 min 0,000 mm 3,2 UV-I 497 W/m² 16,8 °C 24,6 °C 4,8 km/h (1 Bft)
22.06.2017 09:10 24,7 °C 24,7 °C 63 % 1014,3 hPa 0,0 mm 2,2 km/h (1 Bft) W 268 ° 1 min 0,000 mm 3,2 UV-I 503 W/m² 17,2 °C 24,7 °C 6,4 km/h (2 Bft)
22.06.2017 09:11 24,7 °C 24,7 °C 64 % 1014,3 hPa 0,0 mm 5,6 km/h (1 Bft) W-SW 258 ° 1 min 0,000 mm 3,2 UV-I 508 W/m² 17,4 °C 24,7 °C 9,7 km/h (2 Bft)
22.06.2017 09:12 24,7 °C 24,8 °C 62 % 1014,3 hPa 0,0 mm 4,3 km/h (1 Bft) W 275 ° 1 min 0,000 mm 3,3 UV-I 512 W/m² 16,9 °C 24,7 °C 6,4 km/h (2 Bft)
22.06.2017 09:13 24,8 °C 24,8 °C 64 % 1014,3 hPa 0,0 mm 4,3 km/h (1 Bft) W-NW 286 ° 1 min 0,000 mm 3,3 UV-I 515 W/m² 17,5 °C 24,8 °C 11,3 km/h (2 Bft)
22.06.2017 09:14 24,8 °C 24,8 °C 66 % 1014,3 hPa 0,0 mm 4,5 km/h (1 Bft) W 260 ° 1 min 0,000 mm 3,3 UV-I 519 W/m² 18,0 °C 24,8 °C 6,4 km/h (2 Bft)
22.06.2017 09:15 24,9 °C 24,9 °C 64 % 1014,3 hPa 0,0 mm 3,4 km/h (1 Bft) W-NW 293 ° 1 min 0,000 mm 3,3 UV-I 519 W/m² 17,6 °C 24,9 °C 6,4 km/h (2 Bft)
22.06.2017 09:16 24,9 °C 24,9 °C 63 % 1014,2 hPa 0,0 mm 4,3 km/h (1 Bft) W-NW 293 ° 1 min 0,000 mm 3,3 UV-I 513 W/m² 17,4 °C 24,9 °C 6,4 km/h (2 Bft)
22.06.2017 09:17 24,9 °C 24,9 °C 63 % 1014,2 hPa 0,0 mm 2,3 km/h (1 Bft) W-NW 294 ° 1 min 0,000 mm 3,4 UV-I 522 W/m² 17,4 °C 24,9 °C 4,8 km/h (1 Bft)
22.06.2017 09:18 24,9 °C 24,9 °C 61 % 1014,2 hPa 0,0 mm 1,4 km/h (1 Bft) W-NW 294 ° 1 min 0,000 mm 3,4 UV-I 527 W/m² 16,8 °C 24,9 °C 3,2 km/h (1 Bft)
22.06.2017 09:19 24,8 °C 24,9 °C 61 % 1014,2 hPa 0,0 mm 1,0 km/h (0 Bft) NW 312 ° 1 min 0,000 mm 3,4 UV-I 524 W/m² 16,8 °C 24,8 °C 3,2 km/h (1 Bft)
22.06.2017 09:20 24,8 °C 24,8 °C 64 % 1014,2 hPa 0,0 mm 3,0 km/h (1 Bft) W 270 ° 1 min 0,000 mm 3,3 UV-I 499 W/m² 17,5 °C 24,8 °C 4,8 km/h (1 Bft)
22.06.2017 09:21 24,9 °C 24,9 °C 64 % 1014,2 hPa 0,0 mm 5,8 km/h (2 Bft) W 281 ° 1 min 0,000 mm 3,3 UV-I 471 W/m² 17,6 °C 24,9 °C 11,3 km/h (2 Bft)
22.06.2017 09:22 24,9 °C 24,9 °C 61 % 1014,2 hPa 0,0 mm 4,5 km/h (1 Bft) W 277 ° 1 min 0,000 mm 3,4 UV-I 475 W/m² 16,8 °C 24,9 °C 6,4 km/h (2 Bft)
22.06.2017 09:23 24,8 °C 24,9 °C 61 % 1014,2 hPa 0,0 mm 4,1 km/h (1 Bft) W-NW 290 ° 1 min 0,000 mm 3,5 UV-I 512 W/m² 16,8 °C 24,8 °C 6,4 km/h (2 Bft)
22.06.2017 09:24 24,9 °C 24,9 °C 63 % 1014,2 hPa 0,0 mm 3,0 km/h (1 Bft) W 270 ° 1 min 0,000 mm 3,5 UV-I 536 W/m² 17,4 °C 24,9 °C 6,4 km/h (2 Bft)
22.06.2017 09:25 24,9 °C 24,9 °C 62 % 1014,2 hPa 0,0 mm 3,3 km/h (1 Bft) W-NW 299 ° 1 min 0,000 mm 3,6 UV-I 536 W/m² 17,1 °C 24,9 °C 4,8 km/h (1 Bft)
22.06.2017 09:26 24,9 °C 24,9 °C 61 % 1014,2 hPa 0,0 mm 3,8 km/h (1 Bft) W-NW 284 ° 1 min 0,000 mm 3,5 UV-I 534 W/m² 16,8 °C 24,9 °C 6,4 km/h (2 Bft)
22.06.2017 09:27 24,9 °C 24,9 °C 62 % 1014,1 hPa 0,0 mm 5,0 km/h (1 Bft) W-NW 302 ° 1 min 0,000 mm 3,5 UV-I 526 W/m² 17,1 °C 24,9 °C 9,7 km/h (2 Bft)
22.06.2017 09:28 24,9 °C 24,9 °C 64 % 1014,1 hPa 0,0 mm 4,3 km/h (1 Bft) W-NW 284 ° 1 min 0,000 mm 3,6 UV-I 533 W/m² 17,6 °C 24,9 °C 6,4 km/h (2 Bft)
22.06.2017 09:29 24,9 °C 24,9 °C 63 % 1014,1 hPa 0,0 mm 4,5 km/h (1 Bft) NW 319 ° 1 min 0,000 mm 3,7 UV-I 543 W/m² 17,4 °C 24,9 °C 6,4 km/h (2 Bft)
22.06.2017 09:30 24,9 °C 25,0 °C 61 % 1014,1 hPa 0,0 mm 2,9 km/h (1 Bft) NW 319 ° 1 min 0,000 mm 3,7 UV-I 547 W/m² 16,8 °C 24,9 °C 4,8 km/h (1 Bft)
22.06.2017 09:31 25,1 °C 25,1 °C 63 % 1014,1 hPa 0,0 mm 0,8 km/h (0 Bft) NW 319 ° 1 min 0,000 mm 3,7 UV-I 552 W/m² 17,5 °C 25,1 °C 1,6 km/h (1 Bft)
22.06.2017 09:32 25,1 °C 25,1 °C 63 % 1014,0 hPa 0,0 mm 1,9 km/h (1 Bft) NW 319 ° 1 min 0,000 mm 3,8 UV-I 561 W/m² 17,5 °C 25,1 °C 3,2 km/h (1 Bft)
22.06.2017 09:33 25,2 °C 25,2 °C 65 % 1014,1 hPa 0,0 mm 8,8 km/h (2 Bft) W-NW 296 ° 1 min 0,000 mm 3,8 UV-I 552 W/m² 18,1 °C 25,2 °C 12,9 km/h (3 Bft)
22.06.2017 09:34 25,2 °C 25,2 °C 62 % 1014,1 hPa 0,0 mm 5,0 km/h (1 Bft) NW 323 ° 1 min 0,000 mm 3,7 UV-I 541 W/m² 17,4 °C 25,2 °C 6,4 km/h (2 Bft)
22.06.2017 09:35 25,2 °C 25,2 °C 63 % 1014,1 hPa 0,0 mm 3,7 km/h (1 Bft) W-NW 296 ° 1 min 0,000 mm 3,6 UV-I 504 W/m² 17,6 °C 25,2 °C 6,4 km/h (2 Bft)
22.06.2017 09:36 25,2 °C 25,3 °C 66 % 1014,1 hPa 0,0 mm 8,1 km/h (2 Bft) W-NW 293 ° 1 min 0,000 mm 3,6 UV-I 520 W/m² 18,4 °C 25,2 °C 11,3 km/h (2 Bft)
22.06.2017 09:37 25,2 °C 25,2 °C 62 % 1014,1 hPa 0,0 mm 6,4 km/h (2 Bft) W 259 ° 1 min 0,000 mm 3,8 UV-I 568 W/m² 17,4 °C 25,2 °C 9,7 km/h (2 Bft)
22.06.2017 09:38 25,2 °C 25,2 °C 64 % 1014,0 hPa 0,0 mm 1,3 km/h (1 Bft) W 266 ° 1 min 0,000 mm 3,6 UV-I 503 W/m² 17,9 °C 25,2 °C 4,8 km/h (1 Bft)
22.06.2017 09:39 25,2 °C 25,3 °C 63 % 1014,1 hPa 0,0 mm 4,8 km/h (1 Bft) SW 234 ° 1 min 0,000 mm 3,5 UV-I 476 W/m² 17,6 °C 25,2 °C 8,0 km/h (2 Bft)
22.06.2017 09:40 25,2 °C 25,2 °C 61 % 1014,0 hPa 0,0 mm 4,2 km/h (1 Bft) W 259 ° 1 min 0,000 mm 3,7 UV-I 513 W/m² 17,1 °C 25,2 °C 6,4 km/h (2 Bft)
22.06.2017 09:41 25,1 °C 25,2 °C 63 % 1014,1 hPa 0,0 mm 1,3 km/h (1 Bft) W 260 ° 1 min 0,000 mm 3,8 UV-I 541 W/m² 17,5 °C 25,1 °C 4,8 km/h (1 Bft)
22.06.2017 09:42 25,1 °C 25,2 °C 63 % 1014,0 hPa 0,0 mm 3,6 km/h (1 Bft) W 259 ° 1 min 0,000 mm 4,0 UV-I 578 W/m² 17,5 °C 25,1 °C 4,8 km/h (1 Bft)
22.06.2017 09:43 25,2 °C 25,2 °C 60 % 1014,1 hPa 0,0 mm 4,8 km/h (1 Bft) W 269 ° 1 min 0,000 mm 4,1 UV-I 605 W/m² 16,9 °C 25,2 °C 6,4 km/h (2 Bft)
22.06.2017 09:44 25,2 °C 25,2 °C 63 % 1014,1 hPa 0,0 mm 6,5 km/h (2 Bft) W-NW 292 ° 1 min 0,000 mm 4,0 UV-I 599 W/m² 17,6 °C 25,2 °C 9,7 km/h (2 Bft)
22.06.2017 09:45 25,2 °C 25,2 °C 62 % 1014,1 hPa 0,0 mm 6,5 km/h (2 Bft) W 269 ° 1 min 0,000 mm 4,0 UV-I 585 W/m² 17,4 °C 25,2 °C 11,3 km/h (2 Bft)
22.06.2017 09:46 25,2 °C 25,2 °C 61 % 1014,1 hPa 0,0 mm 6,2 km/h (2 Bft) W 263 ° 1 min 0,000 mm 4,0 UV-I 584 W/m² 17,1 °C 25,2 °C 11,3 km/h (2 Bft)
22.06.2017 09:47 25,3 °C 25,3 °C 65 % 1014,1 hPa 0,0 mm 4,5 km/h (1 Bft) W-NW 298 ° 1 min 0,000 mm 4,1 UV-I 578 W/m² 18,2 °C 25,3 °C 6,4 km/h (2 Bft)
22.06.2017 09:48 25,3 °C 25,3 °C 65 % 1014,1 hPa 0,0 mm 8,8 km/h (2 Bft) W-SW 246 ° 1 min 0,000 mm 4,1 UV-I 598 W/m² 18,2 °C 25,3 °C 12,9 km/h (3 Bft)
22.06.2017 09:49 25,3 °C 25,3 °C 63 % 1014,1 hPa 0,0 mm 8,2 km/h (2 Bft) W 267 ° 1 min 0,000 mm 4,1 UV-I 599 W/m² 17,7 °C 25,3 °C 11,3 km/h (2 Bft)
22.06.2017 09:50 25,3 °C 25,3 °C 63 % 1014,1 hPa 0,0 mm 3,3 km/h (1 Bft) SW 232 ° 1 min 0,000 mm 4,1 UV-I 575 W/m² 17,7 °C 25,3 °C 6,4 km/h (2 Bft)
22.06.2017 09:51 25,3 °C 25,3 °C 61 % 1014,1 hPa 0,0 mm 4,3 km/h (1 Bft) W 271 ° 1 min 0,000 mm 4,1 UV-I 568 W/m² 17,2 °C 25,3 °C 6,4 km/h (2 Bft)
22.06.2017 09:52 25,3 °C 25,3 °C 61 % 1014,1 hPa 0,0 mm 7,6 km/h (2 Bft) NW 313 ° 1 min 0,000 mm 4,2 UV-I 591 W/m² 17,2 °C 25,3 °C 12,9 km/h (3 Bft)
22.06.2017 09:53 25,3 °C 25,3 °C 62 % 1014,1 hPa 0,0 mm 6,6 km/h (2 Bft) W-SW 254 ° 1 min 0,000 mm 4,3 UV-I 610 W/m² 17,5 °C 25,3 °C 11,3 km/h (2 Bft)
22.06.2017 09:54 25,3 °C 25,3 °C 64 % 1014,1 hPa 0,0 mm 6,2 km/h (2 Bft) W-NW 290 ° 1 min 0,000 mm 4,3 UV-I 631 W/m² 18,0 °C 25,3 °C 11,3 km/h (2 Bft)
22.06.2017 09:55 25,4 °C 25,4 °C 61 % 1014,1 hPa 0,0 mm 5,7 km/h (1 Bft) W-NW 298 ° 1 min 0,000 mm 4,4 UV-I 635 W/m² 17,3 °C 25,4 °C 12,9 km/h (3 Bft)
22.06.2017 09:56 25,4 °C 25,4 °C 61 % 1014,1 hPa 0,0 mm 8,6 km/h (2 Bft) W-NW 290 ° 1 min 0,000 mm 4,4 UV-I 643 W/m² 17,3 °C 25,4 °C 14,5 km/h (3 Bft)
22.06.2017 09:57 25,4 °C 25,4 °C 60 % 1014,1 hPa 0,0 mm 12,6 km/h (3 Bft) W-NW 286 ° 1 min 0,000 mm 4,5 UV-I 640 W/m² 17,1 °C 25,4 °C 14,5 km/h (3 Bft)
22.06.2017 09:58 25,4 °C 25,4 °C 61 % 1014,1 hPa 0,0 mm 5,8 km/h (2 Bft) W 276 ° 1 min 0,000 mm 4,5 UV-I 640 W/m² 17,3 °C 25,4 °C 12,9 km/h (3 Bft)
22.06.2017 09:59 25,5 °C 25,5 °C 61 % 1014,1 hPa 0,0 mm 2,9 km/h (1 Bft) W-NW 296 ° 1 min 0,000 mm 4,5 UV-I 640 W/m² 17,4 °C 25,5 °C 6,4 km/h (2 Bft)
22.06.2017 10:00 25,6 °C 25,6 °C 61 % 1014,1 hPa 0,0 mm 5,2 km/h (1 Bft) W-SW 256 ° 1 min 0,000 mm 4,5 UV-I 642 W/m² 17,5 °C 25,6 °C 8,0 km/h (2 Bft)
22.06.2017 10:01 25,6 °C 25,6 °C 61 % 1014,1 hPa 0,0 mm 5,1 km/h (1 Bft) NW 311 ° 1 min 0,355 mm 4,6 UV-I 647 W/m² 17,5 °C 25,6 °C 11,3 km/h (2 Bft)
22.06.2017 10:02 25,7 °C 25,7 °C 62 % 1014,1 hPa 0,0 mm 5,6 km/h (1 Bft) W 259 ° 1 min 0,000 mm 4,6 UV-I 647 W/m² 17,9 °C 25,7 °C 8,0 km/h (2 Bft)
22.06.2017 10:03 25,7 °C 25,7 °C 63 % 1014,1 hPa 0,0 mm 6,3 km/h (2 Bft) W-SW 256 ° 1 min 0,000 mm 4,5 UV-I 635 W/m² 18,1 °C 25,7 °C 8,0 km/h (2 Bft)
22.06.2017 10:04 25,7 °C 25,7 °C 60 % 1014,1 hPa 0,0 mm 4,6 km/h (1 Bft) N-NW 338 ° 1 min 0,000 mm 4,5 UV-I 615 W/m² 17,3 °C 25,7 °C 9,7 km/h (2 Bft)
22.06.2017 10:05 25,7 °C 25,7 °C 64 % 1014,1 hPa 0,0 mm 5,2 km/h (1 Bft) N-NW 337 ° 1 min 0,000 mm 4,5 UV-I 628 W/m² 18,4 °C 25,7 °C 8,0 km/h (2 Bft)
22.06.2017 10:06 25,8 °C 25,8 °C 60 % 1014,1 hPa 0,0 mm 6,2 km/h (2 Bft) NW 311 ° 1 min 0,000 mm 4,5 UV-I 631 W/m² 17,4 °C 25,8 °C 9,7 km/h (2 Bft)
22.06.2017 10:07 25,8 °C 25,8 °C 63 % 1014,0 hPa 0,0 mm 8,6 km/h (2 Bft) W-NW 294 ° 1 min 0,000 mm 4,5 UV-I 615 W/m² 18,2 °C 25,8 °C 12,9 km/h (3 Bft)
22.06.2017 10:08 25,8 °C 25,8 °C 63 % 1014,0 hPa 0,0 mm 4,0 km/h (1 Bft) W 269 ° 1 min 0,000 mm 4,5 UV-I 605 W/m² 18,2 °C 25,8 °C 6,4 km/h (2 Bft)
22.06.2017 10:09 25,8 °C 25,8 °C 64 % 1014,1 hPa 0,0 mm 5,1 km/h (1 Bft) W-NW 298 ° 1 min 0,000 mm 4,4 UV-I 594 W/m² 18,5 °C 25,8 °C 6,4 km/h (2 Bft)
22.06.2017 10:10 25,8 °C 25,8 °C 62 % 1014,1 hPa 0,0 mm 4,5 km/h (1 Bft) N-NW 346 ° 1 min 0,000 mm 4,6 UV-I 603 W/m² 18,0 °C 25,8 °C 4,8 km/h (1 Bft)
22.06.2017 10:11 25,8 °C 25,8 °C 64 % 1014,0 hPa 0,0 mm 6,1 km/h (2 Bft) W 276 ° 1 min 0,000 mm 4,7 UV-I 649 W/m² 18,5 °C 25,8 °C 11,3 km/h (2 Bft)
22.06.2017 10:12 25,9 °C 25,9 °C 65 % 1014,1 hPa 0,0 mm 5,9 km/h (2 Bft) NW 320 ° 1 min 0,000 mm 4,8 UV-I 650 W/m² 18,8 °C 25,9 °C 9,7 km/h (2 Bft)
22.06.2017 10:13 25,9 °C 25,9 °C 64 % 1014,1 hPa 0,0 mm 5,1 km/h (1 Bft) W-NW 298 ° 1 min 0,000 mm 4,9 UV-I 677 W/m² 18,6 °C 25,9 °C 8,0 km/h (2 Bft)
22.06.2017 10:14 25,9 °C 26,0 °C 64 % 1014,1 hPa 0,0 mm 10,0 km/h (2 Bft) W 269 ° 1 min 0,000 mm 4,9 UV-I 686 W/m² 18,6 °C 25,9 °C 12,9 km/h (3 Bft)
22.06.2017 10:15 25,9 °C 25,9 °C 60 % 1014,1 hPa 0,0 mm 5,5 km/h (1 Bft) N-NW 331 ° 1 min 0,000 mm 4,9 UV-I 671 W/m² 17,5 °C 25,9 °C 9,7 km/h (2 Bft)
22.06.2017 10:16 25,8 °C 25,9 °C 60 % 1014,0 hPa 0,0 mm 7,3 km/h (2 Bft) NW 313 ° 1 min 0,000 mm 4,9 UV-I 677 W/m² 17,4 °C 25,8 °C 11,3 km/h (2 Bft)
22.06.2017 10:17 25,8 °C 25,8 °C 59 % 1014,1 hPa 0,0 mm 10,0 km/h (2 Bft) NW 307 ° 1 min 0,000 mm 5,0 UV-I 684 W/m² 17,2 °C 25,8 °C 14,5 km/h (3 Bft)
22.06.2017 10:18 25,8 °C 25,8 °C 60 % 1014,0 hPa 0,0 mm 5,4 km/h (1 Bft) W-NW 302 ° 1 min 0,000 mm 5,0 UV-I 696 W/m² 17,4 °C 25,8 °C 9,7 km/h (2 Bft)
22.06.2017 10:19 25,7 °C 25,8 °C 59 % 1014,1 hPa 0,0 mm 2,3 km/h (1 Bft) W-NW 302 ° 1 min 0,000 mm 5,0 UV-I 693 W/m² 17,1 °C 25,7 °C 4,8 km/h (1 Bft)
22.06.2017 10:20 25,7 °C 25,7 °C 61 % 1014,0 hPa 0,0 mm 4,5 km/h (1 Bft) NW 323 ° 1 min 0,000 mm 5,1 UV-I 708 W/m² 17,6 °C 25,7 °C 6,4 km/h (2 Bft)
22.06.2017 10:21 25,8 °C 25,8 °C 63 % 1014,0 hPa 0,0 mm 3,8 km/h (1 Bft) W-SW 255 ° 1 min 0,000 mm 5,0 UV-I 703 W/m² 18,2 °C 25,8 °C 6,4 km/h (2 Bft)
22.06.2017 10:22 25,8 °C 25,8 °C 63 % 1014,0 hPa 0,0 mm 4,6 km/h (1 Bft) N-NW 333 ° 1 min 0,000 mm 4,9 UV-I 647 W/m² 18,2 °C 25,8 °C 6,4 km/h (2 Bft)
22.06.2017 10:23 25,8 °C 25,9 °C 61 % 1014,0 hPa 0,0 mm 7,6 km/h (2 Bft) NW 313 ° 1 min 0,000 mm 4,9 UV-I 661 W/m² 17,7 °C 25,8 °C 11,3 km/h (2 Bft)
22.06.2017 10:24 25,8 °C 25,8 °C 60 % 1014,0 hPa 0,0 mm 5,3 km/h (1 Bft) W-NW 286 ° 1 min 0,000 mm 4,9 UV-I 650 W/m² 17,4 °C 25,8 °C 8,0 km/h (2 Bft)
22.06.2017 10:25 25,7 °C 25,8 °C 61 % 1014,0 hPa 0,0 mm 6,6 km/h (2 Bft) W-NW 303 ° 1 min 0,000 mm 4,9 UV-I 656 W/m² 17,6 °C 25,7 °C 9,7 km/h (2 Bft)
22.06.2017 10:26 25,7 °C 25,7 °C 62 % 1014,1 hPa 0,0 mm 6,1 km/h (2 Bft) NW 315 ° 1 min 0,000 mm 4,9 UV-I 675 W/m² 17,9 °C 25,7 °C 9,7 km/h (2 Bft)
22.06.2017 10:27 25,8 °C 25,8 °C 64 % 1014,0 hPa 0,0 mm 5,6 km/h (1 Bft) W 265 ° 1 min 0,000 mm 5,1 UV-I 679 W/m² 18,5 °C 25,8 °C 9,7 km/h (2 Bft)
22.06.2017 10:28 25,9 °C 25,9 °C 64 % 1014,0 hPa 0,0 mm 5,5 km/h (1 Bft) N-NW 333 ° 1 min 0,000 mm 5,2 UV-I 714 W/m² 18,6 °C 25,9 °C 9,7 km/h (2 Bft)
22.06.2017 10:29 26,0 °C 26,0 °C 67 % 1014,0 hPa 0,0 mm 5,3 km/h (1 Bft) W-NW 290 ° 1 min 0,000 mm 5,1 UV-I 682 W/m² 19,4 °C 26,0 °C 11,3 km/h (2 Bft)
22.06.2017 10:30 26,1 °C 26,1 °C 67 % 1014,0 hPa 0,0 mm 6,9 km/h (2 Bft) NW 322 ° 1 min 0,000 mm 4,9 UV-I 661 W/m² 19,5 °C 26,1 °C 11,3 km/h (2 Bft)
22.06.2017 10:31 26,1 °C 26,1 °C 60 % 1014,0 hPa 0,0 mm 5,6 km/h (1 Bft) W-NW 298 ° 1 min 0,000 mm 4,9 UV-I 629 W/m² 17,7 °C 26,1 °C 8,0 km/h (2 Bft)
22.06.2017 10:32 25,9 °C 26,1 °C 63 % 1014,0 hPa 0,0 mm 5,2 km/h (1 Bft) N-NW 333 ° 1 min 0,000 mm 4,7 UV-I 596 W/m² 18,3 °C 25,9 °C 9,7 km/h (2 Bft)
22.06.2017 10:33 25,9 °C 25,9 °C 63 % 1014,0 hPa 0,0 mm 8,3 km/h (2 Bft) W-SW 252 ° 1 min 0,000 mm 4,9 UV-I 617 W/m² 18,3 °C 25,9 °C 12,9 km/h (3 Bft)
22.06.2017 10:34 25,9 °C 26,0 °C 62 % 1014,0 hPa 0,0 mm 7,5 km/h (2 Bft) W-NW 286 ° 1 min 0,000 mm 4,9 UV-I 643 W/m² 18,0 °C 25,9 °C 11,3 km/h (2 Bft)
22.06.2017 10:35 26,0 °C 26,0 °C 64 % 1014,0 hPa 0,0 mm 4,3 km/h (1 Bft) W-NW 284 ° 1 min 0,000 mm 5,1 UV-I 670 W/m² 18,6 °C 26,0 °C 6,4 km/h (2 Bft)
22.06.2017 10:36 26,1 °C 26,1 °C 60 % 1014,0 hPa 0,0 mm 4,8 km/h (1 Bft) NW 315 ° 1 min 0,000 mm 5,2 UV-I 682 W/m² 17,7 °C 26,1 °C 8,0 km/h (2 Bft)
22.06.2017 10:37 26,1 °C 26,1 °C 61 % 1014,0 hPa 0,0 mm 7,0 km/h (2 Bft) N-NW 329 ° 1 min 0,000 mm 5,3 UV-I 707 W/m² 18,0 °C 26,1 °C 12,9 km/h (3 Bft)
22.06.2017 10:38 26,1 °C 26,1 °C 62 % 1014,0 hPa 0,0 mm 6,0 km/h (2 Bft) W 280 ° 1 min 0,000 mm 5,3 UV-I 698 W/m² 18,2 °C 26,1 °C 8,0 km/h (2 Bft)
22.06.2017 10:39 26,1 °C 26,1 °C 63 % 1014,0 hPa 0,0 mm 7,6 km/h (2 Bft) N-NW 327 ° 1 min 0,000 mm 5,4 UV-I 714 W/m² 18,5 °C 26,1 °C 14,5 km/h (3 Bft)
22.06.2017 10:40 26,0 °C 26,1 °C 60 % 1014,0 hPa 0,0 mm 4,6 km/h (1 Bft) W 278 ° 1 min 0,000 mm 5,4 UV-I 729 W/m² 17,6 °C 26,0 °C 6,4 km/h (2 Bft)
22.06.2017 10:41 25,9 °C 26,0 °C 59 % 1014,0 hPa 0,0 mm 5,3 km/h (1 Bft) NW 326 ° 1 min 0,000 mm 5,4 UV-I 710 W/m² 17,3 °C 25,9 °C 9,7 km/h (2 Bft)
22.06.2017 10:42 25,9 °C 25,9 °C 62 % 1014,0 hPa 0,0 mm 8,9 km/h (2 Bft) W-NW 303 ° 1 min 0,000 mm 5,5 UV-I 729 W/m² 18,0 °C 25,9 °C 16,1 km/h (3 Bft)
22.06.2017 10:43 26,0 °C 26,0 °C 66 % 1014,0 hPa 0,0 mm 11,1 km/h (2 Bft) W-NW 302 ° 1 min 0,000 mm 5,5 UV-I 710 W/m² 19,1 °C 26,0 °C 16,1 km/h (3 Bft)
22.06.2017 10:44 26,1 °C 26,1 °C 61 % 1014,0 hPa 0,0 mm 8,0 km/h (2 Bft) W-NW 302 ° 1 min 0,000 mm 5,5 UV-I 714 W/m² 18,0 °C 26,1 °C 12,9 km/h (3 Bft)
22.06.2017 10:45 26,2 °C 26,2 °C 62 % 1014,0 hPa 0,0 mm 6,5 km/h (2 Bft) N-NW 329 ° 1 min 0,000 mm 5,5 UV-I 724 W/m² 18,3 °C 26,2 °C 12,9 km/h (3 Bft)
22.06.2017 10:46 26,2 °C 26,2 °C 61 % 1014,0 hPa 0,0 mm 6,4 km/h (2 Bft) NW 315 ° 1 min 0,000 mm 5,5 UV-I 719 W/m² 18,1 °C 26,2 °C 11,3 km/h (2 Bft)
22.06.2017 10:47 26,2 °C 26,2 °C 62 % 1014,0 hPa 0,0 mm 7,9 km/h (2 Bft) W-NW 294 ° 1 min 0,000 mm 5,6 UV-I 738 W/m² 18,3 °C 26,2 °C 11,3 km/h (2 Bft)
22.06.2017 10:48 26,1 °C 26,2 °C 59 % 1014,1 hPa 0,0 mm 6,3 km/h (2 Bft) NW 316 ° 1 min 0,000 mm 5,6 UV-I 738 W/m² 17,4 °C 26,1 °C 9,7 km/h (2 Bft)
22.06.2017 10:49 26,1 °C 26,1 °C 60 % 1014,0 hPa 0,0 mm 4,5 km/h (1 Bft) NW 321 ° 1 min 0,000 mm 5,5 UV-I 705 W/m² 17,7 °C 26,1 °C 6,4 km/h (2 Bft)
22.06.2017 10:50 26,1 °C 26,1 °C 64 % 1014,0 hPa 0,0 mm 5,9 km/h (2 Bft) W-NW 298 ° 1 min 0,000 mm 5,4 UV-I 684 W/m² 18,7 °C 26,1 °C 14,5 km/h (3 Bft)
22.06.2017 10:51 26,2 °C 26,2 °C 63 % 1014,0 hPa 0,0 mm 8,8 km/h (2 Bft) W-NW 298 ° 1 min 0,000 mm 5,4 UV-I 687 W/m² 18,6 °C 26,2 °C 12,9 km/h (3 Bft)
22.06.2017 10:52 26,2 °C 26,2 °C 64 % 1014,0 hPa 0,0 mm 7,4 km/h (2 Bft) W-NW 288 ° 1 min 0,000 mm 5,4 UV-I 719 W/m² 18,8 °C 26,2 °C 9,7 km/h (2 Bft)
22.06.2017 10:53 26,3 °C 26,3 °C 63 % 1014,1 hPa 0,0 mm 7,5 km/h (2 Bft) W-NW 292 ° 1 min 0,000 mm 5,8 UV-I 729 W/m² 18,7 °C 26,3 °C 12,9 km/h (3 Bft)
22.06.2017 10:54 26,3 °C 26,3 °C 60 % 1014,0 hPa 0,0 mm 6,6 km/h (2 Bft) NW 319 ° 1 min 0,000 mm 5,8 UV-I 742 W/m² 17,9 °C 26,3 °C 9,7 km/h (2 Bft)
22.06.2017 10:55 26,4 °C 26,4 °C 63 % 1014,0 hPa 0,0 mm 8,5 km/h (2 Bft) NW 311 ° 1 min 0,000 mm 5,7 UV-I 728 W/m² 18,8 °C 26,4 °C 14,5 km/h (3 Bft)
22.06.2017 10:56 26,4 °C 26,4 °C 59 % 1014,0 hPa 0,0 mm 8,3 km/h (2 Bft) NW 311 ° 1 min 0,000 mm 5,7 UV-I 721 W/m² 17,7 °C 26,4 °C 12,9 km/h (3 Bft)
22.06.2017 10:57 26,3 °C 26,4 °C 59 % 1014,0 hPa 0,0 mm 4,9 km/h (1 Bft) NW 305 ° 1 min 0,000 mm 5,8 UV-I 749 W/m² 17,6 °C 26,3 °C 8,0 km/h (2 Bft)
22.06.2017 10:58 26,4 °C 26,4 °C 64 % 1014,0 hPa 0,0 mm 5,4 km/h (1 Bft) W-NW 286 ° 1 min 0,000 mm 5,7 UV-I 717 W/m² 19,0 °C 26,4 °C 11,3 km/h (2 Bft)
22.06.2017 10:59 26,4 °C 26,4 °C 61 % 1014,0 hPa 0,0 mm 5,8 km/h (2 Bft) NW 305 ° 1 min 0,000 mm 5,7 UV-I 705 W/m² 18,3 °C 26,4 °C 11,3 km/h (2 Bft)
22.06.2017 11:00 26,4 °C 26,4 °C 62 % 1014,0 hPa 0,0 mm 9,7 km/h (2 Bft) W-NW 283 ° 1 min 0,000 mm 5,7 UV-I 700 W/m² 18,5 °C 26,4 °C 14,5 km/h (3 Bft)
22.06.2017 11:01 26,3 °C 26,4 °C 59 % 1014,0 hPa 0,0 mm 8,6 km/h (2 Bft) W 265 ° 1 min 0,458 mm 5,6 UV-I 715 W/m² 17,6 °C 26,3 °C 12,9 km/h (3 Bft)
22.06.2017 11:02 26,3 °C 26,3 °C 59 % 1014,0 hPa 0,0 mm 5,6 km/h (1 Bft) NW 307 ° 1 min 0,000 mm 5,7 UV-I 712 W/m² 17,6 °C 26,3 °C 11,3 km/h (2 Bft)
22.06.2017 11:03 26,2 °C 26,3 °C 62 % 1014,0 hPa 0,0 mm 11,6 km/h (2 Bft) W-NW 291 ° 1 min 0,000 mm 5,7 UV-I 717 W/m² 18,3 °C 26,2 °C 14,5 km/h (3 Bft)
22.06.2017 11:04 26,2 °C 26,3 °C 63 % 1014,0 hPa 0,0 mm 4,3 km/h (1 Bft) W-NW 290 ° 1 min 0,000 mm 5,6 UV-I 710 W/m² 18,6 °C 26,2 °C 6,4 km/h (2 Bft)
22.06.2017 11:05 26,2 °C 26,2 °C 60 % 1013,9 hPa 0,0 mm 4,2 km/h (1 Bft) W-NW 292 ° 1 min 0,000 mm 5,7 UV-I 712 W/m² 17,8 °C 26,2 °C 6,4 km/h (2 Bft)
22.06.2017 11:06 26,2 °C 26,2 °C 62 % 1014,0 hPa 0,0 mm 2,7 km/h (1 Bft) W 278 ° 1 min 0,000 mm 5,7 UV-I 731 W/m² 18,3 °C 26,2 °C 4,8 km/h (1 Bft)
22.06.2017 11:07 26,2 °C 26,2 °C 62 % 1013,9 hPa 0,0 mm 3,8 km/h (1 Bft) W-NW 293 ° 1 min 0,000 mm 5,6 UV-I 693 W/m² 18,3 °C 26,2 °C 6,4 km/h (2 Bft)
22.06.2017 11:08 26,2 °C 26,2 °C 61 % 1013,9 hPa 0,0 mm 4,1 km/h (1 Bft) NW 309 ° 1 min 0,000 mm 5,8 UV-I 701 W/m² 18,1 °C 26,2 °C 6,4 km/h (2 Bft)
22.06.2017 11:09 26,2 °C 26,2 °C 61 % 1013,9 hPa 0,0 mm 5,3 km/h (1 Bft) W-NW 303 ° 1 min 0,000 mm 5,8 UV-I 717 W/m² 18,1 °C 26,2 °C 8,0 km/h (2 Bft)
22.06.2017 11:10 26,2 °C 26,2 °C 64 % 1013,9 hPa 0,0 mm 6,8 km/h (2 Bft) W 280 ° 1 min 0,000 mm 5,8 UV-I 726 W/m² 18,8 °C 26,2 °C 12,9 km/h (3 Bft)
22.06.2017 11:11 26,3 °C 26,3 °C 61 % 1013,9 hPa 0,0 mm 7,1 km/h (2 Bft) NW 308 ° 1 min 0,000 mm 5,9 UV-I 733 W/m² 18,2 °C 26,3 °C 11,3 km/h (2 Bft)
22.06.2017 11:12 26,3 °C 26,3 °C 60 % 1013,8 hPa 0,0 mm 5,4 km/h (1 Bft) NW 313 ° 1 min 0,000 mm 5,8 UV-I 728 W/m² 17,9 °C 26,3 °C 11,3 km/h (2 Bft)
22.06.2017 11:13 26,4 °C 26,4 °C 61 % 1013,8 hPa 0,0 mm 7,2 km/h (2 Bft) NW 324 ° 1 min 0,000 mm 5,8 UV-I 740 W/m² 18,3 °C 26,4 °C 9,7 km/h (2 Bft)
22.06.2017 11:14 26,4 °C 26,4 °C 62 % 1013,9 hPa 0,0 mm 5,8 km/h (2 Bft) W-NW 290 ° 1 min 0,000 mm 6,1 UV-I 758 W/m² 18,5 °C 26,4 °C 11,3 km/h (2 Bft)
22.06.2017 11:15 26,5 °C 26,5 °C 60 % 1013,9 hPa 0,0 mm 8,9 km/h (2 Bft) W-NW 284 ° 1 min 0,000 mm 6,1 UV-I 766 W/m² 18,1 °C 26,5 °C 12,9 km/h (3 Bft)
22.06.2017 11:16 26,6 °C 26,6 °C 62 % 1013,9 hPa 0,0 mm 8,4 km/h (2 Bft) NW 308 ° 1 min 0,000 mm 6,1 UV-I 772 W/m² 18,7 °C 26,6 °C 12,9 km/h (3 Bft)
22.06.2017 11:17 26,6 °C 26,6 °C 59 % 1013,9 hPa 0,0 mm 8,4 km/h (2 Bft) NW 310 ° 1 min 0,000 mm 6,2 UV-I 773 W/m² 17,9 °C 26,6 °C 12,9 km/h (3 Bft)
22.06.2017 11:18 26,7 °C 26,7 °C 63 % 1013,8 hPa 0,0 mm 7,3 km/h (2 Bft) NW 307 ° 1 min 0,000 mm 6,2 UV-I 782 W/m² 19,1 °C 26,7 °C 11,3 km/h (2 Bft)
22.06.2017 11:19 26,7 °C 26,7 °C 61 % 1013,8 hPa 0,0 mm 6,4 km/h (2 Bft) NW 321 ° 1 min 0,000 mm 6,2 UV-I 784 W/m² 18,5 °C 26,7 °C 8,0 km/h (2 Bft)
22.06.2017 11:20 26,8 °C 26,8 °C 62 % 1013,8 hPa 0,0 mm 4,1 km/h (1 Bft) NW 323 ° 1 min 0,000 mm 6,3 UV-I 795 W/m² 18,9 °C 26,8 °C 6,4 km/h (2 Bft)
22.06.2017 11:21 26,8 °C 26,8 °C 64 % 1013,9 hPa 0,0 mm 5,6 km/h (1 Bft) W 263 ° 1 min 0,000 mm 6,3 UV-I 795 W/m² 19,4 °C 26,8 °C 9,7 km/h (2 Bft)
22.06.2017 11:22 26,7 °C 26,8 °C 63 % 1013,8 hPa 0,0 mm 5,2 km/h (1 Bft) W 261 ° 1 min 0,000 mm 6,3 UV-I 788 W/m² 19,1 °C 26,7 °C 9,7 km/h (2 Bft)
22.06.2017 11:23 26,8 °C 26,8 °C 60 % 1013,7 hPa 0,0 mm 6,3 km/h (2 Bft) N-NW 331 ° 1 min 0,000 mm 6,3 UV-I 780 W/m² 18,4 °C 26,8 °C 9,7 km/h (2 Bft)
22.06.2017 11:24 26,9 °C 26,9 °C 65 % 1013,8 hPa 0,0 mm 4,4 km/h (1 Bft) W-NW 294 ° 1 min 0,000 mm 6,3 UV-I 793 W/m² 19,7 °C 26,9 °C 6,4 km/h (2 Bft)
22.06.2017 11:25 26,9 °C 26,9 °C 62 % 1013,8 hPa 0,0 mm 5,2 km/h (1 Bft) W 279 ° 1 min 0,000 mm 6,3 UV-I 791 W/m² 19,0 °C 26,9 °C 8,0 km/h (2 Bft)
22.06.2017 11:26 26,9 °C 26,9 °C 58 % 1013,7 hPa 0,0 mm 4,7 km/h (1 Bft) W 281 ° 1 min 0,000 mm 6,3 UV-I 788 W/m² 17,9 °C 26,9 °C 6,4 km/h (2 Bft)
22.06.2017 11:27 26,8 °C 26,9 °C 58 % 1013,7 hPa 0,0 mm 6,3 km/h (2 Bft) W-NW 289 ° 1 min 0,000 mm 6,4 UV-I 788 W/m² 17,8 °C 26,8 °C 11,3 km/h (2 Bft)
22.06.2017 11:28 26,8 °C 26,8 °C 63 % 1013,7 hPa 0,0 mm 5,3 km/h (1 Bft) NW 314 ° 1 min 0,000 mm 6,5 UV-I 802 W/m² 19,1 °C 26,8 °C 6,4 km/h (2 Bft)
22.06.2017 11:29 26,9 °C 26,9 °C 62 % 1013,7 hPa 0,0 mm 7,9 km/h (2 Bft) NW 308 ° 1 min 0,000 mm 6,4 UV-I 814 W/m² 19,0 °C 26,9 °C 12,9 km/h (3 Bft)
22.06.2017 11:30 26,9 °C 26,9 °C 61 % 1013,8 hPa 0,0 mm 9,1 km/h (2 Bft) NW 306 ° 1 min 0,000 mm 6,4 UV-I 788 W/m² 18,7 °C 26,9 °C 14,5 km/h (3 Bft)
22.06.2017 11:31 26,9 °C 26,9 °C 60 % 1013,8 hPa 0,0 mm 3,0 km/h (1 Bft) N-NW 330 ° 1 min 0,000 mm 6,4 UV-I 793 W/m² 18,5 °C 26,9 °C 6,4 km/h (2 Bft)
22.06.2017 11:32 26,8 °C 26,9 °C 61 % 1013,8 hPa 0,0 mm 3,4 km/h (1 Bft) NW 321 ° 1 min 0,000 mm 6,4 UV-I 803 W/m² 18,6 °C 26,8 °C 6,4 km/h (2 Bft)
22.06.2017 11:33 26,9 °C 26,9 °C 60 % 1013,7 hPa 0,0 mm 4,1 km/h (1 Bft) N-NW 327 ° 1 min 0,000 mm 6,4 UV-I 791 W/m² 18,5 °C 26,9 °C 6,4 km/h (2 Bft)
22.06.2017 11:34 26,9 °C 26,9 °C 60 % 1013,7 hPa 0,0 mm 9,6 km/h (2 Bft) NW 315 ° 1 min 0,000 mm 6,4 UV-I 791 W/m² 18,5 °C 26,9 °C 16,1 km/h (3 Bft)
22.06.2017 11:35 27,0 °C 27,0 °C 61 % 1013,7 hPa 0,0 mm 7,0 km/h (2 Bft) W 260 ° 1 min 0,000 mm 6,4 UV-I 810 W/m² 18,8 °C 27,0 °C 12,9 km/h (3 Bft)
22.06.2017 11:36 27,0 °C 27,0 °C 59 % 1013,7 hPa 0,0 mm 13,5 km/h (3 Bft) W-NW 283 ° 1 min 0,000 mm 6,5 UV-I 816 W/m² 18,3 °C 27,0 °C 17,7 km/h (3 Bft)
22.06.2017 11:37 27,1 °C 27,1 °C 58 % 1013,7 hPa 0,0 mm 8,0 km/h (2 Bft) NW 325 ° 1 min 0,000 mm 6,5 UV-I 803 W/m² 18,1 °C 27,1 °C 12,9 km/h (3 Bft)
22.06.2017 11:38 26,9 °C 27,1 °C 58 % 1013,7 hPa 0,0 mm 6,6 km/h (2 Bft) NW 319 ° 1 min 0,000 mm 6,6 UV-I 807 W/m² 17,9 °C 26,9 °C 11,3 km/h (2 Bft)
22.06.2017 11:39 26,9 °C 26,9 °C 58 % 1013,7 hPa 0,0 mm 7,9 km/h (2 Bft) NW 313 ° 1 min 0,000 mm 6,6 UV-I 805 W/m² 17,9 °C 26,9 °C 14,5 km/h (3 Bft)
22.06.2017 11:40 27,0 °C 27,0 °C 62 % 1013,7 hPa 0,0 mm 7,6 km/h (2 Bft) NW 311 ° 1 min 0,000 mm 6,7 UV-I 824 W/m² 19,1 °C 27,0 °C 12,9 km/h (3 Bft)
22.06.2017 11:41 27,1 °C 27,1 °C 57 % 1013,7 hPa 0,0 mm 8,3 km/h (2 Bft) NW 306 ° 1 min 0,000 mm 6,7 UV-I 821 W/m² 17,8 °C 27,1 °C 12,9 km/h (3 Bft)
22.06.2017 11:42 27,1 °C 27,1 °C 59 % 1013,7 hPa 0,0 mm 9,1 km/h (2 Bft) W 263 ° 1 min 0,000 mm 6,7 UV-I 844 W/m² 18,4 °C 27,1 °C 16,1 km/h (3 Bft)
22.06.2017 11:43 27,1 °C 27,1 °C 61 % 1013,7 hPa 0,0 mm 6,6 km/h (2 Bft) W-SW 254 ° 1 min 0,000 mm 6,7 UV-I 821 W/m² 18,9 °C 27,1 °C 12,9 km/h (3 Bft)
22.06.2017 11:44 27,1 °C 27,1 °C 56 % 1013,7 hPa 0,0 mm 6,6 km/h (2 Bft) W-NW 284 ° 1 min 0,000 mm 6,7 UV-I 823 W/m² 17,5 °C 27,1 °C 11,3 km/h (2 Bft)
22.06.2017 11:45 27,1 °C 27,1 °C 58 % 1013,7 hPa 0,0 mm 6,3 km/h (2 Bft) W 270 ° 1 min 0,000 mm 6,7 UV-I 816 W/m² 18,1 °C 27,1 °C 11,3 km/h (2 Bft)
22.06.2017 11:46 27,0 °C 27,1 °C 58 % 1013,7 hPa 0,0 mm 3,2 km/h (1 Bft) NW 321 ° 1 min 0,000 mm 6,7 UV-I 823 W/m² 18,0 °C 27,0 °C 6,4 km/h (2 Bft)
22.06.2017 11:47 27,1 °C 27,1 °C 59 % 1013,6 hPa 0,0 mm 7,5 km/h (2 Bft) W-SW 255 ° 1 min 0,000 mm 6,8 UV-I 835 W/m² 18,4 °C 27,1 °C 9,7 km/h (2 Bft)
22.06.2017 11:48 27,2 °C 27,2 °C 57 % 1013,7 hPa 0,0 mm 4,6 km/h (1 Bft) N-NW 334 ° 1 min 0,000 mm 6,8 UV-I 842 W/m² 17,9 °C 27,2 °C 8,0 km/h (2 Bft)
22.06.2017 11:49 27,2 °C 27,2 °C 56 % 1013,7 hPa 0,0 mm 5,8 km/h (2 Bft) W 268 ° 1 min 0,000 mm 6,9 UV-I 847 W/m² 17,6 °C 27,2 °C 11,3 km/h (2 Bft)
22.06.2017 11:50 27,2 °C 27,2 °C 59 % 1013,7 hPa 0,0 mm 4,4 km/h (1 Bft) N-NW 339 ° 1 min 0,000 mm 6,9 UV-I 849 W/m² 18,5 °C 27,2 °C 8,0 km/h (2 Bft)
22.06.2017 11:51 27,2 °C 27,2 °C 58 % 1013,6 hPa 0,0 mm 5,2 km/h (1 Bft) W 276 ° 1 min 0,000 mm 6,9 UV-I 840 W/m² 18,2 °C 27,2 °C 6,4 km/h (2 Bft)
22.06.2017 11:52 27,3 °C 27,3 °C 58 % 1013,7 hPa 0,0 mm 10,4 km/h (2 Bft) N-NW 328 ° 1 min 0,000 mm 7,0 UV-I 847 W/m² 18,3 °C 27,3 °C 16,1 km/h (3 Bft)
22.06.2017 11:53 27,4 °C 27,4 °C 61 % 1013,7 hPa 0,0 mm 5,2 km/h (1 Bft) W-NW 302 ° 1 min 0,000 mm 6,9 UV-I 838 W/m² 19,2 °C 27,4 °C 9,7 km/h (2 Bft)
22.06.2017 11:54 27,6 °C 27,6 °C 61 % 1013,7 hPa 0,0 mm 4,4 km/h (1 Bft) N-NW 334 ° 1 min 0,000 mm 6,9 UV-I 837 W/m² 19,4 °C 27,6 °C 6,4 km/h (2 Bft)
22.06.2017 11:55 27,7 °C 27,7 °C 59 % 1013,7 hPa 0,0 mm 6,3 km/h (2 Bft) W-NW 292 ° 1 min 0,000 mm 7,0 UV-I 835 W/m² 18,9 °C 27,7 °C 9,7 km/h (2 Bft)
22.06.2017 11:56 27,6 °C 27,7 °C 55 % 1013,7 hPa 0,0 mm 14,3 km/h (3 Bft) W-NW 292 ° 1 min 0,000 mm 7,0 UV-I 835 W/m² 17,7 °C 27,6 °C 17,7 km/h (3 Bft)
22.06.2017 11:57 27,6 °C 27,6 °C 58 % 1013,7 hPa 0,0 mm 9,1 km/h (2 Bft) NW 315 ° 1 min 0,000 mm 6,9 UV-I 828 W/m² 18,6 °C 27,6 °C 16,1 km/h (3 Bft)
22.06.2017 11:58 27,6 °C 27,6 °C 58 % 1013,7 hPa 0,0 mm 6,9 km/h (2 Bft) W 277 ° 1 min 0,000 mm 7,0 UV-I 833 W/m² 18,6 °C 27,6 °C 14,5 km/h (3 Bft)
22.06.2017 11:59 27,5 °C 27,6 °C 55 % 1013,7 hPa 0,0 mm 5,2 km/h (1 Bft) W 259 ° 1 min 0,000 mm 7,1 UV-I 856 W/m² 17,6 °C 27,5 °C 12,9 km/h (3 Bft)
22.06.2017 12:00 27,4 °C 27,5 °C 56 % 1013,7 hPa 0,0 mm 7,1 km/h (2 Bft) W-NW 287 ° 1 min 0,558 mm 7,0 UV-I 847 W/m² 17,8 °C 27,4 °C 11,3 km/h (2 Bft)
22.06.2017 12:01 27,4 °C 27,4 °C 60 % 1013,7 hPa 0,0 mm 6,6 km/h (2 Bft) SW 226 ° 1 min 0,000 mm 7,1 UV-I 860 W/m² 18,9 °C 27,4 °C 11,3 km/h (2 Bft)
22.06.2017 12:02 27,5 °C 27,5 °C 57 % 1013,7 hPa 0,0 mm 2,5 km/h (1 Bft) SW 224 ° 1 min 0,000 mm 7,1 UV-I 863 W/m² 18,2 °C 27,5 °C 4,8 km/h (1 Bft)
22.06.2017 12:03 27,6 °C 27,6 °C 57 % 1013,7 hPa 0,0 mm 3,5 km/h (1 Bft) W 277 ° 1 min 0,000 mm 7,2 UV-I 875 W/m² 18,3 °C 27,6 °C 4,8 km/h (1 Bft)
22.06.2017 12:04 27,6 °C 27,6 °C 56 % 1013,6 hPa 0,0 mm 4,2 km/h (1 Bft) W 262 ° 1 min 0,000 mm 7,2 UV-I 870 W/m² 18,0 °C 27,6 °C 6,4 km/h (2 Bft)
22.06.2017 12:05 27,5 °C 27,6 °C 56 % 1013,6 hPa 0,0 mm 5,9 km/h (2 Bft) W-NW 286 ° 1 min 0,000 mm 7,2 UV-I 868 W/m² 17,9 °C 27,5 °C 9,7 km/h (2 Bft)
22.06.2017 12:06 27,5 °C 27,5 °C 57 % 1013,5 hPa 0,0 mm 4,2 km/h (1 Bft) W-NW 292 ° 1 min 0,000 mm 7,2 UV-I 868 W/m² 18,2 °C 27,5 °C 8,0 km/h (2 Bft)
22.06.2017 12:07 27,5 °C 27,5 °C 55 % 1013,6 hPa 0,0 mm 7,6 km/h (2 Bft) N-NW 338 ° 1 min 0,000 mm 7,3 UV-I 870 W/m² 17,6 °C 27,5 °C 14,5 km/h (3 Bft)
22.06.2017 12:08 27,6 °C 27,6 °C 55 % 1013,6 hPa 0,0 mm 12,4 km/h (3 Bft) W 267 ° 1 min 0,000 mm 7,3 UV-I 874 W/m² 17,7 °C 27,6 °C 19,3 km/h (3 Bft)
22.06.2017 12:09 27,6 °C 27,6 °C 56 % 1013,6 hPa 0,0 mm 7,2 km/h (2 Bft) W-NW 298 ° 1 min 0,000 mm 7,2 UV-I 872 W/m² 18,0 °C 27,6 °C 12,9 km/h (3 Bft)
22.06.2017 12:10 27,6 °C 27,6 °C 55 % 1013,6 hPa 0,0 mm 7,0 km/h (2 Bft) NW 317 ° 1 min 0,000 mm 7,2 UV-I 867 W/m² 17,7 °C 27,6 °C 12,9 km/h (3 Bft)
22.06.2017 12:11 27,6 °C 27,6 °C 56 % 1013,6 hPa 0,0 mm 5,2 km/h (1 Bft) W-NW 286 ° 1 min 0,000 mm 7,1 UV-I 879 W/m² 18,0 °C 27,6 °C 8,0 km/h (2 Bft)
22.06.2017 12:12 27,7 °C 27,7 °C 58 % 1013,5 hPa 0,0 mm 5,1 km/h (1 Bft) W-NW 294 ° 1 min 0,000 mm 7,4 UV-I 870 W/m² 18,7 °C 27,7 °C 8,0 km/h (2 Bft)
22.06.2017 12:13 27,8 °C 27,8 °C 57 % 1013,6 hPa 0,0 mm 6,8 km/h (2 Bft) NW 315 ° 1 min 0,000 mm 7,3 UV-I 872 W/m² 18,5 °C 27,8 °C 14,5 km/h (3 Bft)
22.06.2017 12:14 27,9 °C 27,9 °C 57 % 1013,6 hPa 0,0 mm 7,4 km/h (2 Bft) NW 306 ° 1 min 0,000 mm 7,1 UV-I 858 W/m² 18,6 °C 27,9 °C 12,9 km/h (3 Bft)
22.06.2017 12:15 27,9 °C 27,9 °C 56 % 1013,6 hPa 0,0 mm 9,9 km/h (2 Bft) NW 310 ° 1 min 0,000 mm 7,3 UV-I 863 W/m² 18,3 °C 27,9 °C 12,9 km/h (3 Bft)
22.06.2017 12:16 27,8 °C 27,9 °C 55 % 1013,5 hPa 0,0 mm 6,2 km/h (2 Bft) NW 310 ° 1 min 0,000 mm 7,3 UV-I 861 W/m² 17,9 °C 27,8 °C 12,9 km/h (3 Bft)
22.06.2017 12:17 27,8 °C 27,8 °C 58 % 1013,6 hPa 0,0 mm 4,7 km/h (1 Bft) W 261 ° 1 min 0,000 mm 7,2 UV-I 868 W/m² 18,8 °C 27,8 °C 9,7 km/h (2 Bft)
22.06.2017 12:18 27,9 °C 27,9 °C 59 % 1013,5 hPa 0,0 mm 10,1 km/h (2 Bft) W 264 ° 1 min 0,000 mm 7,3 UV-I 877 W/m² 19,1 °C 27,9 °C 14,5 km/h (3 Bft)
22.06.2017 12:19 27,9 °C 27,9 °C 56 % 1013,6 hPa 0,0 mm 10,4 km/h (2 Bft) W-NW 291 ° 1 min 0,000 mm 7,3 UV-I 870 W/m² 18,3 °C 27,9 °C 14,5 km/h (3 Bft)
22.06.2017 12:20 27,9 °C 27,9 °C 56 % 1013,6 hPa 0,0 mm 11,6 km/h (2 Bft) W 265 ° 1 min 0,000 mm 7,3 UV-I 872 W/m² 18,3 °C 27,9 °C 14,5 km/h (3 Bft)
22.06.2017 12:21 27,8 °C 27,9 °C 53 % 1013,5 hPa 0,0 mm 6,8 km/h (2 Bft) W-SW 238 ° 1 min 0,000 mm 7,3 UV-I 874 W/m² 17,3 °C 27,8 °C 17,7 km/h (3 Bft)
22.06.2017 12:22 27,7 °C 27,8 °C 54 % 1013,5 hPa 0,0 mm 1,6 km/h (1 Bft) W-SW 238 ° 1 min 0,000 mm 7,4 UV-I 879 W/m² 17,5 °C 27,7 °C 3,2 km/h (1 Bft)
22.06.2017 12:23 27,7 °C 27,8 °C 56 % 1013,5 hPa 0,0 mm 3,3 km/h (1 Bft) W 269 ° 1 min 0,000 mm 7,5 UV-I 881 W/m² 18,1 °C 27,7 °C 6,4 km/h (2 Bft)
22.06.2017 12:24 27,7 °C 27,8 °C 54 % 1013,5 hPa 0,0 mm 8,8 km/h (2 Bft) NW 308 ° 1 min 0,000 mm 7,4 UV-I 881 W/m² 17,5 °C 27,7 °C 12,9 km/h (3 Bft)
22.06.2017 12:25 27,7 °C 27,7 °C 53 % 1013,5 hPa 0,0 mm 6,4 km/h (2 Bft) W-NW 294 ° 1 min 0,000 mm 7,4 UV-I 881 W/m² 17,2 °C 27,7 °C 14,5 km/h (3 Bft)
22.06.2017 12:26 27,7 °C 27,7 °C 55 % 1013,5 hPa 0,0 mm 8,3 km/h (2 Bft) W 266 ° 1 min 0,000 mm 7,4 UV-I 882 W/m² 17,8 °C 27,7 °C 12,9 km/h (3 Bft)
22.06.2017 12:27 27,8 °C 27,8 °C 58 % 1013,5 hPa 0,0 mm 6,4 km/h (2 Bft) W-SW 241 ° 1 min 0,000 mm 7,4 UV-I 886 W/m² 18,8 °C 27,8 °C 9,7 km/h (2 Bft)
22.06.2017 12:28 27,8 °C 27,8 °C 53 % 1013,5 hPa 0,0 mm 4,8 km/h (1 Bft) W-NW 282 ° 1 min 0,000 mm 7,4 UV-I 884 W/m² 17,3 °C 27,8 °C 6,4 km/h (2 Bft)
22.06.2017 12:29 27,8 °C 27,8 °C 57 % 1013,5 hPa 0,0 mm 3,6 km/h (1 Bft) N-NW 334 ° 1 min 0,000 mm 7,2 UV-I 863 W/m² 18,5 °C 27,8 °C 4,8 km/h (1 Bft)
22.06.2017 12:30 27,9 °C 27,9 °C 56 % 1013,4 hPa 0,0 mm 3,8 km/h (1 Bft) W-NW 294 ° 1 min 0,000 mm 7,4 UV-I 875 W/m² 18,3 °C 27,9 °C 6,4 km/h (2 Bft)
22.06.2017 12:31 27,9 °C 27,9 °C 54 % 1013,4 hPa 0,0 mm 9,5 km/h (2 Bft) W 261 ° 1 min 0,000 mm 7,4 UV-I 879 W/m² 17,7 °C 27,9 °C 12,9 km/h (3 Bft)
22.06.2017 12:32 27,9 °C 27,9 °C 54 % 1013,4 hPa 0,0 mm 8,0 km/h (2 Bft) W-NW 300 ° 1 min 0,000 mm 7,4 UV-I 884 W/m² 17,7 °C 27,9 °C 12,9 km/h (3 Bft)
22.06.2017 12:33 27,8 °C 27,9 °C 54 % 1013,4 hPa 0,0 mm 3,4 km/h (1 Bft) NW 311 ° 1 min 0,000 mm 7,4 UV-I 882 W/m² 17,6 °C 27,8 °C 6,4 km/h (2 Bft)
22.06.2017 12:34 27,8 °C 27,8 °C 53 % 1013,4 hPa 0,0 mm 5,2 km/h (1 Bft) W-SW 256 ° 1 min 0,000 mm 7,3 UV-I 879 W/m² 17,3 °C 27,8 °C 8,0 km/h (2 Bft)
22.06.2017 12:35 27,8 °C 27,9 °C 57 % 1013,4 hPa 0,0 mm 3,5 km/h (1 Bft) SW 223 ° 1 min 0,000 mm 7,4 UV-I 882 W/m² 18,5 °C 27,8 °C 6,4 km/h (2 Bft)
22.06.2017 12:36 27,9 °C 27,9 °C 56 % 1013,4 hPa 0,0 mm 3,7 km/h (1 Bft) W-SW 238 ° 1 min 0,000 mm 7,5 UV-I 884 W/m² 18,3 °C 27,9 °C 4,8 km/h (1 Bft)
22.06.2017 12:37 28,0 °C 28,0 °C 56 % 1013,4 hPa 0,0 mm 7,2 km/h (2 Bft) W-NW 292 ° 1 min 0,000 mm 7,6 UV-I 891 W/m² 18,4 °C 28,0 °C 12,9 km/h (3 Bft)
22.06.2017 12:38 28,1 °C 28,1 °C 53 % 1013,3 hPa 0,0 mm 7,0 km/h (2 Bft) N-NW 331 ° 1 min 0,000 mm 7,5 UV-I 889 W/m² 17,6 °C 28,1 °C 11,3 km/h (2 Bft)
22.06.2017 12:39 28,1 °C 28,1 °C 53 % 1013,3 hPa 0,0 mm 9,5 km/h (2 Bft) W 269 ° 1 min 0,000 mm 7,4 UV-I 886 W/m² 17,6 °C 28,1 °C 16,1 km/h (3 Bft)
22.06.2017 12:40 28,1 °C 28,1 °C 53 % 1013,4 hPa 0,0 mm 14,1 km/h (3 Bft) W 281 ° 1 min 0,000 mm 7,5 UV-I 886 W/m² 17,6 °C 28,1 °C 20,9 km/h (4 Bft)
22.06.2017 12:41 28,1 °C 28,1 °C 53 % 1013,4 hPa 0,0 mm 9,1 km/h (2 Bft) W 276 ° 1 min 0,000 mm 7,5 UV-I 888 W/m² 17,6 °C 28,1 °C 14,5 km/h (3 Bft)
22.06.2017 12:42 28,1 °C 28,1 °C 49 % 1013,4 hPa 0,0 mm 3,8 km/h (1 Bft) NW 313 ° 1 min 0,000 mm 7,6 UV-I 889 W/m² 16,4 °C 28,1 °C 6,4 km/h (2 Bft)
22.06.2017 12:43 28,1 °C 28,1 °C 51 % 1013,3 hPa 0,0 mm 6,2 km/h (2 Bft) N-NW 332 ° 1 min 0,000 mm 7,5 UV-I 884 W/m² 17,0 °C 28,1 °C 9,7 km/h (2 Bft)
22.06.2017 12:44 28,2 °C 28,2 °C 51 % 1013,3 hPa 0,0 mm 6,6 km/h (2 Bft) NW 319 ° 1 min 0,000 mm 7,4 UV-I 881 W/m² 17,1 °C 28,2 °C 9,7 km/h (2 Bft)
22.06.2017 12:45 28,2 °C 28,2 °C 51 % 1013,3 hPa 0,0 mm 10,8 km/h (2 Bft) W-NW 292 ° 1 min 0,000 mm 7,4 UV-I 881 W/m² 17,1 °C 28,2 °C 16,1 km/h (3 Bft)
22.06.2017 12:46 28,2 °C 28,2 °C 53 % 1013,4 hPa 0,0 mm 11,1 km/h (2 Bft) NW 321 ° 1 min 0,000 mm 7,5 UV-I 886 W/m² 17,7 °C 28,2 °C 14,5 km/h (3 Bft)
22.06.2017 12:47 28,2 °C 28,2 °C 49 % 1013,3 hPa 0,0 mm 5,3 km/h (1 Bft) W-NW 284 ° 1 min 0,000 mm 7,4 UV-I 889 W/m² 16,5 °C 28,2 °C 11,3 km/h (2 Bft)
22.06.2017 12:48 28,2 °C 28,2 °C 52 % 1013,3 hPa 0,0 mm 3,6 km/h (1 Bft) W-NW 287 ° 1 min 0,000 mm 7,4 UV-I 886 W/m² 17,4 °C 28,2 °C 9,7 km/h (2 Bft)
22.06.2017 12:49 28,2 °C 28,2 °C 51 % 1013,3 hPa 0,0 mm 2,9 km/h (1 Bft) W 280 ° 1 min 0,000 mm 7,4 UV-I 884 W/m² 17,1 °C 28,2 °C 11,3 km/h (2 Bft)
22.06.2017 12:50 28,1 °C 28,2 °C 51 % 1013,3 hPa 0,0 mm 7,4 km/h (2 Bft) W-NW 300 ° 1 min 0,000 mm 7,4 UV-I 882 W/m² 17,0 °C 28,1 °C 12,9 km/h (3 Bft)
22.06.2017 12:51 28,1 °C 28,1 °C 51 % 1013,2 hPa 0,0 mm 9,3 km/h (2 Bft) W 267 ° 1 min 0,000 mm 7,5 UV-I 881 W/m² 17,0 °C 28,1 °C 12,9 km/h (3 Bft)
22.06.2017 12:52 28,2 °C 28,2 °C 53 % 1013,3 hPa 0,0 mm 5,3 km/h (1 Bft) W-NW 286 ° 1 min 0,000 mm 7,6 UV-I 895 W/m² 17,7 °C 28,2 °C 8,0 km/h (2 Bft)
22.06.2017 12:53 28,2 °C 28,2 °C 51 % 1013,2 hPa 0,0 mm 6,0 km/h (2 Bft) W-NW 302 ° 1 min 0,000 mm 7,6 UV-I 905 W/m² 17,1 °C 28,2 °C 11,3 km/h (2 Bft)
22.06.2017 12:54 28,2 °C 28,2 °C 52 % 1013,2 hPa 0,0 mm 11,4 km/h (2 Bft) NW 322 ° 1 min 0,000 mm 7,8 UV-I 900 W/m² 17,4 °C 28,2 °C 16,1 km/h (3 Bft)
22.06.2017 12:55 28,2 °C 28,3 °C 52 % 1013,2 hPa 0,0 mm 8,4 km/h (2 Bft) NW 306 ° 1 min 0,000 mm 7,6 UV-I 896 W/m² 17,4 °C 28,2 °C 12,9 km/h (3 Bft)
22.06.2017 12:56 28,2 °C 28,2 °C 48 % 1013,2 hPa 0,0 mm 7,3 km/h (2 Bft) N-NO 17 ° 1 min 0,000 mm 7,6 UV-I 895 W/m² 16,1 °C 28,2 °C 9,7 km/h (2 Bft)
22.06.2017 12:57 28,1 °C 28,2 °C 49 % 1013,2 hPa 0,0 mm 4,6 km/h (1 Bft) W-NW 294 ° 1 min 0,000 mm 7,5 UV-I 888 W/m² 16,4 °C 28,1 °C 8,0 km/h (2 Bft)
22.06.2017 12:58 28,1 °C 28,2 °C 50 % 1013,2 hPa 0,0 mm 6,8 km/h (2 Bft) N-NW 330 ° 1 min 0,000 mm 7,6 UV-I 884 W/m² 16,7 °C 28,1 °C 9,7 km/h (2 Bft)
22.06.2017 12:59 28,1 °C 28,1 °C 51 % 1013,2 hPa 0,0 mm 6,4 km/h (2 Bft) W-SW 256 ° 1 min 0,000 mm 7,6 UV-I 896 W/m² 17,0 °C 28,1 °C 9,7 km/h (2 Bft)
22.06.2017 13:00 28,2 °C 28,2 °C 52 % 1013,1 hPa 0,0 mm 8,1 km/h (2 Bft) W-SW 258 ° 1 min 0,610 mm 7,7 UV-I 912 W/m² 17,4 °C 28,2 °C 11,3 km/h (2 Bft)
22.06.2017 13:01 28,2 °C 28,2 °C 50 % 1013,2 hPa 0,0 mm 7,0 km/h (2 Bft) W-NW 302 ° 1 min 0,000 mm 7,6 UV-I 907 W/m² 16,8 °C 28,2 °C 11,3 km/h (2 Bft)
22.06.2017 13:02 28,3 °C 28,3 °C 53 % 1013,1 hPa 0,0 mm 10,0 km/h (2 Bft) W-NW 300 ° 1 min 0,000 mm 7,7 UV-I 923 W/m² 17,8 °C 28,3 °C 14,5 km/h (3 Bft)
22.06.2017 13:03 28,3 °C 28,3 °C 53 % 1013,1 hPa 0,0 mm 10,0 km/h (2 Bft) NW 324 ° 1 min 0,000 mm 7,7 UV-I 932 W/m² 17,8 °C 28,3 °C 16,1 km/h (3 Bft)
22.06.2017 13:04 28,4 °C 28,4 °C 52 % 1013,1 hPa 0,0 mm 9,0 km/h (2 Bft) NW 309 ° 1 min 0,000 mm 7,6 UV-I 933 W/m² 17,6 °C 28,4 °C 17,7 km/h (3 Bft)
22.06.2017 13:05 28,4 °C 28,4 °C 54 % 1013,1 hPa 0,0 mm 11,6 km/h (2 Bft) W-NW 282 ° 1 min 0,000 mm 6,3 UV-I 933 W/m² 18,2 °C 28,4 °C 19,3 km/h (3 Bft)
22.06.2017 13:06 28,3 °C 28,4 °C 50 % 1013,2 hPa 0,0 mm 15,2 km/h (3 Bft) NW 309 ° 1 min 0,000 mm 7,6 UV-I 933 W/m² 16,9 °C 28,3 °C 20,9 km/h (4 Bft)
22.06.2017 13:07 28,3 °C 28,3 °C 51 % 1013,2 hPa 0,0 mm 9,1 km/h (2 Bft) NW 306 ° 1 min 0,000 mm 7,7 UV-I 944 W/m² 17,2 °C 28,3 °C 12,9 km/h (3 Bft)
22.06.2017 13:08 28,2 °C 28,3 °C 48 % 1013,2 hPa 0,0 mm 5,8 km/h (2 Bft) N-NW 348 ° 1 min 0,000 mm 7,6 UV-I 918 W/m² 16,1 °C 28,2 °C 8,0 km/h (2 Bft)
22.06.2017 13:09 28,1 °C 28,2 °C 50 % 1013,1 hPa 0,0 mm 5,4 km/h (1 Bft) W-NW 300 ° 1 min 0,000 mm 7,7 UV-I 904 W/m² 16,7 °C 28,1 °C 9,7 km/h (2 Bft)
22.06.2017 13:10 28,2 °C 28,2 °C 53 % 1013,2 hPa 0,0 mm 5,0 km/h (1 Bft) NW 319 ° 1 min 0,000 mm 7,6 UV-I 891 W/m² 17,7 °C 28,2 °C 6,4 km/h (2 Bft)
22.06.2017 13:11 28,2 °C 28,2 °C 51 % 1013,2 hPa 0,0 mm 7,5 km/h (2 Bft) W-NW 296 ° 1 min 0,000 mm 7,6 UV-I 896 W/m² 17,1 °C 28,2 °C 14,5 km/h (3 Bft)
22.06.2017 13:12 28,2 °C 28,2 °C 52 % 1013,2 hPa 0,0 mm 12,2 km/h (2 Bft) W-NW 284 ° 1 min 0,000 mm 7,7 UV-I 905 W/m² 17,4 °C 28,2 °C 16,1 km/h (3 Bft)
22.06.2017 13:13 28,2 °C 28,2 °C 52 % 1013,2 hPa 0,0 mm 12,0 km/h (2 Bft) W-NW 284 ° 1 min 0,000 mm 7,8 UV-I 916 W/m² 17,4 °C 28,2 °C 17,7 km/h (3 Bft)
22.06.2017 13:14 28,4 °C 28,4 °C 54 % 1013,1 hPa 0,0 mm 10,5 km/h (2 Bft) W 280 ° 1 min 0,000 mm 7,7 UV-I 918 W/m² 18,2 °C 28,4 °C 14,5 km/h (3 Bft)
22.06.2017 13:15 28,4 °C 28,4 °C 51 % 1013,2 hPa 0,0 mm 9,3 km/h (2 Bft) NW 322 ° 1 min 0,000 mm 7,7 UV-I 914 W/m² 17,3 °C 28,4 °C 12,9 km/h (3 Bft)
22.06.2017 13:16 28,4 °C 28,4 °C 49 % 1013,1 hPa 0,0 mm 7,0 km/h (2 Bft) W-NW 291 ° 1 min 0,000 mm 7,7 UV-I 928 W/m² 16,6 °C 28,4 °C 11,3 km/h (2 Bft)
22.06.2017 13:17 28,4 °C 28,4 °C 47 % 1013,2 hPa 0,0 mm 4,4 km/h (1 Bft) W-NW 288 ° 1 min 0,000 mm 7,5 UV-I 891 W/m² 16,0 °C 28,4 °C 8,0 km/h (2 Bft)
22.06.2017 13:18 28,4 °C 28,4 °C 52 % 1013,1 hPa 0,0 mm 5,0 km/h (1 Bft) W-NW 302 ° 1 min 0,000 mm 7,4 UV-I 891 W/m² 17,6 °C 28,4 °C 9,7 km/h (2 Bft)
22.06.2017 13:19 28,4 °C 28,4 °C 54 % 1013,1 hPa 0,0 mm 8,9 km/h (2 Bft) NW 321 ° 1 min 0,000 mm 7,4 UV-I 881 W/m² 18,2 °C 28,4 °C 12,9 km/h (3 Bft)
22.06.2017 13:20 28,4 °C 28,4 °C 52 % 1013,1 hPa 0,0 mm 7,7 km/h (2 Bft) NW 323 ° 1 min 0,000 mm 7,4 UV-I 940 W/m² 17,6 °C 28,4 °C 14,5 km/h (3 Bft)
22.06.2017 13:21 28,4 °C 28,4 °C 52 % 1013,1 hPa 0,0 mm 8,8 km/h (2 Bft) N-NW 333 ° 0 min 0,000 mm 4,4 UV-I 223 W/m² 17,6 °C 28,4 °C 14,5 km/h (3 Bft)
22.06.2017 13:22 28,3 °C 28,4 °C 52 % 1013,1 hPa 0,0 mm 8,8 km/h (2 Bft) NW 310 ° 0 min 0,000 mm 4,0 UV-I 237 W/m² 17,5 °C 28,3 °C 12,9 km/h (3 Bft)
22.06.2017 13:23 28,1 °C 28,3 °C 51 % 1013,1 hPa 0,0 mm 6,6 km/h (2 Bft) NW 316 ° 0 min 0,000 mm 4,9 UV-I 237 W/m² 17,0 °C 28,1 °C 9,7 km/h (2 Bft)
22.06.2017 13:24 27,9 °C 28,1 °C 52 % 1013,1 hPa 0,0 mm 6,0 km/h (2 Bft) NW 312 ° 0 min 0,000 mm 7,4 UV-I 237 W/m² 17,1 °C 27,9 °C 8,0 km/h (2 Bft)
22.06.2017 13:25 27,8 °C 27,9 °C 57 % 1013,2 hPa 0,0 mm 4,8 km/h (1 Bft) NW 318 ° 1 min 0,000 mm 7,6 UV-I 916 W/m² 18,5 °C 27,8 °C 9,7 km/h (2 Bft)
22.06.2017 13:26 27,8 °C 27,8 °C 54 % 1013,2 hPa 0,0 mm 3,5 km/h (1 Bft) W-NW 292 ° 1 min 0,000 mm 7,5 UV-I 902 W/m² 17,6 °C 27,8 °C 6,4 km/h (2 Bft)
22.06.2017 13:27 27,9 °C 27,9 °C 56 % 1013,2 hPa 0,0 mm 4,3 km/h (1 Bft) W-NW 293 ° 1 min 0,000 mm 7,5 UV-I 888 W/m² 18,3 °C 27,9 °C 12,9 km/h (3 Bft)
22.06.2017 13:28 28,1 °C 28,1 °C 54 % 1013,2 hPa 0,0 mm 13,2 km/h (3 Bft) W-NW 292 ° 1 min 0,000 mm 7,5 UV-I 882 W/m² 17,9 °C 28,1 °C 19,3 km/h (3 Bft)
22.06.2017 13:29 28,1 °C 28,1 °C 53 % 1013,1 hPa 0,0 mm 11,8 km/h (2 Bft) W-NW 290 ° 1 min 0,000 mm 7,4 UV-I 884 W/m² 17,6 °C 28,1 °C 17,7 km/h (3 Bft)
22.06.2017 13:30 28,2 °C 28,2 °C 52 % 1013,2 hPa 0,0 mm 9,5 km/h (2 Bft) NW 319 ° 1 min 0,000 mm 7,5 UV-I 888 W/m² 17,4 °C 28,2 °C 14,5 km/h (3 Bft)
22.06.2017 13:31 28,3 °C 28,3 °C 51 % 1013,1 hPa 0,0 mm 7,5 km/h (2 Bft) W 260 ° 1 min 0,000 mm 7,5 UV-I 886 W/m² 17,2 °C 28,3 °C 12,9 km/h (3 Bft)
22.06.2017 13:32 28,4 °C 28,4 °C 52 % 1013,1 hPa 0,0 mm 9,7 km/h (2 Bft) W-SW 249 ° 1 min 0,000 mm 7,4 UV-I 882 W/m² 17,6 °C 28,4 °C 12,9 km/h (3 Bft)
22.06.2017 13:33 28,4 °C 28,5 °C 51 % 1013,1 hPa 0,0 mm 8,8 km/h (2 Bft) W-SW 255 ° 1 min 0,000 mm 7,3 UV-I 875 W/m² 17,3 °C 28,4 °C 14,5 km/h (3 Bft)
22.06.2017 13:34 28,4 °C 28,4 °C 50 % 1013,0 hPa 0,0 mm 7,7 km/h (2 Bft) W-NW 299 ° 1 min 0,000 mm 7,3 UV-I 877 W/m² 17,0 °C 28,4 °C 11,3 km/h (2 Bft)
22.06.2017 13:35 28,4 °C 28,4 °C 52 % 1013,0 hPa 0,0 mm 7,6 km/h (2 Bft) N-NW 331 ° 1 min 0,000 mm 7,5 UV-I 884 W/m² 17,6 °C 28,4 °C 12,9 km/h (3 Bft)
22.06.2017 13:36 28,4 °C 28,4 °C 50 % 1013,0 hPa 0,0 mm 4,2 km/h (1 Bft) N-NW 334 ° 1 min 0,000 mm 7,3 UV-I 802 W/m² 17,0 °C 28,4 °C 6,4 km/h (2 Bft)
22.06.2017 13:37 28,3 °C 28,4 °C 47 % 1013,0 hPa 0,0 mm 1,7 km/h (1 Bft) N-NW 334 ° 1 min 0,000 mm 7,5 UV-I 877 W/m² 15,9 °C 28,3 °C 3,2 km/h (1 Bft)
22.06.2017 13:38 28,3 °C 28,3 °C 50 % 1013,0 hPa 0,0 mm 4,0 km/h (1 Bft) NW 309 ° 1 min 0,000 mm 7,3 UV-I 863 W/m² 16,9 °C 28,3 °C 8,0 km/h (2 Bft)
22.06.2017 13:39 28,4 °C 28,4 °C 52 % 1013,0 hPa 0,0 mm 9,1 km/h (2 Bft) N-NW 331 ° 1 min 0,000 mm 7,4 UV-I 872 W/m² 17,6 °C 28,4 °C 12,9 km/h (3 Bft)
22.06.2017 13:40 28,4 °C 28,4 °C 54 % 1013,0 hPa 0,0 mm 7,7 km/h (2 Bft) W 277 ° 1 min 0,000 mm 7,5 UV-I 877 W/m² 18,2 °C 28,4 °C 16,1 km/h (3 Bft)
22.06.2017 13:41 28,4 °C 28,4 °C 50 % 1013,0 hPa 0,0 mm 8,8 km/h (2 Bft) NW 307 ° 1 min 0,000 mm 7,5 UV-I 881 W/m² 17,0 °C 28,4 °C 14,5 km/h (3 Bft)
22.06.2017 13:42 28,5 °C 28,5 °C 52 % 1013,0 hPa 0,0 mm 6,4 km/h (2 Bft) W-NW 288 ° 1 min 0,000 mm 7,5 UV-I 886 W/m² 17,7 °C 28,5 °C 9,7 km/h (2 Bft)
22.06.2017 13:43 28,5 °C 28,5 °C 51 % 1012,9 hPa 0,0 mm 6,2 km/h (2 Bft) W 280 ° 1 min 0,000 mm 7,6 UV-I 888 W/m² 17,4 °C 28,5 °C 12,9 km/h (3 Bft)
22.06.2017 13:44 28,5 °C 28,6 °C 48 % 1013,0 hPa 0,0 mm 13,8 km/h (3 Bft) W-NW 285 ° 1 min 0,000 mm 7,6 UV-I 886 W/m² 16,4 °C 28,5 °C 20,9 km/h (4 Bft)
22.06.2017 13:45 28,4 °C 28,5 °C 48 % 1013,0 hPa 0,0 mm 4,1 km/h (1 Bft) NW 311 ° 1 min 0,000 mm 7,6 UV-I 888 W/m² 16,3 °C 28,4 °C 11,3 km/h (2 Bft)
22.06.2017 13:46 28,4 °C 28,4 °C 50 % 1013,0 hPa 0,0 mm 7,2 km/h (2 Bft) W-NW 282 ° 1 min 0,000 mm 7,5 UV-I 886 W/m² 17,0 °C 28,4 °C 11,3 km/h (2 Bft)
22.06.2017 13:47 28,3 °C 28,4 °C 48 % 1012,9 hPa 0,0 mm 5,8 km/h (2 Bft) W-NW 296 ° 1 min 0,000 mm 7,5 UV-I 886 W/m² 16,2 °C 28,3 °C 11,3 km/h (2 Bft)
22.06.2017 13:48 28,4 °C 28,4 °C 49 % 1012,9 hPa 0,0 mm 5,8 km/h (2 Bft) W 275 ° 1 min 0,000 mm 7,5 UV-I 888 W/m² 16,6 °C 28,4 °C 11,3 km/h (2 Bft)
22.06.2017 13:49 28,5 °C 28,5 °C 56 % 1012,9 hPa 0,0 mm 6,3 km/h (2 Bft) W-NW 297 ° 1 min 0,000 mm 7,5 UV-I 886 W/m² 18,8 °C 28,5 °C 11,3 km/h (2 Bft)
22.06.2017 13:50 28,5 °C 28,5 °C 52 % 1012,9 hPa 0,0 mm 9,5 km/h (2 Bft) W-NW 295 ° 1 min 0,000 mm 7,5 UV-I 888 W/m² 17,7 °C 28,5 °C 16,1 km/h (3 Bft)
22.06.2017 13:51 28,6 °C 28,6 °C 49 % 1012,9 hPa 0,0 mm 9,7 km/h (2 Bft) NW 308 ° 1 min 0,000 mm 7,5 UV-I 877 W/m² 16,8 °C 28,6 °C 14,5 km/h (3 Bft)
22.06.2017 13:52 28,6 °C 28,6 °C 50 % 1012,9 hPa 0,0 mm 4,6 km/h (1 Bft) NW 320 ° 1 min 0,000 mm 7,3 UV-I 872 W/m² 17,1 °C 28,6 °C 11,3 km/h (2 Bft)
22.06.2017 13:53 28,6 °C 28,6 °C 51 % 1012,9 hPa 0,0 mm 7,9 km/h (2 Bft) NW 305 ° 1 min 0,000 mm 7,3 UV-I 870 W/m² 17,4 °C 28,6 °C 12,9 km/h (3 Bft)
22.06.2017 13:54 28,6 °C 28,6 °C 51 % 1012,9 hPa 0,0 mm 8,4 km/h (2 Bft) W 280 ° 1 min 0,000 mm 7,3 UV-I 872 W/m² 17,4 °C 28,6 °C 12,9 km/h (3 Bft)
22.06.2017 13:55 28,7 °C 28,7 °C 51 % 1012,9 hPa 0,0 mm 6,5 km/h (2 Bft) NW 315 ° 1 min 0,000 mm 7,3 UV-I 872 W/m² 17,5 °C 28,7 °C 8,0 km/h (2 Bft)
22.06.2017 13:56 28,7 °C 28,7 °C 51 % 1012,9 hPa 0,0 mm 6,4 km/h (2 Bft) NW 316 ° 1 min 0,000 mm 7,3 UV-I 879 W/m² 17,5 °C 28,7 °C 12,9 km/h (3 Bft)
22.06.2017 13:57 28,7 °C 28,8 °C 50 % 1012,9 hPa 0,0 mm 8,3 km/h (2 Bft) W-NW 298 ° 1 min 0,000 mm 7,4 UV-I 879 W/m² 17,2 °C 28,7 °C 12,9 km/h (3 Bft)
22.06.2017 13:58 28,7 °C 28,7 °C 50 % 1012,9 hPa 0,0 mm 10,2 km/h (2 Bft) W-NW 296 ° 1 min 0,000 mm 7,4 UV-I 881 W/m² 17,2 °C 28,7 °C 14,5 km/h (3 Bft)
22.06.2017 13:59 28,7 °C 28,7 °C 49 % 1012,9 hPa 0,0 mm 6,6 km/h (2 Bft) NW 308 ° 1 min 0,000 mm 7,4 UV-I 877 W/m² 16,9 °C 28,7 °C 11,3 km/h (2 Bft)
22.06.2017 14:00 28,7 °C 28,7 °C 50 % 1012,8 hPa 0,0 mm 9,1 km/h (2 Bft) W-SW 243 ° 1 min 0,000 mm 7,4 UV-I 877 W/m² 17,2 °C 28,7 °C 14,5 km/h (3 Bft)
22.06.2017 14:01 28,7 °C 28,7 °C 50 % 1012,9 hPa 0,0 mm 13,7 km/h (3 Bft) W-SW 249 ° 1 min 0,635 mm 7,3 UV-I 870 W/m² 17,2 °C 28,7 °C 17,7 km/h (3 Bft)
22.06.2017 14:02 28,6 °C 28,7 °C 49 % 1012,9 hPa 0,0 mm 8,2 km/h (2 Bft) W 267 ° 1 min 0,000 mm 7,3 UV-I 868 W/m² 16,8 °C 28,6 °C 12,9 km/h (3 Bft)
22.06.2017 14:03 28,6 °C 28,6 °C 50 % 1012,9 hPa 0,0 mm 10,2 km/h (2 Bft) NW 315 ° 1 min 0,000 mm 7,3 UV-I 870 W/m² 17,1 °C 28,6 °C 16,1 km/h (3 Bft)
22.06.2017 14:04 28,7 °C 28,7 °C 49 % 1012,9 hPa 0,0 mm 9,1 km/h (2 Bft) W-NW 287 ° 1 min 0,000 mm 7,2 UV-I 865 W/m² 16,9 °C 28,7 °C 14,5 km/h (3 Bft)
22.06.2017 14:05 28,7 °C 28,7 °C 52 % 1012,9 hPa 0,0 mm 4,1 km/h (1 Bft) W-NW 296 ° 1 min 0,000 mm 7,2 UV-I 865 W/m² 17,8 °C 28,7 °C 6,4 km/h (2 Bft)
22.06.2017 14:06 28,7 °C 28,7 °C 48 % 1012,9 hPa 0,0 mm 7,1 km/h (2 Bft) NW 304 ° 1 min 0,000 mm 7,2 UV-I 863 W/m² 16,6 °C 28,7 °C 14,5 km/h (3 Bft)
22.06.2017 14:07 28,7 °C 28,7 °C 50 % 1012,8 hPa 0,0 mm 12,6 km/h (3 Bft) W-SW 257 ° 1 min 0,000 mm 7,3 UV-I 872 W/m² 17,2 °C 28,7 °C 25,7 km/h (4 Bft)
22.06.2017 14:08 28,6 °C 28,7 °C 45 % 1012,8 hPa 0,0 mm 14,6 km/h (3 Bft) W-NW 286 ° 1 min 0,000 mm 7,3 UV-I 874 W/m² 15,5 °C 28,6 °C 22,5 km/h (4 Bft)
22.06.2017 14:09 28,4 °C 28,6 °C 46 % 1012,8 hPa 0,0 mm 8,4 km/h (2 Bft) W 271 ° 1 min 0,000 mm 7,3 UV-I 872 W/m² 15,6 °C 28,4 °C 11,3 km/h (2 Bft)
22.06.2017 14:10 28,4 °C 28,4 °C 50 % 1012,8 hPa 0,0 mm 8,0 km/h (2 Bft) W-NW 285 ° 1 min 0,000 mm 7,3 UV-I 872 W/m² 17,0 °C 28,4 °C 14,5 km/h (3 Bft)
22.06.2017 14:11 28,4 °C 28,4 °C 47 % 1012,9 hPa 0,0 mm 7,2 km/h (2 Bft) W 278 ° 1 min 0,000 mm 7,3 UV-I 874 W/m² 16,0 °C 28,4 °C 11,3 km/h (2 Bft)
22.06.2017 14:12 28,6 °C 28,6 °C 51 % 1012,8 hPa 0,0 mm 9,8 km/h (2 Bft) NW 323 ° 1 min 0,000 mm 7,3 UV-I 872 W/m² 17,4 °C 28,6 °C 12,9 km/h (3 Bft)
22.06.2017 14:13 28,6 °C 28,6 °C 48 % 1012,8 hPa 0,0 mm 7,6 km/h (2 Bft) NW 321 ° 1 min 0,000 mm 7,3 UV-I 870 W/m² 16,5 °C 28,6 °C 12,9 km/h (3 Bft)
22.06.2017 14:14 28,6 °C 28,6 °C 47 % 1012,8 hPa 0,0 mm 3,7 km/h (1 Bft) NW 304 ° 1 min 0,000 mm 7,2 UV-I 868 W/m² 16,2 °C 28,6 °C 8,0 km/h (2 Bft)
22.06.2017 14:15 28,6 °C 28,6 °C 48 % 1012,8 hPa 0,0 mm 6,3 km/h (2 Bft) NW 306 ° 1 min 0,000 mm 7,2 UV-I 868 W/m² 16,5 °C 28,6 °C 8,0 km/h (2 Bft)
22.06.2017 14:16 28,7 °C 28,7 °C 51 % 1012,8 hPa 0,0 mm 9,7 km/h (2 Bft) N-NO 19 ° 1 min 0,000 mm 7,2 UV-I 868 W/m² 17,5 °C 28,7 °C 14,5 km/h (3 Bft)
22.06.2017 14:17 28,8 °C 28,8 °C 49 % 1012,6 hPa 0,0 mm 13,4 km/h (3 Bft) W-NW 291 ° 1 min 0,000 mm 7,2 UV-I 868 W/m² 17,0 °C 28,8 °C 22,5 km/h (4 Bft)
22.06.2017 14:18 28,9 °C 28,9 °C 51 % 1012,8 hPa 0,0 mm 7,9 km/h (2 Bft) W 278 ° 1 min 0,000 mm 7,2 UV-I 868 W/m² 17,7 °C 28,9 °C 14,5 km/h (3 Bft)
22.06.2017 14:19 28,9 °C 28,9 °C 47 % 1012,7 hPa 0,0 mm 10,1 km/h (2 Bft) W-NW 299 ° 1 min 0,000 mm 7,2 UV-I 867 W/m² 16,4 °C 28,9 °C 16,1 km/h (3 Bft)
22.06.2017 14:20 28,8 °C 28,9 °C 46 % 1012,8 hPa 0,0 mm 10,3 km/h (2 Bft) W-NW 286 ° 1 min 0,000 mm 7,1 UV-I 865 W/m² 16,0 °C 28,8 °C 16,1 km/h (3 Bft)
22.06.2017 14:21 28,8 °C 28,8 °C 46 % 1012,7 hPa 0,0 mm 8,4 km/h (2 Bft) NW 308 ° 1 min 0,000 mm 7,2 UV-I 872 W/m² 16,0 °C 28,8 °C 12,9 km/h (3 Bft)
22.06.2017 14:22 28,8 °C 28,8 °C 49 % 1012,7 hPa 0,0 mm 7,3 km/h (2 Bft) W-NW 290 ° 1 min 0,000 mm 7,2 UV-I 868 W/m² 17,0 °C 28,8 °C 11,3 km/h (2 Bft)
22.06.2017 14:23 28,8 °C 28,8 °C 51 % 1012,7 hPa 0,0 mm 8,2 km/h (2 Bft) W-NW 288 ° 1 min 0,000 mm 7,2 UV-I 867 W/m² 17,6 °C 28,8 °C 16,1 km/h (3 Bft)
22.06.2017 14:24 28,9 °C 28,9 °C 49 % 1012,7 hPa 0,0 mm 13,4 km/h (3 Bft) W-NW 289 ° 1 min 0,000 mm 7,2 UV-I 868 W/m² 17,1 °C 28,9 °C 17,7 km/h (3 Bft)
22.06.2017 14:25 28,9 °C 28,9 °C 50 % 1012,7 hPa 0,0 mm 9,1 km/h (2 Bft) W-NW 284 ° 1 min 0,000 mm 7,2 UV-I 872 W/m² 17,4 °C 28,9 °C 14,5 km/h (3 Bft)
22.06.2017 14:26 28,9 °C 28,9 °C 49 % 1012,7 hPa 0,0 mm 6,9 km/h (2 Bft) W-NW 284 ° 1 min 0,000 mm 7,1 UV-I 863 W/m² 17,1 °C 28,9 °C 11,3 km/h (2 Bft)
22.06.2017 14:27 28,8 °C 28,9 °C 50 % 1012,7 hPa 0,0 mm 7,1 km/h (2 Bft) NW 311 ° 1 min 0,000 mm 7,1 UV-I 867 W/m² 17,3 °C 28,8 °C 11,3 km/h (2 Bft)
22.06.2017 14:28 28,9 °C 28,9 °C 47 % 1012,7 hPa 0,0 mm 8,6 km/h (2 Bft) N 360 ° 1 min 0,000 mm 7,0 UV-I 860 W/m² 16,4 °C 28,9 °C 12,9 km/h (3 Bft)
22.06.2017 14:29 28,9 °C 28,9 °C 49 % 1012,7 hPa 0,0 mm 6,6 km/h (2 Bft) N-NW 330 ° 1 min 0,000 mm 7,1 UV-I 863 W/m² 17,1 °C 28,9 °C 9,7 km/h (2 Bft)
22.06.2017 14:30 29,1 °C 29,1 °C 51 % 1012,6 hPa 0,0 mm 7,3 km/h (2 Bft) N-NW 346 ° 1 min 0,000 mm 7,1 UV-I 860 W/m² 17,9 °C 29,1 °C 12,9 km/h (3 Bft)
22.06.2017 14:31 29,2 °C 29,2 °C 49 % 1012,7 hPa 0,0 mm 9,3 km/h (2 Bft) N-NW 341 ° 1 min 0,000 mm 7,1 UV-I 861 W/m² 17,4 °C 29,2 °C 14,5 km/h (3 Bft)
22.06.2017 14:32 29,3 °C 29,3 °C 47 % 1012,7 hPa 0,0 mm 7,5 km/h (2 Bft) NW 311 ° 1 min 0,000 mm 7,0 UV-I 858 W/m² 16,8 °C 29,3 °C 12,9 km/h (3 Bft)
22.06.2017 14:33 29,2 °C 29,3 °C 48 % 1012,6 hPa 0,0 mm 6,0 km/h (2 Bft) W 260 ° 1 min 0,000 mm 7,0 UV-I 856 W/m² 17,0 °C 29,2 °C 11,3 km/h (2 Bft)
22.06.2017 14:34 29,2 °C 29,3 °C 48 % 1012,6 hPa 0,0 mm 10,1 km/h (2 Bft) W 269 ° 1 min 0,000 mm 6,9 UV-I 846 W/m² 17,0 °C 29,2 °C 20,9 km/h (4 Bft)
22.06.2017 14:35 29,2 °C 29,2 °C 44 % 1012,7 hPa 0,0 mm 14,1 km/h (3 Bft) W-NW 289 ° 1 min 0,000 mm 6,8 UV-I 844 W/m² 15,7 °C 29,2 °C 19,3 km/h (3 Bft)
22.06.2017 14:36 29,0 °C 29,2 °C 46 % 1012,7 hPa 0,0 mm 7,0 km/h (2 Bft) W-NW 296 ° 1 min 0,000 mm 6,9 UV-I 847 W/m² 16,2 °C 29,0 °C 12,9 km/h (3 Bft)
22.06.2017 14:37 28,9 °C 29,0 °C 45 % 1012,7 hPa 0,0 mm 11,8 km/h (2 Bft) NW 319 ° 1 min 0,000 mm 6,8 UV-I 842 W/m² 15,8 °C 28,9 °C 17,7 km/h (3 Bft)
22.06.2017 14:38 28,8 °C 28,9 °C 50 % 1012,6 hPa 0,0 mm 5,7 km/h (1 Bft) W-NW 291 ° 1 min 0,000 mm 6,8 UV-I 846 W/m² 17,3 °C 28,8 °C 14,5 km/h (3 Bft)
22.06.2017 14:39 28,8 °C 28,8 °C 47 % 1012,7 hPa 0,0 mm 5,8 km/h (2 Bft) W 261 ° 1 min 0,000 mm 6,8 UV-I 846 W/m² 16,3 °C 28,8 °C 9,7 km/h (2 Bft)
22.06.2017 14:40 28,9 °C 28,9 °C 47 % 1012,7 hPa 0,0 mm 5,8 km/h (2 Bft) NW 319 ° 1 min 0,000 mm 6,8 UV-I 846 W/m² 16,4 °C 28,9 °C 8,0 km/h (2 Bft)
22.06.2017 14:41 28,9 °C 28,9 °C 47 % 1012,6 hPa 0,0 mm 11,8 km/h (2 Bft) W-NW 295 ° 1 min 0,000 mm 6,8 UV-I 844 W/m² 16,4 °C 28,9 °C 16,1 km/h (3 Bft)
22.06.2017 14:42 28,9 °C 28,9 °C 45 % 1012,6 hPa 0,0 mm 12,8 km/h (3 Bft) W 273 ° 1 min 0,000 mm 6,8 UV-I 842 W/m² 15,8 °C 28,9 °C 19,3 km/h (3 Bft)
22.06.2017 14:43 28,8 °C 28,9 °C 44 % 1012,7 hPa 0,0 mm 8,0 km/h (2 Bft) W 269 ° 1 min 0,000 mm 6,8 UV-I 840 W/m² 15,3 °C 28,8 °C 14,5 km/h (3 Bft)
22.06.2017 14:44 28,7 °C 28,8 °C 45 % 1012,6 hPa 0,0 mm 10,6 km/h (2 Bft) W-NW 290 ° 1 min 0,000 mm 6,7 UV-I 838 W/m² 15,6 °C 28,7 °C 14,5 km/h (3 Bft)
22.06.2017 14:45 28,7 °C 28,7 °C 48 % 1012,6 hPa 0,0 mm 9,8 km/h (2 Bft) W-SW 252 ° 1 min 0,000 mm 6,7 UV-I 837 W/m² 16,6 °C 28,7 °C 16,1 km/h (3 Bft)
22.06.2017 14:46 28,8 °C 28,8 °C 48 % 1012,6 hPa 0,0 mm 7,2 km/h (2 Bft) W 275 ° 1 min 0,000 mm 6,8 UV-I 840 W/m² 16,7 °C 28,8 °C 12,9 km/h (3 Bft)
22.06.2017 14:47 28,8 °C 28,8 °C 49 % 1012,6 hPa 0,0 mm 5,8 km/h (2 Bft) W 274 ° 1 min 0,000 mm 6,8 UV-I 842 W/m² 17,0 °C 28,8 °C 9,7 km/h (2 Bft)
22.06.2017 14:48 28,8 °C 28,8 °C 46 % 1012,6 hPa 0,0 mm 5,3 km/h (1 Bft) N-NW 335 ° 1 min 0,000 mm 6,7 UV-I 838 W/m² 16,0 °C 28,8 °C 8,0 km/h (2 Bft)
22.06.2017 14:49 28,9 °C 28,9 °C 52 % 1012,6 hPa 0,0 mm 6,5 km/h (2 Bft) N-NW 329 ° 1 min 0,000 mm 6,7 UV-I 837 W/m² 18,0 °C 28,9 °C 9,7 km/h (2 Bft)
22.06.2017 14:50 28,9 °C 28,9 °C 45 % 1012,6 hPa 0,0 mm 10,2 km/h (2 Bft) W 276 ° 1 min 0,000 mm 6,7 UV-I 838 W/m² 15,8 °C 28,9 °C 19,3 km/h (3 Bft)
22.06.2017 14:51 28,9 °C 28,9 °C 47 % 1012,6 hPa 0,0 mm 10,4 km/h (2 Bft) W-NW 303 ° 1 min 0,000 mm 6,8 UV-I 846 W/m² 16,4 °C 28,9 °C 16,1 km/h (3 Bft)
22.06.2017 14:52 28,9 °C 28,9 °C 45 % 1012,6 hPa 0,0 mm 4,9 km/h (1 Bft) W 277 ° 1 min 0,000 mm 6,8 UV-I 842 W/m² 15,8 °C 28,9 °C 9,7 km/h (2 Bft)
22.06.2017 14:53 28,8 °C 28,9 °C 46 % 1012,5 hPa 0,0 mm 9,5 km/h (2 Bft) W 280 ° 1 min 0,000 mm 6,8 UV-I 844 W/m² 16,0 °C 28,8 °C 12,9 km/h (3 Bft)
22.06.2017 14:54 28,9 °C 28,9 °C 46 % 1012,5 hPa 0,0 mm 9,1 km/h (2 Bft) W-NW 292 ° 1 min 0,000 mm 6,7 UV-I 840 W/m² 16,1 °C 28,9 °C 14,5 km/h (3 Bft)
22.06.2017 14:55 28,8 °C 28,9 °C 44 % 1012,5 hPa 0,0 mm 10,3 km/h (2 Bft) W 281 ° 1 min 0,000 mm 6,6 UV-I 828 W/m² 15,3 °C 28,8 °C 16,1 km/h (3 Bft)
22.06.2017 14:56 28,8 °C 28,8 °C 45 % 1012,6 hPa 0,0 mm 15,6 km/h (3 Bft) W 281 ° 1 min 0,000 mm 6,6 UV-I 828 W/m² 15,7 °C 28,8 °C 20,9 km/h (4 Bft)
22.06.2017 14:57 28,8 °C 28,8 °C 46 % 1012,5 hPa 0,0 mm 8,6 km/h (2 Bft) W 269 ° 1 min 0,000 mm 6,6 UV-I 830 W/m² 16,0 °C 28,8 °C 20,9 km/h (4 Bft)
22.06.2017 14:58 28,8 °C 28,8 °C 47 % 1012,5 hPa 0,0 mm 9,5 km/h (2 Bft) W 261 ° 1 min 0,000 mm 6,6 UV-I 830 W/m² 16,3 °C 28,8 °C 12,9 km/h (3 Bft)
22.06.2017 14:59 28,8 °C 28,8 °C 42 % 1012,5 hPa 0,0 mm 9,0 km/h (2 Bft) W 271 ° 1 min 0,000 mm 6,6 UV-I 828 W/m² 14,6 °C 28,8 °C 12,9 km/h (3 Bft)
22.06.2017 15:00 28,8 °C 28,8 °C 45 % 1012,5 hPa 0,0 mm 6,1 km/h (2 Bft) W-NW 291 ° 1 min 0,000 mm 6,6 UV-I 830 W/m² 15,7 °C 28,8 °C 8,0 km/h (2 Bft)
22.06.2017 15:01 28,9 °C 28,9 °C 47 % 1012,5 hPa 0,0 mm 6,7 km/h (2 Bft) W 277 ° 1 min 0,635 mm 6,6 UV-I 824 W/m² 16,4 °C 28,9 °C 12,9 km/h (3 Bft)
22.06.2017 15:02 29,0 °C 29,0 °C 46 % 1012,4 hPa 0,0 mm 7,8 km/h (2 Bft) NW 313 ° 1 min 0,000 mm 6,6 UV-I 830 W/m² 16,2 °C 29,0 °C 14,5 km/h (3 Bft)
22.06.2017 15:03 29,0 °C 29,0 °C 47 % 1012,5 hPa 0,0 mm 6,6 km/h (2 Bft) NW 315 ° 1 min 0,000 mm 6,6 UV-I 830 W/m² 16,5 °C 29,0 °C 11,3 km/h (2 Bft)
22.06.2017 15:04 29,1 °C 29,1 °C 45 % 1012,4 hPa 0,0 mm 5,6 km/h (1 Bft) W 269 ° 1 min 0,000 mm 6,6 UV-I 823 W/m² 15,9 °C 29,1 °C 14,5 km/h (3 Bft)
22.06.2017 15:05 29,1 °C 29,1 °C 44 % 1012,4 hPa 0,0 mm 14,4 km/h (3 Bft) NW 309 ° 1 min 0,000 mm 6,5 UV-I 823 W/m² 15,6 °C 29,1 °C 20,9 km/h (4 Bft)
22.06.2017 15:06 29,1 °C 29,1 °C 43 % 1012,4 hPa 0,0 mm 8,8 km/h (2 Bft) W 279 ° 1 min 0,000 mm 6,5 UV-I 821 W/m² 15,2 °C 29,1 °C 12,9 km/h (3 Bft)
22.06.2017 15:07 29,0 °C 29,1 °C 45 % 1012,4 hPa 0,0 mm 11,4 km/h (2 Bft) NW 324 ° 1 min 0,000 mm 6,4 UV-I 821 W/m² 15,8 °C 29,0 °C 17,7 km/h (3 Bft)
22.06.2017 15:08 28,9 °C 29,0 °C 43 % 1012,4 hPa 0,0 mm 12,6 km/h (3 Bft) W 271 ° 1 min 0,000 mm 6,4 UV-I 819 W/m² 15,0 °C 28,9 °C 19,3 km/h (3 Bft)
22.06.2017 15:09 28,9 °C 28,9 °C 43 % 1012,4 hPa 0,0 mm 8,2 km/h (2 Bft) NW 313 ° 1 min 0,000 mm 6,5 UV-I 821 W/m² 15,0 °C 28,9 °C 14,5 km/h (3 Bft)
22.06.2017 15:10 28,8 °C 28,9 °C 43 % 1012,4 hPa 0,0 mm 12,1 km/h (2 Bft) N-NW 327 ° 1 min 0,000 mm 6,4 UV-I 816 W/m² 15,0 °C 28,8 °C 19,3 km/h (3 Bft)
22.06.2017 15:11 28,8 °C 28,8 °C 44 % 1012,4 hPa 0,0 mm 9,3 km/h (2 Bft) W-NW 296 ° 1 min 0,000 mm 6,4 UV-I 817 W/m² 15,3 °C 28,8 °C 16,1 km/h (3 Bft)
22.06.2017 15:12 28,7 °C 28,8 °C 44 % 1012,4 hPa 0,0 mm 6,3 km/h (2 Bft) W 266 ° 1 min 0,000 mm 6,3 UV-I 809 W/m² 15,2 °C 28,7 °C 9,7 km/h (2 Bft)
22.06.2017 15:13 28,7 °C 28,8 °C 41 % 1012,4 hPa 0,0 mm 9,0 km/h (2 Bft) NW 321 ° 1 min 0,000 mm 6,2 UV-I 807 W/m² 14,1 °C 28,7 °C 16,1 km/h (3 Bft)
22.06.2017 15:14 28,7 °C 28,8 °C 42 % 1012,4 hPa 0,0 mm 13,8 km/h (3 Bft) W-NW 292 ° 1 min 0,000 mm 6,3 UV-I 810 W/m² 14,5 °C 28,7 °C 19,3 km/h (3 Bft)
22.06.2017 15:15 28,8 °C 28,8 °C 45 % 1012,3 hPa 0,0 mm 10,0 km/h (2 Bft) NW 306 ° 1 min 0,000 mm 6,3 UV-I 807 W/m² 15,7 °C 28,8 °C 16,1 km/h (3 Bft)
22.06.2017 15:16 28,8 °C 28,8 °C 40 % 1012,3 hPa 0,0 mm 10,8 km/h (2 Bft) NW 315 ° 1 min 0,000 mm 6,3 UV-I 807 W/m² 13,8 °C 28,8 °C 19,3 km/h (3 Bft)
22.06.2017 15:17 28,8 °C 28,8 °C 44 % 1012,3 hPa 0,0 mm 5,2 km/h (1 Bft) NW 317 ° 1 min 0,000 mm 6,2 UV-I 803 W/m² 15,3 °C 28,8 °C 8,0 km/h (2 Bft)
22.06.2017 15:18 28,9 °C 28,9 °C 42 % 1012,3 hPa 0,0 mm 5,8 km/h (2 Bft) W 278 ° 1 min 0,000 mm 6,2 UV-I 803 W/m² 14,7 °C 28,9 °C 14,5 km/h (3 Bft)
22.06.2017 15:19 28,8 °C 28,9 °C 43 % 1012,3 hPa 0,0 mm 7,0 km/h (2 Bft) NW 314 ° 1 min 0,000 mm 6,2 UV-I 795 W/m² 15,0 °C 28,8 °C 14,5 km/h (3 Bft)
22.06.2017 15:20 28,8 °C 28,9 °C 40 % 1012,3 hPa 0,0 mm 10,6 km/h (2 Bft) NW 320 ° 1 min 0,000 mm 6,1 UV-I 791 W/m² 13,8 °C 28,8 °C 16,1 km/h (3 Bft)
22.06.2017 15:21 28,9 °C 28,9 °C 40 % 1012,3 hPa 0,0 mm 9,1 km/h (2 Bft) NW 323 ° 1 min 0,000 mm 6,1 UV-I 795 W/m² 13,9 °C 28,9 °C 12,9 km/h (3 Bft)
22.06.2017 15:22 28,9 °C 28,9 °C 42 % 1012,3 hPa 0,0 mm 12,5 km/h (3 Bft) NW 309 ° 1 min 0,000 mm 6,1 UV-I 795 W/m² 14,7 °C 28,9 °C 16,1 km/h (3 Bft)
22.06.2017 15:23 28,9 °C 29,0 °C 40 % 1012,3 hPa 0,0 mm 6,8 km/h (2 Bft) NW 321 ° 1 min 0,000 mm 6,1 UV-I 791 W/m² 13,9 °C 28,9 °C 11,3 km/h (2 Bft)
22.06.2017 15:24 28,9 °C 28,9 °C 43 % 1012,2 hPa 0,0 mm 10,2 km/h (2 Bft) NW 311 ° 1 min 0,000 mm 6,1 UV-I 793 W/m² 15,0 °C 28,9 °C 17,7 km/h (3 Bft)
22.06.2017 15:25 28,9 °C 28,9 °C 40 % 1012,2 hPa 0,0 mm 11,5 km/h (2 Bft) W-SW 250 ° 1 min 0,000 mm 6,2 UV-I 800 W/m² 13,9 °C 28,9 °C 19,3 km/h (3 Bft)
22.06.2017 15:26 28,9 °C 28,9 °C 39 % 1012,2 hPa 0,0 mm 10,2 km/h (2 Bft) N-NW 328 ° 1 min 0,000 mm 6,1 UV-I 795 W/m² 13,5 °C 28,9 °C 19,3 km/h (3 Bft)
22.06.2017 15:27 28,9 °C 28,9 °C 39 % 1012,2 hPa 0,0 mm 12,1 km/h (2 Bft) W-NW 290 ° 1 min 0,000 mm 6,1 UV-I 796 W/m² 13,5 °C 28,9 °C 19,3 km/h (3 Bft)
22.06.2017 15:28 28,9 °C 28,9 °C 41 % 1012,1 hPa 0,0 mm 7,1 km/h (2 Bft) W 278 ° 1 min 0,000 mm 6,1 UV-I 796 W/m² 14,3 °C 28,9 °C 12,9 km/h (3 Bft)
22.06.2017 15:29 28,9 °C 28,9 °C 39 % 1012,2 hPa 0,0 mm 9,7 km/h (2 Bft) W 263 ° 1 min 0,000 mm 6,0 UV-I 796 W/m² 13,5 °C 28,9 °C 17,7 km/h (3 Bft)
22.06.2017 15:30 29,0 °C 29,0 °C 39 % 1012,1 hPa 0,0 mm 13,3 km/h (3 Bft) NW 317 ° 1 min 0,000 mm 6,0 UV-I 784 W/m² 13,6 °C 29,0 °C 19,3 km/h (3 Bft)
22.06.2017 15:31 29,0 °C 29,0 °C 39 % 1012,1 hPa 0,0 mm 10,2 km/h (2 Bft) W 280 ° 1 min 0,000 mm 5,9 UV-I 775 W/m² 13,6 °C 29,0 °C 14,5 km/h (3 Bft)
22.06.2017 15:32 29,1 °C 29,1 °C 43 % 1012,1 hPa 0,0 mm 12,9 km/h (3 Bft) W-NW 288 ° 1 min 0,000 mm 5,8 UV-I 772 W/m² 15,2 °C 29,1 °C 17,7 km/h (3 Bft)
22.06.2017 15:33 29,2 °C 29,2 °C 42 % 1012,2 hPa 0,0 mm 11,3 km/h (2 Bft) NW 315 ° 1 min 0,000 mm 5,7 UV-I 765 W/m² 14,9 °C 29,2 °C 19,3 km/h (3 Bft)
22.06.2017 15:34 29,2 °C 29,2 °C 42 % 1012,1 hPa 0,0 mm 5,2 km/h (1 Bft) W 280 ° 1 min 0,000 mm 5,7 UV-I 761 W/m² 14,9 °C 29,2 °C 9,7 km/h (2 Bft)
22.06.2017 15:35 29,2 °C 29,2 °C 41 % 1012,1 hPa 0,0 mm 7,7 km/h (2 Bft) W-NW 294 ° 1 min 0,000 mm 5,7 UV-I 761 W/m² 14,6 °C 29,2 °C 16,1 km/h (3 Bft)
22.06.2017 15:36 29,2 °C 29,2 °C 40 % 1012,1 hPa 0,0 mm 10,8 km/h (2 Bft) W-NW 303 ° 1 min 0,000 mm 5,7 UV-I 758 W/m² 14,2 °C 29,2 °C 20,9 km/h (4 Bft)
22.06.2017 15:37 29,2 °C 29,2 °C 41 % 1012,1 hPa 0,0 mm 10,0 km/h (2 Bft) W 260 ° 1 min 0,000 mm 5,7 UV-I 759 W/m² 14,6 °C 29,2 °C 16,1 km/h (3 Bft)
22.06.2017 15:38 29,1 °C 29,2 °C 41 % 1012,1 hPa 0,0 mm 11,9 km/h (2 Bft) W 265 ° 1 min 0,000 mm 5,7 UV-I 761 W/m² 14,5 °C 29,1 °C 17,7 km/h (3 Bft)
22.06.2017 15:39 29,1 °C 29,2 °C 44 % 1012,1 hPa 0,0 mm 14,3 km/h (3 Bft) W 276 ° 1 min 0,000 mm 5,7 UV-I 763 W/m² 15,6 °C 29,1 °C 20,9 km/h (4 Bft)
22.06.2017 15:40 29,1 °C 29,1 °C 41 % 1012,1 hPa 0,0 mm 9,5 km/h (2 Bft) NW 306 ° 1 min 0,000 mm 5,7 UV-I 765 W/m² 14,5 °C 29,1 °C 17,7 km/h (3 Bft)
22.06.2017 15:41 29,1 °C 29,1 °C 40 % 1012,1 hPa 0,0 mm 10,5 km/h (2 Bft) W 281 ° 1 min 0,000 mm 5,7 UV-I 761 W/m² 14,1 °C 29,1 °C 19,3 km/h (3 Bft)
22.06.2017 15:42 29,1 °C 29,1 °C 40 % 1012,1 hPa 0,0 mm 12,2 km/h (2 Bft) W 273 ° 1 min 0,000 mm 5,6 UV-I 758 W/m² 14,1 °C 29,1 °C 16,1 km/h (3 Bft)
22.06.2017 15:43 29,1 °C 29,1 °C 42 % 1012,1 hPa 0,0 mm 7,9 km/h (2 Bft) W-NW 285 ° 1 min 0,000 mm 5,6 UV-I 758 W/m² 14,9 °C 29,1 °C 16,1 km/h (3 Bft)
22.06.2017 15:44 29,1 °C 29,1 °C 39 % 1012,1 hPa 0,0 mm 10,9 km/h (2 Bft) NW 325 ° 1 min 0,000 mm 5,6 UV-I 758 W/m² 13,7 °C 29,1 °C 20,9 km/h (4 Bft)
22.06.2017 15:45 29,1 °C 29,1 °C 39 % 1012,0 hPa 0,0 mm 7,2 km/h (2 Bft) NW 323 ° 1 min 0,000 mm 5,6 UV-I 758 W/m² 13,7 °C 29,1 °C 14,5 km/h (3 Bft)
22.06.2017 15:46 29,1 °C 29,1 °C 40 % 1012,0 hPa 0,0 mm 9,6 km/h (2 Bft) NW 323 ° 1 min 0,000 mm 5,6 UV-I 759 W/m² 14,1 °C 29,1 °C 17,7 km/h (3 Bft)
22.06.2017 15:47 29,1 °C 29,1 °C 39 % 1012,0 hPa 0,0 mm 9,2 km/h (2 Bft) W 271 ° 1 min 0,000 mm 5,6 UV-I 754 W/m² 13,7 °C 29,1 °C 12,9 km/h (3 Bft)
22.06.2017 15:48 29,2 °C 29,2 °C 40 % 1012,0 hPa 0,0 mm 8,3 km/h (2 Bft) W-SW 242 ° 1 min 0,000 mm 5,5 UV-I 745 W/m² 14,2 °C 29,2 °C 12,9 km/h (3 Bft)
22.06.2017 15:49 29,1 °C 29,2 °C 38 % 1011,9 hPa 0,0 mm 11,0 km/h (2 Bft) W 264 ° 1 min 0,000 mm 5,5 UV-I 747 W/m² 13,3 °C 29,1 °C 14,5 km/h (3 Bft)
22.06.2017 15:50 29,1 °C 29,1 °C 36 % 1011,9 hPa 0,0 mm 7,9 km/h (2 Bft) W-NW 295 ° 1 min 0,000 mm 5,5 UV-I 749 W/m² 12,5 °C 29,1 °C 16,1 km/h (3 Bft)
22.06.2017 15:51 29,1 °C 29,1 °C 37 % 1011,9 hPa 0,0 mm 10,4 km/h (2 Bft) N-NW 337 ° 1 min 0,000 mm 5,5 UV-I 749 W/m² 12,9 °C 29,1 °C 16,1 km/h (3 Bft)
22.06.2017 15:52 29,2 °C 29,2 °C 39 % 1011,9 hPa 0,0 mm 7,8 km/h (2 Bft) W-NW 283 ° 1 min 0,000 mm 5,4 UV-I 738 W/m² 13,8 °C 29,2 °C 14,5 km/h (3 Bft)
22.06.2017 15:53 29,2 °C 29,2 °C 39 % 1011,9 hPa 0,0 mm 4,4 km/h (1 Bft) NW 304 ° 1 min 0,000 mm 5,4 UV-I 742 W/m² 13,8 °C 29,2 °C 8,0 km/h (2 Bft)
22.06.2017 15:54 29,3 °C 29,3 °C 39 % 1011,9 hPa 0,0 mm 9,7 km/h (2 Bft) NW 306 ° 1 min 0,000 mm 5,4 UV-I 737 W/m² 13,9 °C 29,3 °C 17,7 km/h (3 Bft)
22.06.2017 15:55 29,3 °C 29,3 °C 37 % 1011,8 hPa 0,0 mm 8,3 km/h (2 Bft) W 281 ° 1 min 0,000 mm 5,3 UV-I 729 W/m² 13,1 °C 29,3 °C 11,3 km/h (2 Bft)
22.06.2017 15:56 29,2 °C 29,3 °C 35 % 1011,8 hPa 0,0 mm 9,2 km/h (2 Bft) W 276 ° 1 min 0,000 mm 5,3 UV-I 722 W/m² 12,1 °C 29,2 °C 12,9 km/h (3 Bft)
22.06.2017 15:57 29,2 °C 29,2 °C 36 % 1011,8 hPa 0,0 mm 4,5 km/h (1 Bft) W-NW 292 ° 1 min 0,000 mm 5,2 UV-I 719 W/m² 12,6 °C 29,2 °C 11,3 km/h (2 Bft)
22.06.2017 15:58 29,1 °C 29,2 °C 37 % 1011,7 hPa 0,0 mm 10,5 km/h (2 Bft) W-SW 249 ° 1 min 0,000 mm 5,3 UV-I 731 W/m² 12,9 °C 29,1 °C 16,1 km/h (3 Bft)
22.06.2017 15:59 29,1 °C 29,1 °C 37 % 1011,7 hPa 0,0 mm 9,1 km/h (2 Bft) W-NW 300 ° 1 min 0,000 mm 5,3 UV-I 731 W/m² 12,9 °C 29,1 °C 11,3 km/h (2 Bft)
22.06.2017 16:00 29,1 °C 29,1 °C 37 % 1011,7 hPa 0,0 mm 10,4 km/h (2 Bft) NW 315 ° 1 min 0,000 mm 5,2 UV-I 726 W/m² 12,9 °C 29,1 °C 16,1 km/h (3 Bft)
22.06.2017 16:01 29,1 °C 29,1 °C 38 % 1011,7 hPa 0,0 mm 10,1 km/h (2 Bft) NW 324 ° 1 min 0,610 mm 5,2 UV-I 724 W/m² 13,3 °C 29,1 °C 16,1 km/h (3 Bft)
22.06.2017 16:02 29,2 °C 29,2 °C 38 % 1011,7 hPa 0,0 mm 7,0 km/h (2 Bft) W-NW 284 ° 1 min 0,000 mm 5,1 UV-I 719 W/m² 13,4 °C 29,2 °C 9,7 km/h (2 Bft)
22.06.2017 16:03 29,2 °C 29,2 °C 39 % 1011,7 hPa 0,0 mm 9,7 km/h (2 Bft) NW 313 ° 1 min 0,000 mm 5,1 UV-I 715 W/m² 13,8 °C 29,2 °C 9,7 km/h (2 Bft)
22.06.2017 16:04 29,2 °C 29,2 °C 40 % 1011,7 hPa 0,0 mm 9,9 km/h (2 Bft) W 263 ° 1 min 0,000 mm 5,1 UV-I 717 W/m² 14,2 °C 29,2 °C 16,1 km/h (3 Bft)
22.06.2017 16:05 29,2 °C 29,2 °C 38 % 1011,6 hPa 0,0 mm 9,7 km/h (2 Bft) W 267 ° 1 min 0,000 mm 5,1 UV-I 717 W/m² 13,4 °C 29,2 °C 17,7 km/h (3 Bft)
22.06.2017 16:06 29,2 °C 29,2 °C 38 % 1011,6 hPa 0,0 mm 6,4 km/h (2 Bft) W-NW 295 ° 1 min 0,000 mm 5,1 UV-I 715 W/m² 13,4 °C 29,2 °C 16,1 km/h (3 Bft)
22.06.2017 16:07 29,2 °C 29,2 °C 37 % 1011,7 hPa 0,0 mm 7,9 km/h (2 Bft) W-NW 299 ° 1 min 0,000 mm 5,1 UV-I 712 W/m² 13,0 °C 29,2 °C 11,3 km/h (2 Bft)
22.06.2017 16:08 29,1 °C 29,2 °C 38 % 1011,7 hPa 0,0 mm 5,6 km/h (1 Bft) N-NW 331 ° 1 min 0,000 mm 5,0 UV-I 712 W/m² 13,3 °C 29,1 °C 8,0 km/h (2 Bft)
22.06.2017 16:09 29,1 °C 29,1 °C 38 % 1011,7 hPa 0,0 mm 10,0 km/h (2 Bft) W-NW 282 ° 1 min 0,000 mm 5,0 UV-I 708 W/m² 13,3 °C 29,1 °C 14,5 km/h (3 Bft)
22.06.2017 16:10 29,1 °C 29,1 °C 37 % 1011,7 hPa 0,0 mm 9,8 km/h (2 Bft) NW 304 ° 1 min 0,000 mm 5,0 UV-I 707 W/m² 12,9 °C 29,1 °C 14,5 km/h (3 Bft)
22.06.2017 16:11 29,0 °C 29,1 °C 38 % 1011,7 hPa 0,0 mm 6,3 km/h (2 Bft) W-NW 301 ° 1 min 0,000 mm 5,0 UV-I 633 W/m² 13,2 °C 29,0 °C 11,3 km/h (2 Bft)
22.06.2017 16:12 29,1 °C 29,1 °C 39 % 1011,6 hPa 0,0 mm 4,7 km/h (1 Bft) W-NW 288 ° 1 min 0,000 mm 4,6 UV-I 596 W/m² 13,7 °C 29,1 °C 8,0 km/h (2 Bft)
22.06.2017 16:13 29,1 °C 29,1 °C 38 % 1011,6 hPa 0,0 mm 5,3 km/h (1 Bft) NW 310 ° 1 min 0,000 mm 3,2 UV-I 596 W/m² 13,3 °C 29,1 °C 9,7 km/h (2 Bft)
22.06.2017 16:14 29,1 °C 29,1 °C 37 % 1011,6 hPa 0,0 mm 7,5 km/h (2 Bft) W-NW 298 ° 0 min 0,000 mm 2,7 UV-I 97 W/m² 12,9 °C 29,1 °C 12,9 km/h (3 Bft)
22.06.2017 16:15 29,2 °C 29,2 °C 39 % 1011,7 hPa 0,0 mm 7,9 km/h (2 Bft) W-SW 243 ° 0 min 0,000 mm 2,6 UV-I 90 W/m² 13,8 °C 29,2 °C 12,9 km/h (3 Bft)
22.06.2017 16:16 29,2 °C 29,2 °C 36 % 1011,7 hPa 0,0 mm 7,9 km/h (2 Bft) N-NW 338 ° 0 min 0,000 mm 2,5 UV-I 77 W/m² 12,6 °C 29,2 °C 14,5 km/h (3 Bft)
22.06.2017 16:17 29,1 °C 29,2 °C 35 % 1011,8 hPa 0,0 mm 10,7 km/h (2 Bft) W-NW 294 ° 0 min 0,000 mm 2,5 UV-I 77 W/m² 12,1 °C 29,1 °C 14,5 km/h (3 Bft)
22.06.2017 16:18 29,1 °C 29,1 °C 36 % 1011,8 hPa 0,0 mm 11,4 km/h (2 Bft) W-SW 247 ° 0 min 0,000 mm 2,5 UV-I 76 W/m² 12,5 °C 29,1 °C 19,3 km/h (3 Bft)
22.06.2017 16:19 29,0 °C 29,1 °C 37 % 1011,8 hPa 0,0 mm 10,0 km/h (2 Bft) W-NW 300 ° 0 min 0,000 mm 2,4 UV-I 76 W/m² 12,8 °C 29,0 °C 14,5 km/h (3 Bft)
22.06.2017 16:20 29,0 °C 29,0 °C 36 % 1011,8 hPa 0,0 mm 8,9 km/h (2 Bft) W-SW 246 ° 0 min 0,000 mm 2,4 UV-I 76 W/m² 12,4 °C 29,0 °C 17,7 km/h (3 Bft)
22.06.2017 16:21 29,0 °C 29,0 °C 37 % 1011,8 hPa 0,0 mm 13,7 km/h (3 Bft) W 267 ° 0 min 0,000 mm 2,4 UV-I 76 W/m² 12,8 °C 29,0 °C 20,9 km/h (4 Bft)
22.06.2017 16:22 28,9 °C 29,0 °C 36 % 1011,8 hPa 0,0 mm 13,9 km/h (3 Bft) NW 313 ° 0 min 0,000 mm 2,4 UV-I 76 W/m² 12,3 °C 28,9 °C 20,9 km/h (4 Bft)
22.06.2017 16:23 28,9 °C 28,9 °C 36 % 1011,8 hPa 0,0 mm 9,2 km/h (2 Bft) W 259 ° 0 min 0,000 mm 2,4 UV-I 76 W/m² 12,3 °C 28,9 °C 17,7 km/h (3 Bft)
22.06.2017 16:24 28,9 °C 28,9 °C 36 % 1011,9 hPa 0,0 mm 8,9 km/h (2 Bft) W-SW 249 ° 0 min 0,000 mm 2,4 UV-I 76 W/m² 12,3 °C 28,9 °C 16,1 km/h (3 Bft)
22.06.2017 16:25 28,9 °C 28,9 °C 38 % 1011,8 hPa 0,0 mm 12,1 km/h (2 Bft) W-NW 298 ° 0 min 0,000 mm 2,4 UV-I 76 W/m² 13,1 °C 28,9 °C 17,7 km/h (3 Bft)
22.06.2017 16:26 28,9 °C 28,9 °C 38 % 1011,8 hPa 0,0 mm 8,4 km/h (2 Bft) W 275 ° 0 min 0,000 mm 2,4 UV-I 76 W/m² 13,1 °C 28,9 °C 16,1 km/h (3 Bft)
22.06.2017 16:27 28,9 °C 28,9 °C 39 % 1011,8 hPa 0,0 mm 5,3 km/h (1 Bft) W-NW 302 ° 0 min 0,000 mm 2,3 UV-I 76 W/m² 13,5 °C 28,9 °C 9,7 km/h (2 Bft)
22.06.2017 16:28 29,0 °C 29,0 °C 38 % 1011,8 hPa 0,0 mm 9,2 km/h (2 Bft) NW 315 ° 0 min 0,000 mm 2,3 UV-I 76 W/m² 13,2 °C 29,0 °C 16,1 km/h (3 Bft)
22.06.2017 16:29 29,1 °C 29,1 °C 37 % 1011,8 hPa 0,0 mm 9,4 km/h (2 Bft) W 277 ° 0 min 0,000 mm 2,3 UV-I 74 W/m² 12,9 °C 29,1 °C 14,5 km/h (3 Bft)
22.06.2017 16:30 29,1 °C 29,1 °C 40 % 1011,8 hPa 0,0 mm 5,4 km/h (1 Bft) NW 317 ° 0 min 0,000 mm 2,3 UV-I 79 W/m² 14,1 °C 29,1 °C 8,0 km/h (2 Bft)
22.06.2017 16:31 29,1 °C 29,1 °C 38 % 1011,9 hPa 0,0 mm 8,0 km/h (2 Bft) N-NW 343 ° 0 min 0,000 mm 2,3 UV-I 84 W/m² 13,3 °C 29,1 °C 12,9 km/h (3 Bft)
22.06.2017 16:32 29,1 °C 29,1 °C 37 % 1011,9 hPa 0,0 mm 5,5 km/h (1 Bft) W-NW 298 ° 0 min 0,000 mm 2,3 UV-I 84 W/m² 12,9 °C 29,1 °C 8,0 km/h (2 Bft)
22.06.2017 16:33 29,1 °C 29,1 °C 39 % 1011,8 hPa 0,0 mm 9,9 km/h (2 Bft) N-NW 340 ° 0 min 0,000 mm 2,3 UV-I 88 W/m² 13,7 °C 29,1 °C 14,5 km/h (3 Bft)
22.06.2017 16:34 29,1 °C 29,1 °C 40 % 1011,8 hPa 0,0 mm 5,3 km/h (1 Bft) NW 325 ° 0 min 0,000 mm 2,3 UV-I 77 W/m² 14,1 °C 29,1 °C 8,0 km/h (2 Bft)
22.06.2017 16:35 29,1 °C 29,1 °C 40 % 1011,8 hPa 0,0 mm 13,4 km/h (3 Bft) N-NW 327 ° 0 min 0,000 mm 2,3 UV-I 109 W/m² 14,1 °C 29,1 °C 20,9 km/h (4 Bft)
22.06.2017 16:36 29,0 °C 29,1 °C 39 % 1011,8 hPa 0,0 mm 15,0 km/h (3 Bft) W-NW 282 ° 0 min 0,000 mm 2,4 UV-I 149 W/m² 13,6 °C 29,0 °C 20,9 km/h (4 Bft)
22.06.2017 16:37 29,1 °C 29,1 °C 41 % 1011,9 hPa 0,0 mm 11,0 km/h (2 Bft) NW 321 ° 0 min 0,000 mm 2,3 UV-I 83 W/m² 14,5 °C 29,1 °C 19,3 km/h (3 Bft)
22.06.2017 16:38 29,1 °C 29,1 °C 39 % 1011,8 hPa 0,0 mm 10,1 km/h (2 Bft) N-NW 338 ° 0 min 0,000 mm 2,2 UV-I 77 W/m² 13,7 °C 29,1 °C 14,5 km/h (3 Bft)
22.06.2017 16:39 29,1 °C 29,1 °C 39 % 1011,8 hPa 0,0 mm 6,2 km/h (2 Bft) W-NW 300 ° 0 min 0,000 mm 2,2 UV-I 74 W/m² 13,7 °C 29,1 °C 12,9 km/h (3 Bft)
22.06.2017 16:40 29,1 °C 29,1 °C 40 % 1011,8 hPa 0,0 mm 9,9 km/h (2 Bft) W 260 ° 0 min 0,000 mm 2,2 UV-I 74 W/m² 14,1 °C 29,1 °C 17,7 km/h (3 Bft)
22.06.2017 16:41 29,0 °C 29,1 °C 38 % 1011,9 hPa 0,0 mm 10,9 km/h (2 Bft) W 281 ° 0 min 0,000 mm 2,2 UV-I 74 W/m² 13,2 °C 29,0 °C 17,7 km/h (3 Bft)
22.06.2017 16:42 29,0 °C 29,0 °C 38 % 1011,9 hPa 0,0 mm 10,2 km/h (2 Bft) W-SW 257 ° 0 min 0,000 mm 2,2 UV-I 72 W/m² 13,2 °C 29,0 °C 14,5 km/h (3 Bft)
22.06.2017 16:43 28,9 °C 29,0 °C 38 % 1011,9 hPa 0,0 mm 11,8 km/h (2 Bft) W-NW 282 ° 0 min 0,000 mm 2,2 UV-I 72 W/m² 13,1 °C 28,9 °C 17,7 km/h (3 Bft)
22.06.2017 16:44 28,9 °C 28,9 °C 38 % 1011,9 hPa 0,0 mm 7,0 km/h (2 Bft) W-NW 299 ° 0 min 0,000 mm 2,2 UV-I 74 W/m² 13,1 °C 28,9 °C 9,7 km/h (2 Bft)
22.06.2017 16:45 28,9 °C 28,9 °C 39 % 1011,9 hPa 0,0 mm 10,2 km/h (2 Bft) W-SW 248 ° 0 min 0,000 mm 2,2 UV-I 72 W/m² 13,5 °C 28,9 °C 14,5 km/h (3 Bft)
22.06.2017 16:46 28,9 °C 28,9 °C 41 % 1011,8 hPa 0,0 mm 12,1 km/h (2 Bft) W 259 ° 0 min 0,000 mm 2,2 UV-I 72 W/m² 14,3 °C 28,9 °C 17,7 km/h (3 Bft)
22.06.2017 16:47 28,8 °C 28,9 °C 39 % 1011,9 hPa 0,0 mm 14,0 km/h (3 Bft) W-NW 294 ° 0 min 0,000 mm 2,2 UV-I 72 W/m² 13,4 °C 28,8 °C 17,7 km/h (3 Bft)
22.06.2017 16:48 28,8 °C 28,8 °C 38 % 1011,9 hPa 0,0 mm 13,1 km/h (3 Bft) W-NW 296 ° 0 min 0,000 mm 2,2 UV-I 72 W/m² 13,0 °C 28,8 °C 20,9 km/h (4 Bft)
22.06.2017 16:49 28,8 °C 28,8 °C 38 % 1011,9 hPa 0,0 mm 10,4 km/h (2 Bft) W 267 ° 0 min 0,000 mm 2,2 UV-I 74 W/m² 13,0 °C 28,8 °C 16,1 km/h (3 Bft)
22.06.2017 16:50 28,9 °C 28,9 °C 42 % 1011,9 hPa 0,0 mm 8,0 km/h (2 Bft) W-NW 294 ° 0 min 0,000 mm 2,2 UV-I 74 W/m² 14,7 °C 28,9 °C 12,9 km/h (3 Bft)
22.06.2017 16:51 28,9 °C 28,9 °C 38 % 1011,9 hPa 0,0 mm 7,0 km/h (2 Bft) W-NW 282 ° 0 min 0,000 mm 2,1 UV-I 74 W/m² 13,1 °C 28,9 °C 9,7 km/h (2 Bft)
22.06.2017 16:52 28,9 °C 28,9 °C 41 % 1012,0 hPa 0,0 mm 5,0 km/h (1 Bft) NW 309 ° 0 min 0,000 mm 2,1 UV-I 76 W/m² 14,3 °C 28,9 °C 11,3 km/h (2 Bft)
22.06.2017 16:53 29,1 °C 29,1 °C 39 % 1012,0 hPa 0,0 mm 6,5 km/h (2 Bft) W-NW 302 ° 0 min 0,000 mm 2,1 UV-I 77 W/m² 13,7 °C 29,1 °C 11,3 km/h (2 Bft)
22.06.2017 16:54 29,1 °C 29,1 °C 41 % 1012,0 hPa 0,0 mm 5,5 km/h (1 Bft) W-NW 296 ° 0 min 0,000 mm 2,2 UV-I 77 W/m² 14,5 °C 29,1 °C 11,3 km/h (2 Bft)
22.06.2017 16:55 29,1 °C 29,1 °C 42 % 1012,0 hPa 0,0 mm 8,7 km/h (2 Bft) W-SW 248 ° 0 min 0,000 mm 2,1 UV-I 79 W/m² 14,9 °C 29,1 °C 17,7 km/h (3 Bft)
22.06.2017 16:56 29,1 °C 29,1 °C 39 % 1012,0 hPa 0,0 mm 12,9 km/h (3 Bft) W-NW 283 ° 0 min 0,000 mm 2,1 UV-I 79 W/m² 13,7 °C 29,1 °C 17,7 km/h (3 Bft)
22.06.2017 16:57 29,0 °C 29,1 °C 38 % 1012,0 hPa 0,0 mm 8,3 km/h (2 Bft) W-NW 294 ° 0 min 0,000 mm 2,1 UV-I 81 W/m² 13,2 °C 29,0 °C 12,9 km/h (3 Bft)
22.06.2017 16:58 28,9 °C 29,0 °C 38 % 1012,0 hPa 0,0 mm 12,3 km/h (3 Bft) W-NW 282 ° 0 min 0,000 mm 2,1 UV-I 83 W/m² 13,1 °C 28,9 °C 19,3 km/h (3 Bft)
22.06.2017 16:59 28,8 °C 28,9 °C 38 % 1012,0 hPa 0,0 mm 9,7 km/h (2 Bft) NW 319 ° 0 min 0,000 mm 2,1 UV-I 84 W/m² 13,0 °C 28,8 °C 12,9 km/h (3 Bft)
22.06.2017 17:00 28,8 °C 28,9 °C 41 % 1012,1 hPa 0,0 mm 11,3 km/h (2 Bft) N-NW 330 ° 0 min 0,228 mm 2,1 UV-I 86 W/m² 14,2 °C 28,8 °C 16,1 km/h (3 Bft)
22.06.2017 17:01 28,9 °C 28,9 °C 42 % 1012,1 hPa 0,0 mm 7,6 km/h (2 Bft) NW 323 ° 0 min 0,000 mm 2,1 UV-I 88 W/m² 14,7 °C 28,9 °C 12,9 km/h (3 Bft)
22.06.2017 17:02 29,0 °C 29,0 °C 44 % 1012,1 hPa 0,0 mm 10,2 km/h (2 Bft) W 279 ° 0 min 0,000 mm 2,1 UV-I 90 W/m² 15,5 °C 29,0 °C 16,1 km/h (3 Bft)
22.06.2017 17:03 29,1 °C 29,1 °C 42 % 1012,1 hPa 0,0 mm 4,9 km/h (1 Bft) W-NW 294 ° 0 min 0,000 mm 2,1 UV-I 91 W/m² 14,9 °C 29,1 °C 6,4 km/h (2 Bft)
22.06.2017 17:04 29,1 °C 29,2 °C 43 % 1012,1 hPa 0,0 mm 13,1 km/h (3 Bft) W 262 ° 0 min 0,000 mm 2,1 UV-I 98 W/m² 15,2 °C 29,1 °C 22,5 km/h (4 Bft)
22.06.2017 17:05 29,1 °C 29,2 °C 41 % 1012,1 hPa 0,0 mm 12,4 km/h (3 Bft) W-NW 286 ° 0 min 0,000 mm 2,1 UV-I 98 W/m² 14,5 °C 29,1 °C 16,1 km/h (3 Bft)
22.06.2017 17:06 29,1 °C 29,2 °C 38 % 1012,0 hPa 0,0 mm 10,9 km/h (2 Bft) W-SW 251 ° 0 min 0,000 mm 2,2 UV-I 98 W/m² 13,3 °C 29,1 °C 25,7 km/h (4 Bft)
22.06.2017 17:07 29,1 °C 29,1 °C 38 % 1012,0 hPa 0,0 mm 13,4 km/h (3 Bft) W-NW 302 ° 0 min 0,000 mm 2,1 UV-I 100 W/m² 13,3 °C 29,1 °C 19,3 km/h (3 Bft)
22.06.2017 17:08 29,0 °C 29,1 °C 41 % 1012,0 hPa 0,0 mm 9,5 km/h (2 Bft) W-NW 287 ° 0 min 0,000 mm 2,1 UV-I 100 W/m² 14,4 °C 29,0 °C 14,5 km/h (3 Bft)
22.06.2017 17:09 29,0 °C 29,1 °C 40 % 1012,0 hPa 0,0 mm 12,0 km/h (2 Bft) S-SW 210 ° 0 min 0,000 mm 2,1 UV-I 100 W/m² 14,0 °C 29,0 °C 17,7 km/h (3 Bft)
22.06.2017 17:10 29,0 °C 29,1 °C 41 % 1012,0 hPa 0,0 mm 10,6 km/h (2 Bft) W 275 ° 0 min 0,000 mm 2,1 UV-I 100 W/m² 14,4 °C 29,0 °C 14,5 km/h (3 Bft)
22.06.2017 17:11 29,1 °C 29,1 °C 41 % 1012,0 hPa 0,0 mm 9,4 km/h (2 Bft) SW 229 ° 0 min 0,000 mm 2,0 UV-I 97 W/m² 14,5 °C 29,1 °C 16,1 km/h (3 Bft)
22.06.2017 17:12 29,1 °C 29,1 °C 41 % 1012,0 hPa 0,0 mm 7,4 km/h (2 Bft) W 279 ° 0 min 0,000 mm 2,0 UV-I 95 W/m² 14,5 °C 29,1 °C 14,5 km/h (3 Bft)
22.06.2017 17:13 29,1 °C 29,1 °C 40 % 1012,0 hPa 0,0 mm 7,0 km/h (2 Bft) SW 234 ° 0 min 0,000 mm 2,0 UV-I 95 W/m² 14,1 °C 29,1 °C 11,3 km/h (2 Bft)
22.06.2017 17:14 29,0 °C 29,1 °C 42 % 1011,9 hPa 0,0 mm 7,6 km/h (2 Bft) W-SW 251 ° 0 min 0,000 mm 2,0 UV-I 95 W/m² 14,8 °C 29,0 °C 11,3 km/h (2 Bft)
22.06.2017 17:15 29,0 °C 29,0 °C 41 % 1011,9 hPa 0,0 mm 5,0 km/h (1 Bft) W 271 ° 0 min 0,000 mm 2,0 UV-I 97 W/m² 14,4 °C 29,0 °C 8,0 km/h (2 Bft)
22.06.2017 17:16 29,1 °C 29,1 °C 42 % 1011,9 hPa 0,0 mm 7,2 km/h (2 Bft) N-NW 345 ° 0 min 0,000 mm 2,0 UV-I 100 W/m² 14,9 °C 29,1 °C 9,7 km/h (2 Bft)
22.06.2017 17:17 29,1 °C 29,1 °C 42 % 1011,9 hPa 0,0 mm 7,1 km/h (2 Bft) NW 314 ° 0 min 0,000 mm 2,0 UV-I 102 W/m² 14,9 °C 29,1 °C 12,9 km/h (3 Bft)
22.06.2017 17:18 29,1 °C 29,1 °C 43 % 1011,9 hPa 0,0 mm 10,7 km/h (2 Bft) NW 325 ° 0 min 0,000 mm 2,0 UV-I 102 W/m² 15,2 °C 29,1 °C 14,5 km/h (3 Bft)
22.06.2017 17:19 29,1 °C 29,1 °C 42 % 1011,9 hPa 0,0 mm 6,2 km/h (2 Bft) W 280 ° 0 min 0,000 mm 2,0 UV-I 105 W/m² 14,9 °C 29,1 °C 8,0 km/h (2 Bft)
22.06.2017 17:20 29,1 °C 29,1 °C 42 % 1012,0 hPa 0,0 mm 4,1 km/h (1 Bft) W-NW 292 ° 0 min 0,000 mm 2,0 UV-I 102 W/m² 14,9 °C 29,1 °C 6,4 km/h (2 Bft)
22.06.2017 17:21 29,1 °C 29,1 °C 41 % 1012,0 hPa 0,0 mm 10,9 km/h (2 Bft) W 275 ° 0 min 0,000 mm 2,0 UV-I 102 W/m² 14,5 °C 29,1 °C 14,5 km/h (3 Bft)
22.06.2017 17:22 29,1 °C 29,1 °C 42 % 1011,9 hPa 0,0 mm 7,2 km/h (2 Bft) N-NW 335 ° 0 min 0,000 mm 2,0 UV-I 107 W/m² 14,9 °C 29,1 °C 12,9 km/h (3 Bft)
22.06.2017 17:23 29,2 °C 29,2 °C 40 % 1011,8 hPa 0,0 mm 6,8 km/h (2 Bft) W-NW 286 ° 0 min 0,000 mm 2,0 UV-I 104 W/m² 14,2 °C 29,2 °C 11,3 km/h (2 Bft)
22.06.2017 17:24 29,2 °C 29,2 °C 40 % 1011,8 hPa 0,0 mm 8,2 km/h (2 Bft) W-SW 257 ° 0 min 0,000 mm 2,0 UV-I 102 W/m² 14,2 °C 29,2 °C 14,5 km/h (3 Bft)
22.06.2017 17:25 29,2 °C 29,2 °C 44 % 1011,9 hPa 0,0 mm 7,2 km/h (2 Bft) W 280 ° 0 min 0,000 mm 2,0 UV-I 104 W/m² 15,7 °C 29,2 °C 14,5 km/h (3 Bft)
22.06.2017 17:26 29,2 °C 29,2 °C 39 % 1011,8 hPa 0,0 mm 11,8 km/h (2 Bft) W 266 ° 0 min 0,000 mm 2,0 UV-I 105 W/m² 13,8 °C 29,2 °C 14,5 km/h (3 Bft)
22.06.2017 17:27 29,2 °C 29,2 °C 39 % 1011,9 hPa 0,0 mm 6,2 km/h (2 Bft) W 276 ° 0 min 0,000 mm 2,0 UV-I 105 W/m² 13,8 °C 29,2 °C 11,3 km/h (2 Bft)
22.06.2017 17:28 29,2 °C 29,2 °C 39 % 1011,9 hPa 0,0 mm 12,0 km/h (2 Bft) W-NW 290 ° 0 min 0,000 mm 1,9 UV-I 109 W/m² 13,8 °C 29,2 °C 17,7 km/h (3 Bft)
22.06.2017 17:29 29,2 °C 29,2 °C 40 % 1011,9 hPa 0,0 mm 13,2 km/h (3 Bft) W-SW 256 ° 0 min 0,000 mm 1,9 UV-I 107 W/m² 14,2 °C 29,2 °C 17,7 km/h (3 Bft)
22.06.2017 17:30 29,1 °C 29,2 °C 40 % 1011,9 hPa 0,0 mm 12,5 km/h (3 Bft) W-NW 294 ° 0 min 0,000 mm 1,8 UV-I 104 W/m² 14,1 °C 29,1 °C 19,3 km/h (3 Bft)
22.06.2017 17:31 29,0 °C 29,1 °C 40 % 1012,0 hPa 0,0 mm 8,0 km/h (2 Bft) W-NW 292 ° 0 min 0,000 mm 1,8 UV-I 113 W/m² 14,0 °C 29,0 °C 12,9 km/h (3 Bft)
22.06.2017 17:32 28,9 °C 29,0 °C 40 % 1011,9 hPa 0,0 mm 12,8 km/h (3 Bft) W-NW 282 ° 0 min 0,000 mm 1,9 UV-I 109 W/m² 13,9 °C 28,9 °C 16,1 km/h (3 Bft)
22.06.2017 17:33 28,8 °C 28,9 °C 40 % 1011,8 hPa 0,0 mm 7,0 km/h (2 Bft) W 277 ° 0 min 0,000 mm 1,8 UV-I 113 W/m² 13,8 °C 28,8 °C 12,9 km/h (3 Bft)
22.06.2017 17:34 28,8 °C 28,8 °C 41 % 1011,9 hPa 0,0 mm 6,5 km/h (2 Bft) W 269 ° 0 min 0,000 mm 1,8 UV-I 113 W/m² 14,2 °C 28,8 °C 11,3 km/h (2 Bft)
22.06.2017 17:35 28,7 °C 28,8 °C 43 % 1011,8 hPa 0,0 mm 5,6 km/h (1 Bft) W 266 ° 0 min 0,000 mm 1,7 UV-I 118 W/m² 14,9 °C 28,7 °C 9,7 km/h (2 Bft)
22.06.2017 17:36 28,7 °C 28,7 °C 41 % 1011,8 hPa 0,0 mm 8,8 km/h (2 Bft) N-NW 338 ° 0 min 0,000 mm 1,7 UV-I 134 W/m² 14,1 °C 28,7 °C 14,5 km/h (3 Bft)
22.06.2017 17:37 28,7 °C 28,7 °C 42 % 1011,8 hPa 0,0 mm 6,1 km/h (2 Bft) SW 222 ° 0 min 0,000 mm 1,7 UV-I 125 W/m² 14,5 °C 28,7 °C 12,9 km/h (3 Bft)
22.06.2017 17:38 28,8 °C 28,8 °C 43 % 1011,8 hPa 0,0 mm 4,9 km/h (1 Bft) W-SW 244 ° 0 min 0,000 mm 1,7 UV-I 127 W/m² 15,0 °C 28,8 °C 8,0 km/h (2 Bft)
22.06.2017 17:39 28,8 °C 28,8 °C 43 % 1011,8 hPa 0,0 mm 8,1 km/h (2 Bft) W 275 ° 0 min 0,000 mm 1,7 UV-I 127 W/m² 15,0 °C 28,8 °C 11,3 km/h (2 Bft)
22.06.2017 17:40 28,8 °C 28,8 °C 42 % 1011,8 hPa 0,0 mm 8,0 km/h (2 Bft) W 275 ° 0 min 0,000 mm 1,7 UV-I 127 W/m² 14,6 °C 28,8 °C 11,3 km/h (2 Bft)
22.06.2017 17:41 28,8 °C 28,8 °C 42 % 1011,8 hPa 0,0 mm 4,8 km/h (1 Bft) NW 306 ° 0 min 0,000 mm 1,7 UV-I 127 W/m² 14,6 °C 28,8 °C 9,7 km/h (2 Bft)
22.06.2017 17:42 28,8 °C 28,8 °C 44 % 1011,7 hPa 0,0 mm 6,1 km/h (2 Bft) NW 320 ° 0 min 0,000 mm 1,6 UV-I 125 W/m² 15,3 °C 28,8 °C 8,0 km/h (2 Bft)
22.06.2017 17:43 28,8 °C 28,8 °C 43 % 1011,7 hPa 0,0 mm 7,2 km/h (2 Bft) NW 315 ° 0 min 0,000 mm 1,6 UV-I 123 W/m² 15,0 °C 28,8 °C 12,9 km/h (3 Bft)
22.06.2017 17:44 28,8 °C 28,8 °C 42 % 1011,7 hPa 0,0 mm 7,8 km/h (2 Bft) W-NW 302 ° 0 min 0,000 mm 1,6 UV-I 123 W/m² 14,6 °C 28,8 °C 12,9 km/h (3 Bft)
22.06.2017 17:45 28,7 °C 28,8 °C 44 % 1011,7 hPa 0,0 mm 4,4 km/h (1 Bft) NW 305 ° 0 min 0,000 mm 1,6 UV-I 128 W/m² 15,2 °C 28,7 °C 8,0 km/h (2 Bft)
22.06.2017 17:46 28,6 °C 28,7 °C 45 % 1011,7 hPa 0,0 mm 9,8 km/h (2 Bft) W 273 ° 0 min 0,000 mm 1,6 UV-I 132 W/m² 15,5 °C 28,6 °C 16,1 km/h (3 Bft)
22.06.2017 17:47 28,6 °C 28,6 °C 40 % 1011,7 hPa 0,0 mm 10,4 km/h (2 Bft) W-NW 300 ° 0 min 0,000 mm 1,6 UV-I 139 W/m² 13,7 °C 28,6 °C 16,1 km/h (3 Bft)
22.06.2017 17:48 28,5 °C 28,6 °C 42 % 1011,6 hPa 0,0 mm 8,7 km/h (2 Bft) NW 315 ° 0 min 0,000 mm 1,7 UV-I 141 W/m² 14,3 °C 28,5 °C 14,5 km/h (3 Bft)
22.06.2017 17:49 28,5 °C 28,5 °C 43 % 1011,6 hPa 0,0 mm 5,8 km/h (2 Bft) W 264 ° 0 min 0,000 mm 1,6 UV-I 141 W/m² 14,7 °C 28,5 °C 6,4 km/h (2 Bft)
22.06.2017 17:50 28,4 °C 28,5 °C 44 % 1011,6 hPa 0,0 mm 5,4 km/h (1 Bft) NW 309 ° 0 min 0,000 mm 1,6 UV-I 139 W/m² 14,9 °C 28,4 °C 8,0 km/h (2 Bft)
22.06.2017 17:51 28,4 °C 28,4 °C 43 % 1011,6 hPa 0,0 mm 5,5 km/h (1 Bft) W 279 ° 0 min 0,000 mm 1,6 UV-I 134 W/m² 14,6 °C 28,4 °C 11,3 km/h (2 Bft)
22.06.2017 17:52 28,4 °C 28,4 °C 44 % 1011,6 hPa 0,0 mm 8,7 km/h (2 Bft) W-NW 295 ° 0 min 0,000 mm 1,5 UV-I 134 W/m² 14,9 °C 28,4 °C 12,9 km/h (3 Bft)
22.06.2017 17:53 28,4 °C 28,4 °C 42 % 1011,5 hPa 0,0 mm 6,8 km/h (2 Bft) NW 310 ° 0 min 0,000 mm 1,5 UV-I 134 W/m² 14,2 °C 28,4 °C 12,9 km/h (3 Bft)
22.06.2017 17:54 28,3 °C 28,4 °C 44 % 1011,4 hPa 0,0 mm 5,3 km/h (1 Bft) W 269 ° 0 min 0,000 mm 1,5 UV-I 134 W/m² 14,9 °C 28,3 °C 11,3 km/h (2 Bft)
22.06.2017 17:55 28,3 °C 28,3 °C 44 % 1011,4 hPa 0,0 mm 7,0 km/h (2 Bft) W 259 ° 0 min 0,000 mm 1,5 UV-I 135 W/m² 14,9 °C 28,3 °C 12,9 km/h (3 Bft)
22.06.2017 17:56 28,2 °C 28,3 °C 46 % 1011,4 hPa 0,0 mm 5,3 km/h (1 Bft) W-SW 254 ° 0 min 0,000 mm 1,5 UV-I 135 W/m² 15,5 °C 28,2 °C 12,9 km/h (3 Bft)
22.06.2017 17:57 28,0 °C 28,2 °C 43 % 1011,5 hPa 0,0 mm 8,9 km/h (2 Bft) W-SW 250 ° 0 min 0,000 mm 1,5 UV-I 137 W/m² 14,2 °C 28,0 °C 14,5 km/h (3 Bft)
22.06.2017 17:58 27,9 °C 28,0 °C 45 % 1011,5 hPa 0,0 mm 8,7 km/h (2 Bft) W 272 ° 0 min 0,000 mm 1,4 UV-I 139 W/m² 14,8 °C 27,9 °C 12,9 km/h (3 Bft)
22.06.2017 17:59 27,8 °C 27,9 °C 44 % 1011,4 hPa 0,0 mm 12,9 km/h (3 Bft) W 275 ° 0 min 0,000 mm 1,4 UV-I 142 W/m² 14,4 °C 27,8 °C 16,1 km/h (3 Bft)
22.06.2017 18:00 27,8 °C 27,8 °C 44 % 1011,4 hPa 0,0 mm 8,5 km/h (2 Bft) W-NW 297 ° 0 min 0,000 mm 1,5 UV-I 146 W/m² 14,4 °C 27,8 °C 12,9 km/h (3 Bft)
22.06.2017 18:01 27,8 °C 27,8 °C 42 % 1011,4 hPa 0,0 mm 6,9 km/h (2 Bft) W-SW 254 ° 0 min 0,178 mm 1,5 UV-I 148 W/m² 13,7 °C 27,8 °C 12,9 km/h (3 Bft)
22.06.2017 18:02 27,8 °C 27,8 °C 46 % 1011,4 hPa 0,0 mm 10,3 km/h (2 Bft) W-SW 240 ° 0 min 0,000 mm 1,5 UV-I 151 W/m² 15,1 °C 27,8 °C 14,5 km/h (3 Bft)
22.06.2017 18:03 27,8 °C 27,8 °C 44 % 1011,4 hPa 0,0 mm 9,3 km/h (2 Bft) W 262 ° 0 min 0,000 mm 1,5 UV-I 158 W/m² 14,4 °C 27,8 °C 12,9 km/h (3 Bft)
22.06.2017 18:04 27,8 °C 27,8 °C 45 % 1011,4 hPa 0,0 mm 10,1 km/h (2 Bft) W 264 ° 0 min 0,000 mm 1,5 UV-I 160 W/m² 14,8 °C 27,8 °C 14,5 km/h (3 Bft)
22.06.2017 18:05 27,8 °C 27,8 °C 45 % 1011,3 hPa 0,0 mm 6,0 km/h (2 Bft) W-SW 250 ° 0 min 0,000 mm 1,5 UV-I 163 W/m² 14,8 °C 27,8 °C 11,3 km/h (2 Bft)
22.06.2017 18:06 27,8 °C 27,8 °C 43 % 1011,3 hPa 0,0 mm 11,9 km/h (2 Bft) W-NW 300 ° 0 min 0,000 mm 1,5 UV-I 167 W/m² 14,1 °C 27,8 °C 19,3 km/h (3 Bft)
22.06.2017 18:07 27,8 °C 27,8 °C 43 % 1011,3 hPa 0,0 mm 7,7 km/h (2 Bft) W-NW 288 ° 0 min 0,000 mm 1,5 UV-I 169 W/m² 14,1 °C 27,8 °C 11,3 km/h (2 Bft)
22.06.2017 18:08 27,8 °C 27,8 °C 43 % 1011,2 hPa 0,0 mm 5,2 km/h (1 Bft) W 279 ° 0 min 0,000 mm 1,5 UV-I 167 W/m² 14,1 °C 27,8 °C 6,4 km/h (2 Bft)
22.06.2017 18:09 27,8 °C 27,9 °C 45 % 1011,3 hPa 0,0 mm 7,1 km/h (2 Bft) W 279 ° 0 min 0,000 mm 1,5 UV-I 165 W/m² 14,8 °C 27,8 °C 11,3 km/h (2 Bft)
22.06.2017 18:10 27,8 °C 27,8 °C 45 % 1011,3 hPa 0,0 mm 5,5 km/h (1 Bft) W-NW 289 ° 0 min 0,000 mm 1,4 UV-I 163 W/m² 14,8 °C 27,8 °C 9,7 km/h (2 Bft)
22.06.2017 18:11 27,8 °C 27,8 °C 45 % 1011,2 hPa 0,0 mm 6,0 km/h (2 Bft) W-NW 301 ° 0 min 0,000 mm 1,4 UV-I 163 W/m² 14,8 °C 27,8 °C 12,9 km/h (3 Bft)
22.06.2017 18:12 27,8 °C 27,8 °C 45 % 1011,3 hPa 0,0 mm 3,3 km/h (1 Bft) W 276 ° 0 min 0,000 mm 1,4 UV-I 163 W/m² 14,8 °C 27,8 °C 4,8 km/h (1 Bft)
22.06.2017 18:13 27,8 °C 27,8 °C 47 % 1011,2 hPa 0,0 mm 4,0 km/h (1 Bft) W 267 ° 0 min 0,000 mm 1,4 UV-I 162 W/m² 15,4 °C 27,8 °C 6,4 km/h (2 Bft)
22.06.2017 18:14 27,8 °C 27,8 °C 45 % 1011,2 hPa 0,0 mm 2,9 km/h (1 Bft) W 281 ° 0 min 0,000 mm 1,4 UV-I 162 W/m² 14,8 °C 27,8 °C 4,8 km/h (1 Bft)
22.06.2017 18:15 27,7 °C 27,8 °C 47 % 1011,2 hPa 0,0 mm 1,0 km/h (0 Bft) W-SW 256 ° 0 min 0,000 mm 1,4 UV-I 162 W/m² 15,3 °C 27,7 °C 4,8 km/h (1 Bft)
22.06.2017 18:16 27,7 °C 27,7 °C 45 % 1011,1 hPa 0,0 mm 6,4 km/h (2 Bft) W 276 ° 0 min 0,000 mm 1,3 UV-I 162 W/m² 14,7 °C 27,7 °C 9,7 km/h (2 Bft)
22.06.2017 18:17 27,6 °C 27,7 °C 48 % 1011,1 hPa 0,0 mm 3,8 km/h (1 Bft) W 270 ° 0 min 0,000 mm 1,3 UV-I 162 W/m² 15,6 °C 27,6 °C 4,8 km/h (1 Bft)
22.06.2017 18:18 27,6 °C 27,6 °C 49 % 1011,1 hPa 0,0 mm 3,9 km/h (1 Bft) W 277 ° 0 min 0,000 mm 1,3 UV-I 162 W/m² 15,9 °C 27,6 °C 6,4 km/h (2 Bft)
22.06.2017 18:19 27,5 °C 27,6 °C 46 % 1011,0 hPa 0,0 mm 9,6 km/h (2 Bft) W 263 ° 0 min 0,000 mm 1,3 UV-I 162 W/m² 14,8 °C 27,5 °C 14,5 km/h (3 Bft)
22.06.2017 18:20 27,5 °C 27,5 °C 46 % 1011,0 hPa 0,0 mm 8,2 km/h (2 Bft) W-SW 242 ° 0 min 0,000 mm 1,3 UV-I 160 W/m² 14,8 °C 27,5 °C 11,3 km/h (2 Bft)
22.06.2017 18:21 27,4 °C 27,5 °C 49 % 1011,0 hPa 0,0 mm 7,8 km/h (2 Bft) W-NW 295 ° 0 min 0,000 mm 1,3 UV-I 160 W/m² 15,7 °C 27,4 °C 11,3 km/h (2 Bft)
22.06.2017 18:22 27,4 °C 27,4 °C 45 % 1011,0 hPa 0,0 mm 8,2 km/h (2 Bft) W 275 ° 0 min 0,000 mm 1,3 UV-I 158 W/m² 14,4 °C 27,4 °C 11,3 km/h (2 Bft)
22.06.2017 18:23 27,4 °C 27,4 °C 45 % 1011,0 hPa 0,0 mm 7,8 km/h (2 Bft) W 272 ° 0 min 0,000 mm 1,3 UV-I 158 W/m² 14,4 °C 27,4 °C 12,9 km/h (3 Bft)
22.06.2017 18:24 27,3 °C 27,4 °C 44 % 1011,0 hPa 0,0 mm 11,0 km/h (2 Bft) W-SW 252 ° 0 min 0,000 mm 1,3 UV-I 158 W/m² 14,0 °C 27,3 °C 14,5 km/h (3 Bft)
22.06.2017 18:25 27,3 °C 27,4 °C 45 % 1011,0 hPa 0,0 mm 5,8 km/h (2 Bft) W 274 ° 0 min 0,000 mm 1,2 UV-I 160 W/m² 14,3 °C 27,3 °C 9,7 km/h (2 Bft)
22.06.2017 18:26 27,3 °C 27,3 °C 46 % 1011,0 hPa 0,0 mm 3,4 km/h (1 Bft) W 261 ° 0 min 0,000 mm 1,2 UV-I 163 W/m² 14,6 °C 27,3 °C 4,8 km/h (1 Bft)
22.06.2017 18:27 27,3 °C 27,3 °C 45 % 1010,9 hPa 0,0 mm 3,8 km/h (1 Bft) W-NW 292 ° 0 min 0,000 mm 1,2 UV-I 163 W/m² 14,3 °C 27,3 °C 4,8 km/h (1 Bft)
22.06.2017 18:28 27,3 °C 27,3 °C 45 % 1010,9 hPa 0,0 mm 3,2 km/h (1 Bft) W-NW 288 ° 0 min 0,000 mm 1,2 UV-I 167 W/m² 14,3 °C 27,3 °C 6,4 km/h (2 Bft)
22.06.2017 18:29 27,3 °C 27,3 °C 47 % 1010,9 hPa 0,0 mm 8,9 km/h (2 Bft) W-SW 257 ° 0 min 0,000 mm 1,2 UV-I 169 W/m² 15,0 °C 27,3 °C 14,5 km/h (3 Bft)
22.06.2017 18:30 27,2 °C 27,3 °C 46 % 1010,9 hPa 0,0 mm 5,2 km/h (1 Bft) W 281 ° 0 min 0,000 mm 1,2 UV-I 169 W/m² 14,6 °C 27,2 °C 11,3 km/h (2 Bft)
22.06.2017 18:31 27,2 °C 27,2 °C 45 % 1010,9 hPa 0,0 mm 5,9 km/h (2 Bft) W 277 ° 0 min 0,000 mm 1,2 UV-I 172 W/m² 14,2 °C 27,2 °C 9,7 km/h (2 Bft)
22.06.2017 18:32 27,3 °C 27,3 °C 47 % 1010,9 hPa 0,0 mm 6,6 km/h (2 Bft) W 277 ° 0 min 0,000 mm 1,2 UV-I 178 W/m² 15,0 °C 27,3 °C 9,7 km/h (2 Bft)
22.06.2017 18:33 27,3 °C 27,3 °C 44 % 1010,9 hPa 0,0 mm 4,7 km/h (1 Bft) W 277 ° 0 min 0,000 mm 1,2 UV-I 178 W/m² 14,0 °C 27,3 °C 6,4 km/h (2 Bft)
22.06.2017 18:34 27,3 °C 27,3 °C 46 % 1010,9 hPa 0,0 mm 4,2 km/h (1 Bft) W 259 ° 0 min 0,000 mm 1,2 UV-I 178 W/m² 14,6 °C 27,3 °C 6,4 km/h (2 Bft)
22.06.2017 18:35 27,3 °C 27,3 °C 47 % 1010,8 hPa 0,0 mm 5,9 km/h (2 Bft) W-NW 284 ° 0 min 0,000 mm 1,2 UV-I 179 W/m² 15,0 °C 27,3 °C 9,7 km/h (2 Bft)
22.06.2017 18:36 27,3 °C 27,3 °C 49 % 1010,8 hPa 0,0 mm 3,3 km/h (1 Bft) W-NW 286 ° 0 min 0,000 mm 1,2 UV-I 176 W/m² 15,6 °C 27,3 °C 4,8 km/h (1 Bft)
22.06.2017 18:37 27,2 °C 27,3 °C 47 % 1010,8 hPa 0,0 mm 5,0 km/h (1 Bft) W-NW 291 ° 0 min 0,000 mm 1,2 UV-I 176 W/m² 14,9 °C 27,2 °C 9,7 km/h (2 Bft)
22.06.2017 18:38 27,2 °C 27,2 °C 49 % 1010,8 hPa 0,0 mm 5,4 km/h (1 Bft) W-SW 255 ° 0 min 0,000 mm 1,2 UV-I 174 W/m² 15,5 °C 27,2 °C 9,7 km/h (2 Bft)
22.06.2017 18:39 27,1 °C 27,2 °C 49 % 1010,8 hPa 0,0 mm 2,5 km/h (1 Bft) W 263 ° 0 min 0,000 mm 1,2 UV-I 176 W/m² 15,4 °C 27,1 °C 4,8 km/h (1 Bft)
22.06.2017 18:40 27,1 °C 27,2 °C 49 % 1010,8 hPa 0,0 mm 3,2 km/h (1 Bft) W-SW 257 ° 0 min 0,000 mm 1,2 UV-I 174 W/m² 15,4 °C 27,1 °C 6,4 km/h (2 Bft)
22.06.2017 18:41 27,0 °C 27,1 °C 49 % 1010,8 hPa 0,0 mm 4,2 km/h (1 Bft) W 279 ° 0 min 0,000 mm 1,1 UV-I 171 W/m² 15,4 °C 27,0 °C 6,4 km/h (2 Bft)
22.06.2017 18:42 26,9 °C 27,0 °C 51 % 1010,8 hPa 0,0 mm 3,2 km/h (1 Bft) W-NW 301 ° 0 min 0,000 mm 1,1 UV-I 167 W/m² 15,9 °C 26,9 °C 9,7 km/h (2 Bft)
22.06.2017 18:43 26,8 °C 26,9 °C 51 % 1010,8 hPa 0,0 mm 4,8 km/h (1 Bft) W-SW 248 ° 0 min 0,000 mm 1,1 UV-I 160 W/m² 15,8 °C 26,8 °C 6,4 km/h (2 Bft)
22.06.2017 18:44 26,8 °C 26,8 °C 50 % 1010,7 hPa 0,0 mm 4,8 km/h (1 Bft) W-NW 286 ° 0 min 0,000 mm 1,1 UV-I 158 W/m² 15,5 °C 26,8 °C 8,0 km/h (2 Bft)
22.06.2017 18:45 26,7 °C 26,8 °C 51 % 1010,7 hPa 0,0 mm 1,7 km/h (1 Bft) W-NW 286 ° 0 min 0,000 mm 1,1 UV-I 155 W/m² 15,7 °C 26,7 °C 3,2 km/h (1 Bft)
22.06.2017 18:46 26,7 °C 26,7 °C 51 % 1010,7 hPa 0,0 mm 3,0 km/h (1 Bft) W 275 ° 0 min 0,000 mm 1,0 UV-I 153 W/m² 15,7 °C 26,7 °C 6,4 km/h (2 Bft)
22.06.2017 18:47 26,7 °C 26,7 °C 49 % 1010,7 hPa 0,0 mm 1,7 km/h (1 Bft) W 275 ° 0 min 0,000 mm 1,0 UV-I 151 W/m² 15,1 °C 26,7 °C 4,8 km/h (1 Bft)
22.06.2017 18:48 26,7 °C 26,7 °C 49 % 1010,8 hPa 0,0 mm 0,7 km/h (0 Bft) W 275 ° 0 min 0,000 mm 1,0 UV-I 148 W/m² 15,1 °C 26,7 °C 1,6 km/h (1 Bft)
22.06.2017 18:49 26,7 °C 26,7 °C 50 % 1010,8 hPa 0,0 mm 0,3 km/h (0 Bft) W 275 ° 0 min 0,000 mm 1,0 UV-I 146 W/m² 15,4 °C 26,7 °C 3,2 km/h (1 Bft)
22.06.2017 18:50 26,6 °C 26,7 °C 51 % 1010,8 hPa 0,0 mm 0,0 km/h (0 Bft) W 275 ° 0 min 0,000 mm 1,0 UV-I 142 W/m² 15,6 °C 26,6 °C 0,0 km/h (0 Bft)
22.06.2017 18:51 26,6 °C 26,7 °C 50 % 1010,8 hPa 0,0 mm 0,9 km/h (0 Bft) W-SW 254 ° 0 min 0,000 mm 1,0 UV-I 142 W/m² 15,3 °C 26,6 °C 4,8 km/h (1 Bft)
22.06.2017 18:52 26,6 °C 26,6 °C 50 % 1010,8 hPa 0,0 mm 2,8 km/h (1 Bft) W-SW 238 ° 0 min 0,000 mm 0,9 UV-I 141 W/m² 15,3 °C 26,6 °C 6,4 km/h (2 Bft)
22.06.2017 18:53 26,6 °C 26,6 °C 50 % 1010,8 hPa 0,0 mm 1,1 km/h (1 Bft) W-SW 239 ° 0 min 0,000 mm 0,9 UV-I 141 W/m² 15,3 °C 26,6 °C 3,2 km/h (1 Bft)
22.06.2017 18:54 26,6 °C 26,6 °C 51 % 1010,8 hPa 0,0 mm 1,1 km/h (1 Bft) W-SW 239 ° 0 min 0,000 mm 0,9 UV-I 139 W/m² 15,6 °C 26,6 °C 3,2 km/h (1 Bft)
22.06.2017 18:55 26,5 °C 26,6 °C 51 % 1010,8 hPa 0,0 mm 0,2 km/h (0 Bft) W-SW 239 ° 0 min 0,000 mm 0,9 UV-I 135 W/m² 15,5 °C 26,5 °C 1,6 km/h (1 Bft)
22.06.2017 18:56 26,4 °C 26,5 °C 54 % 1010,8 hPa 0,0 mm 0,3 km/h (0 Bft) W-SW 238 ° 0 min 0,000 mm 0,9 UV-I 134 W/m² 16,3 °C 26,4 °C 1,6 km/h (1 Bft)
22.06.2017 18:57 26,4 °C 26,4 °C 50 % 1010,8 hPa 0,0 mm 1,2 km/h (1 Bft) W-SW 247 ° 0 min 0,000 mm 0,9 UV-I 132 W/m² 15,1 °C 26,4 °C 4,8 km/h (1 Bft)
22.06.2017 18:58 26,4 °C 26,4 °C 51 % 1010,9 hPa 0,0 mm 1,4 km/h (1 Bft) W-SW 247 ° 0 min 0,000 mm 0,9 UV-I 132 W/m² 15,4 °C 26,4 °C 4,8 km/h (1 Bft)
22.06.2017 18:59 26,4 °C 26,4 °C 49 % 1010,9 hPa 0,0 mm 0,0 km/h (0 Bft) W-SW 247 ° 0 min 0,000 mm 0,9 UV-I 135 W/m² 14,8 °C 26,4 °C 0,0 km/h (0 Bft)
22.06.2017 19:00 26,4 °C 26,4 °C 51 % 1010,9 hPa 0,0 mm 0,0 km/h (0 Bft) W-SW 247 ° 0 min 0,000 mm 0,9 UV-I 135 W/m² 15,4 °C 26,4 °C 0,0 km/h (0 Bft)
22.06.2017 19:01 26,4 °C 26,4 °C 48 % 1010,9 hPa 0,0 mm 0,0 km/h (0 Bft) W-SW 247 ° 0 min 0,152 mm 0,9 UV-I 141 W/m² 14,5 °C 26,4 °C 0,0 km/h (0 Bft)
22.06.2017 19:02 26,4 °C 26,4 °C 49 % 1010,9 hPa 0,0 mm 0,0 km/h (0 Bft) W-SW 247 ° 0 min 0,000 mm 0,9 UV-I 141 W/m² 14,8 °C 26,4 °C 0,0 km/h (0 Bft)
22.06.2017 19:03 26,5 °C 26,5 °C 50 % 1011,0 hPa 0,0 mm 1,8 km/h (1 Bft) W 264 ° 0 min 0,000 mm 0,9 UV-I 141 W/m² 15,2 °C 26,5 °C 6,4 km/h (2 Bft)
22.06.2017 19:04 26,5 °C 26,5 °C 50 % 1011,0 hPa 0,0 mm 1,4 km/h (1 Bft) W-SW 245 ° 0 min 0,000 mm 0,9 UV-I 141 W/m² 15,2 °C 26,5 °C 3,2 km/h (1 Bft)
22.06.2017 19:05 26,5 °C 26,5 °C 50 % 1011,0 hPa 0,0 mm 0,1 km/h (0 Bft) W-SW 245 ° 0 min 0,000 mm 0,9 UV-I 144 W/m² 15,2 °C 26,5 °C 1,6 km/h (1 Bft)
22.06.2017 19:06 26,5 °C 26,5 °C 50 % 1011,1 hPa 0,0 mm 1,8 km/h (1 Bft) W-SW 242 ° 0 min 0,000 mm 0,9 UV-I 146 W/m² 15,2 °C 26,5 °C 4,8 km/h (1 Bft)
22.06.2017 19:07 26,5 °C 26,5 °C 50 % 1011,1 hPa 0,0 mm 1,3 km/h (1 Bft) W-SW 242 ° 0 min 0,000 mm 0,9 UV-I 144 W/m² 15,2 °C 26,5 °C 3,2 km/h (1 Bft)
22.06.2017 19:08 26,4 °C 26,5 °C 49 % 1011,1 hPa 0,0 mm 0,8 km/h (0 Bft) W-SW 242 ° 0 min 0,000 mm 0,8 UV-I 141 W/m² 14,8 °C 26,4 °C 3,2 km/h (1 Bft)
22.06.2017 19:09 26,5 °C 26,5 °C 50 % 1011,1 hPa 0,0 mm 3,1 km/h (1 Bft) W-SW 257 ° 0 min 0,000 mm 0,8 UV-I 139 W/m² 15,2 °C 26,5 °C 4,8 km/h (1 Bft)
22.06.2017 19:10 26,4 °C 26,5 °C 52 % 1011,1 hPa 0,0 mm 1,7 km/h (1 Bft) W-SW 257 ° 0 min 0,000 mm 0,8 UV-I 139 W/m² 15,7 °C 26,4 °C 4,8 km/h (1 Bft)
22.06.2017 19:11 26,4 °C 26,4 °C 50 % 1011,1 hPa 0,0 mm 1,6 km/h (1 Bft) W-SW 257 ° 0 min 0,000 mm 0,8 UV-I 139 W/m² 15,1 °C 26,4 °C 3,2 km/h (1 Bft)
22.06.2017 19:12 26,4 °C 26,4 °C 51 % 1011,1 hPa 0,0 mm 0,0 km/h (0 Bft) W-SW 257 ° 0 min 0,000 mm 0,8 UV-I 137 W/m² 15,4 °C 26,4 °C 0,0 km/h (0 Bft)
22.06.2017 19:13 26,3 °C 26,4 °C 50 % 1011,1 hPa 0,0 mm 0,0 km/h (0 Bft) W-SW 257 ° 0 min 0,000 mm 0,8 UV-I 137 W/m² 15,0 °C 26,3 °C 0,0 km/h (0 Bft)
22.06.2017 19:14 26,4 °C 26,4 °C 49 % 1011,2 hPa 0,0 mm 1,6 km/h (1 Bft) SW 233 ° 0 min 0,000 mm 0,8 UV-I 137 W/m² 14,8 °C 26,4 °C 4,8 km/h (1 Bft)
22.06.2017 19:15 26,4 °C 26,4 °C 50 % 1011,2 hPa 0,0 mm 0,3 km/h (0 Bft) SW 233 ° 0 min 0,000 mm 0,8 UV-I 137 W/m² 15,1 °C 26,4 °C 1,6 km/h (1 Bft)
22.06.2017 19:16 26,4 °C 26,4 °C 52 % 1011,2 hPa 0,0 mm 0,1 km/h (0 Bft) SW 233 ° 0 min 0,000 mm 0,8 UV-I 137 W/m² 15,7 °C 26,4 °C 1,6 km/h (1 Bft)
22.06.2017 19:17 26,3 °C 26,4 °C 50 % 1011,2 hPa 0,0 mm 0,6 km/h (0 Bft) SW 233 ° 0 min 0,000 mm 0,8 UV-I 135 W/m² 15,0 °C 26,3 °C 3,2 km/h (1 Bft)
22.06.2017 19:18 26,4 °C 26,4 °C 50 % 1011,2 hPa 0,0 mm 0,0 km/h (0 Bft) SW 233 ° 0 min 0,000 mm 0,8 UV-I 134 W/m² 15,1 °C 26,4 °C 0,0 km/h (0 Bft)
22.06.2017 19:19 26,3 °C 26,4 °C 50 % 1011,2 hPa 0,0 mm 0,0 km/h (0 Bft) SW 233 ° 0 min 0,000 mm 0,8 UV-I 130 W/m² 15,0 °C 26,3 °C 0,0 km/h (0 Bft)
22.06.2017 19:20 26,4 °C 26,4 °C 50 % 1011,2 hPa 0,0 mm 0,1 km/h (0 Bft) SW 233 ° 0 min 0,000 mm 0,7 UV-I 127 W/m² 15,1 °C 26,4 °C 1,6 km/h (1 Bft)
22.06.2017 19:21 26,3 °C 26,4 °C 50 % 1011,2 hPa 0,0 mm 0,0 km/h (0 Bft) SW 233 ° 0 min 0,000 mm 0,7 UV-I 125 W/m² 15,0 °C 26,3 °C 0,0 km/h (0 Bft)
22.06.2017 19:22 26,3 °C 26,4 °C 47 % 1011,3 hPa 0,0 mm 0,0 km/h (0 Bft) SW 233 ° 0 min 0,000 mm 0,7 UV-I 121 W/m² 14,1 °C 26,3 °C 0,0 km/h (0 Bft)
22.06.2017 19:23 26,3 °C 26,3 °C 48 % 1011,2 hPa 0,0 mm 0,1 km/h (0 Bft) SW 233 ° 0 min 0,000 mm 0,7 UV-I 118 W/m² 14,4 °C 26,3 °C 1,6 km/h (1 Bft)
22.06.2017 19:24 26,3 °C 26,3 °C 48 % 1011,3 hPa 0,0 mm 0,0 km/h (0 Bft) SW 233 ° 0 min 0,000 mm 0,7 UV-I 114 W/m² 14,4 °C 26,3 °C 0,0 km/h (0 Bft)
22.06.2017 19:25 26,3 °C 26,4 °C 49 % 1011,3 hPa 0,0 mm 0,0 km/h (0 Bft) SW 233 ° 0 min 0,000 mm 0,7 UV-I 107 W/m² 14,7 °C 26,3 °C 0,0 km/h (0 Bft)
22.06.2017 19:26 26,3 °C 26,3 °C 49 % 1011,3 hPa 0,0 mm 0,3 km/h (0 Bft) SW 233 ° 0 min 0,000 mm 0,6 UV-I 105 W/m² 14,7 °C 26,3 °C 1,6 km/h (1 Bft)
22.06.2017 19:27 26,2 °C 26,3 °C 49 % 1011,2 hPa 0,0 mm 0,0 km/h (0 Bft) SW 233 ° 0 min 0,000 mm 0,6 UV-I 104 W/m² 14,6 °C 26,2 °C 0,0 km/h (0 Bft)
22.06.2017 19:28 26,2 °C 26,3 °C 48 % 1011,3 hPa 0,0 mm 0,0 km/h (0 Bft) SW 233 ° 0 min 0,000 mm 0,6 UV-I 104 W/m² 14,3 °C 26,2 °C 0,0 km/h (0 Bft)
22.06.2017 19:29 26,2 °C 26,2 °C 50 % 1011,3 hPa 0,0 mm 0,0 km/h (0 Bft) SW 233 ° 0 min 0,000 mm 0,6 UV-I 104 W/m² 14,9 °C 26,2 °C 0,0 km/h (0 Bft)
22.06.2017 19:30 26,1 °C 26,2 °C 50 % 1011,3 hPa 0,0 mm 0,1 km/h (0 Bft) SW 233 ° 0 min 0,000 mm 0,6 UV-I 114 W/m² 14,8 °C 26,1 °C 1,6 km/h (1 Bft)
22.06.2017 19:31 26,1 °C 26,2 °C 49 % 1011,2 hPa 0,0 mm 0,9 km/h (0 Bft) SW 233 ° 0 min 0,000 mm 0,6 UV-I 121 W/m² 14,5 °C 26,1 °C 3,2 km/h (1 Bft)
22.06.2017 19:32 26,2 °C 26,2 °C 48 % 1011,2 hPa 0,0 mm 1,8 km/h (1 Bft) S-SW 213 ° 0 min 0,000 mm 0,6 UV-I 125 W/m² 14,3 °C 26,2 °C 4,8 km/h (1 Bft)
22.06.2017 19:33 26,2 °C 26,2 °C 47 % 1011,1 hPa 0,0 mm 1,3 km/h (1 Bft) S-SW 213 ° 0 min 0,000 mm 0,6 UV-I 132 W/m² 14,0 °C 26,2 °C 3,2 km/h (1 Bft)
22.06.2017 19:34 26,3 °C 26,3 °C 48 % 1011,2 hPa 0,0 mm 3,5 km/h (1 Bft) S-SW 209 ° 0 min 0,000 mm 0,6 UV-I 132 W/m² 14,4 °C 26,3 °C 4,8 km/h (1 Bft)
22.06.2017 19:35 26,3 °C 26,3 °C 46 % 1011,1 hPa 0,0 mm 3,0 km/h (1 Bft) S-SW 198 ° 0 min 0,000 mm 0,6 UV-I 135 W/m² 13,7 °C 26,3 °C 4,8 km/h (1 Bft)
22.06.2017 19:36 26,4 °C 26,4 °C 46 % 1011,1 hPa 0,0 mm 2,0 km/h (1 Bft) S-SW 198 ° 0 min 0,000 mm 0,6 UV-I 149 W/m² 13,8 °C 26,4 °C 4,8 km/h (1 Bft)
22.06.2017 19:37 26,4 °C 26,4 °C 47 % 1011,2 hPa 0,0 mm 1,3 km/h (1 Bft) S-SW 198 ° 0 min 0,000 mm 0,6 UV-I 151 W/m² 14,2 °C 26,4 °C 3,2 km/h (1 Bft)
22.06.2017 19:38 26,5 °C 26,5 °C 46 % 1011,2 hPa 0,0 mm 2,4 km/h (1 Bft) S-SW 198 ° 0 min 0,000 mm 0,6 UV-I 155 W/m² 13,9 °C 26,5 °C 3,2 km/h (1 Bft)
22.06.2017 19:39 26,5 °C 26,5 °C 46 % 1011,2 hPa 0,0 mm 3,5 km/h (1 Bft) S-SW 198 ° 0 min 0,000 mm 0,6 UV-I 158 W/m² 13,9 °C 26,5 °C 4,8 km/h (1 Bft)
22.06.2017 19:40 26,6 °C 26,6 °C 46 % 1011,2 hPa 0,0 mm 2,2 km/h (1 Bft) S-SW 198 ° 0 min 0,000 mm 0,6 UV-I 149 W/m² 14,0 °C 26,6 °C 3,2 km/h (1 Bft)
22.06.2017 19:41 26,6 °C 26,6 °C 47 % 1011,1 hPa 0,0 mm 1,5 km/h (1 Bft) S-SW 198 ° 0 min 0,000 mm 0,6 UV-I 141 W/m² 14,3 °C 26,6 °C 3,2 km/h (1 Bft)
22.06.2017 19:42 26,6 °C 26,6 °C 47 % 1011,1 hPa 0,0 mm 2,9 km/h (1 Bft) S-SW 198 ° 0 min 0,000 mm 0,6 UV-I 155 W/m² 14,3 °C 26,6 °C 3,2 km/h (1 Bft)
22.06.2017 19:43 26,6 °C 26,6 °C 51 % 1011,1 hPa 0,0 mm 2,6 km/h (1 Bft) S-SW 198 ° 0 min 0,000 mm 0,6 UV-I 162 W/m² 15,6 °C 26,6 °C 4,8 km/h (1 Bft)
22.06.2017 19:44 26,5 °C 26,6 °C 47 % 1011,0 hPa 0,0 mm 1,9 km/h (1 Bft) S-SW 198 ° 0 min 0,000 mm 0,6 UV-I 151 W/m² 14,3 °C 26,5 °C 3,2 km/h (1 Bft)
22.06.2017 19:45 26,4 °C 26,5 °C 50 % 1011,0 hPa 0,0 mm 1,0 km/h (0 Bft) S-SW 198 ° 0 min 0,000 mm 0,6 UV-I 149 W/m² 15,1 °C 26,4 °C 3,2 km/h (1 Bft)
22.06.2017 19:46 26,5 °C 26,5 °C 48 % 1011,1 hPa 0,0 mm 2,7 km/h (1 Bft) S-SW 198 ° 0 min 0,000 mm 0,6 UV-I 149 W/m² 14,6 °C 26,5 °C 4,8 km/h (1 Bft)
22.06.2017 19:47 26,5 °C 26,5 °C 50 % 1011,1 hPa 0,0 mm 1,9 km/h (1 Bft) S-SW 198 ° 0 min 0,000 mm 0,6 UV-I 155 W/m² 15,2 °C 26,5 °C 3,2 km/h (1 Bft)
22.06.2017 19:48 26,5 °C 26,5 °C 47 % 1011,0 hPa 0,0 mm 1,6 km/h (1 Bft) S-SW 198 ° 0 min 0,000 mm 0,6 UV-I 153 W/m² 14,3 °C 26,5 °C 3,2 km/h (1 Bft)
22.06.2017 19:49 26,6 °C 26,6 °C 47 % 1011,0 hPa 0,0 mm 0,3 km/h (0 Bft) S-SW 198 ° 0 min 0,000 mm 0,6 UV-I 155 W/m² 14,3 °C 26,6 °C 1,6 km/h (1 Bft)
22.06.2017 19:50 26,6 °C 26,6 °C 47 % 1011,0 hPa 0,0 mm 2,1 km/h (1 Bft) S-SW 200 ° 0 min 0,000 mm 0,6 UV-I 151 W/m² 14,3 °C 26,6 °C 4,8 km/h (1 Bft)
22.06.2017 19:51 26,6 °C 26,7 °C 45 % 1011,0 hPa 0,0 mm 0,3 km/h (0 Bft) S-SW 200 ° 0 min 0,000 mm 0,6 UV-I 151 W/m² 13,7 °C 26,6 °C 1,6 km/h (1 Bft)
22.06.2017 19:52 26,7 °C 26,7 °C 46 % 1011,0 hPa 0,0 mm 0,0 km/h (0 Bft) S-SW 200 ° 0 min 0,000 mm 0,6 UV-I 151 W/m² 14,1 °C 26,7 °C 0,0 km/h (0 Bft)
22.06.2017 19:53 26,7 °C 26,7 °C 46 % 1011,0 hPa 0,0 mm 1,3 km/h (1 Bft) S-SW 200 ° 0 min 0,000 mm 0,6 UV-I 156 W/m² 14,1 °C 26,7 °C 3,2 km/h (1 Bft)
22.06.2017 19:54 26,7 °C 26,7 °C 46 % 1010,9 hPa 0,0 mm 0,0 km/h (0 Bft) S-SW 200 ° 0 min 0,000 mm 0,5 UV-I 153 W/m² 14,1 °C 26,7 °C 0,0 km/h (0 Bft)
22.06.2017 19:55 26,7 °C 26,7 °C 48 % 1010,9 hPa 0,0 mm 0,0 km/h (0 Bft) S-SW 200 ° 0 min 0,000 mm 0,5 UV-I 151 W/m² 14,8 °C 26,7 °C 0,0 km/h (0 Bft)
22.06.2017 19:56 26,7 °C 26,7 °C 46 % 1010,9 hPa 0,0 mm 0,6 km/h (0 Bft) S-SW 200 ° 0 min 0,000 mm 0,5 UV-I 148 W/m² 14,1 °C 26,7 °C 1,6 km/h (1 Bft)
22.06.2017 19:57 26,7 °C 26,7 °C 47 % 1010,9 hPa 0,0 mm 2,1 km/h (1 Bft) S-SW 200 ° 0 min 0,000 mm 0,5 UV-I 141 W/m² 14,4 °C 26,7 °C 3,2 km/h (1 Bft)
22.06.2017 19:58 26,7 °C 26,7 °C 46 % 1010,9 hPa 0,0 mm 1,3 km/h (1 Bft) S-SW 200 ° 0 min 0,000 mm 0,5 UV-I 139 W/m² 14,1 °C 26,7 °C 3,2 km/h (1 Bft)
22.06.2017 19:59 26,7 °C 26,7 °C 48 % 1010,9 hPa 0,0 mm 0,7 km/h (0 Bft) S-SW 200 ° 0 min 0,000 mm 0,5 UV-I 132 W/m² 14,8 °C 26,7 °C 3,2 km/h (1 Bft)
22.06.2017 20:00 26,6 °C 26,7 °C 49 % 1010,9 hPa 0,0 mm 0,1 km/h (0 Bft) S-SW 200 ° 0 min 0,000 mm 0,5 UV-I 118 W/m² 15,0 °C 26,6 °C 1,6 km/h (1 Bft)
22.06.2017 20:01 26,6 °C 26,6 °C 50 % 1010,9 hPa 0,0 mm 2,2 km/h (1 Bft) S-SW 200 ° 0 min 0,102 mm 0,5 UV-I 121 W/m² 15,3 °C 26,6 °C 4,8 km/h (1 Bft)
22.06.2017 20:02 26,5 °C 26,6 °C 51 % 1010,9 hPa 0,0 mm 0,9 km/h (0 Bft) S-SW 200 ° 0 min 0,000 mm 0,5 UV-I 118 W/m² 15,5 °C 26,5 °C 1,6 km/h (1 Bft)
22.06.2017 20:03 26,5 °C 26,5 °C 48 % 1010,9 hPa 0,0 mm 0,0 km/h (0 Bft) S-SW 200 ° 0 min 0,000 mm 0,0 UV-I 113 W/m² 14,6 °C 26,5 °C 0,0 km/h (0 Bft)
22.06.2017 20:04 26,5 °C 26,6 °C 47 % 1010,9 hPa 0,0 mm 0,0 km/h (0 Bft) S-SW 200 ° 0 min 0,000 mm 0,0 UV-I 100 W/m² 14,3 °C 26,5 °C 0,0 km/h (0 Bft)
22.06.2017 20:05 26,4 °C 26,6 °C 49 % 1010,9 hPa 0,0 mm 1,2 km/h (1 Bft) S-SW 200 ° 0 min 0,000 mm 0,0 UV-I 91 W/m² 14,8 °C 26,4 °C 3,2 km/h (1 Bft)
22.06.2017 20:06 26,3 °C 26,4 °C 51 % 1010,9 hPa 0,0 mm 0,4 km/h (0 Bft) S-SW 200 ° 0 min 0,000 mm 0,0 UV-I 91 W/m² 15,3 °C 26,3 °C 1,6 km/h (1 Bft)
22.06.2017 20:07 26,3 °C 26,3 °C 50 % 1010,9 hPa 0,0 mm 0,7 km/h (0 Bft) S-SW 200 ° 0 min 0,000 mm 0,0 UV-I 90 W/m² 15,0 °C 26,3 °C 1,6 km/h (1 Bft)
22.06.2017 20:08 26,2 °C 26,3 °C 50 % 1010,9 hPa 0,0 mm 0,6 km/h (0 Bft) S-SW 200 ° 0 min 0,000 mm 0,0 UV-I 86 W/m² 14,9 °C 26,2 °C 3,2 km/h (1 Bft)
22.06.2017 20:09 26,1 °C 26,2 °C 51 % 1010,9 hPa 0,0 mm 0,0 km/h (0 Bft) S-SW 200 ° 0 min 0,000 mm 0,0 UV-I 86 W/m² 15,2 °C 26,1 °C 0,0 km/h (0 Bft)
22.06.2017 20:10 26,0 °C 26,1 °C 50 % 1010,9 hPa 0,0 mm 0,0 km/h (0 Bft) S-SW 200 ° 0 min 0,000 mm 0,0 UV-I 83 W/m² 14,8 °C 26,0 °C 0,0 km/h (0 Bft)
22.06.2017 20:11 25,9 °C 26,0 °C 52 % 1011,0 hPa 0,0 mm 0,0 km/h (0 Bft) S-SW 200 ° 0 min 0,000 mm 0,0 UV-I 81 W/m² 15,3 °C 25,9 °C 0,0 km/h (0 Bft)
22.06.2017 20:12 25,8 °C 25,9 °C 54 % 1011,0 hPa 0,0 mm 0,0 km/h (0 Bft) S-SW 200 ° 0 min 0,000 mm 0,0 UV-I 76 W/m² 15,8 °C 25,8 °C 0,0 km/h (0 Bft)
22.06.2017 20:13 25,7 °C 25,8 °C 55 % 1011,0 hPa 0,0 mm 0,0 km/h (0 Bft) S-SW 200 ° 0 min 0,000 mm 0,0 UV-I 72 W/m² 16,0 °C 25,7 °C 0,0 km/h (0 Bft)
22.06.2017 20:14 25,6 °C 25,7 °C 54 % 1011,0 hPa 0,0 mm 0,0 km/h (0 Bft) S-SW 200 ° 0 min 0,000 mm 0,0 UV-I 70 W/m² 15,6 °C 25,6 °C 0,0 km/h (0 Bft)
22.06.2017 20:15 25,5 °C 25,6 °C 54 % 1010,9 hPa 0,0 mm 0,0 km/h (0 Bft) S-SW 200 ° 0 min 0,000 mm 0,0 UV-I 69 W/m² 15,5 °C 25,5 °C 0,0 km/h (0 Bft)
22.06.2017 20:16 25,4 °C 25,5 °C 53 % 1010,9 hPa 0,0 mm 0,0 km/h (0 Bft) S-SW 200 ° 0 min 0,000 mm 0,0 UV-I 69 W/m² 15,1 °C 25,4 °C 0,0 km/h (0 Bft)
22.06.2017 20:17 25,3 °C 25,4 °C 56 % 1010,9 hPa 0,0 mm 0,0 km/h (0 Bft) S-SW 200 ° 0 min 0,000 mm 0,0 UV-I 67 W/m² 15,9 °C 25,3 °C 0,0 km/h (0 Bft)
22.06.2017 20:18 25,3 °C 25,4 °C 54 % 1010,9 hPa 0,0 mm 0,0 km/h (0 Bft) S-SW 200 ° 0 min 0,000 mm 0,0 UV-I 65 W/m² 15,3 °C 25,3 °C 0,0 km/h (0 Bft)
22.06.2017 20:19 25,3 °C 25,3 °C 54 % 1010,9 hPa 0,0 mm 0,8 km/h (0 Bft) S-SW 200 ° 0 min 0,000 mm 0,0 UV-I 65 W/m² 15,3 °C 25,3 °C 1,6 km/h (1 Bft)
22.06.2017 20:20 25,2 °C 25,3 °C 53 % 1010,9 hPa 0,0 mm 0,1 km/h (0 Bft) S-SW 200 ° 0 min 0,000 mm 0,0 UV-I 63 W/m² 14,9 °C 25,2 °C 1,6 km/h (1 Bft)
22.06.2017 20:21 25,2 °C 25,2 °C 55 % 1011,0 hPa 0,0 mm 0,0 km/h (0 Bft) S-SW 200 ° 0 min 0,000 mm 0,0 UV-I 58 W/m² 15,5 °C 25,2 °C 0,0 km/h (0 Bft)
22.06.2017 20:22 25,1 °C 25,2 °C 53 % 1010,9 hPa 0,0 mm 0,0 km/h (0 Bft) S-SW 200 ° 0 min 0,000 mm 0,0 UV-I 56 W/m² 14,8 °C 25,1 °C 0,0 km/h (0 Bft)
22.06.2017 20:23 25,1 °C 25,1 °C 52 % 1011,0 hPa 0,0 mm 0,0 km/h (0 Bft) S-SW 200 ° 0 min 0,000 mm 0,0 UV-I 44 W/m² 14,5 °C 25,1 °C 0,0 km/h (0 Bft)
22.06.2017 20:24 25,1 °C 25,1 °C 54 % 1011,0 hPa 0,0 mm 0,0 km/h (0 Bft) S-SW 200 ° 0 min 0,000 mm 0,0 UV-I 40 W/m² 15,1 °C 25,1 °C 0,0 km/h (0 Bft)
22.06.2017 20:25 25,1 °C 25,1 °C 53 % 1011,0 hPa 0,0 mm 0,0 km/h (0 Bft) S-SW 200 ° 0 min 0,000 mm 0,0 UV-I 37 W/m² 14,8 °C 25,1 °C 0,0 km/h (0 Bft)
22.06.2017 20:26 25,1 °C 25,1 °C 54 % 1011,1 hPa 0,0 mm 0,0 km/h (0 Bft) S-SW 200 ° 0 min 0,000 mm 0,0 UV-I 33 W/m² 15,1 °C 25,1 °C 0,0 km/h (0 Bft)
22.06.2017 20:27 24,9 °C 25,1 °C 54 % 1011,1 hPa 0,0 mm 0,0 km/h (0 Bft) S-SW 200 ° 0 min 0,000 mm 0,0 UV-I 32 W/m² 14,9 °C 24,9 °C 0,0 km/h (0 Bft)
22.06.2017 20:28 24,8 °C 24,9 °C 53 % 1011,2 hPa 0,0 mm 0,0 km/h (0 Bft) S-SW 200 ° 0 min 0,000 mm 0,0 UV-I 30 W/m² 14,6 °C 24,8 °C 0,0 km/h (0 Bft)
22.06.2017 20:29 24,8 °C 24,9 °C 52 % 1011,1 hPa 0,0 mm 0,2 km/h (0 Bft) S-SW 200 ° 0 min 0,000 mm 0,0 UV-I 26 W/m² 14,3 °C 24,8 °C 1,6 km/h (1 Bft)
22.06.2017 20:30 24,8 °C 24,8 °C 55 % 1011,1 hPa 0,0 mm 0,6 km/h (0 Bft) S-SW 200 ° 0 min 0,000 mm 0,0 UV-I 25 W/m² 15,1 °C 24,8 °C 3,2 km/h (1 Bft)
22.06.2017 20:31 24,7 °C 24,8 °C 55 % 1011,1 hPa 0,0 mm 0,7 km/h (0 Bft) S-SW 200 ° 0 min 0,000 mm 0,0 UV-I 25 W/m² 15,0 °C 24,7 °C 1,6 km/h (1 Bft)
22.06.2017 20:32 24,6 °C 24,7 °C 54 % 1011,1 hPa 0,0 mm 1,6 km/h (1 Bft) S-SW 200 ° 0 min 0,000 mm 0,0 UV-I 23 W/m² 14,7 °C 24,6 °C 3,2 km/h (1 Bft)
22.06.2017 20:33 24,6 °C 24,6 °C 56 % 1011,1 hPa 0,0 mm 1,4 km/h (1 Bft) S-SW 200 ° 0 min 0,000 mm 0,0 UV-I 21 W/m² 15,2 °C 24,6 °C 3,2 km/h (1 Bft)
22.06.2017 20:34 24,4 °C 24,6 °C 56 % 1011,2 hPa 0,0 mm 1,9 km/h (1 Bft) S-SW 200 ° 0 min 0,000 mm 0,0 UV-I 21 W/m² 15,0 °C 24,4 °C 3,2 km/h (1 Bft)
22.06.2017 20:35 24,3 °C 24,4 °C 55 % 1011,2 hPa 0,0 mm 1,7 km/h (1 Bft) S-SW 200 ° 0 min 0,000 mm 0,0 UV-I 21 W/m² 14,7 °C 24,3 °C 3,2 km/h (1 Bft)
22.06.2017 20:36 24,3 °C 24,3 °C 55 % 1011,2 hPa 0,0 mm 0,9 km/h (0 Bft) S-SW 200 ° 0 min 0,000 mm 0,0 UV-I 19 W/m² 14,7 °C 24,3 °C 1,6 km/h (1 Bft)
22.06.2017 20:37 24,2 °C 24,3 °C 57 % 1011,2 hPa 0,0 mm 1,7 km/h (1 Bft) S-SW 200 ° 0 min 0,000 mm 0,0 UV-I 19 W/m² 15,1 °C 24,2 °C 3,2 km/h (1 Bft)
22.06.2017 20:38 24,1 °C 24,2 °C 56 % 1011,2 hPa 0,0 mm 1,4 km/h (1 Bft) S-SW 200 ° 0 min 0,000 mm 0,0 UV-I 19 W/m² 14,8 °C 24,1 °C 4,8 km/h (1 Bft)
22.06.2017 20:39 24,1 °C 24,1 °C 56 % 1011,2 hPa 0,0 mm 0,3 km/h (0 Bft) S-SW 200 ° 0 min 0,000 mm 0,0 UV-I 19 W/m² 14,8 °C 24,1 °C 1,6 km/h (1 Bft)
22.06.2017 20:40 24,0 °C 24,1 °C 57 % 1011,3 hPa 0,0 mm 0,3 km/h (0 Bft) S-SW 200 ° 0 min 0,000 mm 0,0 UV-I 19 W/m² 14,9 °C 24,0 °C 3,2 km/h (1 Bft)
22.06.2017 20:41 23,8 °C 24,0 °C 57 % 1011,4 hPa 0,0 mm 0,8 km/h (0 Bft) S-SW 200 ° 0 min 0,000 mm 0,0 UV-I 19 W/m² 14,8 °C 23,8 °C 1,6 km/h (1 Bft)
22.06.2017 20:42 23,8 °C 23,8 °C 57 % 1011,3 hPa 0,0 mm 1,0 km/h (0 Bft) S-SW 200 ° 0 min 0,000 mm 0,0 UV-I 19 W/m² 14,8 °C 23,8 °C 3,2 km/h (1 Bft)
22.06.2017 20:43 23,7 °C 23,8 °C 57 % 1011,3 hPa 0,0 mm 2,3 km/h (1 Bft) S-SW 200 ° 0 min 0,000 mm 0,0 UV-I 19 W/m² 14,7 °C 23,7 °C 3,2 km/h (1 Bft)
22.06.2017 20:44 23,7 °C 23,7 °C 55 % 1011,3 hPa 0,0 mm 1,2 km/h (1 Bft) S-SW 200 ° 0 min 0,000 mm 0,0 UV-I 19 W/m² 14,1 °C 23,7 °C 3,2 km/h (1 Bft)
22.06.2017 20:45 23,7 °C 23,7 °C 56 % 1011,3 hPa 0,0 mm 2,0 km/h (1 Bft) S-SW 200 ° 0 min 0,000 mm 0,0 UV-I 19 W/m² 14,4 °C 23,7 °C 4,8 km/h (1 Bft)
22.06.2017 20:46 23,7 °C 23,7 °C 56 % 1011,3 hPa 0,0 mm 0,8 km/h (0 Bft) S-SW 200 ° 0 min 0,000 mm 0,0 UV-I 19 W/m² 14,4 °C 23,7 °C 3,2 km/h (1 Bft)
22.06.2017 20:47 23,7 °C 23,7 °C 56 % 1011,3 hPa 0,0 mm 1,9 km/h (1 Bft) S-SW 200 ° 0 min 0,000 mm 0,0 UV-I 18 W/m² 14,4 °C 23,7 °C 3,2 km/h (1 Bft)
22.06.2017 20:48 23,7 °C 23,8 °C 56 % 1011,3 hPa 0,0 mm 1,1 km/h (1 Bft) S-SW 200 ° 0 min 0,000 mm 0,0 UV-I 16 W/m² 14,4 °C 23,7 °C 3,2 km/h (1 Bft)
22.06.2017 20:49 23,7 °C 23,8 °C 56 % 1011,3 hPa 0,0 mm 0,6 km/h (0 Bft) S-SW 200 ° 0 min 0,000 mm 0,0 UV-I 14 W/m² 14,4 °C 23,7 °C 3,2 km/h (1 Bft)
22.06.2017 20:50 23,7 °C 23,7 °C 56 % 1011,3 hPa 0,0 mm 0,0 km/h (0 Bft) S-SW 200 ° 0 min 0,000 mm 0,0 UV-I 14 W/m² 14,4 °C 23,7 °C 0,0 km/h (0 Bft)
22.06.2017 20:51 23,7 °C 23,7 °C 56 % 1011,3 hPa 0,0 mm 0,0 km/h (0 Bft) S-SW 200 ° 0 min 0,000 mm 0,0 UV-I 12 W/m² 14,4 °C 23,7 °C 0,0 km/h (0 Bft)
22.06.2017 20:52 23,6 °C 23,7 °C 58 % 1011,3 hPa 0,0 mm 0,0 km/h (0 Bft) S-SW 200 ° 0 min 0,000 mm 0,0 UV-I 12 W/m² 14,8 °C 23,6 °C 0,0 km/h (0 Bft)
22.06.2017 20:53 23,4 °C 23,6 °C 58 % 1011,3 hPa 0,0 mm 0,0 km/h (0 Bft) S-SW 200 ° 0 min 0,000 mm 0,0 UV-I 11 W/m² 14,7 °C 23,4 °C 0,0 km/h (0 Bft)
22.06.2017 20:54 23,3 °C 23,4 °C 58 % 1011,3 hPa 0,0 mm 0,0 km/h (0 Bft) S-SW 200 ° 0 min 0,000 mm 0,0 UV-I 11 W/m² 14,6 °C 23,3 °C 0,0 km/h (0 Bft)
22.06.2017 20:55 23,2 °C 23,3 °C 59 % 1011,3 hPa 0,0 mm 0,0 km/h (0 Bft) S-SW 200 ° 0 min 0,000 mm 0,0 UV-I 9 W/m² 14,7 °C 23,2 °C 0,0 km/h (0 Bft)
22.06.2017 20:56 23,1 °C 23,2 °C 59 % 1011,3 hPa 0,0 mm 0,0 km/h (0 Bft) S-SW 200 ° 0 min 0,000 mm 0,0 UV-I 9 W/m² 14,6 °C 23,1 °C 0,0 km/h (0 Bft)
22.06.2017 20:57 22,9 °C 23,1 °C 59 % 1011,3 hPa 0,0 mm 0,0 km/h (0 Bft) S-SW 200 ° 0 min 0,000 mm 0,0 UV-I 9 W/m² 14,5 °C 22,9 °C 0,0 km/h (0 Bft)
22.06.2017 20:58 22,9 °C 22,9 °C 60 % 1011,3 hPa 0,0 mm 0,0 km/h (0 Bft) S-SW 200 ° 0 min 0,000 mm 0,0 UV-I 9 W/m² 14,7 °C 22,9 °C 0,0 km/h (0 Bft)
22.06.2017 20:59 22,7 °C 22,9 °C 61 % 1011,4 hPa 0,0 mm 0,0 km/h (0 Bft) S-SW 200 ° 0 min 0,000 mm 0,0 UV-I 7 W/m² 14,8 °C 22,7 °C 0,0 km/h (0 Bft)
22.06.2017 21:00 22,6 °C 22,7 °C 62 % 1011,4 hPa 0,0 mm 0,0 km/h (0 Bft) S-SW 200 ° 0 min 0,000 mm 0,0 UV-I 7 W/m² 14,9 °C 22,6 °C 0,0 km/h (0 Bft)
22.06.2017 21:01 22,4 °C 22,6 °C 62 % 1011,4 hPa 0,0 mm 0,0 km/h (0 Bft) S-SW 200 ° 0 min 0,051 mm 0,0 UV-I 7 W/m² 14,8 °C 22,4 °C 0,0 km/h (0 Bft)
22.06.2017 21:02 22,3 °C 22,4 °C 64 % 1011,4 hPa 0,0 mm 0,0 km/h (0 Bft) S-SW 200 ° 0 min 0,000 mm 0,0 UV-I 7 W/m² 15,2 °C 22,3 °C 0,0 km/h (0 Bft)
22.06.2017 21:03 22,3 °C 22,3 °C 64 % 1011,4 hPa 0,0 mm 0,0 km/h (0 Bft) S-SW 200 ° 0 min 0,000 mm 0,0 UV-I 7 W/m² 15,2 °C 22,3 °C 0,0 km/h (0 Bft)
22.06.2017 21:04 22,2 °C 22,3 °C 64 % 1011,3 hPa 0,0 mm 0,0 km/h (0 Bft) S-SW 200 ° 0 min 0,000 mm 0,0 UV-I 7 W/m² 15,1 °C 22,2 °C 0,0 km/h (0 Bft)
22.06.2017 21:05 22,1 °C 22,2 °C 63 % 1011,3 hPa 0,0 mm 0,0 km/h (0 Bft) S-SW 200 ° 0 min 0,000 mm 0,0 UV-I 7 W/m² 14,7 °C 22,1 °C 0,0 km/h (0 Bft)
22.06.2017 21:06 22,1 °C 22,2 °C 63 % 1011,3 hPa 0,0 mm 0,0 km/h (0 Bft) S-SW 200 ° 0 min 0,000 mm 0,0 UV-I 5 W/m² 14,7 °C 22,1 °C 0,0 km/h (0 Bft)
22.06.2017 21:07 22,1 °C 22,2 °C 62 % 1011,4 hPa 0,0 mm 0,0 km/h (0 Bft) S-SW 200 ° 0 min 0,000 mm 0,0 UV-I 5 W/m² 14,5 °C 22,1 °C 0,0 km/h (0 Bft)
22.06.2017 21:08 22,1 °C 22,2 °C 63 % 1011,4 hPa 0,0 mm 0,0 km/h (0 Bft) S-SW 200 ° 0 min 0,000 mm 0,0 UV-I 5 W/m² 14,7 °C 22,1 °C 0,0 km/h (0 Bft)
22.06.2017 21:09 22,2 °C 22,2 °C 61 % 1011,4 hPa 0,0 mm 1,1 km/h (1 Bft) S-SW 200 ° 0 min 0,000 mm 0,0 UV-I 5 W/m² 14,3 °C 22,2 °C 3,2 km/h (1 Bft)
22.06.2017 21:10 22,3 °C 22,3 °C 61 % 1011,5 hPa 0,0 mm 2,0 km/h (1 Bft) S 190 ° 0 min 0,000 mm 0,0 UV-I 5 W/m² 14,4 °C 22,3 °C 3,2 km/h (1 Bft)
22.06.2017 21:11 22,3 °C 22,3 °C 60 % 1011,4 hPa 0,0 mm 2,7 km/h (1 Bft) S 190 ° 0 min 0,000 mm 0,0 UV-I 0 W/m² 14,2 °C 22,3 °C 4,8 km/h (1 Bft)
22.06.2017 21:12 22,3 °C 22,3 °C 61 % 1011,4 hPa 0,0 mm 1,9 km/h (1 Bft) S 190 ° 0 min 0,000 mm 0,0 UV-I 0 W/m² 14,4 °C 22,3 °C 3,2 km/h (1 Bft)
22.06.2017 21:13 22,2 °C 22,3 °C 61 % 1011,4 hPa 0,0 mm 2,7 km/h (1 Bft) S 190 ° 0 min 0,000 mm 0,0 UV-I 0 W/m² 14,3 °C 22,2 °C 4,8 km/h (1 Bft)
22.06.2017 21:14 22,2 °C 22,2 °C 61 % 1011,4 hPa 0,0 mm 2,8 km/h (1 Bft) S 190 ° 0 min 0,000 mm 0,0 UV-I 0 W/m² 14,3 °C 22,2 °C 3,2 km/h (1 Bft)
22.06.2017 21:15 22,1 °C 22,2 °C 62 % 1011,4 hPa 0,0 mm 2,2 km/h (1 Bft) S 190 ° 0 min 0,000 mm 0,0 UV-I 0 W/m² 14,5 °C 22,1 °C 3,2 km/h (1 Bft)
22.06.2017 21:16 22,0 °C 22,1 °C 62 % 1011,5 hPa 0,0 mm 1,7 km/h (1 Bft) S 190 ° 0 min 0,000 mm 0,0 UV-I 0 W/m² 14,4 °C 22,0 °C 3,2 km/h (1 Bft)
22.06.2017 21:17 21,9 °C 22,0 °C 61 % 1011,5 hPa 0,0 mm 3,4 km/h (1 Bft) S 190 ° 0 min 0,000 mm 0,0 UV-I 0 W/m² 14,0 °C 21,9 °C 6,4 km/h (2 Bft)
22.06.2017 21:18 21,9 °C 22,0 °C 62 % 1011,5 hPa 0,0 mm 4,8 km/h (1 Bft) S-SW 196 ° 0 min 0,000 mm 0,0 UV-I 0 W/m² 14,3 °C 21,9 °C 8,0 km/h (2 Bft)
22.06.2017 21:19 22,1 °C 22,1 °C 60 % 1011,5 hPa 0,0 mm 3,9 km/h (1 Bft) S-SW 201 ° 0 min 0,000 mm 0,0 UV-I 0 W/m² 14,0 °C 22,1 °C 8,0 km/h (2 Bft)
22.06.2017 21:20 22,2 °C 22,2 °C 61 % 1011,5 hPa 0,0 mm 4,5 km/h (1 Bft) S 183 ° 0 min 0,000 mm 0,0 UV-I 0 W/m² 14,3 °C 22,2 °C 6,4 km/h (2 Bft)
22.06.2017 21:21 22,2 °C 22,2 °C 60 % 1011,5 hPa 0,0 mm 3,4 km/h (1 Bft) S-SW 192 ° 0 min 0,000 mm 0,0 UV-I 0 W/m² 14,1 °C 22,2 °C 4,8 km/h (1 Bft)
22.06.2017 21:22 22,3 °C 22,3 °C 60 % 1011,5 hPa 0,0 mm 4,4 km/h (1 Bft) S 184 ° 0 min 0,000 mm 0,0 UV-I 0 W/m² 14,2 °C 22,3 °C 6,4 km/h (2 Bft)
22.06.2017 21:23 22,4 °C 22,4 °C 59 % 1011,5 hPa 0,0 mm 3,7 km/h (1 Bft) S-SW 192 ° 0 min 0,000 mm 0,0 UV-I 0 W/m² 14,0 °C 22,4 °C 8,0 km/h (2 Bft)
22.06.2017 21:24 22,5 °C 22,5 °C 59 % 1011,4 hPa 0,0 mm 5,5 km/h (1 Bft) S-SW 195 ° 0 min 0,000 mm 0,0 UV-I 0 W/m² 14,1 °C 22,5 °C 8,0 km/h (2 Bft)
22.06.2017 21:25 22,6 °C 22,6 °C 57 % 1011,4 hPa 0,0 mm 8,1 km/h (2 Bft) SW 227 ° 0 min 0,000 mm 0,0 UV-I 0 W/m² 13,6 °C 22,6 °C 11,3 km/h (2 Bft)
22.06.2017 21:26 22,7 °C 22,7 °C 57 % 1011,3 hPa 0,0 mm 5,3 km/h (1 Bft) S-SW 197 ° 0 min 0,000 mm 0,0 UV-I 0 W/m² 13,7 °C 22,7 °C 8,0 km/h (2 Bft)
22.06.2017 21:27 22,8 °C 22,8 °C 56 % 1011,3 hPa 0,0 mm 6,8 km/h (2 Bft) S-SW 209 ° 0 min 0,000 mm 0,0 UV-I 0 W/m² 13,6 °C 22,8 °C 9,7 km/h (2 Bft)
22.06.2017 21:28 22,9 °C 22,9 °C 57 % 1011,3 hPa 0,0 mm 7,4 km/h (2 Bft) S-SW 196 ° 0 min 0,000 mm 0,0 UV-I 0 W/m² 13,9 °C 22,9 °C 9,7 km/h (2 Bft)
22.06.2017 21:29 22,9 °C 22,9 °C 57 % 1011,3 hPa 0,0 mm 5,4 km/h (1 Bft) S-SW 194 ° 0 min 0,000 mm 0,0 UV-I 0 W/m² 13,9 °C 22,9 °C 8,0 km/h (2 Bft)
22.06.2017 21:30 22,9 °C 22,9 °C 57 % 1011,3 hPa 0,0 mm 5,1 km/h (1 Bft) S 186 ° 0 min 0,000 mm 0,0 UV-I 0 W/m² 13,9 °C 22,9 °C 6,4 km/h (2 Bft)
22.06.2017 21:31 22,8 °C 22,9 °C 57 % 1011,3 hPa 0,0 mm 8,0 km/h (2 Bft) S-SW 192 ° 0 min 0,000 mm 0,0 UV-I 0 W/m² 13,8 °C 22,8 °C 11,3 km/h (2 Bft)
22.06.2017 21:32 22,9 °C 22,9 °C 57 % 1011,3 hPa 0,0 mm 6,1 km/h (2 Bft) S 191 ° 0 min 0,000 mm 0,0 UV-I 0 W/m² 13,9 °C 22,9 °C 8,0 km/h (2 Bft)
22.06.2017 21:33 22,9 °C 22,9 °C 57 % 1011,3 hPa 0,0 mm 5,8 km/h (2 Bft) S 181 ° 0 min 0,000 mm 0,0 UV-I 0 W/m² 13,9 °C 22,9 °C 9,7 km/h (2 Bft)
22.06.2017 21:34 22,9 °C 22,9 °C 57 % 1011,3 hPa 0,0 mm 7,5 km/h (2 Bft) S 182 ° 0 min 0,000 mm 0,0 UV-I 0 W/m² 13,9 °C 22,9 °C 9,7 km/h (2 Bft)
22.06.2017 21:35 23,0 °C 23,0 °C 56 % 1011,3 hPa 0,0 mm 5,1 km/h (1 Bft) S 186 ° 0 min 0,000 mm 0,0 UV-I 0 W/m² 13,7 °C 23,0 °C 8,0 km/h (2 Bft)
22.06.2017 21:36 23,2 °C 23,2 °C 55 % 1011,3 hPa 0,0 mm 3,3 km/h (1 Bft) S-SW 200 ° 0 min 0,000 mm 0,0 UV-I 0 W/m² 13,6 °C 23,2 °C 4,8 km/h (1 Bft)
22.06.2017 21:37 23,2 °C 23,2 °C 56 % 1011,3 hPa 0,0 mm 4,1 km/h (1 Bft) S-SO 157 ° 0 min 0,000 mm 0,0 UV-I 0 W/m² 13,9 °C 23,2 °C 6,4 km/h (2 Bft)
22.06.2017 21:38 23,3 °C 23,3 °C 55 % 1011,3 hPa 0,0 mm 5,7 km/h (1 Bft) S-SW 194 ° 0 min 0,000 mm 0,0 UV-I 0 W/m² 13,7 °C 23,3 °C 9,7 km/h (2 Bft)
22.06.2017 21:39 23,3 °C 23,3 °C 55 % 1011,3 hPa 0,0 mm 5,2 km/h (1 Bft) S 182 ° 0 min 0,000 mm 0,0 UV-I 0 W/m² 13,7 °C 23,3 °C 6,4 km/h (2 Bft)
22.06.2017 21:40 23,4 °C 23,4 °C 54 % 1011,2 hPa 0,0 mm 4,5 km/h (1 Bft) S-SW 199 ° 0 min 0,000 mm 0,0 UV-I 0 W/m² 13,6 °C 23,4 °C 8,0 km/h (2 Bft)
22.06.2017 21:41 23,6 °C 23,6 °C 54 % 1011,2 hPa 0,0 mm 6,4 km/h (2 Bft) S-SW 193 ° 0 min 0,000 mm 0,0 UV-I 0 W/m² 13,7 °C 23,6 °C 9,7 km/h (2 Bft)
22.06.2017 21:42 23,6 °C 23,6 °C 54 % 1011,2 hPa 0,0 mm 5,1 km/h (1 Bft) S-SW 204 ° 0 min 0,000 mm 0,0 UV-I 0 W/m² 13,7 °C 23,6 °C 6,4 km/h (2 Bft)
22.06.2017 21:43 23,7 °C 23,7 °C 54 % 1011,2 hPa 0,0 mm 4,3 km/h (1 Bft) S 188 ° 0 min 0,000 mm 0,0 UV-I 0 W/m² 13,8 °C 23,7 °C 6,4 km/h (2 Bft)
22.06.2017 21:44 23,8 °C 23,8 °C 53 % 1011,2 hPa 0,0 mm 3,5 km/h (1 Bft) S-SW 202 ° 0 min 0,000 mm 0,0 UV-I 0 W/m² 13,6 °C 23,8 °C 6,4 km/h (2 Bft)
22.06.2017 21:45 23,9 °C 23,9 °C 53 % 1011,2 hPa 0,0 mm 4,7 km/h (1 Bft) S-SW 196 ° 0 min 0,000 mm 0,0 UV-I 0 W/m² 13,7 °C 23,9 °C 8,0 km/h (2 Bft)
22.06.2017 21:46 23,9 °C 23,9 °C 53 % 1011,2 hPa 0,0 mm 6,4 km/h (2 Bft) S-SW 198 ° 0 min 0,000 mm 0,0 UV-I 0 W/m² 13,7 °C 23,9 °C 9,7 km/h (2 Bft)
22.06.2017 21:47 24,0 °C 24,0 °C 53 % 1011,2 hPa 0,0 mm 3,0 km/h (1 Bft) S 171 ° 0 min 0,000 mm 0,0 UV-I 0 W/m² 13,8 °C 24,0 °C 4,8 km/h (1 Bft)
22.06.2017 21:48 24,1 °C 24,1 °C 53 % 1011,1 hPa 0,0 mm 4,9 km/h (1 Bft) S-SW 196 ° 0 min 0,000 mm 0,0 UV-I 0 W/m² 13,9 °C 24,1 °C 9,7 km/h (2 Bft)
22.06.2017 21:49 24,0 °C 24,1 °C 53 % 1011,1 hPa 0,0 mm 4,5 km/h (1 Bft) S-SO 168 ° 0 min 0,000 mm 0,0 UV-I 0 W/m² 13,8 °C 24,0 °C 6,4 km/h (2 Bft)
22.06.2017 21:50 24,1 °C 24,1 °C 53 % 1011,1 hPa 0,0 mm 3,6 km/h (1 Bft) S 189 ° 0 min 0,000 mm 0,0 UV-I 0 W/m² 13,9 °C 24,1 °C 6,4 km/h (2 Bft)
22.06.2017 21:51 24,1 °C 24,1 °C 53 % 1011,1 hPa 0,0 mm 3,4 km/h (1 Bft) S-SW 194 ° 0 min 0,000 mm 0,0 UV-I 0 W/m² 13,9 °C 24,1 °C 4,8 km/h (1 Bft)
22.06.2017 21:52 24,1 °C 24,1 °C 53 % 1011,2 hPa 0,0 mm 2,3 km/h (1 Bft) SW 227 ° 0 min 0,000 mm 0,0 UV-I 0 W/m² 13,9 °C 24,1 °C 3,2 km/h (1 Bft)
22.06.2017 21:53 24,0 °C 24,1 °C 53 % 1011,2 hPa 0,0 mm 3,2 km/h (1 Bft) S-SW 202 ° 0 min 0,000 mm 0,0 UV-I 0 W/m² 13,8 °C 24,0 °C 4,8 km/h (1 Bft)
22.06.2017 21:54 23,9 °C 24,0 °C 53 % 1011,2 hPa 0,0 mm 4,3 km/h (1 Bft) SW 215 ° 0 min 0,000 mm 0,0 UV-I 0 W/m² 13,7 °C 23,9 °C 6,4 km/h (2 Bft)
22.06.2017 21:55 24,0 °C 24,0 °C 53 % 1011,2 hPa 0,0 mm 1,4 km/h (1 Bft) SW 217 ° 0 min 0,000 mm 0,0 UV-I 0 W/m² 13,8 °C 24,0 °C 3,2 km/h (1 Bft)
22.06.2017 21:56 24,1 °C 24,1 °C 53 % 1011,3 hPa 0,0 mm 1,6 km/h (1 Bft) S-SW 206 ° 0 min 0,000 mm 0,0 UV-I 0 W/m² 13,9 °C 24,1 °C 4,8 km/h (1 Bft)
22.06.2017 21:57 24,2 °C 24,2 °C 52 % 1011,2 hPa 0,0 mm 1,5 km/h (1 Bft) S-SW 206 ° 0 min 0,000 mm 0,0 UV-I 0 W/m² 13,7 °C 24,2 °C 3,2 km/h (1 Bft)
22.06.2017 21:58 24,2 °C 24,2 °C 53 % 1011,3 hPa 0,0 mm 4,3 km/h (1 Bft) SW 221 ° 0 min 0,000 mm 0,0 UV-I 0 W/m² 14,0 °C 24,2 °C 8,0 km/h (2 Bft)
22.06.2017 21:59 24,1 °C 24,2 °C 53 % 1011,2 hPa 0,0 mm 0,6 km/h (0 Bft) S-SW 209 ° 0 min 0,000 mm 0,0 UV-I 0 W/m² 13,9 °C 24,1 °C 1,6 km/h (1 Bft)
22.06.2017 22:00 24,1 °C 24,1 °C 52 % 1011,2 hPa 0,0 mm 0,3 km/h (0 Bft) S-SW 209 ° 0 min 0,025 mm 0,0 UV-I 0 W/m² 13,6 °C 24,1 °C 1,6 km/h (1 Bft)
22.06.2017 22:01 24,1 °C 24,1 °C 52 % 1011,2 hPa 0,0 mm 1,7 km/h (1 Bft) S-SW 207 ° 0 min 0,000 mm 0,0 UV-I 0 W/m² 13,6 °C 24,1 °C 3,2 km/h (1 Bft)
22.06.2017 22:02 24,1 °C 24,1 °C 53 % 1011,2 hPa 0,0 mm 2,3 km/h (1 Bft) W-SW 244 ° 0 min 0,000 mm 0,0 UV-I 0 W/m² 13,9 °C 24,1 °C 4,8 km/h (1 Bft)
22.06.2017 22:03 24,0 °C 24,1 °C 52 % 1011,1 hPa 0,0 mm 1,0 km/h (0 Bft) W-SW 244 ° 0 min 0,000 mm 0,0 UV-I 0 W/m² 13,5 °C 24,0 °C 1,6 km/h (1 Bft)
22.06.2017 22:04 23,9 °C 24,0 °C 53 % 1011,2 hPa 0,0 mm 0,1 km/h (0 Bft) W-SW 244 ° 0 min 0,000 mm 0,0 UV-I 0 W/m² 13,7 °C 23,9 °C 1,6 km/h (1 Bft)
22.06.2017 22:05 23,9 °C 23,9 °C 52 % 1011,1 hPa 0,0 mm 0,0 km/h (0 Bft) W-SW 244 ° 0 min 0,000 mm 0,0 UV-I 0 W/m² 13,4 °C 23,9 °C 0,0 km/h (0 Bft)
22.06.2017 22:06 23,9 °C 23,9 °C 53 % 1011,1 hPa 0,0 mm 3,2 km/h (1 Bft) SW 221 ° 0 min 0,000 mm 0,0 UV-I 0 W/m² 13,7 °C 23,9 °C 6,4 km/h (2 Bft)
22.06.2017 22:07 23,9 °C 23,9 °C 53 % 1011,1 hPa 0,0 mm 4,1 km/h (1 Bft) W 262 ° 0 min 0,000 mm 0,0 UV-I 0 W/m² 13,7 °C 23,9 °C 6,4 km/h (2 Bft)
22.06.2017 22:08 23,9 °C 23,9 °C 54 % 1011,1 hPa 0,0 mm 2,7 km/h (1 Bft) S 182 ° 0 min 0,000 mm 0,0 UV-I 0 W/m² 14,0 °C 23,9 °C 4,8 km/h (1 Bft)
22.06.2017 22:09 23,9 °C 23,9 °C 53 % 1011,1 hPa 0,0 mm 3,3 km/h (1 Bft) W 264 ° 0 min 0,000 mm 0,0 UV-I 0 W/m² 13,7 °C 23,9 °C 6,4 km/h (2 Bft)
22.06.2017 22:10 23,9 °C 23,9 °C 53 % 1011,1 hPa 0,0 mm 0,0 km/h (0 Bft) W 264 ° 0 min 0,000 mm 0,0 UV-I 0 W/m² 13,7 °C 23,9 °C 0,0 km/h (0 Bft)
22.06.2017 22:11 24,0 °C 24,1 °C 52 % 1011,1 hPa 0,0 mm 1,3 km/h (1 Bft) W 264 ° 0 min 0,000 mm 0,0 UV-I 0 W/m² 13,5 °C 24,0 °C 3,2 km/h (1 Bft)
22.06.2017 22:12 24,1 °C 24,1 °C 53 % 1011,1 hPa 0,0 mm 1,9 km/h (1 Bft) W-SW 244 ° 0 min 0,000 mm 0,0 UV-I 0 W/m² 13,9 °C 24,1 °C 3,2 km/h (1 Bft)
22.06.2017 22:13 24,0 °C 24,1 °C 52 % 1011,1 hPa 0,0 mm 1,5 km/h (1 Bft) W-SW 244 ° 0 min 0,000 mm 0,0 UV-I 0 W/m² 13,5 °C 24,0 °C 3,2 km/h (1 Bft)
22.06.2017 22:14 24,0 °C 24,0 °C 52 % 1011,1 hPa 0,0 mm 1,0 km/h (0 Bft) W-SW 242 ° 0 min 0,000 mm 0,0 UV-I 0 W/m² 13,5 °C 24,0 °C 3,2 km/h (1 Bft)
22.06.2017 22:15 23,9 °C 24,0 °C 54 % 1011,1 hPa 0,0 mm 1,9 km/h (1 Bft) SW 233 ° 0 min 0,000 mm 0,0 UV-I 0 W/m² 14,0 °C 23,9 °C 4,8 km/h (1 Bft)
22.06.2017 22:16 23,8 °C 23,9 °C 52 % 1011,0 hPa 0,0 mm 1,3 km/h (1 Bft) SW 227 ° 0 min 0,000 mm 0,0 UV-I 0 W/m² 13,3 °C 23,8 °C 3,2 km/h (1 Bft)
22.06.2017 22:17 23,8 °C 23,9 °C 52 % 1011,0 hPa 0,0 mm 1,7 km/h (1 Bft) SW 227 ° 0 min 0,000 mm 0,0 UV-I 0 W/m² 13,3 °C 23,8 °C 3,2 km/h (1 Bft)
22.06.2017 22:18 23,9 °C 23,9 °C 53 % 1011,0 hPa 0,0 mm 3,4 km/h (1 Bft) S-SW 211 ° 0 min 0,000 mm 0,0 UV-I 0 W/m² 13,7 °C 23,9 °C 4,8 km/h (1 Bft)
22.06.2017 22:19 23,9 °C 23,9 °C 53 % 1011,0 hPa 0,0 mm 1,0 km/h (0 Bft) S-SW 211 ° 0 min 0,000 mm 0,0 UV-I 0 W/m² 13,7 °C 23,9 °C 1,6 km/h (1 Bft)
22.06.2017 22:20 23,8 °C 23,9 °C 53 % 1011,1 hPa 0,0 mm 2,4 km/h (1 Bft) S-SW 211 ° 0 min 0,000 mm 0,0 UV-I 0 W/m² 13,6 °C 23,8 °C 3,2 km/h (1 Bft)
22.06.2017 22:21 23,8 °C 23,8 °C 52 % 1011,0 hPa 0,0 mm 5,2 km/h (1 Bft) S 191 ° 0 min 0,000 mm 0,0 UV-I 0 W/m² 13,3 °C 23,8 °C 8,0 km/h (2 Bft)
22.06.2017 22:22 23,8 °C 23,8 °C 53 % 1011,0 hPa 0,0 mm 1,8 km/h (1 Bft) S 191 ° 0 min 0,000 mm 0,0 UV-I 0 W/m² 13,6 °C 23,8 °C 3,2 km/h (1 Bft)
22.06.2017 22:23 23,8 °C 23,8 °C 54 % 1011,0 hPa 0,0 mm 1,1 km/h (1 Bft) S 191 ° 0 min 0,000 mm 0,0 UV-I 0 W/m² 13,9 °C 23,8 °C 3,2 km/h (1 Bft)
22.06.2017 22:24 23,7 °C 23,8 °C 54 % 1011,0 hPa 0,0 mm 2,4 km/h (1 Bft) S 191 ° 0 min 0,000 mm 0,0 UV-I 0 W/m² 13,8 °C 23,7 °C 3,2 km/h (1 Bft)
22.06.2017 22:25 23,6 °C 23,7 °C 53 % 1010,9 hPa 0,0 mm 3,6 km/h (1 Bft) S 190 ° 0 min 0,000 mm 0,0 UV-I 0 W/m² 13,4 °C 23,6 °C 6,4 km/h (2 Bft)
22.06.2017 22:26 23,5 °C 23,6 °C 53 % 1010,9 hPa 0,0 mm 1,4 km/h (1 Bft) S-SW 198 ° 0 min 0,000 mm 0,0 UV-I 0 W/m² 13,4 °C 23,5 °C 3,2 km/h (1 Bft)
22.06.2017 22:27 23,4 °C 23,5 °C 53 % 1010,9 hPa 0,0 mm 2,1 km/h (1 Bft) S-SW 198 ° 0 min 0,000 mm 0,0 UV-I 0 W/m² 13,3 °C 23,4 °C 4,8 km/h (1 Bft)
22.06.2017 22:28 23,5 °C 23,5 °C 53 % 1010,9 hPa 0,0 mm 1,8 km/h (1 Bft) S-SW 198 ° 0 min 0,000 mm 0,0 UV-I 0 W/m² 13,4 °C 23,5 °C 3,2 km/h (1 Bft)
22.06.2017 22:29 23,5 °C 23,6 °C 53 % 1010,9 hPa 0,0 mm 2,1 km/h (1 Bft) S-SW 198 ° 0 min 0,000 mm 0,0 UV-I 0 W/m² 13,4 °C 23,5 °C 4,8 km/h (1 Bft)
22.06.2017 22:30 23,5 °C 23,5 °C 54 % 1010,8 hPa 0,0 mm 1,4 km/h (1 Bft) S-SW 194 ° 0 min 0,000 mm 0,0 UV-I 0 W/m² 13,6 °C 23,5 °C 3,2 km/h (1 Bft)
22.06.2017 22:31 23,4 °C 23,5 °C 53 % 1010,9 hPa 0,0 mm 1,4 km/h (1 Bft) S-SW 194 ° 0 min 0,000 mm 0,0 UV-I 0 W/m² 13,3 °C 23,4 °C 3,2 km/h (1 Bft)
22.06.2017 22:32 23,4 °C 23,4 °C 53 % 1010,9 hPa 0,0 mm 1,9 km/h (1 Bft) S-SW 194 ° 0 min 0,000 mm 0,0 UV-I 0 W/m² 13,3 °C 23,4 °C 3,2 km/h (1 Bft)
22.06.2017 22:33 23,4 °C 23,4 °C 53 % 1010,9 hPa 0,0 mm 1,1 km/h (1 Bft) S-SW 194 ° 0 min 0,000 mm 0,0 UV-I 0 W/m² 13,3 °C 23,4 °C 6,4 km/h (2 Bft)
22.06.2017 22:34 23,6 °C 23,6 °C 52 % 1010,9 hPa 0,0 mm 4,9 km/h (1 Bft) S 185 ° 0 min 0,000 mm 0,0 UV-I 0 W/m² 13,2 °C 23,6 °C 8,0 km/h (2 Bft)
22.06.2017 22:35 23,6 °C 23,6 °C 53 % 1010,9 hPa 0,0 mm 3,6 km/h (1 Bft) S 186 ° 0 min 0,000 mm 0,0 UV-I 0 W/m² 13,4 °C 23,6 °C 4,8 km/h (1 Bft)
22.06.2017 22:36 23,7 °C 23,7 °C 53 % 1010,9 hPa 0,0 mm 3,0 km/h (1 Bft) S 186 ° 0 min 0,000 mm 0,0 UV-I 0 W/m² 13,5 °C 23,7 °C 4,8 km/h (1 Bft)
22.06.2017 22:37 23,7 °C 23,7 °C 52 % 1011,0 hPa 0,0 mm 2,3 km/h (1 Bft) S 186 ° 0 min 0,000 mm 0,0 UV-I 0 W/m² 13,2 °C 23,7 °C 4,8 km/h (1 Bft)
22.06.2017 22:38 23,7 °C 23,7 °C 53 % 1011,0 hPa 0,0 mm 1,7 km/h (1 Bft) S 183 ° 0 min 0,000 mm 0,0 UV-I 0 W/m² 13,5 °C 23,7 °C 3,2 km/h (1 Bft)
22.06.2017 22:39 23,7 °C 23,7 °C 52 % 1011,0 hPa 0,0 mm 1,5 km/h (1 Bft) S 179 ° 0 min 0,000 mm 0,0 UV-I 0 W/m² 13,2 °C 23,7 °C 3,2 km/h (1 Bft)
22.06.2017 22:40 23,8 °C 23,8 °C 52 % 1011,0 hPa 0,0 mm 1,8 km/h (1 Bft) S 179 ° 0 min 0,000 mm 0,0 UV-I 0 W/m² 13,3 °C 23,8 °C 3,2 km/h (1 Bft)
22.06.2017 22:41 23,8 °C 23,8 °C 52 % 1010,9 hPa 0,0 mm 3,4 km/h (1 Bft) S 179 ° 0 min 0,000 mm 0,0 UV-I 0 W/m² 13,3 °C 23,8 °C 4,8 km/h (1 Bft)
22.06.2017 22:42 23,8 °C 23,8 °C 52 % 1010,9 hPa 0,0 mm 2,3 km/h (1 Bft) S 179 ° 0 min 0,000 mm 0,0 UV-I 0 W/m² 13,3 °C 23,8 °C 3,2 km/h (1 Bft)
22.06.2017 22:43 23,7 °C 23,8 °C 53 % 1011,0 hPa 0,0 mm 3,9 km/h (1 Bft) S 186 ° 0 min 0,000 mm 0,0 UV-I 0 W/m² 13,5 °C 23,7 °C 6,4 km/h (2 Bft)
22.06.2017 22:44 23,6 °C 23,7 °C 53 % 1011,0 hPa 0,0 mm 2,1 km/h (1 Bft) S 186 ° 0 min 0,000 mm 0,0 UV-I 0 W/m² 13,4 °C 23,6 °C 4,8 km/h (1 Bft)
22.06.2017 22:45 23,6 °C 23,6 °C 53 % 1011,0 hPa 0,0 mm 3,3 km/h (1 Bft) S 187 ° 0 min 0,000 mm 0,0 UV-I 0 W/m² 13,4 °C 23,6 °C 4,8 km/h (1 Bft)
22.06.2017 22:46 23,6 °C 23,7 °C 52 % 1011,0 hPa 0,0 mm 4,3 km/h (1 Bft) S 175 ° 0 min 0,000 mm 0,0 UV-I 0 W/m² 13,2 °C 23,6 °C 6,4 km/h (2 Bft)
22.06.2017 22:47 23,7 °C 23,7 °C 52 % 1011,0 hPa 0,0 mm 3,9 km/h (1 Bft) S-SW 192 ° 0 min 0,000 mm 0,0 UV-I 0 W/m² 13,2 °C 23,7 °C 6,4 km/h (2 Bft)
22.06.2017 22:48 23,7 °C 23,7 °C 52 % 1010,9 hPa 0,0 mm 3,3 km/h (1 Bft) S-SW 195 ° 0 min 0,000 mm 0,0 UV-I 0 W/m² 13,2 °C 23,7 °C 6,4 km/h (2 Bft)
22.06.2017 22:49 23,7 °C 23,7 °C 52 % 1010,9 hPa 0,0 mm 4,2 km/h (1 Bft) S-SW 197 ° 0 min 0,000 mm 0,0 UV-I 0 W/m² 13,2 °C 23,7 °C 8,0 km/h (2 Bft)
22.06.2017 22:50 23,8 °C 23,8 °C 53 % 1011,0 hPa 0,0 mm 5,5 km/h (1 Bft) S 191 ° 0 min 0,000 mm 0,0 UV-I 0 W/m² 13,6 °C 23,8 °C 8,0 km/h (2 Bft)
22.06.2017 22:51 23,8 °C 23,8 °C 53 % 1010,9 hPa 0,0 mm 2,8 km/h (1 Bft) S 191 ° 0 min 0,000 mm 0,0 UV-I 0 W/m² 13,6 °C 23,8 °C 4,8 km/h (1 Bft)
22.06.2017 22:52 23,7 °C 23,8 °C 53 % 1010,9 hPa 0,0 mm 4,3 km/h (1 Bft) S-SW 192 ° 0 min 0,000 mm 0,0 UV-I 0 W/m² 13,5 °C 23,7 °C 6,4 km/h (2 Bft)
22.06.2017 22:53 23,7 °C 23,7 °C 53 % 1010,9 hPa 0,0 mm 3,9 km/h (1 Bft) S 189 ° 0 min 0,000 mm 0,0 UV-I 0 W/m² 13,5 °C 23,7 °C 6,4 km/h (2 Bft)
22.06.2017 22:54 23,6 °C 23,7 °C 54 % 1010,9 hPa 0,0 mm 4,0 km/h (1 Bft) S 189 ° 0 min 0,000 mm 0,0 UV-I 0 W/m² 13,7 °C 23,6 °C 4,8 km/h (1 Bft)
22.06.2017 22:55 23,4 °C 23,6 °C 54 % 1010,9 hPa 0,0 mm 4,2 km/h (1 Bft) S 171 ° 0 min 0,000 mm 0,0 UV-I 0 W/m² 13,6 °C 23,4 °C 9,7 km/h (2 Bft)
22.06.2017 22:56 23,4 °C 23,4 °C 53 % 1010,9 hPa 0,0 mm 4,6 km/h (1 Bft) S 178 ° 0 min 0,000 mm 0,0 UV-I 0 W/m² 13,3 °C 23,4 °C 9,7 km/h (2 Bft)
22.06.2017 22:57 23,5 °C 23,5 °C 53 % 1010,9 hPa 0,0 mm 3,2 km/h (1 Bft) S-SW 194 ° 0 min 0,000 mm 0,0 UV-I 0 W/m² 13,4 °C 23,5 °C 4,8 km/h (1 Bft)
22.06.2017 22:58 23,6 °C 23,6 °C 54 % 1010,9 hPa 0,0 mm 3,2 km/h (1 Bft) S 184 ° 0 min 0,000 mm 0,0 UV-I 0 W/m² 13,7 °C 23,6 °C 4,8 km/h (1 Bft)
22.06.2017 22:59 23,6 °C 23,6 °C 53 % 1010,9 hPa 0,0 mm 1,2 km/h (1 Bft) S 184 ° 0 min 0,000 mm 0,0 UV-I 0 W/m² 13,4 °C 23,6 °C 3,2 km/h (1 Bft)
22.06.2017 23:00 23,6 °C 23,6 °C 54 % 1011,0 hPa 0,0 mm 2,8 km/h (1 Bft) S 184 ° 0 min 0,000 mm 0,0 UV-I 0 W/m² 13,7 °C 23,6 °C 4,8 km/h (1 Bft)
22.06.2017 23:01 23,7 °C 23,7 °C 53 % 1011,0 hPa 0,0 mm 3,6 km/h (1 Bft) S 184 ° 0 min 0,051 mm 0,0 UV-I 0 W/m² 13,5 °C 23,7 °C 4,8 km/h (1 Bft)
22.06.2017 23:02 23,7 °C 23,7 °C 54 % 1011,0 hPa 0,0 mm 5,1 km/h (1 Bft) S 173 ° 0 min 0,000 mm 0,0 UV-I 0 W/m² 13,8 °C 23,7 °C 9,7 km/h (2 Bft)
22.06.2017 23:03 23,7 °C 23,7 °C 54 % 1011,0 hPa 0,0 mm 3,1 km/h (1 Bft) S 189 ° 0 min 0,000 mm 0,0 UV-I 0 W/m² 13,8 °C 23,7 °C 4,8 km/h (1 Bft)
22.06.2017 23:04 23,6 °C 23,7 °C 54 % 1011,1 hPa 0,0 mm 3,8 km/h (1 Bft) S 190 ° 0 min 0,000 mm 0,0 UV-I 0 W/m² 13,7 °C 23,6 °C 4,8 km/h (1 Bft)
22.06.2017 23:05 23,5 °C 23,6 °C 54 % 1011,1 hPa 0,0 mm 5,3 km/h (1 Bft) S-SW 193 ° 0 min 0,000 mm 0,0 UV-I 0 W/m² 13,6 °C 23,5 °C 8,0 km/h (2 Bft)
22.06.2017 23:06 23,4 °C 23,5 °C 55 % 1011,1 hPa 0,0 mm 5,5 km/h (1 Bft) S-SW 192 ° 0 min 0,000 mm 0,0 UV-I 0 W/m² 13,8 °C 23,4 °C 8,0 km/h (2 Bft)
22.06.2017 23:07 23,4 °C 23,4 °C 55 % 1011,1 hPa 0,0 mm 4,8 km/h (1 Bft) S-SW 192 ° 0 min 0,000 mm 0,0 UV-I 0 W/m² 13,8 °C 23,4 °C 6,4 km/h (2 Bft)
22.06.2017 23:08 23,4 °C 23,4 °C 54 % 1011,1 hPa 0,0 mm 4,0 km/h (1 Bft) S 189 ° 0 min 0,000 mm 0,0 UV-I 0 W/m² 13,6 °C 23,4 °C 6,4 km/h (2 Bft)
22.06.2017 23:09 23,4 °C 23,4 °C 54 % 1011,2 hPa 0,0 mm 4,2 km/h (1 Bft) S 189 ° 0 min 0,000 mm 0,0 UV-I 0 W/m² 13,6 °C 23,4 °C 6,4 km/h (2 Bft)
22.06.2017 23:10 23,4 °C 23,5 °C 55 % 1011,2 hPa 0,0 mm 3,2 km/h (1 Bft) S 188 ° 0 min 0,000 mm 0,0 UV-I 0 W/m² 13,8 °C 23,4 °C 3,2 km/h (1 Bft)
22.06.2017 23:11 23,5 °C 23,5 °C 54 % 1011,1 hPa 0,0 mm 4,6 km/h (1 Bft) S 190 ° 0 min 0,000 mm 0,0 UV-I 0 W/m² 13,6 °C 23,5 °C 6,4 km/h (2 Bft)
22.06.2017 23:12 23,5 °C 23,5 °C 54 % 1011,2 hPa 0,0 mm 1,1 km/h (1 Bft) S 190 ° 0 min 0,000 mm 0,0 UV-I 0 W/m² 13,6 °C 23,5 °C 3,2 km/h (1 Bft)
22.06.2017 23:13 23,6 °C 23,6 °C 54 % 1011,1 hPa 0,0 mm 1,7 km/h (1 Bft) S 190 ° 0 min 0,000 mm 0,0 UV-I 0 W/m² 13,7 °C 23,6 °C 3,2 km/h (1 Bft)
22.06.2017 23:14 23,6 °C 23,6 °C 55 % 1011,2 hPa 0,0 mm 2,2 km/h (1 Bft) S 190 ° 0 min 0,000 mm 0,0 UV-I 0 W/m² 14,0 °C 23,6 °C 4,8 km/h (1 Bft)
22.06.2017 23:15 23,6 °C 23,6 °C 54 % 1011,2 hPa 0,0 mm 0,9 km/h (0 Bft) S 190 ° 0 min 0,000 mm 0,0 UV-I 0 W/m² 13,7 °C 23,6 °C 3,2 km/h (1 Bft)
22.06.2017 23:16 23,6 °C 23,6 °C 54 % 1011,2 hPa 0,0 mm 1,7 km/h (1 Bft) S 179 ° 0 min 0,000 mm 0,0 UV-I 0 W/m² 13,7 °C 23,6 °C 4,8 km/h (1 Bft)
22.06.2017 23:17 23,6 °C 23,6 °C 54 % 1011,2 hPa 0,0 mm 2,5 km/h (1 Bft) S 180 ° 0 min 0,000 mm 0,0 UV-I 0 W/m² 13,7 °C 23,6 °C 3,2 km/h (1 Bft)
22.06.2017 23:18 23,6 °C 23,6 °C 54 % 1011,1 hPa 0,0 mm 3,1 km/h (1 Bft) W-SW 244 ° 0 min 0,000 mm 0,0 UV-I 0 W/m² 13,7 °C 23,6 °C 6,4 km/h (2 Bft)
22.06.2017 23:19 23,7 °C 23,7 °C 54 % 1011,1 hPa 0,0 mm 3,6 km/h (1 Bft) S-SW 192 ° 0 min 0,000 mm 0,0 UV-I 0 W/m² 13,8 °C 23,7 °C 6,4 km/h (2 Bft)
22.06.2017 23:20 23,8 °C 23,8 °C 54 % 1011,1 hPa 0,0 mm 4,3 km/h (1 Bft) W-SW 242 ° 0 min 0,000 mm 0,0 UV-I 0 W/m² 13,9 °C 23,8 °C 11,3 km/h (2 Bft)
22.06.2017 23:21 23,8 °C 23,8 °C 54 % 1011,2 hPa 0,0 mm 1,8 km/h (1 Bft) W-SW 242 ° 0 min 0,000 mm 0,0 UV-I 0 W/m² 13,9 °C 23,8 °C 3,2 km/h (1 Bft)
22.06.2017 23:22 23,9 °C 23,9 °C 53 % 1011,2 hPa 0,0 mm 3,4 km/h (1 Bft) W 274 ° 0 min 0,000 mm 0,0 UV-I 0 W/m² 13,7 °C 23,9 °C 6,4 km/h (2 Bft)
22.06.2017 23:23 23,9 °C 23,9 °C 54 % 1011,2 hPa 0,0 mm 3,6 km/h (1 Bft) SW 214 ° 0 min 0,000 mm 0,0 UV-I 0 W/m² 14,0 °C 23,9 °C 4,8 km/h (1 Bft)
22.06.2017 23:24 23,8 °C 23,9 °C 54 % 1011,2 hPa 0,0 mm 3,4 km/h (1 Bft) W 261 ° 0 min 0,000 mm 0,0 UV-I 0 W/m² 13,9 °C 23,8 °C 6,4 km/h (2 Bft)
22.06.2017 23:25 23,8 °C 23,8 °C 55 % 1011,2 hPa 0,0 mm 4,8 km/h (1 Bft) SW 231 ° 0 min 0,000 mm 0,0 UV-I 0 W/m² 14,2 °C 23,8 °C 6,4 km/h (2 Bft)
22.06.2017 23:26 23,7 °C 23,8 °C 55 % 1011,2 hPa 0,0 mm 3,6 km/h (1 Bft) SW 232 ° 0 min 0,000 mm 0,0 UV-I 0 W/m² 14,1 °C 23,7 °C 8,0 km/h (2 Bft)
22.06.2017 23:27 23,7 °C 23,7 °C 54 % 1011,2 hPa 0,0 mm 0,1 km/h (0 Bft) SW 232 ° 0 min 0,000 mm 0,0 UV-I 0 W/m² 13,8 °C 23,7 °C 1,6 km/h (1 Bft)
22.06.2017 23:28 23,6 °C 23,7 °C 55 % 1011,2 hPa 0,0 mm 3,6 km/h (1 Bft) SW 231 ° 0 min 0,000 mm 0,0 UV-I 0 W/m² 14,0 °C 23,6 °C 8,0 km/h (2 Bft)
22.06.2017 23:29 23,7 °C 23,7 °C 55 % 1011,3 hPa 0,0 mm 4,2 km/h (1 Bft) W 271 ° 0 min 0,000 mm 0,0 UV-I 0 W/m² 14,1 °C 23,7 °C 9,7 km/h (2 Bft)
22.06.2017 23:30 23,7 °C 23,7 °C 55 % 1011,4 hPa 0,0 mm 5,5 km/h (1 Bft) W 267 ° 0 min 0,000 mm 0,0 UV-I 0 W/m² 14,1 °C 23,7 °C 11,3 km/h (2 Bft)
22.06.2017 23:31 23,7 °C 23,7 °C 55 % 1011,4 hPa 0,0 mm 2,7 km/h (1 Bft) SW 223 ° 0 min 0,000 mm 0,0 UV-I 0 W/m² 14,1 °C 23,7 °C 4,8 km/h (1 Bft)
22.06.2017 23:32 23,6 °C 23,7 °C 56 % 1011,4 hPa 0,0 mm 2,5 km/h (1 Bft) SW 230 ° 0 min 0,000 mm 0,0 UV-I 0 W/m² 14,3 °C 23,6 °C 6,4 km/h (2 Bft)
22.06.2017 23:33 23,6 °C 23,6 °C 55 % 1011,3 hPa 0,0 mm 4,2 km/h (1 Bft) W-SW 252 ° 0 min 0,000 mm 0,0 UV-I 0 W/m² 14,0 °C 23,6 °C 9,7 km/h (2 Bft)
22.06.2017 23:34 23,7 °C 23,7 °C 55 % 1011,4 hPa 0,0 mm 2,1 km/h (1 Bft) W-SW 252 ° 0 min 0,000 mm 0,0 UV-I 0 W/m² 14,1 °C 23,7 °C 3,2 km/h (1 Bft)
22.06.2017 23:35 23,7 °C 23,7 °C 55 % 1011,4 hPa 0,0 mm 2,6 km/h (1 Bft) W 260 ° 0 min 0,000 mm 0,0 UV-I 0 W/m² 14,1 °C 23,7 °C 6,4 km/h (2 Bft)
22.06.2017 23:36 23,7 °C 23,7 °C 55 % 1011,4 hPa 0,0 mm 4,8 km/h (1 Bft) W 274 ° 0 min 0,000 mm 0,0 UV-I 0 W/m² 14,1 °C 23,7 °C 6,4 km/h (2 Bft)
22.06.2017 23:37 23,7 °C 23,7 °C 55 % 1011,4 hPa 0,0 mm 3,4 km/h (1 Bft) W 273 ° 0 min 0,000 mm 0,0 UV-I 0 W/m² 14,1 °C 23,7 °C 4,8 km/h (1 Bft)
22.06.2017 23:38 23,7 °C 23,7 °C 55 % 1011,4 hPa 0,0 mm 1,7 km/h (1 Bft) W 273 ° 0 min 0,000 mm 0,0 UV-I 0 W/m² 14,1 °C 23,7 °C 3,2 km/h (1 Bft)
22.06.2017 23:39 23,7 °C 23,7 °C 55 % 1011,4 hPa 0,0 mm 1,9 km/h (1 Bft) W-SW 252 ° 0 min 0,000 mm 0,0 UV-I 0 W/m² 14,1 °C 23,7 °C 4,8 km/h (1 Bft)
22.06.2017 23:40 23,7 °C 23,7 °C 55 % 1011,5 hPa 0,0 mm 2,1 km/h (1 Bft) W-SW 253 ° 0 min 0,000 mm 0,0 UV-I 0 W/m² 14,1 °C 23,7 °C 4,8 km/h (1 Bft)
22.06.2017 23:41 23,7 °C 23,7 °C 54 % 1011,5 hPa 0,0 mm 1,9 km/h (1 Bft) W-SW 253 ° 0 min 0,000 mm 0,0 UV-I 0 W/m² 13,8 °C 23,7 °C 4,8 km/h (1 Bft)
22.06.2017 23:42 23,7 °C 23,7 °C 54 % 1011,5 hPa 0,0 mm 1,6 km/h (1 Bft) W-SW 253 ° 0 min 0,000 mm 0,0 UV-I 0 W/m² 13,8 °C 23,7 °C 3,2 km/h (1 Bft)
22.06.2017 23:43 23,8 °C 23,8 °C 54 % 1011,5 hPa 0,0 mm 1,0 km/h (0 Bft) W-SW 249 ° 0 min 0,000 mm 0,0 UV-I 0 W/m² 13,9 °C 23,8 °C 4,8 km/h (1 Bft)
22.06.2017 23:44 23,8 °C 23,8 °C 54 % 1011,5 hPa 0,0 mm 4,1 km/h (1 Bft) W-SW 247 ° 0 min 0,000 mm 0,0 UV-I 0 W/m² 13,9 °C 23,8 °C 6,4 km/h (2 Bft)
22.06.2017 23:45 23,7 °C 23,8 °C 55 % 1011,5 hPa 0,0 mm 1,5 km/h (1 Bft) W-SW 247 ° 0 min 0,000 mm 0,0 UV-I 0 W/m² 14,1 °C 23,7 °C 3,2 km/h (1 Bft)
22.06.2017 23:46 23,7 °C 23,7 °C 54 % 1011,5 hPa 0,0 mm 2,6 km/h (1 Bft) W-SW 246 ° 0 min 0,000 mm 0,0 UV-I 0 W/m² 13,8 °C 23,7 °C 6,4 km/h (2 Bft)
22.06.2017 23:47 23,7 °C 23,7 °C 54 % 1011,5 hPa 0,0 mm 2,0 km/h (1 Bft) W-SW 242 ° 0 min 0,000 mm 0,0 UV-I 0 W/m² 13,8 °C 23,7 °C 4,8 km/h (1 Bft)
22.06.2017 23:48 23,7 °C 23,7 °C 55 % 1011,5 hPa 0,0 mm 1,0 km/h (0 Bft) W 265 ° 0 min 0,000 mm 0,0 UV-I 0 W/m² 14,1 °C 23,7 °C 4,8 km/h (1 Bft)
22.06.2017 23:49 23,7 °C 23,7 °C 55 % 1011,5 hPa 0,0 mm 2,7 km/h (1 Bft) W 263 ° 0 min 0,000 mm 0,0 UV-I 0 W/m² 14,1 °C 23,7 °C 4,8 km/h (1 Bft)
22.06.2017 23:50 23,6 °C 23,7 °C 55 % 1011,6 hPa 0,0 mm 2,2 km/h (1 Bft) W-SW 249 ° 0 min 0,000 mm 0,0 UV-I 0 W/m² 14,0 °C 23,6 °C 3,2 km/h (1 Bft)
22.06.2017 23:51 23,6 °C 23,6 °C 55 % 1011,5 hPa 0,0 mm 1,5 km/h (1 Bft) S-SW 207 ° 0 min 0,000 mm 0,0 UV-I 0 W/m² 14,0 °C 23,6 °C 4,8 km/h (1 Bft)
22.06.2017 23:52 23,6 °C 23,6 °C 55 % 1011,5 hPa 0,0 mm 3,0 km/h (1 Bft) W-NW 290 ° 0 min 0,000 mm 0,0 UV-I 0 W/m² 14,0 °C 23,6 °C 11,3 km/h (2 Bft)
22.06.2017 23:53 23,5 °C 23,6 °C 55 % 1011,5 hPa 0,0 mm 4,4 km/h (1 Bft) W 259 ° 0 min 0,000 mm 0,0 UV-I 0 W/m² 13,9 °C 23,5 °C 8,0 km/h (2 Bft)
22.06.2017 23:54 23,5 °C 23,5 °C 55 % 1011,6 hPa 0,0 mm 2,5 km/h (1 Bft) W-SW 258 ° 0 min 0,000 mm 0,0 UV-I 0 W/m² 13,9 °C 23,5 °C 4,8 km/h (1 Bft)
22.06.2017 23:55 23,5 °C 23,5 °C 54 % 1011,6 hPa 0,0 mm 1,9 km/h (1 Bft) W-SW 258 ° 0 min 0,000 mm 0,0 UV-I 0 W/m² 13,6 °C 23,5 °C 3,2 km/h (1 Bft)
22.06.2017 23:56 23,5 °C 23,5 °C 55 % 1011,6 hPa 0,0 mm 3,7 km/h (1 Bft) W 259 ° 0 min 0,000 mm 0,0 UV-I 0 W/m² 13,9 °C 23,5 °C 6,4 km/h (2 Bft)
22.06.2017 23:57 23,5 °C 23,5 °C 55 % 1011,5 hPa 0,0 mm 0,8 km/h (0 Bft) W 259 ° 0 min 0,000 mm 0,0 UV-I 0 W/m² 13,9 °C 23,5 °C 3,2 km/h (1 Bft)
22.06.2017 23:58 23,4 °C 23,5 °C 54 % 1011,6 hPa 0,0 mm 2,8 km/h (1 Bft) W 263 ° 0 min 0,000 mm 0,0 UV-I 0 W/m² 13,6 °C 23,4 °C 6,4 km/h (2 Bft)
22.06.2017 23:59 23,4 °C 23,5 °C 54 % 1011,6 hPa 0,0 mm 5,8 km/h (2 Bft) W 264 ° 0 min 0,000 mm 0,0 UV-I 0 W/m² 13,6 °C 23,4 °C 9,7 km/h (2 Bft)
_ Min-Zeit 05:08 05:08 16:17 18:47 - 22:10 - - - - - - 16:17 05:08 22:10
Minimum _ 15,0 °C 15,0 °C 35 % 1010,7 hPa - 0,0 km/h (0 Bft) - - - - - - 12,1 °C 15,0 °C 0,0 km/h (0 Bft)
_ Max-Zeit 15:55 15:56 05:17 07:17 23:59 14:56 - - 16:13 15:01 13:13 13:07 11:24 15:55 17:06
Maximum _ 29,3 °C 29,3 °C 89 % 1014,5 hPa 0,0 mm 15,6 km/h
W (3 Bft)
- - 1 min 0,635 mm 7,8 UV-I 944 W/m² 19,7 °C 29,3 °C 25,7 km/h
W-SW (4 Bft)
Durchschnitt _ 23,1 °C 23,1 °C 64 % 1012,8 hPa #0,0 mm 3,6 km/h (1 Bft) W - #7:53 h #5,080 mm 4,0 UV-I 277 W/m² 15,1 °C 23,1 °C 6,0 km/h (2 Bft)